# Wetter Temperatur Luftdruck Luftfeuchtigkeit Sichtweite Windgeschwindigkeit Windrichtung Zeit
1 Clouds 10 1023 57 10000 8.23 300 12:54 22.04.2021
2 Clouds 10 1023 57 10000 8.23 300 12:36 22.04.2021
3 Clouds 10 1022 53 10000 7.72 310 12:18 22.04.2021
4 Clouds 9 1022 57 10000 8.23 320 11:40 22.04.2021
5 Clouds 9 1022 57 10000 8.23 300 11:19 22.04.2021
6 Clouds 8 1022 61 10000 8.23 310 10:40 22.04.2021
7 Clouds 8 1022 61 10000 7.2 310 10:19 22.04.2021
8 Clouds 8 1022 61 10000 8.23 290 09:36 22.04.2021
9 Clouds 6 1021 70 10000 5.66 280 08:52 22.04.2021
10 Clouds 5 1021 70 10000 6.17 280 08:23 22.04.2021
11 Clouds 6 1021 70 10000 5.14 280 07:54 22.04.2021
12 Clouds 5 1021 75 10000 5.14 280 07:31 22.04.2021
13 Clouds 4 1021 70 10000 5.14 270 06:46 22.04.2021
14 Clouds 5 1021 70 10000 5.14 270 06:18 22.04.2021
15 Clouds 4 1020 75 10000 5.66 280 05:23 22.04.2021
16 Clouds 4 1020 70 10000 4.63 280 02:25 22.04.2021
17 Clouds 5 1020 75 10000 3.09 280 23:59 21.04.2021
18 Clouds 4 1020 75 10000 3.09 280 23:39 21.04.2021
19 Clouds 5 1019 70 10000 3.6 290 23:19 21.04.2021
20 Clear 5 1019 65 10000 4.12 300 22:40 21.04.2021
21 Clouds 6 1019 65 10000 5.66 320 22:19 21.04.2021
22 Clouds 6 1019 61 10000 5.66 320 21:41 21.04.2021
23 Clouds 7 1018 61 10000 6.69 320 21:19 21.04.2021
24 Clouds 8 1018 53 10000 6.69 330 20:31 21.04.2021
25 Clouds 9 1017 49 10000 8.75 310 19:49 21.04.2021
26 Clouds 10 1017 50 10000 8.23 320 19:27 21.04.2021
27 Clouds 11 1017 57 10000 8.23 330 18:52 21.04.2021
28 Clouds 12 1017 57 10000 8.23 330 18:34 21.04.2021
29 Clouds 12 1016 58 10000 8.75 320 17:59 21.04.2021
30 Clouds 12 1016 58 10000 8.75 320 17:40 21.04.2021
31 Clouds 13 1016 54 10000 8.23 320 17:22 21.04.2021
32 Clouds 13 1016 58 10000 8.23 330 16:40 21.04.2021
33 Clear 14 1015 54 10000 7.72 320 15:52 21.04.2021
34 Clear 16 1015 47 10000 7.2 310 15:26 21.04.2021
35 Clear 16 1015 44 10000 7.2 320 14:45 21.04.2021
36 Clear 16 1015 41 10000 6.69 310 14:27 21.04.2021
37 Clouds 16 1016 38 10000 6.17 300 13:50 21.04.2021
38 Clouds 16 1016 36 10000 5.66 320 13:22 21.04.2021
39 Clouds 16 1016 41 10000 4.12 310 12:47 21.04.2021
40 Clouds 15 1016 36 10000 4.63 330 12:23 21.04.2021
41 Clear 16 1016 38 10000 4.12 330 11:46 21.04.2021
42 Clear 14 1016 38 10000 2.06 300 11:23 21.04.2021
43 Clear 13 1016 47 10000 2.57 300 10:40 21.04.2021
44 Clear 11 1016 66 10000 2.57 290 09:57 21.04.2021
45 Clear 9 1015 76 10000 3.09 290 09:26 21.04.2021
46 Clear 8 1015 76 10000 1.03 0 08:50 21.04.2021
47 Clear 7 1015 81 10000 1.54 270 08:24 21.04.2021
48 Clear 5 1015 87 10000 1.03 0 07:57 21.04.2021
49 Clear 4 1015 93 10000 1.54 250 07:29 21.04.2021
50 Clear 4 1015 87 10000 0.51 0 06:22 21.04.2021
51 Clear 6 1015 93 10000 1.03 260 02:28 21.04.2021
52 Clear 8 1015 66 10000 0.51 0 00:20 21.04.2021
53 Clear 9 1015 61 10000 1.54 10 23:41 20.04.2021
54 Clear 10 1015 54 10000 2.06 360 22:50 20.04.2021
55 Clear 11 1015 50 10000 2.57 350 22:24 20.04.2021
56 Clear 11 1015 54 10000 2.57 310 21:59 20.04.2021
57 Clear 12 1015 54 10000 2.57 310 21:40 20.04.2021
58 Clear 12 1015 54 10000 3.09 310 21:22 20.04.2021
59 Clear 14 1015 50 10000 3.09 300 20:40 20.04.2021
60 Clear 15 1014 51 10000 4.12 300 20:21 20.04.2021
61 Clear 17 1014 41 10000 4.12 300 19:49 20.04.2021
62 Clear 17 1014 42 10000 3.09 290 19:29 20.04.2021
63 Clear 17 1014 36 10000 3.09 290 18:47 20.04.2021
64 Clear 18 1014 29 10000 3.6 290 18:29 20.04.2021
65 Clear 18 1014 34 10000 3.6 300 17:41 20.04.2021
66 Clear 18 1015 39 10000 2.57 300 16:53 20.04.2021
67 Clear 18 1015 39 10000 2.57 300 16:34 20.04.2021
68 Clouds 18 1015 42 10000 2.57 330 15:41 20.04.2021
69 Clouds 17 1016 45 10000 3.09 300 15:21 20.04.2021
70 Clouds 16 1016 51 10000 3.09 300 14:48 20.04.2021
71 Clouds 16 1016 51 10000 3.09 270 14:23 20.04.2021
72 Clouds 16 1016 51 10000 3.09 270 14:23 20.04.2021
73 Clear 16 1016 58 10000 3.09 290 13:29 20.04.2021
74 Clear 15 1017 58 10000 2.57 280 12:55 20.04.2021
75 Clear 14 1017 62 10000 1.54 0 12:27 20.04.2021
76 Clear 13 1017 66 10000 2.57 320 11:47 20.04.2021
77 Clear 13 1017 66 10000 2.57 320 11:47 20.04.2021
78 Clear 13 1017 71 10000 2.06 260 11:28 20.04.2021
79 Clear 12 1017 71 10000 2.06 290 10:48 20.04.2021
80 Clear 11 1017 76 10000 1.54 290 10:26 20.04.2021
81 Clear 10 1017 71 10000 1.03 0 09:50 20.04.2021
82 Clear 9 1018 81 10000 0.51 0 09:18 20.04.2021
83 Clear 8 1018 87 10000 1.03 0 08:42 20.04.2021
84 Fog 6 1017 93 10000 1.03 290 07:58 20.04.2021
85 Fog 6 1017 93 10000 1.03 290 07:32 20.04.2021
86 Fog 5 1018 100 100 1.03 300 05:42 20.04.2021
87 Fog 5 1018 93 100 0.51 0 04:57 20.04.2021
88 Fog 6 1018 93 300 1.03 0 03:41 20.04.2021
89 Fog 7 1019 100 6000 1.03 0 00:51 20.04.2021
90 Clear 8 1019 93 10000 1.03 270 23:54 19.04.2021
91 Clear 8 1019 93 10000 1.54 310 23:31 19.04.2021
92 Clear 9 1019 93 10000 0.51 280 22:39 19.04.2021
93 Clear 9 1019 87 10000 1.03 300 22:19 19.04.2021
94 Clear 10 1019 87 10000 0.51 260 21:38 19.04.2021
95 Clear 10 1019 81 10000 0.51 0 21:20 19.04.2021
96 Clear 10 1019 81 10000 0.51 0 21:20 19.04.2021
97 Clear 11 1019 81 10000 1.03 310 20:41 19.04.2021
98 Clear 12 1019 76 10000 1.54 300 20:20 19.04.2021
99 Clear 13 1019 71 10000 1.54 290 19:46 19.04.2021
100 Clear 14 1019 67 10000 1.54 310 19:25 19.04.2021
101 Clouds 14 1020 67 10000 1.03 0 18:49 19.04.2021
102 Clouds 14 1020 67 10000 1.03 0 18:24 19.04.2021
103 Clouds 14 1020 62 10000 1.03 0 17:58 19.04.2021
104 Clouds 14 1020 62 10000 1.03 0 17:39 19.04.2021
105 Clouds 13 1020 62 10000 1.54 120 17:20 19.04.2021
106 Clouds 14 1020 62 10000 2.06 100 16:41 19.04.2021
107 Clouds 15 1020 62 10000 1.54 0 16:21 19.04.2021
108 Clouds 14 1021 71 10000 3.09 90 15:40 19.04.2021
109 Clouds 13 1021 71 10000 3.09 90 15:22 19.04.2021
110 Clouds 13 1021 76 10000 2.57 90 14:38 19.04.2021
111 Clouds 13 1021 76 10000 2.57 60 14:19 19.04.2021
112 Clouds 12 1021 81 10000 1.54 90 13:44 19.04.2021
113 Clouds 12 1021 81 10000 2.06 30 13:25 19.04.2021
114 Clouds 11 1021 81 10000 2.06 60 12:43 19.04.2021
115 Clouds 11 1021 81 10000 2.06 60 12:43 19.04.2021
116 Clouds 10 1022 87 10000 2.57 60 12:23 19.04.2021
117 Clouds 10 1021 87 10000 2.57 50 11:54 19.04.2021
118 Clouds 10 1021 87 10000 3.09 70 11:26 19.04.2021
119 Clouds 9 1021 87 9000 3.09 60 10:47 19.04.2021
120 Clouds 9 1021 93 9000 3.09 70 10:25 19.04.2021
121 Clouds 9 1021 87 9000 3.6 80 09:50 19.04.2021
122 Clouds 9 1021 93 9000 4.12 70 09:30 19.04.2021
123 Clouds 9 1021 87 9000 3.6 80 08:58 19.04.2021
124 Clouds 8 1021 93 9000 3.6 80 08:26 19.04.2021
125 Clouds 8 1021 100 7000 4.12 60 07:48 19.04.2021
126 Clouds 7 1021 100 7000 3.09 60 07:19 19.04.2021
127 Clouds 7 1020 100 6000 2.57 60 06:36 19.04.2021
128 Fog 8 1020 100 1500 1.54 350 02:35 19.04.2021
129 Rain 9 1021 100 6000 1.03 10 00:49 19.04.2021
130 Clouds 9 1021 93 9000 2.05 18 23:50 18.04.2021
131 Clouds 9 1021 93 6000 1.03 0 23:18 18.04.2021
132 Rain 9 1021 93 5000 2.57 110 22:47 18.04.2021
133 Rain 9 1021 100 8000 2.06 70 22:29 18.04.2021
134 Rain 10 1021 87 10000 1.54 100 21:29 18.04.2021
135 Clouds 10 1020 87 10000 2.57 80 20:59 18.04.2021
136 Rain 10 1020 87 10000 2.57 80 20:39 18.04.2021
137 Rain 10 1020 87 10000 2.57 80 20:39 18.04.2021
138 Rain 11 1020 87 10000 3.09 70 20:20 18.04.2021
139 Clouds 11 1020 87 10000 4.12 70 19:45 18.04.2021
140 Clouds 11 1020 87 10000 5.14 80 19:25 18.04.2021
141 Rain 12 1020 82 9000 3.09 90 18:54 18.04.2021
142 Rain 14 1020 76 10000 2.06 100 18:30 18.04.2021
143 Rain 14 1020 71 10000 4.63 70 17:50 18.04.2021
144 Rain 14 1019 58 10000 5.14 70 17:30 18.04.2021
145 Rain 15 1019 51 10000 2.57 30 16:54 18.04.2021
146 Clouds 16 1019 51 10000 2.57 30 16:35 18.04.2021
147 Clouds 15 1020 58 10000 3.09 70 15:51 18.04.2021
148 Clouds 16 1020 58 10000 3.09 90 15:30 18.04.2021
149 Clouds 16 1020 55 10000 3.09 40 14:58 18.04.2021
150 Clouds 16 1020 55 10000 3.09 40 14:39 18.04.2021
151 Clouds 15 1020 58 10000 2.06 0 14:18 18.04.2021
152 Clouds 16 1020 62 10000 2.57 70 13:44 18.04.2021
153 Clouds 14 1021 62 10000 2.57 340 13:24 18.04.2021
154 Clouds 14 1021 62 10000 3.09 320 12:35 18.04.2021
155 Clear 12 1021 66 10000 2.06 350 11:51 18.04.2021
156 Clouds 11 1021 71 10000 1.54 0 11:27 18.04.2021
157 Clouds 11 1021 76 10000 1.54 80 10:51 18.04.2021
158 Clouds 10 1021 76 10000 1.54 80 10:32 18.04.2021
159 Clouds 9 1021 76 10000 1.54 40 09:57 18.04.2021
160 Clouds 9 1021 76 10000 1.54 40 09:38 18.04.2021
161 Clouds 9 1021 81 10000 2.06 50 09:19 18.04.2021
162 Clear 8 1021 81 10000 2.06 340 08:39 18.04.2021
163 Clouds 7 1021 87 10000 1.03 340 08:19 18.04.2021
164 Clouds 8 1020 79 10000 1.43 21 07:39 18.04.2021
165 Clouds 7 1021 81 10000 1.03 300 05:45 18.04.2021
166 Clouds 7 1021 87 10000 2.06 310 05:24 18.04.2021
167 Clear 7 1021 75 10000 1.54 280 03:26 18.04.2021
168 Clear 8 1022 75 10000 1.54 280 02:22 18.04.2021
169 Clouds 9 1022 74 10000 1.76 356 00:40 18.04.2021
170 Clear 10 1022 71 10000 2.57 50 23:39 17.04.2021
171 Clouds 10 1022 76 10000 1.03 310 22:55 17.04.2021
172 Clouds 10 1022 66 10000 1.03 300 22:31 17.04.2021
173 Clouds 11 1022 62 10000 1.03 0 21:51 17.04.2021
174 Clear 11 1022 66 10000 1.03 320 21:31 17.04.2021
175 Clear 12 1022 54 10000 1.03 340 20:59 17.04.2021
176 Clear 13 1022 54 10000 1.03 0 20:28 17.04.2021
177 Clear 13 1021 54 10000 2.57 10 19:46 17.04.2021
178 Clear 12 1021 50 10000 3.09 60 19:22 17.04.2021
179 Clear 13 1021 47 10000 3.09 20 18:57 17.04.2021
180 Clear 13 1021 47 10000 3.09 20 18:36 17.04.2021
181 Clear 13 1022 44 10000 2.06 80 17:58 17.04.2021
182 Clear 13 1022 44 10000 2.06 80 17:39 17.04.2021
183 Clear 13 1022 43 10000 3.09 50 16:54 17.04.2021
184 Clouds 13 1022 40 10000 3.6 40 16:28 17.04.2021
185 Clouds 13 1022 40 10000 3.09 50 15:50 17.04.2021
186 Clear 13 1022 47 10000 3.09 330 14:50 17.04.2021
187 Clear 13 1022 47 10000 3.09 330 14:50 17.04.2021
188 Clouds 12 1022 50 10000 3.09 330 14:31 17.04.2021
189 Clouds 12 1023 50 10000 2.57 340 13:48 17.04.2021
190 Clear 11 1023 50 10000 4.12 350 13:22 17.04.2021
191 Clear 11 1023 50 10000 3.6 310 12:41 17.04.2021
192 Clear 11 1023 53 10000 4.12 330 12:18 17.04.2021
193 Clear 9 1023 61 10000 5.14 300 11:39 17.04.2021
194 Clear 9 1024 61 10000 4.12 300 11:21 17.04.2021
195 Clear 8 1024 70 10000 4.12 280 10:43 17.04.2021
196 Clear 7 1024 81 10000 2.57 280 10:25 17.04.2021
197 Clear 5 1024 81 10000 2.57 290 09:22 17.04.2021
198 Clouds 5 1023 79 10000 0.45 270 08:38 17.04.2021
199 Clouds 4 1023 78 10000 0.45 248 08:19 17.04.2021
200 Clear 3 1025 86 10000 2.06 270 06:43 17.04.2021
201 Clouds 2 1026 82 10000 1.84 330 03:51 17.04.2021
202 Clouds 3 1026 72 10000 1.75 330 02:40 17.04.2021
203 Clear 3 1026 75 10000 1.03 0 00:44 17.04.2021
204 Clear 4 1026 75 10000 1.54 360 00:23 17.04.2021
205 Clear 4 1026 70 10000 1.54 10 23:46 16.04.2021
206 Clear 5 1026 65 10000 1.54 340 23:23 16.04.2021
207 Clear 5 1026 56 10000 1.54 20 22:43 16.04.2021
208 Clear 6 1026 52 10000 2.57 40 22:20 16.04.2021
209 Clear 7 1026 49 10000 3.6 30 21:50 16.04.2021
210 Clear 7 1026 56 10000 1.03 20 21:29 16.04.2021
211 Clear 8 1026 49 10000 2.06 50 20:48 16.04.2021
212 Clear 9 1026 46 10000 4.12 50 20:24 16.04.2021
213 Clear 9 1025 43 10000 4.63 50 19:50 16.04.2021
214 Clear 10 1025 37 10000 5.14 50 19:27 16.04.2021
215 Clear 12 1025 37 10000 4.12 50 18:28 16.04.2021
216 Clear 12 1025 37 10000 4.63 50 17:55 16.04.2021
217 Clear 12 1025 37 10000 5.14 50 17:21 16.04.2021
218 Clear 12 1025 37 10000 5.14 50 16:58 16.04.2021
219 Clear 12 1025 37 10000 5.14 50 16:40 16.04.2021
220 Clear 13 1025 35 10000 5.14 70 16:21 16.04.2021
221 Clear 13 1025 37 10000 5.14 50 15:40 16.04.2021
222 Clear 13 1026 35 10000 2.57 0 14:59 16.04.2021
223 Clear 13 1026 35 10000 2.57 0 14:40 16.04.2021
224 Clear 12 1026 37 10000 4.63 50 13:59 16.04.2021
225 Clear 12 1026 37 10000 4.63 50 13:37 16.04.2021
226 Clouds 11 1026 37 10000 4.12 60 13:18 16.04.2021
227 Clouds 11 1027 43 10000 5.14 50 12:44 16.04.2021
228 Clouds 10 1027 46 10000 3.09 30 12:23 16.04.2021
229 Clouds 10 1027 49 10000 2.06 50 11:43 16.04.2021
230 Clouds 9 1027 53 10000 2.57 50 11:23 16.04.2021
231 Clear 9 1027 57 10000 3.09 60 10:43 16.04.2021
232 Clear 8 1027 61 10000 1.54 20 10:23 16.04.2021
233 Clear 7 1027 65 10000 2.57 340 09:45 16.04.2021
234 Clear 7 1027 65 10000 2.57 340 09:45 16.04.2021
235 Clear 6 1027 70 10000 2.06 340 09:23 16.04.2021
236 Clear 5 1027 70 10000 2.57 350 08:45 16.04.2021
237 Clear 5 1027 70 10000 2.57 330 08:24 16.04.2021
238 Clear 5 1027 75 10000 2.06 310 07:47 16.04.2021
239 Clear 4 1027 80 10000 2.06 300 07:27 16.04.2021
240 Clear 4 1027 80 10000 2.06 300 06:46 16.04.2021
241 Rain 4 1027 75 10000 1.54 310 05:32 16.04.2021
242 Rain 5 1028 65 10000 1.54 300 03:59 16.04.2021
243 Clouds 5 1028 56 10000 2.06 10 00:47 16.04.2021
244 Clear 5 1028 56 10000 2.06 10 00:22 16.04.2021
245 Clouds 5 1028 56 10000 2.06 10 23:57 15.04.2021
246 Clouds 5 1028 56 10000 2.06 10 23:34 15.04.2021
247 Clear 5 1028 52 10000 2.57 360 22:50 15.04.2021
248 Clear 5 1028 52 10000 2.57 10 22:26 15.04.2021
249 Clear 6 1028 52 10000 2.06 360 21:47 15.04.2021
250 Clear 7 1028 49 10000 2.57 360 21:29 15.04.2021
251 Clear 7 1028 49 10000 3.6 20 20:56 15.04.2021
252 Clear 7 1028 49 10000 3.6 20 20:37 15.04.2021
253 Clear 8 1028 49 10000 2.57 10 20:18 15.04.2021
254 Clouds 8 1028 46 10000 4.12 350 19:41 15.04.2021
255 Clouds 9 1028 37 10000 4.63 30 19:21 15.04.2021
256 Clouds 10 1028 43 10000 4.63 360 18:41 15.04.2021
257 Clouds 10 1028 43 10000 4.63 350 18:19 15.04.2021
258 Rain 10 1028 40 10000 4.63 10 17:54 15.04.2021
259 Clear 10 1028 40 10000 5.14 360 17:31 15.04.2021
260 Clear 10 1028 40 10000 4.12 350 16:44 15.04.2021
261 Clear 10 1029 40 10000 3.6 40 16:25 15.04.2021
262 Clouds 10 1029 43 10000 3.09 40 15:51 15.04.2021
263 Clouds 10 1028 48 10000 0.45 248 15:28 15.04.2021
264 Clouds 10 1029 46 10000 3.6 360 14:45 15.04.2021
265 Clouds 9 1029 49 10000 3.09 340 14:27 15.04.2021
266 Clouds 9 1030 53 10000 4.12 340 13:57 15.04.2021
267 Rain 9 1028 52 10000 3.01 15 13:39 15.04.2021
268 Clouds 9 1030 46 10000 2.57 0 12:53 15.04.2021
269 Clouds 9 1030 42 10000 2.06 360 12:27 15.04.2021
270 Clouds 8 1030 65 10000 2.06 330 11:48 15.04.2021
271 Clouds 7 1030 65 10000 2.57 340 11:30 15.04.2021
272 Clouds 7 1030 65 10000 2.57 340 11:30 15.04.2021
273 Clear 7 1030 65 10000 1.03 0 10:59 15.04.2021
274 Clear 6 1030 65 10000 1.03 0 10:40 15.04.2021
275 Clear 5 1030 81 10000 1.03 0 10:22 15.04.2021
276 Clear 4 1030 87 10000 1.03 0 09:33 15.04.2021
277 Clouds 2 1030 93 8000 1.03 0 08:53 15.04.2021
278 Clouds 3 1030 93 8000 1.03 0 08:35 15.04.2021
279 Fog 1 1030 93 3500 1.03 0 07:47 15.04.2021
280 Clouds 1 1029 92 10000 0.95 5 07:18 15.04.2021
281 Fog 0 1029 100 10000 1.03 280 06:36 15.04.2021
282 Clear 1 1029 93 10000 1.03 300 04:57 15.04.2021
283 Clouds 2 1029 93 10000 1.03 290 03:59 15.04.2021
284 Clouds 2 1029 93 10000 2.06 300 00:18 15.04.2021
285 Clear 2 1029 93 10000 1.03 300 23:35 14.04.2021
286 Clear 3 1029 87 10000 0.51 0 22:58 14.04.2021
287 Clear 3 1029 87 10000 0.51 0 22:38 14.04.2021
288 Clear 3 1029 87 10000 2.57 280 22:19 14.04.2021
289 Clouds 3 1029 93 10000 2.06 310 21:41 14.04.2021
290 Clouds 4 1028 75 10000 2.57 90 21:22 14.04.2021
291 Clouds 4 1029 87 10000 7.2 20 20:45 14.04.2021
292 Clouds 5 1028 75 10000 3.6 320 20:27 14.04.2021
293 Clouds 6 1028 65 10000 5.14 310 19:46 14.04.2021
294 Clouds 7 1028 65 10000 4.63 310 19:19 14.04.2021
295 Clouds 8 1028 61 10000 3.6 330 18:54 14.04.2021
296 Clouds 8 1028 61 10000 1.54 0 18:20 14.04.2021
297 Clouds 8 1028 70 10000 3.6 350 17:57 14.04.2021
298 Clouds 8 1028 65 10000 8.23 360 17:24 14.04.2021
299 Clouds 9 1028 53 10000 5.66 310 16:52 14.04.2021
300 Clouds 10 1028 57 10000 6.17 320 16:24 14.04.2021
301 Clouds 9 1028 57 10000 5.66 310 15:42 14.04.2021
302 Clouds 11 1027 62 10000 3.56 330 15:22 14.04.2021
303 Clouds 8 1029 65 10000 8.75 340 14:44 14.04.2021
304 Rain 7 1029 75 10000 6.17 10 14:23 14.04.2021
305 Clouds 8 1029 53 10000 3.09 0 13:53 14.04.2021
306 Clouds 9 1029 57 10000 4.63 320 13:19 14.04.2021
307 Clouds 8 1029 53 10000 5.14 330 12:36 14.04.2021
308 Rain 6 1030 75 10000 5.14 340 11:43 14.04.2021
309 Clouds 7 1030 70 10000 3.6 310 11:25 14.04.2021
310 Clouds 6 1030 75 10000 3.09 290 10:38 14.04.2021
311 Clouds 4 1030 87 10000 3.09 290 09:59 14.04.2021
312 Clouds 4 1030 87 10000 3.09 290 09:41 14.04.2021
313 Clouds 4 1030 87 10000 2.57 270 09:20 14.04.2021
314 Clouds 2 1030 93 10000 1.54 270 08:34 14.04.2021
315 Clouds 2 1030 93 10000 1.54 260 07:58 14.04.2021
316 Clouds -1 1029 93 10000 1.54 260 06:48 14.04.2021
317 Clouds -1 1029 93 10000 1.54 240 06:23 14.04.2021
318 Clouds 1 1030 86 10000 2.57 260 03:59 14.04.2021
319 Clear 1 1030 93 10000 2.57 270 01:42 14.04.2021
320 Clear 1 1030 93 10000 2.57 270 01:42 14.04.2021
321 Clear 1 1030 93 10000 2.57 270 01:42 14.04.2021
322 Clouds 1 1030 93 10000 1.54 270 00:37 14.04.2021
323 Clear 1 1030 100 10000 1.54 270 23:46 13.04.2021
324 Clear 2 1030 86 10000 2.06 260 23:21 13.04.2021
325 Clear 3 1030 87 10000 1.54 270 22:41 13.04.2021
326 Clouds 3 1030 81 10000 1.54 330 22:19 13.04.2021
327 Clouds 4 1030 87 10000 2.06 310 21:45 13.04.2021
328 Clouds 4 1030 87 10000 2.57 290 21:27 13.04.2021
329 Clouds 5 1029 70 10000 2.06 310 20:42 13.04.2021
330 Rain 6 1029 81 10000 1.03 0 20:21 13.04.2021
331 Clouds 6 1029 75 10000 3.6 350 19:43 13.04.2021
332 Clouds 6 1029 75 10000 5.14 300 19:23 13.04.2021
333 Clouds 7 1029 70 10000 4.63 280 18:37 13.04.2021
334 Rain 7 1029 70 10000 8.23 290 17:54 13.04.2021
335 Clouds 8 1029 70 10000 8.23 290 17:36 13.04.2021
336 Clouds 8 1029 75 10000 6.17 300 17:18 13.04.2021
337 Clouds 8 1029 70 10000 5.14 300 16:42 13.04.2021
338 Clouds 8 1030 87 10000 5.66 350 16:20 13.04.2021
339 Rain 9 1030 75 10000 9.26 310 15:41 13.04.2021
340 Clouds 9 1029 70 10000 4.12 320 15:21 13.04.2021
341 Clouds 9 1029 61 10000 6.17 320 14:41 13.04.2021
342 Clouds 9 1029 57 10000 5.66 310 14:18 13.04.2021
343 Clouds 8 1029 57 10000 6.17 270 13:45 13.04.2021
344 Clouds 9 1029 57 10000 6.69 290 13:24 13.04.2021
345 Clouds 8 1029 57 10000 6.69 290 12:55 13.04.2021
346 Clouds 8 1030 61 10000 6.69 300 12:24 13.04.2021
347 Clouds 7 1030 70 10000 7.2 290 11:52 13.04.2021
348 Clouds 6 1030 75 10000 6.17 300 11:29 13.04.2021
349 Clouds 7 1030 75 10000 6.17 280 10:45 13.04.2021
350 Clouds 6 1030 81 10000 5.14 280 10:21 13.04.2021
351 Clouds 5 1030 81 10000 5.14 280 09:53 13.04.2021
352 Clouds 5 1030 81 10000 5.14 280 09:34 13.04.2021
353 Clouds 3 1029 87 10000 4.12 280 08:54 13.04.2021
354 Clouds 3 1029 87 10000 4.12 280 08:36 13.04.2021
355 Clouds 2 1029 93 10000 4.12 260 08:18 13.04.2021
356 Clouds 2 1029 86 10000 4.12 260 07:35 13.04.2021
357 Clouds 1 1028 93 10000 3.09 260 06:31 13.04.2021
358 Clear 1 1028 86 10000 3.09 240 04:45 13.04.2021
359 Clear 1 1028 86 10000 2.57 240 01:37 13.04.2021
360 Clear 1 1027 86 10000 2.57 250 00:18 13.04.2021
361 Clear 2 1027 80 10000 2.06 260 23:42 12.04.2021
362 Clear 2 1027 80 10000 2.57 230 23:20 12.04.2021
363 Clear 2 1027 80 10000 2.06 250 22:38 12.04.2021
364 Clouds 3 1027 75 10000 2.06 270 21:56 12.04.2021
365 Clouds 3 1027 75 10000 2.06 270 21:36 12.04.2021
366 Clouds 3 1027 75 10000 2.57 310 21:18 12.04.2021
367 Clouds 4 1026 75 10000 3.09 280 20:38 12.04.2021
368 Clouds 5 1026 70 10000 1.54 280 20:20 12.04.2021
369 Clouds 5 1026 70 10000 1.54 280 20:20 12.04.2021
370 Clouds 6 1026 70 10000 2.57 220 19:42 12.04.2021
371 Clouds 6 1026 75 10000 4.12 210 19:22 12.04.2021
372 Rain 7 1026 75 10000 3.09 200 18:56 12.04.2021
373 Clouds 7 1026 75 10000 3.09 200 18:37 12.04.2021
374 Clouds 7 1026 75 10000 4.12 200 18:18 12.04.2021
375 Rain 7 1025 95 10000 5.08 286 17:42 12.04.2021
376 Clouds 7 1025 81 10000 4.12 200 17:20 12.04.2021
377 Rain 8 1025 65 10000 9.77 280 16:43 12.04.2021
378 Clouds 8 1024 49 10000 4.63 260 16:24 12.04.2021
379 Clouds 9 1025 57 10000 5.14 230 15:47 12.04.2021
380 Clouds 9 1024 59 10000 0.89 248 15:21 12.04.2021
381 Clouds 9 1024 54 10000 1.79 248 14:49 12.04.2021
382 Clouds 9 1024 61 10000 3.09 290 14:29 12.04.2021
383 Clouds 9 1024 57 10000 5.66 270 13:43 12.04.2021
384 Clouds 8 1024 57 10000 5.66 270 13:21 12.04.2021
385 Clouds 7 1024 56 10000 6.17 290 12:44 12.04.2021
386 Clouds 7 1024 65 10000 6.17 270 12:23 12.04.2021
387 Clouds 7 1024 61 10000 5.14 280 11:51 12.04.2021
388 Clouds 7 1024 75 10000 5.66 290 10:54 12.04.2021
389 Clouds 5 1023 81 10000 4.63 280 10:28 12.04.2021
390 Clouds 5 1023 81 10000 3.6 270 09:59 12.04.2021
391 Clouds 5 1023 81 10000 3.6 270 09:40 12.04.2021
392 Clear 3 1023 87 10000 3.09 260 08:59 12.04.2021
393 Clear 3 1022 93 10000 2.57 260 08:30 12.04.2021
394 Clear 2 1021 86 10000 2.57 260 07:31 12.04.2021
395 Clear 2 1021 86 10000 3.09 270 06:49 12.04.2021
396 Clear 2 1021 93 10000 3.6 270 05:51 12.04.2021
397 Clear 3 1019 87 10000 3.6 280 03:58 12.04.2021
398 Clouds 4 1017 87 10000 5.14 290 00:50 12.04.2021
399 Clouds 4 1017 87 10000 4.63 290 00:23 12.04.2021
400 Clouds 4 1017 87 10000 3.6 290 23:45 11.04.2021
401 Clouds 5 1016 81 10000 5.14 290 23:23 11.04.2021
402 Clouds 4 1016 81 10000 3.6 300 22:41 11.04.2021
403 Clouds 4 1016 81 10000 4.63 310 22:22 11.04.2021
404 Clouds 4 1016 87 10000 3.09 300 21:45 11.04.2021
405 Clouds 5 1015 87 10000 3.6 300 21:27 11.04.2021
406 Clouds 4 1015 87 10000 3.09 290 20:52 11.04.2021
407 Clouds 5 1014 87 10000 3.6 290 20:28 11.04.2021
408 Rain 4 1014 93 10000 2.57 280 19:44 11.04.2021
409 Rain 4 1013 93 10000 2.57 290 19:22 11.04.2021
410 Rain 4 1013 87 10000 3.6 290 19:00 11.04.2021
411 Rain 5 1013 87 10000 3.6 290 18:41 11.04.2021
412 Rain 5 1013 93 10000 6.17 300 18:22 11.04.2021
413 Rain 5 1012 93 10000 6.69 300 17:44 11.04.2021
414 Rain 5 1012 87 10000 5.66 300 17:24 11.04.2021
415 Rain 6 1012 87 10000 6.69 290 16:46 11.04.2021
416 Rain 6 1011 87 10000 6.17 290 16:22 11.04.2021
417 Rain 6 1011 87 10000 5.66 290 15:48 11.04.2021
418 Rain 7 1011 87 10000 6.17 280 15:26 11.04.2021
419 Clouds 7 1010 81 10000 6.69 280 14:52 11.04.2021
420 Clouds 7 1010 87 10000 6.69 280 14:31 11.04.2021
421 Clouds 8 1009 87 10000 6.17 280 13:51 11.04.2021
422 Clouds 8 1009 87 10000 6.17 280 13:30 11.04.2021
423 Clouds 9 1008 87 10000 6.17 270 12:48 11.04.2021
424 Clouds 9 1008 93 9000 5.66 280 12:21 11.04.2021
425 Clouds 11 1008 81 10000 4.63 250 11:49 11.04.2021
426 Clouds 11 1007 82 10000 4.12 240 11:22 11.04.2021
427 Clouds 11 1007 82 10000 2.57 230 10:47 11.04.2021
428 Clouds 11 1007 82 10000 2.57 230 10:47 11.04.2021
429 Clouds 10 1006 87 10000 2.57 190 10:27 11.04.2021
430 Clouds 10 1006 87 10000 2.06 190 09:56 11.04.2021
431 Clouds 10 1006 87 10000 2.06 190 09:32 11.04.2021
432 Clouds 9 1006 93 10000 3.09 160 08:51 11.04.2021
433 Clouds 9 1006 93 10000 3.09 170 08:24 11.04.2021
434 Clouds 8 1006 100 9000 4.12 150 07:22 11.04.2021
435 Clouds 8 1006 93 6000 3.09 150 06:50 11.04.2021
436 Rain 8 1006 93 6000 2.57 130 05:41 11.04.2021
437 Rain 8 1007 93 7000 2.06 110 05:19 11.04.2021
438 Clouds 8 1007 100 6000 2.06 130 04:34 11.04.2021
439 Clouds 8 1009 93 5000 3.6 120 01:45 11.04.2021
440 Clouds 7 1010 93 4500 3.6 120 00:33 11.04.2021
441 Rain 7 1010 93 6000 4.63 120 23:47 10.04.2021
442 Rain 7 1010 93 6000 4.63 110 23:24 10.04.2021
443 Clouds 8 1011 93 6000 5.14 100 22:43 10.04.2021
444 Clouds 7 1011 93 9000 5.66 100 22:20 10.04.2021
445 Clouds 7 1012 93 8000 6.17 90 21:40 10.04.2021
446 Rain 7 1012 93 10000 6.17 100 21:20 10.04.2021
447 Rain 7 1012 93 9000 5.66 100 20:42 10.04.2021
448 Rain 7 1013 93 10000 5.66 90 20:23 10.04.2021
449 Rain 7 1013 87 10000 5.14 90 19:44 10.04.2021
450 Rain 8 1013 87 10000 5.14 90 19:25 10.04.2021
451 Rain 7 1014 81 10000 4.63 100 18:44 10.04.2021
452 Rain 7 1014 76 10000 4.63 90 18:25 10.04.2021
453 Rain 8 1014 71 10000 4.63 100 17:37 10.04.2021
454 Rain 9 1015 71 10000 5.14 100 16:57 10.04.2021
455 Clouds 9 1015 66 10000 5.66 90 16:27 10.04.2021
456 Rain 9 1015 71 10000 5.14 80 15:53 10.04.2021
457 Clouds 8 1016 76 10000 5.14 90 15:19 10.04.2021
458 Clouds 9 1016 71 10000 5.14 80 14:41 10.04.2021
459 Clouds 8 1016 81 10000 4.12 70 14:18 10.04.2021
460 Clouds 8 1016 81 10000 3.6 70 13:40 10.04.2021
461 Clouds 7 1016 87 10000 4.63 70 12:49 10.04.2021
462 Clouds 7 1016 81 10000 4.12 80 12:26 10.04.2021
463 Clouds 6 1016 87 10000 4.12 80 11:47 10.04.2021
464 Clouds 6 1016 93 10000 3.6 80 11:25 10.04.2021
465 Clouds 6 1015 93 9000 3.6 60 10:52 10.04.2021
466 Clouds 5 1015 93 10000 2.06 60 10:31 10.04.2021
467 Clouds 6 1015 93 10000 2.57 50 09:45 10.04.2021
468 Clouds 5 1014 93 10000 2.57 50 09:20 10.04.2021
469 Clouds 5 1014 93 10000 2.06 40 08:47 10.04.2021
470 Clouds 5 1014 93 10000 2.06 40 08:28 10.04.2021
471 Clouds 5 1014 93 10000 3.09 20 07:38 10.04.2021
472 Clouds 5 1013 93 10000 1.54 360 07:19 10.04.2021
473 Clouds 5 1013 93 10000 1.54 10 06:24 10.04.2021
474 Rain 6 1012 93 10000 0.51 0 03:49 10.04.2021
475 Clear 5 1012 93 10000 0.51 350 02:50 10.04.2021
476 Clear 6 1012 93 10000 0.51 30 02:18 10.04.2021
477 Clear 6 1012 87 10000 1.54 160 00:41 10.04.2021
478 Clouds 6 1013 100 10000 1.42 26 00:19 10.04.2021
479 Rain 6 1013 87 10000 1.03 0 23:37 09.04.2021
480 Clear 6 1013 81 10000 2.57 360 22:58 09.04.2021
481 Clear 7 1013 81 10000 2.57 360 22:37 09.04.2021
482 Clear 7 1012 71 10000 4.12 340 21:55 09.04.2021
483 Clear 7 1012 71 10000 4.12 340 21:37 09.04.2021
484 Clear 8 1012 53 10000 1.54 250 21:18 09.04.2021
485 Clear 10 1012 53 10000 1.54 250 20:40 09.04.2021
486 Clear 10 1012 53 10000 2.06 260 20:21 09.04.2021
487 Clear 10 1012 53 10000 2.57 260 19:43 09.04.2021
488 Clear 12 1012 50 10000 4.12 260 19:23 09.04.2021
489 Clear 12 1012 50 10000 4.12 260 18:50 09.04.2021
490 Clouds 13 1012 55 10000 4.93 258 18:29 09.04.2021
491 Clouds 13 1011 51 10000 0.89 293 17:52 09.04.2021
492 Clouds 13 1011 49 10000 1.34 248 17:33 09.04.2021
493 Clouds 12 1012 50 10000 6.17 260 16:55 09.04.2021
494 Clouds 12 1012 50 10000 6.17 260 16:32 09.04.2021
495 Clouds 12 1012 50 10000 8.23 250 15:50 09.04.2021
496 Clouds 12 1012 54 10000 6.69 260 15:25 09.04.2021
497 Clouds 13 1012 54 10000 6.69 260 14:47 09.04.2021
498 Clouds 12 1012 58 10000 7.72 250 14:29 09.04.2021
499 Clouds 12 1012 54 10000 5.66 250 13:49 09.04.2021
500 Clouds 12 1012 57 10000 7.2 250 13:23 09.04.2021
501 Clouds 11 1012 57 10000 8.23 250 12:48 09.04.2021
502 Clouds 11 1012 53 10000 7.2 260 12:27 09.04.2021
503 Clouds 11 1013 53 10000 7.72 250 11:44 09.04.2021
504 Clear 10 1012 53 10000 7.2 240 11:21 09.04.2021
505 Clear 10 1013 53 10000 6.17 240 10:40 09.04.2021
506 Clear 9 1013 57 10000 4.12 220 10:18 09.04.2021
507 Clouds 7 1013 61 10000 4.12 210 09:29 09.04.2021
508 Clouds 6 1013 65 10000 3.6 190 08:56 09.04.2021
509 Clouds 6 1013 65 10000 3.6 190 08:34 09.04.2021
510 Clouds 4 1013 65 10000 4.12 200 07:34 09.04.2021
511 Clear 4 1014 65 10000 2.57 200 06:30 09.04.2021
512 Clear 4 1014 65 10000 3.09 180 05:44 09.04.2021
513 Clear 3 1016 69 10000 3.6 180 03:43 09.04.2021
514 Clear 3 1018 60 10000 3.09 190 00:39 09.04.2021
515 Clear 3 1018 60 10000 3.09 190 00:21 09.04.2021
516 Clear 3 1019 56 10000 3.09 190 23:56 08.04.2021
517 Clear 3 1019 56 10000 3.09 200 22:58 08.04.2021
518 Clear 4 1019 56 10000 3.09 200 22:36 08.04.2021
519 Clear 4 1019 56 10000 3.6 200 22:18 08.04.2021
520 Clear 4 1020 56 10000 3.6 200 21:42 08.04.2021
521 Clear 5 1020 56 10000 3.09 210 21:23 08.04.2021
522 Clear 4 1020 52 10000 3.6 210 20:59 08.04.2021
523 Clear 5 1020 52 10000 3.6 210 20:40 08.04.2021
524 Clouds 5 1020 52 10000 4.63 240 20:19 08.04.2021
525 Clouds 6 1020 52 10000 4.63 240 19:41 08.04.2021
526 Clouds 7 1020 52 10000 5.66 240 19:19 08.04.2021
527 Clouds 7 1020 49 10000 5.66 240 18:43 08.04.2021
528 Clouds 7 1021 52 10000 5.66 250 18:19 08.04.2021
529 Clouds 7 1021 52 10000 5.66 250 17:42 08.04.2021
530 Clouds 7 1021 52 10000 5.66 250 17:21 08.04.2021
531 Clouds 7 1020 61 10000 1.34 225 16:45 08.04.2021
532 Clouds 7 1022 60 10000 5.66 250 16:23 08.04.2021
533 Clouds 7 1021 60 10000 1.34 248 15:46 08.04.2021
534 Clouds 7 1022 61 10000 6.69 260 15:28 08.04.2021
535 Clouds 7 1022 61 10000 6.69 260 15:28 08.04.2021
536 Clouds 7 1022 65 10000 6.17 260 14:44 08.04.2021
537 Clouds 6 1022 60 10000 5.66 260 14:22 08.04.2021
538 Clouds 7 1022 65 10000 6.17 270 13:49 08.04.2021
539 Clouds 6 1022 65 10000 5.14 270 13:25 08.04.2021
540 Clouds 5 1022 70 10000 5.66 270 12:58 08.04.2021
541 Clouds 6 1022 70 10000 5.66 270 12:34 08.04.2021
542 Clouds 6 1022 70 10000 5.66 270 11:57 08.04.2021
543 Clouds 5 1022 75 10000 5.66 280 11:27 08.04.2021
544 Clouds 5 1021 81 10000 6.17 270 10:56 08.04.2021
545 Clouds 4 1021 81 10000 6.17 270 10:26 08.04.2021
546 Clouds 3 1021 81 10000 6.17 260 09:46 08.04.2021
547 Clouds 3 1021 87 10000 5.14 260 09:27 08.04.2021
548 Clouds 2 1021 93 9000 5.14 270 08:44 08.04.2021
549 Rain 2 1020 86 10000 5.66 270 08:22 08.04.2021
550 Clouds 2 1020 86 10000 5.14 260 07:46 08.04.2021
551 Clouds 1 1019 86 10000 4.12 270 06:46 08.04.2021
552 Clouds 2 1017 80 10000 6.69 280 01:27 08.04.2021
553 Clouds 2 1016 93 10000 7.2 280 00:32 08.04.2021
554 Clouds 2 1016 93 10000 6.69 270 23:50 07.04.2021
555 Clouds 2 1015 93 10000 5.66 270 23:27 07.04.2021
556 Clouds 2 1015 86 10000 7.2 280 22:58 07.04.2021
557 Clouds 2 1015 86 10000 7.2 280 22:39 07.04.2021
558 Clouds 2 1015 87 10000 6.17 280 22:20 07.04.2021
559 Clouds 3 1015 87 10000 5.66 270 21:34 07.04.2021
560 Clouds 3 1015 87 10000 5.66 270 21:34 07.04.2021
561 Clouds 3 1013 87 10000 8.75 280 20:56 07.04.2021
562 Clouds 3 1013 87 10000 8.75 280 20:37 07.04.2021
563 Rain 3 1013 87 10000 7.72 300 20:18 07.04.2021
564 Clouds 4 1013 87 6000 8.23 310 19:40 07.04.2021
565 Clouds 4 1012 87 10000 8.23 300 19:22 07.04.2021
566 Clouds 4 1012 75 10000 7.72 280 18:42 07.04.2021
567 Rain 5 1012 81 10000 5.14 290 18:18 07.04.2021
568 Clouds 5 1011 87 10000 6.69 290 17:47 07.04.2021
569 Rain 5 1011 87 10000 5.14 320 17:28 07.04.2021
570 Clouds 5 1011 93 10000 5.14 300 16:46 07.04.2021
571 Clouds 6 1011 81 10000 5.66 280 16:21 07.04.2021
572 Rain 6 1010 81 10000 6.17 260 15:56 07.04.2021
573 Clouds 6 1010 81 10000 6.17 260 15:38 07.04.2021
574 Clouds 6 1010 76 2756 0.89 270 14:48 07.04.2021
575 Clouds 6 1011 75 10000 6.69 260 14:25 07.04.2021
576 Clouds 6 1011 70 10000 7.2 260 13:45 07.04.2021
577 Clouds 5 1010 75 10000 6.17 250 13:20 07.04.2021
578 Clouds 4 1011 81 10000 6.17 250 12:47 07.04.2021
579 Clouds 4 1010 81 10000 7.72 250 12:21 07.04.2021
580 Clouds 4 1010 75 10000 8.23 250 11:45 07.04.2021
581 Clouds 4 1010 87 10000 7.2 250 11:24 07.04.2021
582 Clouds 3 1010 80 10000 8.23 240 10:50 07.04.2021
583 Clouds 3 1009 81 10000 1.34 225 09:51 07.04.2021
584 Clouds 2 1010 80 10000 6.17 250 09:28 07.04.2021
585 Clouds 1 1010 86 10000 6.17 250 08:53 07.04.2021
586 Clouds 1 1010 86 10000 6.17 250 08:32 07.04.2021
587 Clouds 1 1009 86 10000 5.66 260 07:54 07.04.2021
588 Clouds 0 1009 86 10000 4.12 260 07:29 07.04.2021
589 Clouds -1 1009 86 10000 5.14 260 06:44 07.04.2021
590 Clouds 0 1009 86 10000 4.63 260 05:43 07.04.2021
591 Clouds 1 1008 86 10000 6.69 280 03:18 07.04.2021
592 Snow 1 1007 86 10000 5.66 280 23:50 06.04.2021
593 Snow 1 1007 86 10000 5.66 280 23:23 06.04.2021
594 Clouds 1 1007 86 10000 5.14 280 22:57 06.04.2021
595 Clouds 1 1007 86 10000 5.14 280 22:57 06.04.2021
596 Snow 1 1007 86 6000 5.14 270 22:21 06.04.2021
597 Snow 1 1007 86 10000 5.14 270 21:55 06.04.2021
598 Snow 1 1007 86 10000 5.14 270 21:37 06.04.2021
599 Clouds 1 1006 80 10000 5.14 260 21:18 06.04.2021
600 Clouds 1 1006 80 10000 4.12 260 20:41 06.04.2021
601 Snow 1 1006 80 10000 6.17 270 20:20 06.04.2021
602 Clouds 2 1006 86 10000 5.66 270 19:44 06.04.2021
603 Clouds 3 1006 75 10000 7.2 270 19:25 06.04.2021
604 Clouds 3 1006 86 10000 4.63 280 18:45 06.04.2021
605 Clouds 3 1006 93 7000 7.2 300 18:22 06.04.2021
606 Clouds 4 1006 80 10000 9.26 340 17:45 06.04.2021
607 Clouds 5 1006 70 10000 8.75 270 17:20 06.04.2021
608 Clouds 6 1006 65 10000 8.23 280 16:49 06.04.2021
609 Clouds 5 1005 77 10000 1.79 248 16:30 06.04.2021
610 Clouds 5 1006 75 10000 7.2 280 15:28 06.04.2021
611 Clouds 4 1006 83 10000 0.89 248 14:51 06.04.2021
612 Snow 5 1007 86 1600 12.35 290 14:32 06.04.2021
613 Clouds 5 1006 60 10000 7.72 280 13:59 06.04.2021
614 Clouds 5 1006 60 10000 7.72 280 13:39 06.04.2021
615 Clouds 5 1007 65 10000 8.23 280 13:20 06.04.2021
616 Clouds 5 1007 70 10000 7.2 280 12:38 06.04.2021
617 Clouds 5 1007 70 10000 8.23 280 12:19 06.04.2021
618 Clouds 4 1007 75 10000 7.72 280 11:48 06.04.2021
619 Clouds 4 1008 75 10000 7.2 270 11:20 06.04.2021
620 Clouds 3 1008 80 10000 7.2 270 10:46 06.04.2021
621 Clouds 3 1007 86 10000 6.17 270 10:24 06.04.2021
622 Clouds 2 1008 86 10000 5.66 270 09:47 06.04.2021
623 Clouds 2 1007 86 10000 7.2 270 09:26 06.04.2021
624 Clouds 1 1007 93 10000 4.12 270 08:38 06.04.2021
625 Clouds 1 1007 93 10000 4.63 280 07:47 06.04.2021
626 Snow 1 1007 93 10000 3.09 270 06:55 06.04.2021
627 Clouds -1 1007 93 10000 2.57 260 05:18 06.04.2021
628 Snow 0 1007 93 9000 3.6 240 01:54 06.04.2021
629 Snow 0 1007 86 10000 3.09 260 00:43 06.04.2021
630 Clouds 0 1007 86 10000 5.14 270 00:20 06.04.2021
631 Clouds 0 1007 86 10000 3.6 260 23:42 05.04.2021
632 Clouds 0 1007 93 10000 4.63 260 23:19 05.04.2021
633 Clouds 0 1007 86 10000 5.14 260 22:43 05.04.2021
634 Clear 0 1007 80 10000 5.66 270 22:24 05.04.2021
635 Clouds 0 1007 80 10000 6.69 280 21:39 05.04.2021
636 Clouds 0 1007 86 10000 8.23 270 21:20 05.04.2021
637 Clouds 1 1007 80 10000 6.69 280 20:42 05.04.2021
638 Clouds 1 1007 74 10000 6.17 270 20:23 05.04.2021
639 Clouds 2 1006 64 10000 8.23 290 19:39 05.04.2021
640 Clouds 2 1006 75 10000 5.14 300 19:19 05.04.2021
641 Clouds 2 1006 75 10000 5.14 300 19:19 05.04.2021
642 Snow 3 1006 75 10000 5.14 310 18:43 05.04.2021
643 Clouds 3 1006 64 10000 6.69 320 18:25 05.04.2021
644 Clouds 4 1005 56 10000 7.2 280 17:48 05.04.2021
645 Clouds 5 1005 65 10000 8.23 300 17:25 05.04.2021
646 Clouds 4 1005 65 10000 9.26 300 16:57 05.04.2021
647 Clouds 4 1005 65 10000 9.26 300 16:38 05.04.2021
648 Rain 4 1004 56 10000 8.75 300 16:18 05.04.2021
649 Clouds 4 1004 70 10000 8.75 290 15:47 05.04.2021
650 Clouds 3 1004 83 4028 1.34 248 15:22 05.04.2021
651 Snow 3 1004 70 10000 9.26 290 14:36 05.04.2021
652 Rain 3 1003 81 10000 9.26 300 13:56 05.04.2021
653 Clouds 3 1003 80 10000 7.72 310 13:31 05.04.2021
654 Snow 2 1003 86 2000 9.77 320 12:47 05.04.2021
655 Snow 3 1002 93 1000 9.26 310 12:26 05.04.2021
656 Rain 3 1002 81 10000 7.2 290 11:53 05.04.2021
657 Clouds 4 1002 81 10000 7.2 290 11:31 05.04.2021
658 Clouds 4 1001 87 10000 7.72 300 10:56 05.04.2021
659 Rain 4 1001 87 10000 7.72 300 10:36 05.04.2021
660 Rain 4 1001 93 10000 7.72 310 09:49 05.04.2021
661 Rain 5 1000 93 4000 6.69 260 09:26 05.04.2021
662 Rain 5 1000 93 4000 7.72 250 08:54 05.04.2021
663 Rain 5 1000 93 4000 7.72 250 08:36 05.04.2021
664 Rain 6 1000 93 5000 7.72 250 08:18 05.04.2021
665 Rain 6 1000 87 9000 8.75 250 07:33 05.04.2021
666 Clear 6 1005 75 10000 7.72 240 03:42 05.04.2021
667 Clear 6 1011 75 10000 5.66 250 00:57 05.04.2021
668 Clouds 6 1012 75 10000 4.63 240 00:20 05.04.2021
669 Clouds 6 1013 75 10000 5.14 250 23:32 04.04.2021
670 Clouds 6 1014 70 10000 6.69 250 22:58 04.04.2021
671 Clouds 6 1014 70 10000 6.69 250 22:40 04.04.2021
672 Clouds 6 1015 70 10000 5.14 250 22:21 04.04.2021
673 Clouds 7 1016 70 10000 5.14 240 21:22 04.04.2021
674 Clouds 7 1016 70 10000 5.66 250 20:43 04.04.2021
675 Clouds 7 1017 70 10000 5.14 250 20:23 04.04.2021
676 Clouds 7 1017 70 10000 5.14 250 19:41 04.04.2021
677 Clouds 7 1018 70 10000 5.66 260 19:20 04.04.2021
678 Clouds 7 1018 70 10000 5.14 260 18:51 04.04.2021
679 Clouds 7 1019 70 10000 4.63 260 18:25 04.04.2021
680 Clouds 7 1019 65 10000 5.66 270 17:59 04.04.2021
681 Clouds 8 1019 70 10000 6.17 270 17:25 04.04.2021
682 Clouds 8 1019 70 10000 6.17 270 17:25 04.04.2021
683 Clouds 8 1020 70 10000 6.17 270 16:57 04.04.2021
684 Clouds 8 1020 70 10000 6.17 270 16:39 04.04.2021
685 Clouds 8 1019 75 10000 0.89 225 15:54 04.04.2021
686 Clouds 8 1020 78 10000 0.89 248 15:32 04.04.2021
687 Clouds 7 1022 75 10000 5.14 280 14:40 04.04.2021
688 Clouds 7 1022 75 10000 4.12 280 14:21 04.04.2021
689 Clouds 7 1021 77 10000 0.89 248 13:27 04.04.2021
690 Clouds 7 1023 81 10000 4.12 270 12:52 04.04.2021
691 Clouds 6 1023 81 10000 4.63 260 12:28 04.04.2021
692 Clouds 6 1023 81 10000 3.6 280 11:50 04.04.2021
693 Clouds 7 1024 75 10000 4.12 280 11:30 04.04.2021
694 Clouds 7 1023 71 10000 0.45 248 10:54 04.04.2021
695 Clouds 6 1023 70 10000 0.89 248 10:32 04.04.2021
696 Clouds 6 1023 69 10000 0.89 248 09:50 04.04.2021
697 Clouds 6 1024 70 10000 4.12 280 09:23 04.04.2021
698 Clouds 6 1023 72 10000 0.89 248 08:48 04.04.2021
699 Clouds 5 1024 81 10000 3.6 280 08:30 04.04.2021
700 Clouds 4 1024 81 10000 2.06 260 06:40 04.04.2021
701 Clouds 4 1024 81 10000 1.54 250 05:44 04.04.2021
702 Clouds 4 1024 80 10000 2.43 293 02:59 04.04.2021
703 Clear 3 1025 87 10000 0.51 260 00:55 04.04.2021
704 Clear 4 1025 81 10000 1.54 270 00:19 04.04.2021
705 Clear 4 1025 75 10000 2.57 320 23:42 03.04.2021
706 Clear 5 1025 81 10000 5.66 330 22:58 03.04.2021
707 Clear 6 1025 81 10000 5.66 330 22:40 03.04.2021
708 Clear 6 1025 70 10000 4.12 330 22:19 03.04.2021
709 Clear 7 1025 70 10000 4.12 320 21:46 03.04.2021
710 Clear 7 1024 61 10000 4.12 330 21:22 03.04.2021
711 Clear 8 1024 53 10000 4.12 330 20:43 03.04.2021
712 Clear 8 1024 49 10000 5.14 330 20:24 03.04.2021
713 Clear 10 1024 43 10000 5.14 330 19:46 03.04.2021
714 Clear 10 1024 46 10000 6.69 340 19:20 03.04.2021
715 Clear 11 1024 43 10000 6.17 320 18:46 03.04.2021
716 Clear 12 1024 43 10000 7.2 340 18:23 03.04.2021
717 Clear 12 1024 43 10000 6.17 330 17:50 03.04.2021
718 Clear 12 1024 43 10000 4.63 350 17:21 03.04.2021
719 Clear 13 1024 43 10000 5.14 320 16:45 03.04.2021
720 Clear 12 1024 43 10000 6.69 340 16:21 03.04.2021
721 Clear 12 1025 40 10000 6.17 330 15:46 03.04.2021
722 Clear 13 1025 43 10000 6.17 340 15:21 03.04.2021
723 Clear 12 1025 46 10000 6.17 340 14:43 03.04.2021
724 Clear 12 1025 43 10000 6.17 330 14:22 03.04.2021
725 Clear 11 1025 43 10000 6.17 330 13:48 03.04.2021
726 Clouds 12 1025 46 10000 5.14 340 13:23 03.04.2021
727 Clouds 11 1025 50 10000 5.14 300 12:49 03.04.2021
728 Clouds 11 1025 66 10000 4.63 280 12:21 03.04.2021
729 Clouds 11 1025 66 10000 4.63 280 12:21 03.04.2021
730 Clouds 10 1025 76 10000 4.63 280 11:38 03.04.2021
731 Clouds 8 1025 75 10000 3.6 300 10:51 03.04.2021
732 Clouds 8 1025 81 10000 3.6 280 10:31 03.04.2021
733 Clouds 6 1025 93 10000 4.12 290 09:54 03.04.2021
734 Clouds 5 1025 93 9000 3.09 300 09:28 03.04.2021
735 Clouds 3 1024 100 8000 4.12 300 08:54 03.04.2021
736 Clouds 3 1024 93 10000 3.6 290 08:28 03.04.2021
737 Clouds 2 1023 93 10000 3.6 270 07:29 03.04.2021
738 Clouds 2 1023 93 10000 2.06 280 06:39 03.04.2021
739 Clouds 3 1022 87 10000 3.09 270 03:52 03.04.2021
740 Clouds 4 1022 87 10000 3.6 290 02:51 03.04.2021
741 Clouds 4 1022 93 10000 4.12 300 02:25 03.04.2021
742 Clouds 5 1022 81 10000 4.12 300 00:21 03.04.2021
743 Clouds 5 1022 87 10000 3.6 290 23:49 02.04.2021
744 Clouds 4 1022 87 10000 4.63 290 23:24 02.04.2021
745 Clouds 5 1021 87 10000 4.12 300 22:53 02.04.2021
746 Clouds 5 1021 87 10000 4.12 300 22:34 02.04.2021
747 Clouds 5 1021 87 10000 4.12 290 21:46 02.04.2021
748 Clouds 6 1021 81 10000 6.17 300 21:24 02.04.2021
749 Clouds 6 1021 75 10000 6.17 300 20:52 02.04.2021
750 Clouds 7 1021 75 10000 6.17 300 20:33 02.04.2021
751 Clouds 7 1021 70 10000 7.72 300 19:58 02.04.2021
752 Clouds 7 1021 70 10000 7.72 300 19:39 02.04.2021
753 Clouds 8 1021 65 10000 7.72 320 19:20 02.04.2021
754 Clouds 8 1021 65 10000 8.75 310 18:39 02.04.2021
755 Clouds 8 1021 65 10000 7.72 310 18:20 02.04.2021
756 Clouds 8 1021 65 10000 7.72 320 17:37 02.04.2021
757 Clouds 8 1020 68 10000 0.89 248 16:48 02.04.2021
758 Clouds 9 1022 65 10000 7.2 320 16:22 02.04.2021
759 Clouds 9 1022 65 10000 9.26 310 15:33 02.04.2021
760 Clouds 8 1023 70 10000 8.23 310 14:55 02.04.2021
761 Clouds 9 1023 70 10000 6.17 310 14:29 02.04.2021
762 Clouds 8 1023 70 10000 7.2 310 13:42 02.04.2021
763 Clouds 8 1023 70 10000 7.72 300 13:20 02.04.2021
764 Clouds 8 1017 56 10000 0.45 0 12:41 02.04.2021
765 Clouds 8 1017 56 10000 0.45 0 12:41 02.04.2021
766 Clouds 8 1022 74 10000 1.34 248 12:20 02.04.2021
767 Clouds 7 1023 75 10000 4.12 330 11:54 02.04.2021
768 Clouds 7 1022 74 10000 0.89 270 11:20 02.04.2021
769 Clouds 8 1024 75 10000 5.66 320 10:46 02.04.2021
770 Clouds 7 1024 87 10000 5.66 330 10:28 02.04.2021
771 Clouds 7 1024 87 10000 4.63 310 09:53 02.04.2021
772 Clouds 7 1024 87 10000 4.63 310 09:53 02.04.2021
773 Clouds 6 1023 81 10000 2.06 290 09:27 02.04.2021
774 Clouds 7 1024 81 10000 2.06 290 08:51 02.04.2021
775 Clouds 6 1024 81 10000 1.54 310 08:29 02.04.2021
776 Clouds 5 1023 75 10000 3.09 10 07:30 02.04.2021
777 Clouds 5 1023 75 10000 3.09 10 07:30 02.04.2021
778 Clouds 6 1023 75 10000 2.57 10 06:47 02.04.2021
779 Clouds 6 1023 81 10000 2.57 40 04:49 02.04.2021
780 Clouds 7 1024 75 10000 4.63 50 02:27 02.04.2021
781 Clouds 8 1023 76 10000 4.63 360 00:50 02.04.2021
782 Clouds 8 1023 70 10000 4.12 10 00:18 02.04.2021
783 Clouds 8 1023 70 10000 2.06 360 23:35 01.04.2021
784 Clouds 7 1023 65 10000 3.09 360 22:55 01.04.2021
785 Clouds 7 1023 65 10000 2.57 20 22:19 01.04.2021
786 Clouds 8 1023 66 10000 4.63 10 21:49 01.04.2021
787 Clouds 8 1023 66 10000 5.14 10 21:26 01.04.2021
788 Clouds 9 1022 66 10000 4.12 360 20:44 01.04.2021
789 Clouds 10 1021 66 10000 5.14 350 20:24 01.04.2021
790 Clouds 11 1021 66 10000 5.66 350 19:46 01.04.2021
791 Clouds 12 1021 58 10000 5.14 340 19:27 01.04.2021
792 Clouds 12 1020 54 10000 4.63 340 18:45 01.04.2021
793 Clouds 12 1020 54 10000 6.17 330 18:18 01.04.2021
794 Clouds 13 1021 54 10000 6.69 340 17:51 01.04.2021
795 Clouds 13 1021 54 10000 6.69 340 17:32 01.04.2021
796 Clouds 14 1020 58 10000 8.75 320 16:51 01.04.2021
797 Clouds 14 1020 58 10000 8.23 330 16:27 01.04.2021
798 Clouds 15 1020 66 10000 8.23 320 15:46 01.04.2021
799 Clouds 16 1019 62 10000 8.23 320 15:19 01.04.2021
800 Clouds 16 1019 62 10000 8.23 320 15:19 01.04.2021
801 Clouds 16 1019 58 10000 7.2 320 14:43 01.04.2021
802 Clouds 16 1019 62 10000 6.69 320 14:24 01.04.2021
803 Clouds 17 1019 67 10000 6.18 323 13:55 01.04.2021
804 Clouds 16 1019 58 9000 8.23 310 13:30 01.04.2021
805 Clear 17 1018 55 10000 8.23 310 12:51 01.04.2021
806 Clear 16 1018 51 10000 6.17 310 12:31 01.04.2021
807 Clear 16 1018 51 10000 5.14 290 11:49 01.04.2021
808 Clear 16 1018 51 10000 5.14 290 11:49 01.04.2021
809 Clear 16 1018 54 10000 4.63 290 11:24 01.04.2021
810 Clear 15 1018 62 10000 4.12 290 10:53 01.04.2021
811 Clear 15 1018 62 10000 4.12 290 10:35 01.04.2021
812 Clouds 15 1017 63 10000 0.89 270 09:54 01.04.2021
813 Rain 14 1017 62 10000 2.57 240 09:27 01.04.2021
814 Clouds 14 1016 64 10000 0.45 248 08:33 01.04.2021
815 Clouds 13 1016 77 10000 2.44 283 07:59 01.04.2021
816 Clouds 12 1016 78 10000 2.28 272 07:20 01.04.2021
817 Clouds 12 1016 78 10000 2.28 272 06:48 01.04.2021
818 Clouds 12 1016 78 10000 2.28 272 06:48 01.04.2021
819 Clear 11 1017 71 10000 2.07 267 03:52 01.04.2021
820 Clear 12 1018 71 10000 1.54 310 01:52 01.04.2021
821 Clear 13 1018 58 10000 0.51 0 23:51 31.03.2021
822 Clear 13 1019 54 10000 0.51 330 23:31 31.03.2021
823 Clear 14 1019 54 10000 0.51 150 22:41 31.03.2021
824 Clear 15 1019 51 10000 0.51 180 22:21 31.03.2021
825 Clear 16 1019 47 10000 0.51 0 21:47 31.03.2021
826 Clear 16 1019 44 10000 0.51 0 21:24 31.03.2021
827 Clear 17 1019 42 10000 0.51 0 20:57 31.03.2021
828 Clear 17 1019 42 10000 0.51 0 20:39 31.03.2021
829 Clear 18 1018 32 10000 1.58 271 20:18 31.03.2021
830 Clear 22 1019 35 10000 1.54 310 19:40 31.03.2021
831 Clear 22 1019 35 10000 2.06 280 19:19 31.03.2021
832 Clear 22 1019 35 10000 3.09 290 18:49 31.03.2021
833 Clear 23 1019 31 10000 4.12 290 18:21 31.03.2021
834 Clear 24 1019 27 10000 4.12 260 17:37 31.03.2021
835 Clear 24 1019 25 10000 3.6 270 17:18 31.03.2021
836 Clear 25 1020 27 10000 3.09 250 16:48 31.03.2021
837 Clear 24 1020 25 10000 5.14 250 16:25 31.03.2021
838 Clear 23 1020 28 10000 3.09 260 15:50 31.03.2021
839 Clear 24 1021 27 10000 3.09 250 15:20 31.03.2021
840 Clear 24 1021 27 10000 3.09 250 15:19 31.03.2021
841 Clear 23 1021 31 10000 3.09 220 14:45 31.03.2021
842 Clear 23 1021 28 10000 2.06 0 14:24 31.03.2021
843 Clear 23 1022 27 10000 1.54 0 13:42 31.03.2021
844 Clear 22 1022 30 10000 1.03 0 13:18 31.03.2021
845 Clear 21 1022 24 10000 1.54 210 12:36 31.03.2021
846 Clear 20 1023 32 10000 1.54 130 12:18 31.03.2021
847 Clear 18 1023 32 10000 2.06 140 11:22 31.03.2021
848 Clear 19 1023 34 10000 2.06 140 10:47 31.03.2021
849 Clear 15 1023 36 10000 2.06 140 10:26 31.03.2021
850 Clear 15 1023 50 10000 1.54 120 09:45 31.03.2021
851 Clear 13 1024 66 10000 2.06 100 09:26 31.03.2021
852 Clear 11 1024 66 10000 2.57 90 08:39 31.03.2021
853 Clear 8 1024 70 10000 2.06 100 07:58 31.03.2021
854 Clear 5 1024 70 10000 2.57 90 06:50 31.03.2021
855 Clear 8 1026 57 10000 1.54 100 03:52 31.03.2021
856 Clear 8 1027 61 10000 1.03 110 02:30 31.03.2021
857 Clear 10 1027 53 10000 0.51 0 00:53 31.03.2021
858 Clear 10 1027 53 10000 0.51 0 00:21 31.03.2021
859 Clear 11 1027 49 10000 1.03 100 23:47 30.03.2021
860 Clear 11 1028 46 10000 0.51 90 23:19 30.03.2021
861 Clear 12 1028 50 10000 1.03 60 22:42 30.03.2021
862 Clear 12 1028 43 10000 0.51 0 22:24 30.03.2021
863 Clear 13 1028 43 10000 0.66 134 21:53 30.03.2021
864 Clear 14 1028 35 10000 1.03 90 21:23 30.03.2021
865 Clear 14 1028 36 10000 0.51 0 20:57 30.03.2021
866 Clear 17 1028 25 10000 1.54 240 20:29 30.03.2021
867 Clear 18 1028 26 10000 1.54 270 19:52 30.03.2021
868 Clear 20 1028 26 10000 2.06 270 19:28 30.03.2021
869 Clear 20 1028 26 10000 2.06 270 19:28 30.03.2021
870 Clear 20 1028 28 10000 2.57 270 18:47 30.03.2021
871 Clear 21 1029 23 10000 2.57 270 18:24 30.03.2021
872 Clear 21 1029 23 10000 3.6 280 17:42 30.03.2021
873 Clear 22 1029 21 10000 4.12 280 17:24 30.03.2021
874 Clear 22 1029 24 10000 3.6 280 16:46 30.03.2021
875 Clear 21 1029 28 10000 4.12 0 16:25 30.03.2021
876 Clear 20 1030 34 10000 3.09 250 15:21 30.03.2021
877 Clear 21 1030 37 10000 3.6 270 14:58 30.03.2021
878 Clear 21 1030 37 10000 3.6 270 14:39 30.03.2021
879 Clear 20 1031 42 10000 3.6 270 14:18 30.03.2021
880 Clear 20 1031 48 10000 3.6 260 13:38 30.03.2021
881 Clear 20 1031 45 10000 3.6 260 12:49 30.03.2021
882 Clear 18 1031 48 10000 3.09 270 12:29 30.03.2021
883 Clear 17 1031 44 10000 3.6 260 11:59 30.03.2021
884 Clear 16 1031 44 10000 4.12 260 11:24 30.03.2021
885 Clear 15 1031 47 10000 4.63 260 10:47 30.03.2021
886 Clear 14 1031 47 10000 4.12 260 10:28 30.03.2021
887 Clear 13 1031 44 10000 2.57 250 09:52 30.03.2021
888 Clear 12 1031 54 10000 2.06 240 09:31 30.03.2021
889 Clear 11 1031 54 10000 1.54 200 08:56 30.03.2021
890 Clear 10 1031 54 10000 1.54 200 08:38 30.03.2021
891 Clear 7 1030 61 10000 1.54 250 07:52 30.03.2021
892 Clear 7 1030 61 10000 2.06 260 07:22 30.03.2021
893 Clear 7 1029 61 10000 1.54 270 05:40 30.03.2021
894 Clear 7 1029 65 10000 1.03 0 05:19 30.03.2021
895 Clear 10 1029 54 10000 2.06 230 00:40 30.03.2021
896 Clear 11 1029 58 10000 1.03 190 23:36 29.03.2021
897 Clear 13 1028 51 10000 2.06 240 22:52 29.03.2021
898 Clear 13 1028 51 10000 1.54 240 22:30 29.03.2021
899 Clear 13 1028 58 10000 1.54 270 21:47 29.03.2021
900 Clear 14 1028 47 10000 2.57 240 21:29 29.03.2021
901 Clear 16 1028 44 10000 2.57 240 20:48 29.03.2021
902 Clear 16 1027 44 10000 2.57 250 20:27 29.03.2021
903 Clear 18 1027 45 10000 3.09 260 19:49 29.03.2021
904 Clear 18 1027 42 10000 3.6 260 19:24 29.03.2021
905 Clear 18 1027 39 10000 6.17 260 18:44 29.03.2021
906 Clear 19 1027 39 10000 7.2 260 18:26 29.03.2021
907 Clear 19 1027 39 10000 7.2 260 17:51 29.03.2021
908 Clear 19 1026 39 10000 7.2 260 17:31 29.03.2021
909 Clear 20 1026 39 10000 7.2 260 17:30 29.03.2021
910 Clear 19 1026 42 10000 7.2 260 16:41 29.03.2021
911 Clear 20 1026 39 10000 8.23 260 16:20 29.03.2021
912 Clear 19 1027 42 10000 7.72 270 15:35 29.03.2021
913 Clear 19 1027 42 10000 7.2 250 14:57 29.03.2021
914 Clear 19 1027 42 10000 7.2 250 14:38 29.03.2021
915 Clear 18 1027 45 10000 6.69 240 13:54 29.03.2021
916 Clear 17 1027 42 10000 7.2 250 13:30 29.03.2021
917 Clear 18 1026 44 10000 8.23 250 12:51 29.03.2021
918 Clear 17 1027 48 10000 7.2 250 12:30 29.03.2021
919 Clear 17 1026 51 10000 6.17 250 11:43 29.03.2021
920 Clear 15 1026 51 10000 6.69 250 11:24 29.03.2021
921 Clear 15 1026 58 10000 7.2 250 10:41 29.03.2021
922 Clear 13 1026 58 10000 6.17 250 09:56 29.03.2021
923 Clear 13 1026 58 10000 6.17 250 09:23 29.03.2021
924 Clear 12 1025 58 10000 4.63 230 08:30 29.03.2021
925 Clear 12 1025 58 10000 5.14 240 07:51 29.03.2021
926 Clear 11 1025 62 10000 4.12 220 06:42 29.03.2021
927 Clear 10 1025 66 10000 4.63 240 05:18 29.03.2021
928 Clouds 11 1026 62 10000 3.09 240 02:22 29.03.2021
929 Clouds 11 1025 62 10000 3.09 230 00:26 29.03.2021
930 Clouds 11 1025 62 10000 3.6 230 23:53 28.03.2021
931 Clouds 11 1025 62 10000 3.6 220 23:24 28.03.2021
932 Clouds 11 1025 62 10000 3.09 220 22:42 28.03.2021
933 Clouds 11 1025 66 10000 3.09 220 22:23 28.03.2021
934 Clouds 11 1025 66 10000 3.6 230 21:45 28.03.2021
935 Clouds 11 1025 62 10000 3.6 250 21:23 28.03.2021
936 Clouds 11 1025 58 10000 5.66 240 20:50 28.03.2021
937 Clouds 11 1025 58 10000 5.66 240 20:32 28.03.2021
938 Clouds 11 1024 62 10000 3.6 240 19:46 28.03.2021
939 Clouds 11 1024 66 10000 3.09 230 19:23 28.03.2021
940 Clouds 11 1024 62 10000 4.63 250 18:58 28.03.2021
941 Clouds 11 1024 62 10000 4.63 250 18:33 28.03.2021
942 Rain 11 1024 58 10000 6.69 250 17:56 28.03.2021
943 Rain 12 1024 58 10000 6.69 250 17:34 28.03.2021
944 Rain 13 1024 50 10000 8.23 240 16:55 28.03.2021
945 Clouds 13 1024 54 10000 7.72 250 16:24 28.03.2021
946 Rain 13 1023 57 10000 1.79 225 15:48 28.03.2021
947 Clouds 13 1024 54 10000 6.17 250 15:22 28.03.2021
948 Clouds 13 1024 54 10000 8.23 240 14:38 28.03.2021
949 Clouds 13 1024 58 10000 7.2 230 13:52 28.03.2021
950 Clouds 13 1024 58 10000 7.2 230 13:33 28.03.2021
951 Clear 12 1025 66 10000 5.14 220 12:53 28.03.2021
952 Clear 10 1025 66 10000 5.14 220 12:33 28.03.2021
953 Clouds 10 1025 66 10000 4.12 210 11:49 28.03.2021
954 Clouds 9 1025 66 10000 4.63 220 11:26 28.03.2021
955 Clear 9 1025 71 10000 4.63 220 10:45 28.03.2021
956 Clear 7 1025 70 10000 4.12 210 10:27 28.03.2021
957 Clear 7 1025 70 10000 4.12 210 09:49 28.03.2021
958 Clear 6 1025 75 10000 4.12 210 09:25 28.03.2021
959 Clear 5 1025 70 10000 4.12 210 08:47 28.03.2021
960 Clear 4 1025 70 10000 3.6 200 07:52 28.03.2021
961 Clear 4 1025 70 10000 3.6 200 07:33 28.03.2021
962 Clear 3 1026 75 10000 3.09 200 04:54 28.03.2021
963 Clear 3 1026 87 10000 2.06 210 01:38 28.03.2021
964 Clear 3 1026 87 10000 2.06 240 00:22 28.03.2021
965 Clear 3 1026 87 10000 2.06 240 23:44 27.03.2021
966 Clear 3 1025 81 10000 3.09 260 23:21 27.03.2021
967 Clear 4 1025 81 10000 3.6 260 22:38 27.03.2021
968 Clear 4 1025 81 10000 4.12 250 21:59 27.03.2021
969 Clear 4 1025 81 10000 4.12 250 21:40 27.03.2021
970 Clear 4 1024 87 10000 2.57 250 21:19 27.03.2021
971 Clouds 4 1024 87 10000 3.6 250 20:44 27.03.2021
972 Clouds 5 1024 87 10000 3.09 250 20:24 27.03.2021
973 Clouds 4 1023 87 10000 3.6 260 19:44 27.03.2021
974 Clouds 4 1023 87 10000 4.12 250 19:23 27.03.2021
975 Clouds 5 1022 87 10000 3.6 260 18:50 27.03.2021
976 Clouds 4 1022 87 10000 4.63 270 18:29 27.03.2021
977 Clouds 5 1021 87 10000 4.63 260 17:56 27.03.2021
978 Clouds 4 1021 93 10000 5.14 280 17:26 27.03.2021
979 Clouds 4 1021 93 1500 10.8 260 16:51 27.03.2021
980 Rain 7 1020 65 10000 7.2 260 16:30 27.03.2021
981 Clouds 8 1019 73 10000 1.79 225 15:54 27.03.2021
982 Clouds 8 1019 76 10000 1.79 225 15:27 27.03.2021
983 Clouds 7 1019 87 10000 1.34 248 14:50 27.03.2021
984 Rain 6 1018 65 10000 8.23 250 13:59 27.03.2021
985 Clouds 8 1018 71 10000 9.26 250 13:26 27.03.2021
986 Clouds 8 1017 76 10000 8.23 260 12:56 27.03.2021
987 Clouds 6 1017 81 10000 6.69 250 12:27 27.03.2021
988 Clouds 5 1016 93 8000 5.66 240 11:46 27.03.2021
989 Rain 5 1016 81 4500 9.77 280 11:25 27.03.2021
990 Rain 8 1015 71 10000 7.72 250 10:45 27.03.2021
991 Clouds 7 1015 70 10000 7.72 250 10:23 27.03.2021
992 Clouds 8 1014 76 10000 8.23 250 09:28 27.03.2021
993 Clouds 8 1014 75 10000 7.72 250 08:43 27.03.2021
994 Clouds 7 1013 81 10000 7.72 260 08:21 27.03.2021
995 Clouds 7 1013 87 10000 6.17 250 07:34 27.03.2021
996 Rain 7 1012 87 10000 6.17 270 06:47 27.03.2021
997 Rain 7 1012 87 10000 6.17 260 06:27 27.03.2021
998 Rain 10 1010 71 10000 6.17 230 04:39 27.03.2021
999 Clear 11 1011 54 10000 3.6 210 00:54 27.03.2021
1000 Clear 11 1012 54 10000 3.09 210 00:29 27.03.2021
1001 Clear 11 1012 54 10000 2.57 200 23:54 26.03.2021
1002 Clear 11 1012 54 10000 2.57 200 23:54 26.03.2021
1003 Clear 12 1012 54 10000 2.57 160 23:19 26.03.2021
1004 Clear 12 1012 54 10000 3.09 170 22:35 26.03.2021
1005 Clear 12 1013 54 10000 2.57 170 21:36 26.03.2021
1006 Clear 12 1013 50 10000 3.6 170 21:18 26.03.2021
1007 Clear 13 1013 50 10000 3.09 170 20:33 26.03.2021
1008 Clear 12 1013 50 10000 2.57 160 19:57 26.03.2021
1009 Clear 12 1013 50 10000 2.57 160 19:39 26.03.2021
1010 Clear 13 1013 47 10000 3.6 180 19:20 26.03.2021
1011 Clear 13 1013 47 10000 4.12 180 18:42 26.03.2021
1012 Clear 14 1014 47 10000 4.12 180 18:20 26.03.2021
1013 Clear 15 1014 47 10000 5.14 210 17:46 26.03.2021
1014 Clear 16 1014 44 10000 3.6 180 16:56 26.03.2021
1015 Clear 16 1014 44 10000 3.6 180 16:33 26.03.2021
1016 Clear 16 1015 47 10000 4.63 190 15:53 26.03.2021
1017 Clear 16 1015 44 10000 5.14 210 15:21 26.03.2021
1018 Clouds 17 1016 44 10000 5.66 230 14:30 26.03.2021
1019 Clouds 17 1016 47 10000 5.11 216 13:38 26.03.2021
1020 Clouds 17 1017 48 10000 4.81 214 12:54 26.03.2021
1021 Clouds 16 1018 54 10000 4.12 220 12:24 26.03.2021
1022 Clouds 15 1018 58 10000 5.14 190 11:35 26.03.2021
1023 Clouds 14 1019 66 10000 5.14 210 10:55 26.03.2021
1024 Clouds 13 1019 66 10000 5.14 210 10:35 26.03.2021
1025 Clouds 13 1019 76 10000 3.09 230 09:44 26.03.2021
1026 Clear 11 1019 71 10000 3.09 200 09:22 26.03.2021
1027 Clear 11 1019 76 10000 3.09 190 08:40 26.03.2021
1028 Clouds 9 1019 81 9000 2.57 190 08:21 26.03.2021
1029 Clouds 8 1019 87 9000 1.54 190 07:23 26.03.2021
1030 Clouds 7 1019 93 9000 2.06 200 06:58 26.03.2021
1031 Clouds 7 1019 93 9000 2.06 200 06:32 26.03.2021
1032 Clouds 7 1019 87 9000 0.51 100 05:30 26.03.2021
1033 Clouds 8 1020 93 6000 0.51 0 01:59 26.03.2021
1034 Clouds 9 1020 81 10000 1.54 230 00:31 26.03.2021
1035 Clear 10 1020 87 10000 1.54 240 23:44 25.03.2021
1036 Clear 10 1020 76 10000 2.06 250 23:20 25.03.2021
1037 Clouds 11 1019 76 10000 2.23 237 22:30 25.03.2021
1038 Clouds 11 1020 71 9000 4.12 280 21:53 25.03.2021
1039 Clouds 11 1020 71 9000 4.12 280 21:34 25.03.2021
1040 Clouds 11 1019 71 9000 0.51 140 20:45 25.03.2021
1041 Clouds 11 1019 71 9000 0.51 90 20:25 25.03.2021
1042 Clear 11 1019 71 10000 1.03 150 19:46 25.03.2021
1043 Clear 12 1019 66 10000 0.51 20 19:27 25.03.2021
1044 Clear 12 1019 66 10000 1.03 0 18:49 25.03.2021
1045 Clear 13 1019 62 10000 1.03 0 18:27 25.03.2021
1046 Clear 13 1019 58 10000 1.54 280 17:52 25.03.2021
1047 Clear 13 1019 58 10000 1.54 280 17:33 25.03.2021
1048 Clouds 14 1019 62 10000 2.06 290 16:52 25.03.2021
1049 Clouds 14 1019 62 10000 2.06 290 16:31 25.03.2021
1050 Clear 14 1019 58 10000 1.03 0 15:45 25.03.2021
1051 Clouds 15 1017 61 10000 3.1 255 15:22 25.03.2021
1052 Clear 15 1019 54 10000 1.54 230 14:46 25.03.2021
1053 Clouds 14 1019 62 10000 1.54 220 13:56 25.03.2021
1054 Clouds 13 1019 58 10000 1.03 0 13:24 25.03.2021
1055 Clouds 12 1020 62 10000 1.03 0 12:45 25.03.2021
1056 Clear 12 1020 66 10000 0.51 0 12:21 25.03.2021
1057 Clear 12 1020 66 10000 1.03 0 11:53 25.03.2021
1058 Clouds 12 1020 71 9000 0.51 0 11:31 25.03.2021
1059 Clouds 11 1020 76 7000 1.03 0 10:57 25.03.2021
1060 Clouds 11 1020 76 7000 1.03 0 10:38 25.03.2021
1061 Clouds 10 1020 76 7000 0.51 0 10:18 25.03.2021
1062 Clouds 10 1020 76 7000 0.51 0 10:18 25.03.2021
1063 Clouds 9 1020 76 6000 1.03 0 09:42 25.03.2021
1064 Mist 8 1020 87 4800 0.77 239 08:58 25.03.2021
1065 Mist 7 1020 87 4500 0.51 0 08:30 25.03.2021
1066 Mist 5 1019 87 5000 0.51 100 07:26 25.03.2021
1067 Clouds 4 1018 91 10000 1.41 261 06:27 25.03.2021
1068 Mist 4 1019 93 5000 0.51 0 05:49 25.03.2021
1069 Clouds 4 1019 87 7000 1.03 310 04:42 25.03.2021
1070 Clouds 6 1020 87 9000 2.06 260 00:46 25.03.2021
1071 Clear 6 1020 87 10000 1.03 0 00:18 25.03.2021
1072 Clear 7 1019 81 10000 1.93 230 23:36 24.03.2021
1073 Clear 7 1020 81 10000 0.51 220 22:58 24.03.2021
1074 Clear 7 1020 81 10000 0.51 220 22:38 24.03.2021
1075 Clear 8 1020 71 10000 1.03 0 21:50 24.03.2021
1076 Clear 8 1020 71 10000 0.51 20 21:31 24.03.2021
1077 Clear 9 1020 66 10000 1.95 239 20:55 24.03.2021
1078 Clear 9 1020 66 10000 1.95 239 20:37 24.03.2021
1079 Clear 10 1020 66 10000 0.51 220 20:18 24.03.2021
1080 Clear 11 1020 58 10000 1.54 240 19:31 24.03.2021
1081 Clear 12 1019 50 10000 1.54 250 18:52 24.03.2021
1082 Clear 13 1020 50 10000 2.57 260 18:24 24.03.2021
1083 Clear 14 1020 51 10000 3.09 260 17:53 24.03.2021
1084 Clear 15 1020 51 10000 3.09 260 17:32 24.03.2021
1085 Clear 15 1020 51 10000 3.09 260 17:32 24.03.2021
1086 Clear 15 1020 44 10000 4.63 260 16:54 24.03.2021
1087 Clear 15 1020 44 10000 4.63 260 16:31 24.03.2021
1088 Clear 15 1020 47 10000 4.63 230 15:57 24.03.2021
1089 Clear 15 1020 47 10000 4.63 230 15:33 24.03.2021
1090 Clear 16 1021 51 10000 5.14 230 14:55 24.03.2021
1091 Clouds 16 1021 54 10000 5.14 250 14:28 24.03.2021
1092 Clouds 15 1022 54 10000 5.14 240 13:57 24.03.2021
1093 Clouds 15 1022 58 10000 4.12 250 13:28 24.03.2021
1094 Clouds 15 1021 57 10000 0.89 225 12:48 24.03.2021
1095 Clouds 13 1022 58 10000 4.12 240 12:27 24.03.2021
1096 Clouds 13 1023 58 10000 4.63 250 11:49 24.03.2021
1097 Clouds 12 1023 62 10000 3.6 260 11:20 24.03.2021
1098 Clear 11 1023 66 10000 3.09 240 10:44 24.03.2021
1099 Clear 11 1023 66 9000 2.57 230 10:25 24.03.2021
1100 Clouds 10 1023 66 8000 3.09 220 09:54 24.03.2021
1101 Clear 8 1023 76 8000 1.54 220 09:23 24.03.2021
1102 Clear 8 1023 76 8000 1.54 220 08:55 24.03.2021
1103 Clear 5 1023 81 6000 2.06 180 08:29 24.03.2021
1104 Clouds 5 1023 87 6000 2.57 200 07:42 24.03.2021
1105 Clouds 5 1023 81 6000 2.57 210 06:54 24.03.2021
1106 Clouds 6 1023 81 7000 2.57 190 05:52 24.03.2021
1107 Clear 4 1023 93 7000 1.03 220 01:20 24.03.2021
1108 Clear 4 1024 93 7000 1.54 220 00:32 24.03.2021
1109 Clear 5 1024 87 7000 2.06 260 23:23 23.03.2021
1110 Clear 5 1024 87 9000 2.57 270 22:58 23.03.2021
1111 Clear 5 1024 87 9000 2.57 270 22:40 23.03.2021
1112 Clouds 6 1023 76 10000 2.06 260 21:59 23.03.2021
1113 Clouds 6 1023 76 10000 2.06 260 21:40 23.03.2021
1114 Clouds 6 1023 81 10000 2.57 260 21:19 23.03.2021
1115 Clouds 7 1023 76 10000 1.54 240 20:40 23.03.2021
1116 Clouds 7 1023 76 10000 0.51 0 20:22 23.03.2021
1117 Clouds 8 1023 66 10000 1.03 220 19:44 23.03.2021
1118 Clouds 8 1023 66 10000 1.54 240 19:23 23.03.2021
1119 Clouds 9 1023 66 10000 1.54 260 18:43 23.03.2021
1120 Clouds 10 1023 62 10000 2.57 270 18:21 23.03.2021
1121 Clouds 11 1023 62 10000 3.6 270 17:44 23.03.2021
1122 Clouds 11 1023 58 10000 3.09 270 17:21 23.03.2021
1123 Clouds 11 1023 58 10000 3.09 270 17:21 23.03.2021
1124 Clouds 12 1023 58 10000 3.6 260 16:26 23.03.2021
1125 Clouds 11 1024 57 10000 4.12 270 15:55 23.03.2021
1126 Clouds 11 1024 57 10000 4.12 270 15:36 23.03.2021
1127 Clouds 11 1024 62 10000 4.12 270 14:50 23.03.2021
1128 Clouds 10 1024 66 10000 4.12 270 14:21 23.03.2021
1129 Clouds 10 1024 66 10000 4.63 270 13:49 23.03.2021
1130 Clouds 9 1024 66 10000 4.63 270 13:25 23.03.2021
1131 Clouds 9 1024 66 10000 4.12 270 12:46 23.03.2021
1132 Clouds 9 1024 71 10000 4.12 280 12:26 23.03.2021
1133 Clouds 9 1024 70 10000 4.63 260 11:49 23.03.2021
1134 Clouds 9 1023 71 10000 1.34 248 11:30 23.03.2021
1135 Clouds 8 1024 70 10000 4.12 260 10:43 23.03.2021
1136 Clouds 7 1024 75 10000 3.6 250 10:21 23.03.2021
1137 Clouds 7 1024 75 10000 3.6 250 09:54 23.03.2021
1138 Clouds 7 1024 75 10000 3.6 240 09:25 23.03.2021
1139 Clouds 6 1024 81 10000 3.6 260 08:57 23.03.2021
1140 Clouds 6 1024 81 10000 3.6 260 08:38 23.03.2021
1141 Clouds 6 1024 81 10000 3.09 250 08:20 23.03.2021
1142 Clouds 5 1024 81 10000 2.57 240 07:28 23.03.2021
1143 Clouds 5 1024 87 10000 2.06 270 06:54 23.03.2021
1144 Clouds 5 1024 81 10000 2.06 270 05:48 23.03.2021
1145 Clouds 5 1024 87 10000 4.63 300 03:20 23.03.2021
1146 Clouds 6 1024 87 10000 5.14 300 00:22 23.03.2021
1147 Clouds 6 1024 81 10000 4.12 290 23:23 22.03.2021
1148 Clouds 6 1024 75 10000 3.6 300 22:45 22.03.2021
1149 Clouds 6 1024 81 10000 3.09 310 22:22 22.03.2021
1150 Clouds 6 1024 81 10000 2.57 290 21:51 22.03.2021
1151 Clouds 6 1024 81 10000 2.06 290 21:27 22.03.2021
1152 Clouds 6 1024 81 10000 2.06 300 20:54 22.03.2021
1153 Clouds 6 1023 81 10000 2.06 300 20:30 22.03.2021
1154 Clouds 6 1023 81 10000 2.06 300 19:59 22.03.2021
1155 Clouds 6 1023 81 10000 2.06 300 19:59 22.03.2021
1156 Clouds 6 1023 81 10000 2.06 300 19:40 22.03.2021
1157 Clouds 7 1023 75 10000 2.57 310 19:21 22.03.2021
1158 Clouds 7 1023 75 10000 2.57 310 19:21 22.03.2021
1159 Clouds 7 1023 81 10000 3.6 310 18:42 22.03.2021
1160 Clouds 8 1022 70 10000 4.63 320 18:23 22.03.2021
1161 Clouds 8 1022 70 10000 5.66 320 17:51 22.03.2021
1162 Clouds 9 1022 76 10000 6.69 310 17:22 22.03.2021
1163 Clouds 9 1022 66 10000 6.17 310 16:58 22.03.2021
1164 Clouds 9 1022 66 10000 6.17 310 16:39 22.03.2021
1165 Clouds 9 1022 71 10000 7.72 300 15:45 22.03.2021
1166 Clouds 9 1022 66 10000 7.72 320 15:27 22.03.2021
1167 Clouds 9 1022 71 10000 6.17 300 14:59 22.03.2021
1168 Clouds 9 1022 71 10000 6.17 300 14:35 22.03.2021
1169 Clouds 9 1022 61 10000 5.14 310 13:53 22.03.2021
1170 Clouds 9 1022 61 10000 5.14 310 13:34 22.03.2021
1171 Clouds 8 1022 61 10000 4.63 330 12:59 22.03.2021
1172 Clouds 9 1022 61 10000 4.63 330 12:41 22.03.2021
1173 Clouds 9 1022 61 10000 4.63 330 12:18 22.03.2021
1174 Clouds 8 1022 65 10000 5.66 320 11:41 22.03.2021
1175 Clouds 8 1022 65 10000 5.66 320 11:21 22.03.2021
1176 Clouds 8 1022 65 10000 6.17 340 10:42 22.03.2021
1177 Clouds 7 1022 70 10000 6.17 330 10:22 22.03.2021
1178 Clouds 7 1021 75 10000 5.14 330 09:37 22.03.2021
1179 Clouds 6 1021 81 10000 4.63 320 08:59 22.03.2021
1180 Clouds 6 1021 81 10000 4.63 320 08:41 22.03.2021
1181 Clouds 5 1021 87 10000 4.12 320 08:23 22.03.2021
1182 Clouds 5 1020 87 10000 3.6 310 07:43 22.03.2021
1183 Clouds 4 1020 81 10000 3.09 310 06:52 22.03.2021
1184 Clouds 4 1020 81 10000 3.09 320 05:24 22.03.2021
1185 Clouds 4 1020 81 10000 4.12 310 01:40 22.03.2021
1186 Clouds 4 1020 75 10000 5.14 310 00:21 22.03.2021
1187 Clouds 4 1019 75 10000 4.63 320 23:53 21.03.2021
1188 Clouds 5 1019 75 10000 4.12 310 23:19 21.03.2021
1189 Clouds 5 1019 75 10000 4.63 310 22:54 21.03.2021
1190 Clouds 5 1019 70 10000 5.66 320 21:56 21.03.2021
1191 Clouds 5 1019 70 10000 5.66 320 21:38 21.03.2021
1192 Clouds 5 1019 70 10000 6.17 310 21:20 21.03.2021
1193 Clouds 5 1019 70 10000 6.17 310 20:41 21.03.2021
1194 Clouds 5 1019 70 10000 6.17 300 20:22 21.03.2021
1195 Clouds 5 1019 70 10000 7.72 310 19:50 21.03.2021
1196 Clouds 5 1019 70 10000 7.72 310 19:50 21.03.2021
1197 Clouds 5 1018 70 10000 7.2 300 19:21 21.03.2021
1198 Clouds 5 1018 70 10000 7.72 300 18:46 21.03.2021
1199 Clouds 6 1018 65 10000 8.23 310 18:27 21.03.2021
1200 Clouds 7 1018 65 10000 8.75 300 17:45 21.03.2021
1201 Clouds 7 1018 65 10000 7.72 310 17:19 21.03.2021
1202 Clouds 8 1018 61 10000 8.75 300 16:54 21.03.2021
1203 Clouds 8 1018 61 10000 8.75 310 16:28 21.03.2021
1204 Clouds 9 1018 65 10000 8.23 310 15:49 21.03.2021
1205 Clouds 9 1018 65 10000 8.75 310 15:23 21.03.2021
1206 Clouds 9 1017 65 10000 8.75 310 14:59 21.03.2021
1207 Clouds 9 1016 67 10000 1.34 248 14:40 21.03.2021
1208 Clouds 9 1017 65 10000 8.23 300 14:21 21.03.2021
1209 Clouds 8 1017 65 10000 8.75 310 13:52 21.03.2021
1210 Clouds 8 1017 70 10000 9.26 310 12:46 21.03.2021
1211 Clouds 8 1016 73 10000 1.34 248 12:26 21.03.2021
1212 Clouds 7 1017 70 10000 8.23 310 11:49 21.03.2021
1213 Clouds 7 1017 70 10000 8.75 310 11:27 21.03.2021
1214 Clouds 7 1016 77 10000 2.24 270 10:53 21.03.2021
1215 Clouds 6 1017 75 10000 8.75 300 10:32 21.03.2021
1216 Clouds 6 1017 81 10000 7.72 300 09:56 21.03.2021
1217 Clouds 6 1017 81 10000 7.72 300 09:37 21.03.2021
1218 Clouds 6 1017 81 10000 8.75 300 09:19 21.03.2021
1219 Clouds 6 1017 81 10000 8.23 320 08:38 21.03.2021
1220 Rain 5 1016 93 10000 7.2 310 08:19 21.03.2021
1221 Drizzle 5 1016 93 7000 7.2 280 07:31 21.03.2021
1222 Rain 5 1016 100 7000 6.69 280 06:30 21.03.2021
1223 Clouds 5 1017 93 4500 6.17 270 04:58 21.03.2021
1224 Clouds 5 1020 87 10000 6.17 280 00:59 21.03.2021
1225 Clouds 5 1020 87 10000 6.17 280 00:39 21.03.2021
1226 Clouds 5 1020 93 10000 6.69 280 00:20 21.03.2021
1227 Clouds 5 1021 87 10000 5.66 270 23:46 20.03.2021
1228 Clouds 5 1021 93 6000 4.12 260 23:20 20.03.2021
1229 Clouds 5 1021 87 9000 5.66 260 22:36 20.03.2021
1230 Clouds 5 1022 75 10000 6.17 270 22:18 20.03.2021
1231 Clouds 5 1022 65 10000 5.14 260 21:42 20.03.2021
1232 Clouds 5 1022 65 10000 5.14 250 21:24 20.03.2021
1233 Clouds 5 1022 65 10000 4.63 240 20:42 20.03.2021
1234 Clouds 5 1023 65 10000 4.63 250 20:21 20.03.2021
1235 Clouds 5 1023 65 10000 4.12 250 19:44 20.03.2021
1236 Clouds 5 1023 70 10000 4.12 270 19:25 20.03.2021
1237 Clouds 5 1024 70 10000 4.63 270 18:46 20.03.2021
1238 Clouds 5 1024 65 10000 4.63 270 18:24 20.03.2021
1239 Clouds 6 1024 60 10000 5.66 270 17:51 20.03.2021
1240 Clouds 6 1025 56 10000 5.14 260 17:27 20.03.2021
1241 Clouds 6 1025 52 10000 5.14 260 16:44 20.03.2021
1242 Clouds 7 1025 52 10000 5.66 270 16:20 20.03.2021
1243 Clouds 6 1026 52 10000 5.14 250 15:56 20.03.2021
1244 Clouds 6 1025 44 10000 0.89 248 15:38 20.03.2021
1245 Clouds 6 1026 45 10000 3.6 250 14:44 20.03.2021
1246 Clouds 6 1027 45 10000 4.12 260 14:22 20.03.2021
1247 Clear 5 1027 38 10000 4.63 250 13:32 20.03.2021
1248 Clear 6 1028 41 10000 4.63 270 12:51 20.03.2021
1249 Clear 5 1029 44 10000 4.63 270 12:26 20.03.2021
1250 Clear 4 1029 51 10000 4.63 250 11:45 20.03.2021
1251 Clear 3 1029 51 10000 4.12 260 11:27 20.03.2021
1252 Clear 2 1029 60 10000 3.09 260 10:54 20.03.2021
1253 Clear 2 1029 64 10000 3.09 260 10:27 20.03.2021
1254 Clear 2 1030 69 10000 2.06 270 09:55 20.03.2021
1255 Clear 0 1030 74 10000 1.03 0 09:27 20.03.2021
1256 Clear 0 1030 80 10000 1.03 0 08:56 20.03.2021
1257 Clear -2 1029 86 10000 0.51 0 08:29 20.03.2021
1258 Clear -1 1029 86 10000 1.52 241 07:51 20.03.2021
1259 Clear -2 1029 93 10000 0.51 120 07:31 20.03.2021
1260 Clear -3 1029 86 10000 0.51 0 06:46 20.03.2021
1261 Clear -3 1029 86 10000 0.51 0 05:37 20.03.2021
1262 Clear -3 1029 74 10000 1.03 90 03:46 20.03.2021
1263 Clear -2 1029 74 10000 0.88 53 02:42 20.03.2021
1264 Clear -2 1029 74 10000 2.57 40 23:56 19.03.2021
1265 Clear -1 1029 74 10000 2.57 40 23:29 19.03.2021
1266 Clear -1 1028 69 10000 2.57 40 22:46 19.03.2021
1267 Clouds -1 1028 64 10000 3.09 50 22:26 19.03.2021
1268 Clear -1 1028 64 10000 3.6 50 21:53 19.03.2021
1269 Clear 0 1027 59 10000 3.6 40 21:21 19.03.2021
1270 Clear 1 1027 64 10000 4.12 40 20:46 19.03.2021
1271 Clouds 2 1027 60 10000 4.63 40 20:27 19.03.2021
1272 Clouds 2 1027 55 10000 5.14 40 19:59 19.03.2021
1273 Clouds 2 1027 55 10000 5.14 40 19:39 19.03.2021
1274 Clouds 3 1026 64 10000 7.2 40 19:19 19.03.2021
1275 Clouds 3 1026 65 10000 4.63 40 18:39 19.03.2021
1276 Clouds 5 1025 65 10000 4.63 20 18:18 19.03.2021
1277 Clouds 5 1025 60 10000 5.14 40 17:50 19.03.2021
1278 Clouds 5 1025 60 10000 4.12 30 17:27 19.03.2021
1279 Clouds 6 1025 52 10000 5.66 20 16:51 19.03.2021
1280 Clouds 7 1024 49 10000 3.09 40 16:26 19.03.2021
1281 Clouds 6 1025 56 10000 5.14 70 15:43 19.03.2021
1282 Clouds 6 1025 56 10000 4.63 50 15:22 19.03.2021
1283 Clouds 7 1023 61 10000 2.68 68 14:42 19.03.2021
1284 Clouds 7 1025 56 10000 5.66 30 14:21 19.03.2021
1285 Clouds 7 1024 61 10000 4.63 50 13:34 19.03.2021
1286 Clouds 7 1024 65 10000 5.66 50 12:49 19.03.2021
1287 Clouds 8 1023 66 10000 0.45 23 12:30 19.03.2021
1288 Clouds 6 1024 75 10000 3.09 330 11:39 19.03.2021
1289 Clouds 5 1024 75 10000 3.09 360 10:53 19.03.2021
1290 Clear 4 1023 70 10000 3.6 10 10:27 19.03.2021
1291 Clear 3 1023 70 10000 3.09 10 09:48 19.03.2021
1292 Clear 3 1023 80 10000 3.09 350 09:29 19.03.2021
1293 Clear 1 1023 80 10000 2.57 360 08:54 19.03.2021
1294 Clear 1 1023 80 10000 2.57 360 08:32 19.03.2021
1295 Clear 0 1022 86 10000 1.54 320 07:52 19.03.2021
1296 Clear 0 1022 86 10000 1.54 320 07:34 19.03.2021
1297 Clear -1 1022 93 10000 2.57 360 06:36 19.03.2021
1298 Clear -1 1020 93 10000 3.09 360 02:45 19.03.2021
1299 Fog 1 1019 93 4500 2.06 30 23:58 18.03.2021
1300 Clouds 1 1019 93 6000 1.03 10 23:30 18.03.2021
1301 Clouds 2 1019 100 6000 2.06 360 22:58 18.03.2021
1302 Clouds 3 1019 93 7000 1.03 320 22:27 18.03.2021
1303 Clouds 3 1019 93 9000 0.51 0 21:59 18.03.2021
1304 Clouds 3 1019 93 9000 0.51 0 21:38 18.03.2021
1305 Clouds 4 1018 89 10000 3.57 18 20:43 18.03.2021
1306 Clouds 4 1019 87 10000 1.03 0 20:23 18.03.2021
1307 Rain 4 1019 87 10000 1.03 330 19:45 18.03.2021
1308 Clouds 4 1019 87 10000 0.51 0 19:24 18.03.2021
1309 Clouds 4 1019 87 10000 0.51 260 18:54 18.03.2021
1310 Clouds 4 1018 84 10000 3.25 330 18:27 18.03.2021
1311 Clouds 5 1019 75 10000 1.54 300 17:49 18.03.2021
1312 Clouds 5 1020 75 10000 1.03 0 17:25 18.03.2021
1313 Clouds 5 1020 81 10000 1.54 280 16:44 18.03.2021
1314 Clouds 6 1020 75 10000 1.54 270 16:26 18.03.2021
1315 Clouds 5 1021 81 10000 2.06 280 15:45 18.03.2021
1316 Clouds 5 1021 87 10000 3.6 310 15:23 18.03.2021
1317 Clouds 4 1021 93 10000 3.6 280 14:53 18.03.2021
1318 Clouds 3 1022 87 10000 3.6 280 14:30 18.03.2021
1319 Clouds 5 1022 93 10000 3.6 270 13:53 18.03.2021
1320 Clouds 5 1023 93 10000 3.6 250 13:26 18.03.2021
1321 Clouds 5 1023 93 10000 4.12 280 12:44 18.03.2021
1322 Clouds 4 1023 100 7000 4.12 250 12:25 18.03.2021
1323 Mist 3 1023 100 5000 3.6 250 11:52 18.03.2021
1324 Mist 4 1023 100 5000 3.6 250 11:32 18.03.2021
1325 Mist 4 1024 100 1200 4.12 280 10:45 18.03.2021
1326 Fog 3 1024 100 500 4.12 270 10:27 18.03.2021
1327 Fog 2 1024 100 400 3.09 270 09:54 18.03.2021
1328 Fog 2 1024 100 400 3.09 280 09:29 18.03.2021
1329 Fog 1 1024 100 200 3.09 270 08:50 18.03.2021
1330 Clouds 2 1023 95 10000 0.45 248 08:30 18.03.2021
1331 Fog 1 1024 100 100 2.57 270 07:52 18.03.2021
1332 Fog 0 1024 100 100 3.09 290 07:24 18.03.2021
1333 Fog 1 1024 100 200 3.6 270 06:28 18.03.2021
1334 Fog 1 1024 100 200 2.57 270 05:53 18.03.2021
1335 Fog 1 1025 100 10000 0.51 250 01:24 18.03.2021
1336 Clouds 1 1026 100 10000 1.54 260 23:59 17.03.2021
1337 Clouds 2 1026 93 10000 1.03 0 22:47 17.03.2021
1338 Clouds 2 1026 93 10000 1.03 0 22:26 17.03.2021
1339 Clouds 3 1026 93 10000 1.03 0 21:56 17.03.2021
1340 Clear 3 1026 93 10000 2.57 280 21:34 17.03.2021
1341 Clear 2 1025 93 10000 1.54 340 20:59 17.03.2021
1342 Clear 2 1025 93 10000 1.54 340 20:40 17.03.2021
1343 Clear 2 1025 93 10000 1.54 340 20:40 17.03.2021
1344 Clear 2 1025 93 10000 1.54 340 20:40 17.03.2021
1345 Clouds 3 1025 87 10000 0.51 0 20:22 17.03.2021
1346 Clouds 4 1025 81 10000 1.54 300 19:44 17.03.2021
1347 Clouds 4 1025 81 10000 4.12 340 19:21 17.03.2021
1348 Clouds 3 1025 81 10000 2.06 340 18:52 17.03.2021
1349 Clouds 5 1025 81 10000 2.06 340 18:33 17.03.2021
1350 Clouds 5 1024 81 10000 3.6 320 17:48 17.03.2021
1351 Clouds 6 1024 70 10000 4.63 340 17:25 17.03.2021
1352 Clouds 6 1024 65 10000 3.6 310 16:46 17.03.2021
1353 Clouds 7 1023 57 10000 3.09 0 16:24 17.03.2021
1354 Clouds 7 1023 53 10000 4.12 330 15:53 17.03.2021
1355 Clouds 8 1023 53 10000 4.12 330 15:35 17.03.2021
1356 Clouds 8 1023 57 10000 3.09 330 14:45 17.03.2021
1357 Clouds 8 1023 53 10000 2.57 340 14:26 17.03.2021
1358 Clouds 8 1023 53 10000 2.57 40 13:55 17.03.2021
1359 Clouds 8 1023 53 10000 1.03 0 13:27 17.03.2021
1360 Clouds 7 1023 56 10000 2.06 340 12:51 17.03.2021
1361 Clouds 7 1023 60 10000 3.09 340 12:31 17.03.2021
1362 Clouds 7 1023 56 10000 3.6 330 11:51 17.03.2021
1363 Clouds 6 1023 56 10000 2.57 330 11:23 17.03.2021
1364 Clouds 6 1023 65 10000 3.6 330 10:55 17.03.2021
1365 Clouds 5 1023 65 10000 3.6 310 10:26 17.03.2021
1366 Clouds 5 1023 65 10000 3.6 310 10:26 17.03.2021
1367 Clouds 5 1023 70 10000 2.06 300 09:48 17.03.2021
1368 Clouds 5 1023 70 10000 2.06 300 09:48 17.03.2021
1369 Clouds 5 1023 81 10000 2.57 300 09:25 17.03.2021
1370 Clouds 4 1022 83 10000 0.45 225 08:58 17.03.2021
1371 Clouds 4 1021 85 10000 0.45 248 08:38 17.03.2021
1372 Clouds 3 1022 87 10000 3.09 290 07:49 17.03.2021
1373 Clouds 3 1022 87 10000 3.09 310 07:30 17.03.2021
1374 Clouds 2 1022 87 10000 2.57 310 06:42 17.03.2021
1375 Clouds 3 1020 88 10000 0.45 248 04:21 17.03.2021
1376 Clouds 3 1022 100 10000 2.06 300 02:50 17.03.2021
1377 Clouds 3 1022 81 10000 2.06 310 00:40 17.03.2021
1378 Clouds 4 1022 81 10000 3.09 320 23:29 16.03.2021
1379 Clouds 4 1021 81 10000 2.57 320 22:51 16.03.2021
1380 Clouds 3 1021 81 10000 2.57 320 22:33 16.03.2021
1381 Clouds 3 1021 75 10000 3.6 330 21:49 16.03.2021
1382 Clear 4 1021 75 10000 3.6 330 21:31 16.03.2021
1383 Clear 3 1021 75 10000 3.6 350 20:59 16.03.2021
1384 Clear 3 1021 75 10000 3.6 350 20:59 16.03.2021
1385 Clear 3 1021 81 10000 3.09 340 20:20 16.03.2021
1386 Clear 3 1021 75 10000 3.6 330 19:58 16.03.2021
1387 Clear 4 1021 75 10000 3.6 330 19:40 16.03.2021
1388 Clear 4 1021 75 10000 3.6 340 19:20 16.03.2021
1389 Clouds 5 1020 65 10000 3.6 320 18:40 16.03.2021
1390 Clouds 6 1020 61 10000 5.14 330 18:21 16.03.2021
1391 Clouds 7 1020 53 10000 6.17 320 17:47 16.03.2021
1392 Clouds 7 1020 53 10000 6.69 320 17:29 16.03.2021
1393 Clouds 8 1020 57 10000 5.14 310 16:52 16.03.2021
1394 Clouds 8 1020 53 10000 7.72 320 16:28 16.03.2021
1395 Clouds 9 1020 57 10000 7.2 320 15:47 16.03.2021
1396 Clouds 8 1020 53 10000 7.72 320 15:21 16.03.2021
1397 Clouds 9 1020 62 10000 6.46 320 14:58 16.03.2021
1398 Clouds 9 1019 64 10000 0.89 225 14:40 16.03.2021
1399 Clouds 8 1020 61 10000 7.72 320 14:20 16.03.2021
1400 Clouds 9 1020 65 10000 6.69 310 13:49 16.03.2021
1401 Clouds 8 1020 75 10000 7.2 300 13:26 16.03.2021
1402 Clouds 8 1020 70 10000 6.17 320 12:53 16.03.2021
1403 Clouds 8 1020 70 10000 6.17 320 12:34 16.03.2021
1404 Clouds 7 1020 75 10000 6.69 310 11:53 16.03.2021
1405 Clouds 6 1020 87 10000 8.23 300 11:24 16.03.2021
1406 Clouds 6 1020 81 10000 6.17 280 10:28 16.03.2021
1407 Clouds 6 1019 75 10000 5.66 300 09:59 16.03.2021
1408 Clouds 6 1019 75 10000 5.66 300 09:38 16.03.2021
1409 Clouds 5 1019 81 10000 6.17 290 09:18 16.03.2021
1410 Clouds 5 1019 87 10000 4.63 280 08:48 16.03.2021
1411 Clouds 5 1019 87 10000 4.12 290 08:30 16.03.2021
1412 Clouds 4 1019 87 10000 4.12 290 07:36 16.03.2021
1413 Clouds 3 1018 93 10000 4.12 280 06:40 16.03.2021
1414 Clouds 2 1018 93 10000 4.63 290 05:59 16.03.2021
1415 Clouds 2 1018 93 10000 4.63 290 05:34 16.03.2021
1416 Clouds 3 1016 87 10000 4.63 300 02:46 16.03.2021
1417 Clouds 4 1016 87 10000 6.17 300 02:24 16.03.2021
1418 Clouds 4 1014 87 10000 6.17 310 00:25 16.03.2021
1419 Clouds 5 1014 75 10000 6.69 300 23:29 15.03.2021
1420 Clouds 5 1013 75 10000 7.2 310 22:55 15.03.2021
1421 Clouds 5 1013 75 10000 7.2 310 22:36 15.03.2021
1422 Clouds 5 1013 75 10000 5.66 320 21:58 15.03.2021
1423 Clouds 5 1013 75 10000 5.66 320 21:38 15.03.2021
1424 Clouds 5 1012 70 10000 8.23 310 21:20 15.03.2021
1425 Clouds 5 1012 75 10000 6.17 310 20:43 15.03.2021
1426 Clouds 5 1011 81 10000 6.69 310 20:24 15.03.2021
1427 Clouds 5 1011 75 10000 7.72 310 19:51 15.03.2021
1428 Clouds 6 1011 75 10000 7.72 310 19:33 15.03.2021
1429 Clouds 6 1010 81 10000 7.2 310 18:57 15.03.2021
1430 Clouds 6 1010 81 10000 7.2 310 18:32 15.03.2021
1431 Clouds 6 1009 81 10000 8.23 320 17:56 15.03.2021
1432 Clouds 7 1009 81 10000 8.23 320 17:33 15.03.2021
1433 Clouds 7 1008 76 10000 8.75 290 16:56 15.03.2021
1434 Clouds 8 1008 76 10000 8.75 290 16:35 15.03.2021
1435 Rain 8 1007 71 10000 9.77 300 15:47 15.03.2021
1436 Clouds 9 1007 76 10000 7.72 300 15:27 15.03.2021
1437 Rain 8 1007 71 10000 10.8 300 14:45 15.03.2021
1438 Rain 8 1007 71 10000 10.8 300 14:45 15.03.2021
1439 Clouds 9 1006 71 10000 10.29 290 14:27 15.03.2021
1440 Rain 9 1006 71 10000 10.29 290 13:55 15.03.2021
1441 Clouds 9 1006 71 10000 10.29 290 13:34 15.03.2021
1442 Clouds 8 1007 81 10000 8.75 280 12:51 15.03.2021
1443 Clouds 8 1007 81 10000 8.23 270 12:20 15.03.2021
1444 Clouds 7 1007 87 10000 6.17 270 11:57 15.03.2021
1445 Clouds 6 1007 87 10000 6.17 270 11:38 15.03.2021
1446 Clouds 7 1006 88 10000 1.34 248 11:18 15.03.2021
1447 Clouds 6 1007 81 10000 6.17 270 10:34 15.03.2021
1448 Clouds 6 1007 87 10000 6.17 270 09:59 15.03.2021
1449 Clouds 6 1007 87 10000 6.17 270 09:40 15.03.2021
1450 Clouds 5 1007 87 10000 4.63 280 08:59 15.03.2021
1451 Clouds 5 1007 87 10000 4.63 280 08:41 15.03.2021
1452 Clouds 4 1007 93 10000 6.17 290 08:19 15.03.2021
1453 Clouds 4 1006 93 10000 4.63 280 07:33 15.03.2021
1454 Clouds 4 1006 93 10000 3.6 260 06:45 15.03.2021
1455 Clouds 3 1006 93 10000 3.6 250 05:35 15.03.2021
1456 Rain 4 1007 87 10000 4.63 250 03:18 15.03.2021
1457 Clear 3 1008 81 10000 3.6 250 00:21 15.03.2021
1458 Clouds 4 1009 87 10000 4.63 250 23:21 14.03.2021
1459 Clouds 5 1009 81 10000 4.63 250 22:48 14.03.2021
1460 Clouds 5 1009 93 10000 3.6 240 22:25 14.03.2021
1461 Clouds 5 1009 93 10000 2.57 250 21:50 14.03.2021
1462 Clouds 5 1009 93 10000 2.06 250 21:21 14.03.2021
1463 Clouds 5 1009 93 10000 2.57 260 20:50 14.03.2021
1464 Clouds 5 1008 87 10000 4.63 272 20:27 14.03.2021
1465 Clouds 5 1008 84 10000 4.63 272 19:50 14.03.2021
1466 Clouds 6 1008 93 10000 2.06 310 19:24 14.03.2021
1467 Clouds 6 1008 87 7000 4.63 250 18:58 14.03.2021
1468 Clouds 6 1008 93 7000 3.6 290 18:28 14.03.2021
1469 Clouds 6 1008 87 10000 5.66 320 17:41 14.03.2021
1470 Clouds 8 1007 76 10000 6.69 270 17:23 14.03.2021
1471 Clouds 9 1007 71 10000 8.23 260 16:52 14.03.2021
1472 Clouds 8 1007 71 10000 8.23 260 16:32 14.03.2021
1473 Clouds 10 1007 61 10000 6.69 260 15:56 14.03.2021
1474 Clouds 10 1007 61 10000 6.69 260 15:36 14.03.2021
1475 Clouds 10 1006 61 10000 7.72 250 14:41 14.03.2021
1476 Clouds 10 1007 61 10000 7.2 270 14:23 14.03.2021
1477 Clouds 9 1007 66 10000 7.72 270 13:49 14.03.2021
1478 Clouds 9 1006 66 10000 7.72 270 13:29 14.03.2021
1479 Clouds 9 1006 66 10000 8.23 270 12:47 14.03.2021
1480 Clouds 8 1006 70 10000 8.75 270 12:28 14.03.2021
1481 Clouds 8 1006 76 10000 7.72 270 11:54 14.03.2021
1482 Clouds 8 1006 76 10000 7.72 270 11:35 14.03.2021
1483 Clouds 7 1005 81 10000 8.23 270 10:56 14.03.2021
1484 Clouds 6 1005 81 10000 8.23 270 10:37 14.03.2021
1485 Clouds 6 1005 87 10000 6.69 270 10:18 14.03.2021
1486 Clouds 6 1004 87 10000 6.69 270 09:43 14.03.2021
1487 Rain 5 1003 87 10000 6.69 260 09:22 14.03.2021
1488 Clouds 5 1003 87 10000 5.66 270 08:43 14.03.2021
1489 Clouds 5 1002 93 10000 3.6 300 08:23 14.03.2021
1490 Rain 4 1001 93 10000 5.14 290 07:37 14.03.2021
1491 Rain 4 1000 87 10000 5.66 270 06:47 14.03.2021
1492 Rain 3 998 93 8000 9.26 290 04:51 14.03.2021
1493 Rain 5 994 75 10000 10.8 250 00:51 14.03.2021
1494 Clouds 5 994 75 10000 9.77 250 00:19 14.03.2021
1495 Clouds 6 993 75 10000 10.8 250 23:47 13.03.2021
1496 Clouds 5 993 75 10000 11.32 250 23:25 13.03.2021
1497 Clouds 5 993 75 10000 11.32 250 22:52 13.03.2021
1498 Clouds 5 993 75 10000 10.29 250 22:26 13.03.2021
1499 Clouds 6 992 75 10000 10.29 250 21:43 13.03.2021
1500 Clouds 5 992 75 10000 10.8 250 21:25 13.03.2021
1501 Clouds 6 992 70 10000 11.32 250 20:50 13.03.2021
1502 Clouds 6 991 70 10000 9.77 250 20:30 13.03.2021
1503 Clouds 6 991 81 10000 10.29 250 19:53 13.03.2021
1504 Clouds 5 991 81 10000 10.8 250 19:29 13.03.2021
1505 Clouds 6 991 81 8000 12.35 250 18:43 13.03.2021
1506 Rain 7 990 81 10000 8.75 240 18:22 13.03.2021
1507 Clouds 6 990 81 10000 8.75 250 17:58 13.03.2021
1508 Rain 7 990 81 10000 8.75 250 17:35 13.03.2021
1509 Rain 8 990 70 10000 9.77 230 16:59 13.03.2021
1510 Clouds 8 990 70 10000 9.77 230 16:39 13.03.2021
1511 Clouds 8 990 81 10000 5.66 250 15:58 13.03.2021
1512 Clouds 7 990 75 10000 10.29 240 15:23 13.03.2021
1513 Rain 8 990 71 10000 9.77 230 14:46 13.03.2021
1514 Clouds 8 990 66 10000 11.32 240 14:25 13.03.2021
1515 Rain 8 990 66 10000 11.83 230 13:45 13.03.2021
1516 Rain 9 990 66 10000 9.77 230 13:21 13.03.2021
1517 Clouds 9 990 71 10000 7.2 230 12:42 13.03.2021
1518 Clouds 8 991 66 10000 9.26 240 11:59 13.03.2021
1519 Clouds 8 991 66 10000 9.26 240 11:40 13.03.2021
1520 Clouds 8 991 76 10000 8.75 250 11:22 13.03.2021
1521 Rain 8 990 76 10000 8.75 210 10:46 13.03.2021
1522 Rain 8 991 81 10000 8.23 200 10:24 13.03.2021
1523 Rain 7 991 81 10000 7.2 200 09:34 13.03.2021
1524 Rain 6 993 87 10000 6.69 190 08:55 13.03.2021
1525 Rain 6 993 87 10000 6.69 190 08:36 13.03.2021
1526 Rain 6 993 87 10000 6.69 190 08:18 13.03.2021
1527 Rain 6 994 87 10000 5.66 190 07:39 13.03.2021
1528 Clouds 6 997 81 10000 4.12 200 05:31 13.03.2021
1529 Clouds 6 1000 81 10000 5.66 230 02:42 13.03.2021
1530 Clouds 4 1000 81 10000 4.63 220 00:36 13.03.2021
1531 Clouds 4 1001 87 10000 4.63 230 23:46 12.03.2021
1532 Clouds 4 1001 87 10000 4.12 240 23:28 12.03.2021
1533 Clouds 4 1001 87 10000 7.2 260 22:41 12.03.2021
1534 Rain 5 1000 75 10000 9.77 240 22:20 12.03.2021
1535 Clouds 6 1000 81 10000 5.66 240 21:38 12.03.2021
1536 Clouds 6 1000 81 10000 5.66 230 21:20 12.03.2021
1537 Clouds 6 1000 81 10000 7.72 240 20:54 12.03.2021
1538 Clouds 6 1000 81 10000 6.69 220 20:31 12.03.2021
1539 Rain 7 1001 87 7000 7.72 250 19:48 12.03.2021
1540 Rain 7 1000 76 10000 6.69 210 19:30 12.03.2021
1541 Rain 7 1001 76 10000 8.23 230 18:54 12.03.2021
1542 Rain 8 1001 76 10000 8.23 230 18:32 12.03.2021
1543 Rain 9 1001 66 10000 8.75 240 17:45 12.03.2021
1544 Clouds 9 1001 57 10000 6.69 230 17:27 12.03.2021
1545 Rain 10 1001 57 10000 5.14 230 16:49 12.03.2021
1546 Clouds 10 1002 61 10000 6.17 230 16:28 12.03.2021
1547 Clouds 10 1002 60 10000 1.34 248 15:40 12.03.2021
1548 Rain 11 1002 57 10000 6.69 230 15:18 12.03.2021
1549 Clouds 11 1003 50 10000 8.75 240 14:40 12.03.2021
1550 Rain 11 1003 53 10000 9.77 250 14:18 12.03.2021
1551 Clouds 10 1004 53 10000 9.77 250 13:40 12.03.2021
1552 Clouds 10 1004 53 10000 9.77 250 13:19 12.03.2021
1553 Clouds 10 1004 53 10000 9.26 250 12:49 12.03.2021
1554 Clouds 10 1004 57 10000 9.77 240 12:28 12.03.2021
1555 Clouds 9 1004 61 10000 11.32 240 11:54 12.03.2021
1556 Clouds 9 1004 65 10000 10.29 250 11:25 12.03.2021
1557 Clouds 9 1004 65 10000 8.75 250 10:57 12.03.2021
1558 Clouds 8 1005 70 10000 9.26 240 10:28 12.03.2021
1559 Clouds 7 1005 75 10000 7.72 260 09:58 12.03.2021
1560 Clouds 7 1004 75 10000 8.23 260 09:27 12.03.2021
1561 Clouds 7 1004 81 10000 7.2 250 08:50 12.03.2021
1562 Clouds 6 1003 81 10000 6.69 250 08:30 12.03.2021
1563 Clouds 5 1003 81 10000 6.17 260 07:41 12.03.2021
1564 Clouds 5 1002 87 10000 5.66 250 06:59 12.03.2021
1565 Clouds 5 1002 87 10000 6.17 260 06:29 12.03.2021
1566 Clouds 6 999 81 10000 4.63 260 03:28 12.03.2021
1567 Clouds 5 999 87 10000 6.69 280 00:52 12.03.2021
1568 Clouds 6 998 87 10000 4.63 280 23:40 11.03.2021
1569 Clouds 7 997 87 10000 5.14 240 22:52 11.03.2021
1570 Clouds 7 997 87 10000 5.14 240 22:32 11.03.2021
1571 Clouds 7 997 87 10000 5.14 240 21:58 11.03.2021
1572 Clouds 6 997 87 10000 5.14 240 21:39 11.03.2021
1573 Clouds 6 996 81 10000 5.14 240 21:20 11.03.2021
1574 Clouds 6 996 87 10000 6.69 260 20:44 11.03.2021
1575 Rain 7 996 76 10000 5.14 230 20:21 11.03.2021
1576 Rain 8 996 76 10000 4.63 250 19:46 11.03.2021
1577 Rain 8 996 87 10000 3.09 230 19:27 11.03.2021
1578 Clouds 8 995 87 10000 3.09 270 18:49 11.03.2021
1579 Clouds 8 995 93 10000 6.69 290 18:31 11.03.2021
1580 Rain 9 994 87 9000 9.26 290 17:45 11.03.2021
1581 Clouds 9 994 81 10000 10.29 280 17:24 11.03.2021
1582 Clouds 12 992 62 10000 14.4 250 16:29 11.03.2021
1583 Clouds 12 992 62 10000 12.86 250 15:49 11.03.2021
1584 Clouds 12 992 76 10000 12.35 270 15:26 11.03.2021
1585 Rain 13 991 62 10000 12.86 240 14:49 11.03.2021
1586 Clouds 13 992 62 10000 11.83 230 14:20 11.03.2021
1587 Rain 14 992 62 10000 12.35 230 13:59 11.03.2021
1588 Clouds 14 992 62 10000 12.35 230 13:38 11.03.2021
1589 Clouds 13 992 62 10000 10.29 230 13:18 11.03.2021
1590 Clouds 12 993 66 10000 9.77 240 12:43 11.03.2021
1591 Rain 12 993 66 10000 9.77 240 12:25 11.03.2021
1592 Rain 12 994 71 10000 9.77 230 11:43 11.03.2021
1593 Clouds 11 994 81 10000 6.69 210 11:25 11.03.2021
1594 Clouds 9 995 81 10000 7.72 210 10:42 11.03.2021
1595 Rain 9 995 81 10000 6.69 220 10:20 11.03.2021
1596 Clouds 9 996 87 10000 5.66 210 09:44 11.03.2021
1597 Clouds 9 996 81 10000 6.69 200 09:23 11.03.2021
1598 Clouds 8 996 87 10000 6.17 190 08:47 11.03.2021
1599 Clouds 8 996 87 10000 5.66 190 08:19 11.03.2021
1600 Rain 7 998 93 6000 6.17 210 07:30 11.03.2021
1601 Clouds 7 998 81 10000 7.2 210 06:50 11.03.2021
1602 Clouds 7 998 81 10000 6.69 210 06:30 11.03.2021
1603 Clouds 7 1001 81 10000 6.17 180 03:54 11.03.2021
1604 Rain 7 1006 76 10000 6.17 190 01:19 11.03.2021
1605 Rain 7 1008 70 10000 5.14 180 23:48 10.03.2021
1606 Rain 7 1009 70 10000 5.66 170 23:19 10.03.2021
1607 Rain 7 1009 70 10000 5.66 170 23:19 10.03.2021
1608 Rain 7 1009 70 10000 5.14 160 22:34 10.03.2021
1609 Rain 7 1011 70 10000 4.63 170 21:47 10.03.2021
1610 Clouds 7 1012 70 10000 4.63 170 21:26 10.03.2021
1611 Clouds 7 1012 76 10000 4.63 160 20:51 10.03.2021
1612 Clouds 7 1012 76 10000 4.63 160 20:33 10.03.2021
1613 Rain 7 1013 70 10000 3.6 170 19:54 10.03.2021
1614 Rain 7 1013 70 10000 3.6 170 19:33 10.03.2021
1615 Rain 7 1014 70 10000 2.06 150 18:55 10.03.2021
1616 Rain 7 1014 70 10000 2.06 150 18:36 10.03.2021
1617 Rain 7 1014 70 10000 2.06 160 18:18 10.03.2021
1618 Clouds 8 1014 66 10000 2.57 180 17:41 10.03.2021
1619 Clouds 8 1015 66 10000 3.09 190 17:19 10.03.2021
1620 Clouds 8 1015 66 10000 4.12 190 16:47 10.03.2021
1621 Clouds 8 1015 66 10000 3.09 180 16:25 10.03.2021
1622 Clouds 8 1016 65 10000 3.09 170 15:49 10.03.2021
1623 Clear 8 1016 65 10000 3.6 200 15:25 10.03.2021
1624 Clouds 8 1016 65 10000 3.6 180 14:57 10.03.2021
1625 Clouds 8 1017 61 10000 4.12 190 14:22 10.03.2021
1626 Clouds 8 1017 61 10000 4.12 180 13:54 10.03.2021
1627 Clouds 7 1018 70 10000 3.6 200 13:31 10.03.2021
1628 Clouds 7 1018 65 10000 3.09 170 12:48 10.03.2021
1629 Clouds 7 1018 70 10000 3.09 160 12:24 10.03.2021
1630 Clouds 6 1018 75 10000 2.57 160 11:50 10.03.2021
1631 Clouds 6 1018 75 10000 2.06 180 11:22 10.03.2021
1632 Clouds 6 1018 75 7000 1.54 140 10:50 10.03.2021
1633 Clouds 5 1019 81 7000 1.03 0 10:31 10.03.2021
1634 Clouds 5 1019 87 6000 1.03 0 09:55 10.03.2021
1635 Mist 4 1018 93 4200 0.51 0 09:37 10.03.2021
1636 Mist 4 1018 93 4200 0.51 0 09:18 10.03.2021
1637 Mist 4 1018 93 3200 0.51 0 08:42 10.03.2021
1638 Mist 4 1018 100 2400 1.03 0 08:23 10.03.2021
1639 Mist 3 1018 100 1800 0.51 0 07:42 10.03.2021
1640 Fog 3 1018 100 2200 1.03 40 07:21 10.03.2021
1641 Fog 3 1018 100 2000 1.03 20 06:49 10.03.2021
1642 Mist 3 1018 100 3000 0.51 0 02:42 10.03.2021
1643 Mist 3 1017 100 3000 1.03 60 23:59 09.03.2021
1644 Mist 3 1018 100 2800 1.03 60 23:27 09.03.2021
1645 Clouds 4 1017 93 10000 0.82 56 22:49 09.03.2021
1646 Mist 4 1018 93 4000 1.54 60 22:28 09.03.2021
1647 Mist 3 1018 93 5000 1.03 30 21:58 09.03.2021
1648 Mist 3 1018 93 5000 1.03 30 21:37 09.03.2021
1649 Mist 3 1018 93 4500 1.03 30 21:18 09.03.2021
1650 Mist 3 1017 93 5000 1.03 30 20:43 09.03.2021
1651 Mist 3 1017 93 5000 0.51 70 20:22 09.03.2021
1652 Mist 3 1017 93 5000 0.51 0 19:53 09.03.2021
1653 Mist 3 1017 93 5000 0.51 0 19:28 09.03.2021
1654 Clouds 3 1017 93 9000 1.54 130 18:54 09.03.2021
1655 Clouds 3 1016 93 10000 1.54 140 18:29 09.03.2021
1656 Clouds 3 1016 93 10000 1.54 130 17:54 09.03.2021
1657 Clouds 3 1016 93 10000 1.54 130 17:34 09.03.2021
1658 Clouds 3 1016 93 10000 2.57 150 16:55 09.03.2021
1659 Clouds 3 1016 93 10000 2.57 150 16:37 09.03.2021
1660 Clouds 3 1016 93 10000 2.57 150 16:19 09.03.2021
1661 Clouds 3 1016 93 10000 2.57 140 15:44 09.03.2021
1662 Clouds 3 1016 93 10000 2.06 140 15:22 09.03.2021
1663 Clouds 3 1016 93 10000 2.57 140 14:36 09.03.2021
1664 Clouds 3 1017 93 9000 3.09 150 14:18 09.03.2021
1665 Snow 3 1017 93 9000 3.6 150 13:38 09.03.2021
1666 Rain 2 1017 93 9000 3.6 150 13:20 09.03.2021
1667 Snow 2 1017 93 6000 3.6 140 12:40 09.03.2021
1668 Snow 2 1017 100 6000 3.09 140 12:21 09.03.2021
1669 Snow 2 1017 93 3600 3.6 150 11:42 09.03.2021
1670 Snow 2 1017 93 3800 4.12 140 11:21 09.03.2021
1671 Snow 2 1017 93 3800 4.12 140 10:55 09.03.2021
1672 Snow 1 1017 93 3800 4.12 140 10:36 09.03.2021
1673 Snow 2 1017 93 6000 4.63 150 10:18 09.03.2021
1674 Snow 2 1018 93 5000 4.12 150 09:42 09.03.2021
1675 Snow 2 1018 93 5000 3.6 150 09:23 09.03.2021
1676 Snow 2 1018 93 6000 3.09 150 08:46 09.03.2021
1677 Snow 2 1018 93 7000 3.09 140 08:21 09.03.2021
1678 Snow 2 1018 93 8000 3.09 150 07:38 09.03.2021
1679 Snow 2 1018 93 8000 2.57 160 07:20 09.03.2021
1680 Snow 3 1018 70 10000 3.09 210 05:55 09.03.2021
1681 Snow 3 1018 70 10000 3.09 210 05:37 09.03.2021
1682 Clear 3 1021 56 10000 1.54 140 00:30 09.03.2021
1683 Clear 3 1021 56 10000 1.54 140 23:43 08.03.2021
1684 Clear 3 1021 56 10000 1.54 140 23:25 08.03.2021
1685 Clear 3 1021 56 10000 1.54 130 22:48 08.03.2021
1686 Clear 3 1021 56 10000 2.06 120 22:29 08.03.2021
1687 Clear 3 1021 56 10000 1.54 110 21:56 08.03.2021
1688 Clear 3 1021 56 10000 1.54 110 21:35 08.03.2021
1689 Clear 3 1022 56 10000 1.54 100 20:48 08.03.2021
1690 Clear 3 1022 52 10000 1.54 90 20:27 08.03.2021
1691 Clear 3 1022 52 10000 1.03 90 19:59 08.03.2021
1692 Clear 4 1022 52 10000 1.03 90 19:36 08.03.2021
1693 Clear 4 1022 48 10000 1.03 0 18:42 08.03.2021
1694 Clear 5 1022 42 10000 2.06 130 18:23 08.03.2021
1695 Clear 5 1022 39 10000 2.57 140 17:51 08.03.2021
1696 Clear 6 1022 39 10000 2.57 140 17:32 08.03.2021
1697 Clouds 6 1022 39 10000 2.06 90 16:49 08.03.2021
1698 Clouds 7 1022 42 10000 2.06 0 16:29 08.03.2021
1699 Clouds 7 1022 39 10000 2.57 90 15:51 08.03.2021
1700 Clouds 7 1022 39 10000 3.6 100 15:29 08.03.2021
1701 Clouds 7 1023 36 10000 2.06 0 14:49 08.03.2021
1702 Clouds 7 1023 36 10000 3.09 100 14:20 08.03.2021
1703 Clouds 7 1023 39 10000 3.09 100 13:43 08.03.2021
1704 Clouds 6 1023 42 10000 2.57 120 13:20 08.03.2021
1705 Clouds 7 1023 42 10000 3.09 100 12:46 08.03.2021
1706 Clouds 7 1023 42 10000 3.6 90 12:27 08.03.2021
1707 Clouds 5 1023 56 10000 2.57 90 11:40 08.03.2021
1708 Clouds 5 1023 60 10000 1.03 0 11:19 08.03.2021
1709 Clouds 4 1023 70 10000 2.06 80 10:43 08.03.2021
1710 Clouds 3 1023 75 10000 2.57 90 10:24 08.03.2021
1711 Clear 2 1023 80 10000 2.06 80 09:41 08.03.2021
1712 Clear 1 1023 86 10000 1.54 70 09:22 08.03.2021
1713 Fog 0 1023 93 7000 0.51 290 08:28 08.03.2021
1714 Clouds 0 1021 92 10000 1.4 41 07:24 08.03.2021
1715 Fog -1 1022 93 6000 0.51 0 06:44 08.03.2021
1716 Clouds 2 1021 93 10000 2.06 320 03:39 08.03.2021
1717 Mist 3 1020 87 4000 3.6 270 00:45 08.03.2021
1718 Rain 3 1020 81 10000 4.12 260 23:59 07.03.2021
1719 Rain 4 1020 81 10000 4.12 260 23:39 07.03.2021
1720 Rain 4 1020 81 10000 4.12 270 23:19 07.03.2021
1721 Clouds 4 1020 81 10000 4.63 270 22:43 07.03.2021
1722 Clear 4 1020 75 10000 5.14 280 22:25 07.03.2021
1723 Clear 4 1020 75 10000 4.63 270 21:45 07.03.2021
1724 Clear 4 1020 75 10000 4.12 270 21:25 07.03.2021
1725 Clear 4 1020 75 10000 5.14 270 20:48 07.03.2021
1726 Clouds 4 1021 75 10000 5.14 270 20:30 07.03.2021
1727 Clouds 4 1021 75 10000 4.12 280 19:57 07.03.2021
1728 Clouds 4 1021 75 10000 4.12 280 19:38 07.03.2021
1729 Clouds 4 1021 75 10000 4.12 280 19:20 07.03.2021
1730 Clouds 4 1021 75 10000 4.12 280 19:20 07.03.2021
1731 Clouds 4 1021 70 10000 5.14 280 18:42 07.03.2021
1732 Clouds 4 1021 70 10000 4.63 280 18:19 07.03.2021
1733 Clouds 4 1021 70 10000 4.12 280 17:41 07.03.2021
1734 Clouds 4 1021 70 10000 5.14 280 17:20 07.03.2021
1735 Clouds 5 1021 65 10000 6.69 270 16:58 07.03.2021
1736 Clouds 5 1021 65 10000 6.69 270 16:38 07.03.2021
1737 Clouds 5 1021 65 10000 6.17 270 16:19 07.03.2021
1738 Clouds 5 1021 65 10000 6.17 280 15:42 07.03.2021
1739 Clouds 5 1022 65 10000 5.14 280 15:22 07.03.2021
1740 Clouds 6 1022 60 10000 6.17 280 14:30 07.03.2021
1741 Clouds 5 1023 70 10000 4.63 270 13:59 07.03.2021
1742 Clouds 5 1023 70 10000 4.63 270 13:40 07.03.2021
1743 Clouds 5 1024 65 10000 5.14 280 13:20 07.03.2021
1744 Clouds 5 1023 67 10000 1.34 248 12:44 07.03.2021
1745 Clouds 5 1023 67 10000 1.34 248 12:24 07.03.2021
1746 Clouds 5 1023 68 10000 1.34 248 11:25 07.03.2021
1747 Clouds 4 1023 69 10000 0.89 248 10:59 07.03.2021
1748 Clouds 4 1023 71 10000 0.89 248 10:39 07.03.2021
1749 Clouds 4 1025 70 10000 5.14 260 10:19 07.03.2021
1750 Clouds 4 1024 77 10000 0.45 248 09:40 07.03.2021
1751 Clear 3 1024 76 10000 0.45 248 09:21 07.03.2021
1752 Clear 3 1024 81 10000 0.45 293 08:45 07.03.2021
1753 Clouds 2 1025 86 10000 2.57 260 08:23 07.03.2021
1754 Clouds 1 1025 86 10000 2.06 280 07:25 07.03.2021
1755 Clouds 1 1027 93 10000 2.06 280 02:40 07.03.2021
1756 Clouds 3 1029 87 10000 2.06 260 00:38 07.03.2021
1757 Clouds 4 1029 87 10000 1.54 260 23:41 06.03.2021
1758 Clouds 4 1029 87 10000 1.54 260 23:22 06.03.2021
1759 Clouds 4 1029 87 10000 1.54 280 22:47 06.03.2021
1760 Clouds 4 1030 87 10000 2.06 290 22:25 06.03.2021
1761 Clouds 5 1030 81 10000 2.57 300 21:54 06.03.2021
1762 Clouds 5 1030 81 10000 2.06 290 21:21 06.03.2021
1763 Clouds 5 1030 81 10000 1.54 280 20:48 06.03.2021
1764 Clouds 5 1030 81 10000 2.57 280 20:26 06.03.2021
1765 Clouds 5 1030 87 10000 2.06 270 19:41 06.03.2021
1766 Clouds 5 1030 75 10000 2.57 300 19:19 06.03.2021
1767 Clouds 5 1030 75 10000 2.06 270 18:45 06.03.2021
1768 Clouds 5 1030 75 10000 3.09 260 18:23 06.03.2021
1769 Clouds 5 1030 75 10000 3.09 260 17:56 06.03.2021
1770 Clouds 5 1030 75 10000 3.09 260 17:37 06.03.2021
1771 Clouds 6 1030 75 10000 3.09 240 17:18 06.03.2021
1772 Clouds 7 1031 81 10000 2.57 270 16:39 06.03.2021
1773 Clouds 7 1031 75 10000 2.57 270 16:20 06.03.2021
1774 Clouds 6 1031 81 10000 3.09 270 15:41 06.03.2021
1775 Clouds 6 1032 75 10000 4.63 290 15:23 06.03.2021
1776 Clouds 6 1032 81 10000 5.14 270 14:34 06.03.2021
1777 Clouds 5 1033 81 10000 5.14 270 13:57 06.03.2021
1778 Clouds 6 1033 81 10000 5.14 270 13:39 06.03.2021
1779 Clouds 5 1033 87 10000 4.12 270 13:19 06.03.2021
1780 Clouds 5 1033 87 10000 4.63 270 12:44 06.03.2021
1781 Clouds 5 1033 87 10000 4.63 270 12:19 06.03.2021
1782 Clouds 5 1033 81 10000 4.63 270 11:47 06.03.2021
1783 Clouds 4 1033 80 10000 3.6 270 11:21 06.03.2021
1784 Clouds 3 1033 87 10000 3.6 260 10:45 06.03.2021
1785 Clouds 3 1033 86 6000 3.09 270 10:18 06.03.2021
1786 Snow 2 1033 80 10000 3.09 260 09:40 06.03.2021
1787 Snow 1 1033 86 10000 2.57 260 09:19 06.03.2021
1788 Clouds 1 1033 80 10000 3.09 270 08:33 06.03.2021
1789 Clouds 0 1032 86 10000 3.09 270 07:56 06.03.2021
1790 Clouds -1 1032 86 10000 2.57 250 07:23 06.03.2021
1791 Clear -2 1032 86 10000 2.57 250 06:44 06.03.2021
1792 Clear -2 1032 100 10000 2.54 262 03:49 06.03.2021
1793 Clear -2 1033 74 10000 1.03 260 02:24 06.03.2021
1794 Clear -1 1032 80 10000 0.51 0 00:47 06.03.2021
1795 Clear -1 1032 69 10000 1.03 250 23:51 05.03.2021
1796 Clear -1 1032 69 10000 1.03 0 23:24 05.03.2021
1797 Clear 0 1032 69 10000 1.03 0 22:45 05.03.2021
1798 Clear 0 1032 64 10000 1.03 0 22:22 05.03.2021
1799 Clear 0 1031 59 10000 1.03 0 21:52 05.03.2021
1800 Clear 0 1031 59 10000 1.03 0 21:33 05.03.2021
1801 Clear 1 1031 64 10000 1.03 290 20:54 05.03.2021
1802 Clear 1 1030 59 10000 0.51 250 20:26 05.03.2021
1803 Clear 2 1030 55 10000 1.03 0 19:56 05.03.2021
1804 Clear 2 1030 51 10000 2.06 290 19:26 05.03.2021
1805 Clear 2 1030 51 10000 2.57 310 18:57 05.03.2021
1806 Clear 3 1030 51 10000 2.57 310 18:39 05.03.2021
1807 Clear 4 1030 52 10000 3.6 310 18:18 05.03.2021
1808 Clear 5 1029 42 10000 3.09 310 17:35 05.03.2021
1809 Clouds 6 1029 42 10000 3.6 320 16:49 05.03.2021
1810 Clouds 6 1029 36 10000 3.6 360 16:24 05.03.2021
1811 Clouds 6 1028 39 10000 3.09 330 15:58 05.03.2021
1812 Clouds 6 1028 39 10000 3.09 330 15:39 05.03.2021
1813 Clouds 7 1028 42 10000 2.57 0 15:20 05.03.2021
1814 Clouds 7 1028 42 10000 3.6 330 14:38 05.03.2021
1815 Clouds 7 1028 42 10000 3.6 330 14:38 05.03.2021
1816 Clouds 7 1028 48 10000 2.06 350 13:55 05.03.2021
1817 Clouds 6 1028 52 10000 3.09 330 13:22 05.03.2021
1818 Clouds 6 1028 60 10000 3.6 340 12:55 05.03.2021
1819 Clouds 4 1028 70 10000 2.57 300 11:56 05.03.2021
1820 Clouds 4 1028 70 10000 2.57 300 11:36 05.03.2021
1821 Clouds 4 1027 65 10000 2.06 340 11:18 05.03.2021
1822 Clouds 3 1027 75 10000 1.54 0 10:40 05.03.2021
1823 Clouds 2 1027 80 10000 1.03 0 10:22 05.03.2021
1824 Clouds 1 1027 80 10000 2.06 20 09:47 05.03.2021
1825 Clouds 0 1026 86 10000 2.06 340 09:26 05.03.2021
1826 Clear 0 1026 86 10000 1.54 330 08:41 05.03.2021
1827 Clear -1 1026 93 10000 1.03 0 08:22 05.03.2021
1828 Clear -1 1024 89 10000 2.48 351 07:43 05.03.2021
1829 Clouds -1 1024 93 10000 1.54 310 06:56 05.03.2021
1830 Clouds -1 1024 86 10000 1.54 340 06:31 05.03.2021
1831 Clouds 2 1021 93 10000 3.6 10 01:52 05.03.2021
1832 Clouds 3 1020 93 10000 3.6 10 00:34 05.03.2021
1833 Clouds 3 1020 93 10000 3.6 30 23:31 04.03.2021
1834 Clouds 3 1019 93 10000 4.63 40 22:38 04.03.2021
1835 Clouds 3 1019 93 10000 2.57 320 21:56 04.03.2021
1836 Clouds 4 1019 93 10000 2.57 320 21:37 04.03.2021
1837 Clouds 4 1018 93 10000 3.09 320 21:18 04.03.2021
1838 Drizzle 4 1018 93 10000 4.12 330 20:41 04.03.2021
1839 Clouds 4 1018 87 10000 3.6 300 20:21 04.03.2021
1840 Clouds 4 1018 93 10000 2.57 280 19:53 04.03.2021
1841 Clouds 4 1018 87 10000 2.06 270 19:27 04.03.2021
1842 Clouds 4 1018 93 10000 2.06 260 18:54 04.03.2021
1843 Clouds 4 1018 93 10000 2.06 260 18:31 04.03.2021
1844 Clouds 4 1018 93 10000 2.57 270 17:58 04.03.2021
1845 Clouds 4 1018 93 10000 2.57 270 17:39 04.03.2021
1846 Clouds 4 1018 93 10000 2.06 270 17:18 04.03.2021
1847 Rain 5 1018 93 10000 2.57 270 16:43 04.03.2021
1848 Rain 5 1018 93 10000 3.09 270 16:24 04.03.2021
1849 Clouds 5 1018 93 10000 3.09 280 15:46 04.03.2021
1850 Clouds 5 1018 81 10000 2.57 260 15:27 04.03.2021
1851 Clouds 4 1017 87 10000 4.04 300 14:44 04.03.2021
1852 Clouds 4 1017 89 10000 0.45 248 14:18 04.03.2021
1853 Clouds 4 1019 87 10000 3.6 300 13:42 04.03.2021
1854 Clouds 4 1019 93 9000 4.63 290 13:22 04.03.2021
1855 Clouds 4 1019 87 7000 4.63 310 12:42 04.03.2021
1856 Clouds 4 1019 93 6000 4.12 300 11:58 04.03.2021
1857 Clouds 3 1019 93 6000 4.12 300 11:40 04.03.2021
1858 Mist 3 1019 93 5000 4.63 310 11:19 04.03.2021
1859 Mist 3 1019 100 5000 3.6 280 10:37 04.03.2021
1860 Mist 3 1019 93 4500 3.6 310 10:18 04.03.2021
1861 Drizzle 3 1020 100 1500 3.09 280 09:28 04.03.2021
1862 Drizzle 3 1020 100 1500 3.09 280 09:28 04.03.2021
1863 Drizzle 3 1020 93 1500 2.06 320 08:53 04.03.2021
1864 Mist 3 1020 93 1500 2.57 310 08:31 04.03.2021
1865 Fog 3 1020 93 900 3.09 320 07:45 04.03.2021
1866 Fog 4 1020 100 900 3.09 300 06:48 04.03.2021
1867 Mist 4 1020 100 2800 4.12 290 06:21 04.03.2021
1868 Mist 5 1022 93 4000 3.09 310 02:39 04.03.2021
1869 Clear 6 1022 87 7000 3.09 300 00:31 04.03.2021
1870 Clouds 7 1023 81 9000 2.57 260 22:39 03.03.2021
1871 Clear 7 1023 81 9000 2.06 260 22:21 03.03.2021
1872 Clear 8 1023 81 9000 2.06 250 21:41 03.03.2021
1873 Clear 8 1023 81 9000 2.57 260 21:23 03.03.2021
1874 Clear 8 1023 81 10000 3.09 280 20:55 03.03.2021
1875 Clear 9 1023 81 10000 3.09 280 20:36 03.03.2021
1876 Clear 9 1023 81 10000 3.09 280 20:36 03.03.2021
1877 Clear 9 1023 81 10000 3.09 280 20:36 03.03.2021
1878 Clear 9 1024 76 10000 3.09 270 19:54 03.03.2021
1879 Clear 10 1024 76 10000 3.09 270 19:36 03.03.2021
1880 Clear 10 1024 76 10000 2.57 280 19:18 03.03.2021
1881 Clear 11 1024 71 10000 3.09 280 18:40 03.03.2021
1882 Clear 12 1024 62 10000 3.6 270 17:58 03.03.2021
1883 Clear 13 1024 58 10000 4.12 260 17:22 03.03.2021
1884 Clear 14 1024 54 10000 5.14 260 16:58 03.03.2021
1885 Clear 15 1024 51 10000 5.14 250 16:28 03.03.2021
1886 Clear 15 1024 51 10000 4.63 250 15:59 03.03.2021
1887 Clear 15 1024 51 10000 4.63 250 15:33 03.03.2021
1888 Clear 16 1025 47 10000 5.14 260 14:51 03.03.2021
1889 Clear 16 1025 51 10000 5.66 250 14:27 03.03.2021
1890 Clear 15 1026 51 10000 5.14 260 13:47 03.03.2021
1891 Clear 15 1026 54 10000 3.09 250 13:28 03.03.2021
1892 Clear 14 1026 50 10000 3.09 250 12:43 03.03.2021
1893 Clear 12 1027 62 10000 1.54 250 12:23 03.03.2021
1894 Clear 13 1027 58 10000 1.03 0 11:45 03.03.2021
1895 Clear 11 1027 66 10000 1.03 0 11:27 03.03.2021
1896 Clear 10 1027 66 10000 1.03 0 10:46 03.03.2021
1897 Clear 9 1027 71 10000 1.03 0 10:22 03.03.2021
1898 Clear 8 1028 81 10000 1.03 0 09:44 03.03.2021
1899 Clear 5 1028 93 10000 1.03 0 08:55 03.03.2021
1900 Clear 3 1028 93 10000 1.03 0 08:37 03.03.2021
1901 Mist 3 1028 100 7000 0.51 90 08:18 03.03.2021
1902 Fog 2 1028 93 3000 1.03 90 07:39 03.03.2021
1903 Fog 1 1028 100 1300 1.54 90 06:46 03.03.2021
1904 Fog 1 1028 100 700 0.51 80 05:44 03.03.2021
1905 Fog 2 1028 100 900 0.51 90 04:49 03.03.2021
1906 Fog 2 1028 100 900 1.54 90 04:24 03.03.2021
1907 Fog 3 1030 100 800 2.06 100 00:37 03.03.2021
1908 Fog 3 1030 100 3000 3.09 100 23:35 02.03.2021
1909 Clear 4 1030 93 6000 3.09 80 22:53 02.03.2021
1910 Clear 5 1031 93 6000 3.09 90 22:23 02.03.2021
1911 Clear 5 1031 93 6000 2.57 100 21:59 02.03.2021
1912 Clear 5 1031 93 6000 2.57 100 21:37 02.03.2021
1913 Clear 5 1031 93 7000 2.57 90 21:18 02.03.2021
1914 Clear 6 1031 87 7000 2.06 90 20:41 02.03.2021
1915 Clear 6 1031 87 8000 1.03 0 20:21 02.03.2021
1916 Clear 6 1031 93 9000 2.57 100 19:47 02.03.2021
1917 Clear 7 1031 87 10000 1.54 110 19:28 02.03.2021
1918 Clear 8 1031 81 10000 3.6 90 18:43 02.03.2021
1919 Clear 9 1031 81 10000 4.12 90 18:24 02.03.2021
1920 Clear 9 1031 76 10000 4.63 90 17:58 02.03.2021
1921 Clear 10 1031 76 10000 4.63 90 17:39 02.03.2021
1922 Clear 10 1031 71 10000 4.63 80 17:20 02.03.2021
1923 Clear 10 1032 71 10000 5.14 80 16:47 02.03.2021
1924 Clear 12 1032 76 10000 3.6 90 15:55 02.03.2021
1925 Clear 11 1032 71 10000 3.09 90 15:27 02.03.2021
1926 Clear 11 1032 71 10000 3.09 90 15:27 02.03.2021
1927 Clear 10 1032 76 10000 3.6 80 14:50 02.03.2021
1928 Clear 10 1033 76 10000 4.12 80 14:19 02.03.2021
1929 Clouds 9 1033 87 9000 4.12 80 13:47 02.03.2021
1930 Clouds 8 1033 87 9000 4.12 80 13:25 02.03.2021
1931 Clouds 9 1034 93 6000 4.12 90 12:47 02.03.2021
1932 Fog 7 1034 93 3200 4.12 80 12:25 02.03.2021
1933 Fog 5 1034 100 2500 3.09 110 11:47 02.03.2021
1934 Fog 4 1034 100 900 2.57 110 11:23 02.03.2021
1935 Fog 2 1034 100 600 4.63 90 10:53 02.03.2021
1936 Fog 1 1034 100 350 2.57 110 10:29 02.03.2021
1937 Fog 1 1034 100 200 2.57 120 09:43 02.03.2021
1938 Fog 2 1034 100 200 2.06 110 09:24 02.03.2021
1939 Fog 2 1034 100 200 2.57 110 08:44 02.03.2021
1940 Fog 2 1033 100 200 2.57 110 08:26 02.03.2021
1941 Fog 2 1033 100 150 1.54 120 07:46 02.03.2021
1942 Fog 2 1033 100 150 2.57 100 06:37 02.03.2021
1943 Fog 2 1033 100 200 3.09 110 05:50 02.03.2021
1944 Fog 2 1033 100 200 3.09 110 05:32 02.03.2021
1945 Fog 2 1033 100 200 3.09 100 04:24 02.03.2021
1946 Fog 1 1034 100 1800 2.57 100 01:42 02.03.2021
1947 Fog 1 1034 100 3200 3.09 90 01:19 02.03.2021
1948 Clear 2 1034 93 6000 3.09 80 23:29 01.03.2021
1949 Clear 2 1034 93 7000 2.57 90 22:43 01.03.2021
1950 Clear 3 1034 93 7000 2.57 70 22:25 01.03.2021
1951 Clear 3 1034 93 7000 2.06 70 21:53 01.03.2021
1952 Clear 3 1034 93 8000 1.54 50 21:24 01.03.2021
1953 Clear 3 1034 93 10000 2.06 80 21:00 01.03.2021
1954 Clear 3 1034 93 10000 2.06 80 20:41 01.03.2021
1955 Clear 4 1034 93 10000 1.54 80 20:19 01.03.2021
1956 Clear 4 1034 87 10000 1.54 80 19:43 01.03.2021
1957 Clear 5 1034 87 10000 1.54 60 19:20 01.03.2021
1958 Clear 6 1034 81 10000 1.03 0 18:42 01.03.2021
1959 Clear 7 1034 75 10000 1.54 90 18:22 01.03.2021
1960 Clear 7 1034 70 10000 2.57 90 17:46 01.03.2021
1961 Clear 8 1034 70 10000 2.57 90 17:21 01.03.2021
1962 Clear 8 1034 70 10000 2.06 100 16:46 01.03.2021
1963 Clear 8 1034 70 10000 2.57 80 16:26 01.03.2021
1964 Clear 9 1035 70 9000 2.57 90 15:46 01.03.2021
1965 Clear 9 1035 65 7000 2.06 110 15:22 01.03.2021
1966 Clouds 9 1035 70 6000 3.6 90 14:55 01.03.2021
1967 Clouds 9 1035 70 6000 3.6 90 14:36 01.03.2021
1968 Clouds 7 1035 75 9000 2.06 120 13:44 01.03.2021
1969 Clouds 7 1036 70 10000 1.54 170 13:25 01.03.2021
1970 Clouds 7 1036 75 10000 2.06 140 12:59 01.03.2021
1971 Clouds 7 1036 75 10000 2.06 140 12:40 01.03.2021
1972 Clouds 6 1036 75 10000 1.54 170 12:19 01.03.2021
1973 Clouds 6 1036 81 10000 2.06 160 11:42 01.03.2021
1974 Clouds 5 1036 87 10000 1.54 120 10:45 01.03.2021
1975 Clouds 5 1036 87 10000 1.54 70 10:23 01.03.2021
1976 Clouds 5 1036 87 10000 1.54 120 09:59 01.03.2021
1977 Clouds 4 1036 87 10000 1.54 120 09:41 01.03.2021
1978 Clouds 4 1036 87 10000 1.03 0 09:21 01.03.2021
1979 Clouds 4 1035 89 10000 1.28 130 08:52 01.03.2021
1980 Clouds 4 1036 93 10000 0.51 0 08:20 01.03.2021
1981 Clouds 4 1036 93 10000 0.51 0 06:53 01.03.2021
1982 Clouds 4 1035 100 10000 1.54 320 04:45 01.03.2021
1983 Clouds 3 1036 93 8000 2.06 340 00:56 01.03.2021
1984 Fog 3 1036 100 8000 0.51 0 23:37 28.02.2021
1985 Clouds 4 1036 100 10000 1.03 0 22:51 28.02.2021
1986 Clouds 4 1036 93 10000 1.54 220 22:23 28.02.2021
1987 Clouds 5 1036 93 10000 1.54 200 21:54 28.02.2021
1988 Clouds 5 1036 93 10000 1.54 210 21:28 28.02.2021
1989 Clouds 5 1036 87 10000 0.51 0 20:58 28.02.2021
1990 Clouds 5 1036 87 10000 0.51 0 20:37 28.02.2021
1991 Clouds 6 1036 87 10000 1.03 0 19:48 28.02.2021
1992 Clouds 6 1036 93 10000 1.03 0 19:28 28.02.2021
1993 Clouds 5 1036 100 9000 1.54 360 18:59 28.02.2021
1994 Clouds 5 1036 100 9000 1.54 360 18:38 28.02.2021
1995 Clouds 5 1036 100 8000 1.03 0 18:19 28.02.2021
1996 Clouds 5 1036 93 8000 1.54 330 17:46 28.02.2021
1997 Drizzle 4 1036 93 8000 2.57 10 17:27 28.02.2021
1998 Clouds 6 1037 93 8000 2.06 350 16:53 28.02.2021
1999 Clouds 6 1037 93 8000 2.06 350 16:34 28.02.2021
2000 Clouds 4 1037 100 8000 1.03 0 15:55 28.02.2021
2001 Clouds 4 1037 100 8000 1.03 0 15:36 28.02.2021
2002 Clouds 4 1037 100 8000 0.51 110 15:18 28.02.2021
2003 Clouds 4 1037 93 6000 2.06 350 14:44 28.02.2021
2004 Mist 4 1038 93 2500 1.54 340 14:24 28.02.2021
2005 Fog 4 1038 100 800 2.06 360 13:47 28.02.2021
2006 Fog 7 1038 93 800 1.54 320 13:19 28.02.2021
2007 Fog 7 1038 93 800 1.54 320 13:19 28.02.2021
2008 Fog 6 1038 100 350 2.57 330 12:55 28.02.2021
2009 Fog 6 1038 100 350 2.57 330 12:55 28.02.2021
2010 Fog 5 1038 100 350 2.57 330 12:37 28.02.2021
2011 Fog 5 1038 100 300 2.06 290 12:19 28.02.2021
2012 Fog 5 1038 100 200 2.06 300 11:42 28.02.2021
2013 Fog 4 1038 100 200 2.06 300 11:24 28.02.2021
2014 Fog 4 1038 93 200 3.09 340 10:52 28.02.2021
2015 Fog 4 1038 100 200 2.06 330 10:26 28.02.2021
2016 Fog 4 1038 100 150 2.57 310 09:42 28.02.2021
2017 Fog 3 1038 100 100 1.54 280 09:24 28.02.2021
2018 Fog 3 1038 100 100 2.06 290 08:49 28.02.2021
2019 Fog 3 1038 100 100 2.57 270 08:31 28.02.2021
2020 Fog 3 1038 100 100 2.06 270 07:54 28.02.2021
2021 Fog 3 1038 100 100 2.06 270 07:36 28.02.2021
2022 Fog 2 1038 100 100 1.03 0 06:29 28.02.2021
2023 Fog 3 1038 100 100 1.54 300 05:24 28.02.2021
2024 Clear 3 1037 93 10000 1.31 288 03:26 28.02.2021
2025 Fog 4 1039 93 8000 1.03 0 01:41 28.02.2021
2026 Clear 4 1039 100 10000 1.03 320 00:49 28.02.2021
2027 Clouds 5 1039 93 10000 1.03 280 00:25 28.02.2021
2028 Clouds 6 1039 93 10000 1.03 310 23:44 27.02.2021
2029 Clouds 6 1039 87 10000 1.03 0 23:19 27.02.2021
2030 Clouds 6 1039 87 10000 2.06 340 22:44 27.02.2021
2031 Clouds 7 1039 93 10000 1.54 300 22:19 27.02.2021
2032 Clouds 6 1039 93 10000 1.54 270 21:42 27.02.2021
2033 Clouds 7 1039 93 10000 2.06 260 21:23 27.02.2021
2034 Clouds 7 1039 93 10000 1.03 270 20:48 27.02.2021
2035 Clouds 7 1039 87 10000 1.03 240 20:27 27.02.2021
2036 Clouds 7 1039 87 10000 1.03 0 19:45 27.02.2021
2037 Clouds 7 1039 87 10000 1.03 0 19:27 27.02.2021
2038 Clouds 7 1039 87 10000 1.03 260 18:45 27.02.2021
2039 Clouds 7 1039 87 10000 1.54 290 18:21 27.02.2021
2040 Clouds 7 1039 87 10000 1.03 0 17:57 27.02.2021
2041 Clouds 7 1039 87 10000 1.03 0 17:37 27.02.2021
2042 Clouds 7 1039 87 10000 1.54 310 17:18 27.02.2021
2043 Clouds 7 1039 87 10000 2.06 330 16:48 27.02.2021
2044 Clouds 7 1039 87 10000 3.09 310 16:26 27.02.2021
2045 Clouds 7 1039 87 10000 2.06 280 15:43 27.02.2021
2046 Drizzle 7 1039 93 10000 2.06 310 15:18 27.02.2021
2047 Drizzle 7 1039 87 10000 2.06 320 14:40 27.02.2021
2048 Drizzle 7 1039 87 10000 2.06 310 14:20 27.02.2021
2049 Drizzle 7 1039 87 10000 2.06 320 13:39 27.02.2021
2050 Clouds 6 1039 87 10000 3.09 310 13:18 27.02.2021
2051 Clouds 6 1038 91 10000 0.45 270 12:45 27.02.2021
2052 Clouds 6 1039 93 10000 3.09 280 12:22 27.02.2021
2053 Clouds 5 1039 93 10000 3.09 270 11:46 27.02.2021
2054 Clouds 5 1039 93 10000 4.12 280 11:27 27.02.2021
2055 Clouds 5 1039 93 9000 5.14 290 10:48 27.02.2021
2056 Clouds 4 1039 93 9000 4.63 300 10:29 27.02.2021
2057 Clouds 5 1039 93 8000 5.14 300 09:52 27.02.2021
2058 Clouds 4 1038 93 8000 5.14 300 09:31 27.02.2021
2059 Clouds 4 1038 100 8000 4.12 300 08:43 27.02.2021
2060 Clouds 4 1038 93 9000 4.12 290 08:22 27.02.2021
2061 Clouds 4 1037 93 10000 5.14 300 07:42 27.02.2021
2062 Clouds 4 1037 93 10000 4.12 290 06:21 27.02.2021
2063 Clouds 5 1036 93 10000 4.12 290 01:18 27.02.2021
2064 Clouds 5 1035 93 10000 3.6 310 23:58 26.02.2021
2065 Clouds 4 1035 93 10000 3.09 310 23:40 26.02.2021
2066 Clouds 4 1035 93 10000 2.57 290 23:18 26.02.2021
2067 Clouds 4 1034 93 10000 2.06 270 22:31 26.02.2021
2068 Clear 5 1034 87 10000 2.06 280 21:49 26.02.2021
2069 Clear 5 1034 81 10000 2.06 300 21:31 26.02.2021
2070 Clouds 6 1034 81 10000 2.57 310 20:45 26.02.2021
2071 Clouds 6 1033 81 10000 2.06 290 20:24 26.02.2021
2072 Clouds 6 1033 81 10000 3.09 300 19:52 26.02.2021
2073 Clouds 6 1033 75 10000 2.57 290 19:25 26.02.2021
2074 Clouds 7 1033 70 10000 2.06 310 18:48 26.02.2021
2075 Clear 7 1032 75 10000 3.09 290 18:24 26.02.2021
2076 Clear 8 1032 70 10000 3.6 300 17:48 26.02.2021
2077 Clear 10 1032 61 10000 4.63 320 17:29 26.02.2021
2078 Clear 10 1032 61 10000 5.14 320 16:56 26.02.2021
2079 Clear 10 1031 53 10000 3.6 300 16:37 26.02.2021
2080 Clear 11 1031 53 10000 3.6 300 16:19 26.02.2021
2081 Clouds 11 1031 53 10000 4.63 310 15:41 26.02.2021
2082 Clouds 11 1031 54 10000 5.14 300 15:22 26.02.2021
2083 Clouds 11 1031 61 10000 5.66 310 14:51 26.02.2021
2084 Clouds 11 1031 57 10000 6.69 300 14:30 26.02.2021
2085 Clouds 11 1032 61 10000 5.66 330 13:46 26.02.2021
2086 Clouds 11 1032 71 10000 4.12 310 13:28 26.02.2021
2087 Clouds 10 1032 71 10000 4.63 290 12:43 26.02.2021
2088 Clouds 9 1032 81 10000 5.14 290 12:25 26.02.2021
2089 Clouds 9 1032 81 10000 4.12 280 11:38 26.02.2021
2090 Clouds 9 1030 87 10000 0.45 270 10:54 26.02.2021
2091 Clear 8 1031 87 10000 3.09 280 10:21 26.02.2021
2092 Rain 8 1031 87 10000 3.6 280 09:47 26.02.2021
2093 Clouds 8 1031 87 10000 2.57 270 09:27 26.02.2021
2094 Rain 7 1031 93 10000 3.09 270 08:32 26.02.2021
2095 Rain 7 1030 93 10000 3.6 290 07:54 26.02.2021
2096 Clouds 7 1029 100 10000 2.06 290 06:48 26.02.2021
2097 Clouds 8 1029 93 10000 2.06 310 05:40 26.02.2021
2098 Clouds 8 1029 93 10000 2.06 300 04:49 26.02.2021
2099 Rain 8 1029 100 10000 2.57 320 02:36 26.02.2021
2100 Rain 10 1028 93 9000 3.6 310 00:24 26.02.2021
2101 Clouds 11 1027 87 10000 4.12 350 23:30 25.02.2021
2102 Rain 11 1027 81 10000 4.63 350 22:51 25.02.2021
2103 Clouds 11 1026 82 10000 0.45 248 22:31 25.02.2021
2104 Clear 10 1026 76 10000 0.51 10 21:48 25.02.2021
2105 Clear 11 1026 76 10000 0.51 260 21:30 25.02.2021
2106 Clear 11 1026 76 10000 0.51 170 20:43 25.02.2021
2107 Clear 11 1026 71 10000 0.51 0 20:24 25.02.2021
2108 Clear 12 1026 66 10000 0.51 0 19:53 25.02.2021
2109 Clear 13 1026 58 10000 1.03 220 19:22 25.02.2021
2110 Clear 13 1026 62 10000 2.06 260 18:59 25.02.2021
2111 Clear 14 1026 62 10000 2.06 260 18:33 25.02.2021
2112 Clear 14 1025 58 10000 2.06 250 17:57 25.02.2021
2113 Clear 16 1025 55 10000 3.09 250 17:30 25.02.2021
2114 Clouds 17 1025 51 10000 3.6 250 16:54 25.02.2021
2115 Clouds 17 1025 55 10000 4.12 260 16:31 25.02.2021
2116 Clouds 18 1025 55 10000 4.63 250 15:36 25.02.2021
2117 Clear 18 1025 55 10000 4.63 260 15:18 25.02.2021
2118 Clear 18 1026 55 10000 4.12 270 14:29 25.02.2021
2119 Clear 18 1026 55 10000 6.17 280 13:56 25.02.2021
2120 Clear 18 1026 55 10000 6.17 280 13:36 25.02.2021
2121 Clear 18 1026 55 10000 6.17 270 13:18 25.02.2021
2122 Clear 18 1026 51 10000 5.66 260 12:23 25.02.2021
2123 Clear 17 1025 55 10000 5.66 240 11:48 25.02.2021
2124 Clear 16 1025 55 10000 4.63 240 11:22 25.02.2021
2125 Clear 15 1025 63 10000 2.06 200 10:47 25.02.2021
2126 Clear 14 1025 62 10000 2.57 180 10:29 25.02.2021
2127 Clear 13 1025 71 10000 2.57 160 09:45 25.02.2021
2128 Clear 11 1025 71 10000 1.03 0 08:57 25.02.2021
2129 Clear 10 1025 76 10000 1.54 170 08:25 25.02.2021
2130 Clear 9 1025 76 10000 1.54 190 07:57 25.02.2021
2131 Clear 9 1025 76 10000 1.54 190 07:35 25.02.2021
2132 Clear 9 1025 76 10000 1.54 170 06:55 25.02.2021
2133 Clear 10 1026 71 10000 2.57 170 02:59 25.02.2021
2134 Clear 11 1027 71 10000 2.57 160 01:38 25.02.2021
2135 Clear 11 1027 71 10000 2.57 160 01:38 25.02.2021
2136 Clear 12 1027 71 10000 2.57 150 00:42 25.02.2021
2137 Clear 12 1027 71 10000 3.09 170 23:53 24.02.2021
2138 Clear 13 1027 67 10000 3.09 170 23:28 24.02.2021
2139 Clear 12 1027 71 10000 3.09 180 22:45 24.02.2021
2140 Clear 12 1027 71 10000 2.06 200 22:26 24.02.2021
2141 Clear 12 1027 71 10000 3.09 180 21:46 24.02.2021
2142 Clear 13 1027 71 10000 2.57 170 21:19 24.02.2021
2143 Clear 13 1028 71 10000 2.06 160 20:41 24.02.2021
2144 Clear 13 1028 62 10000 1.54 150 20:22 24.02.2021
2145 Clear 13 1028 58 10000 1.03 0 19:36 24.02.2021
2146 Clear 14 1028 51 10000 1.54 190 19:18 24.02.2021
2147 Clear 14 1028 55 10000 1.03 180 18:39 24.02.2021
2148 Clear 15 1028 48 10000 1.54 230 18:21 24.02.2021
2149 Clear 17 1028 48 10000 2.06 230 17:38 24.02.2021
2150 Clear 17 1028 48 10000 2.57 250 17:18 24.02.2021
2151 Clear 19 1028 45 10000 3.6 260 16:43 24.02.2021
2152 Clear 19 1028 42 10000 4.63 250 16:19 24.02.2021
2153 Clear 20 1028 45 10000 5.14 250 15:40 24.02.2021
2154 Clouds 20 1029 48 10000 5.14 250 14:55 24.02.2021
2155 Clouds 20 1029 48 10000 5.14 250 14:35 24.02.2021
2156 Clouds 19 1029 55 10000 5.14 250 13:58 24.02.2021
2157 Clouds 19 1029 55 10000 5.14 250 13:39 24.02.2021
2158 Clouds 18 1030 59 10000 5.14 240 13:21 24.02.2021
2159 Clear 19 1030 55 10000 4.12 210 12:44 24.02.2021
2160 Clear 17 1030 59 10000 5.66 210 12:24 24.02.2021
2161 Clear 17 1030 59 10000 5.14 210 11:46 24.02.2021
2162 Clear 16 1030 63 10000 4.12 210 10:52 24.02.2021
2163 Clear 15 1031 67 10000 2.57 180 10:30 24.02.2021
2164 Clear 13 1030 71 10000 2.06 170 09:46 24.02.2021
2165 Clear 12 1030 76 10000 2.06 170 09:20 24.02.2021
2166 Clear 11 1030 76 10000 2.57 160 08:34 24.02.2021
2167 Clear 10 1030 76 10000 3.6 170 07:57 24.02.2021
2168 Clear 10 1030 76 10000 3.09 160 07:20 24.02.2021
2169 Clear 10 1030 76 10000 2.57 170 06:23 24.02.2021
2170 Clear 12 1030 71 10000 1.03 0 03:28 24.02.2021
2171 Clear 12 1030 71 10000 1.54 150 00:22 24.02.2021
2172 Clear 13 1030 67 10000 3.6 180 23:24 23.02.2021
2173 Clear 13 1030 71 10000 3.09 180 22:37 23.02.2021
2174 Clear 14 1030 71 10000 2.06 170 22:19 23.02.2021
2175 Clear 13 1031 71 10000 2.06 190 21:42 23.02.2021
2176 Clear 13 1031 71 10000 2.06 180 21:22 23.02.2021
2177 Clear 13 1031 71 10000 1.54 200 20:48 23.02.2021
2178 Clear 13 1031 67 10000 2.06 190 20:29 23.02.2021
2179 Clear 13 1030 67 10000 2.57 180 19:48 23.02.2021
2180 Clear 14 1030 67 10000 3.09 180 19:27 23.02.2021
2181 Clear 14 1030 63 10000 2.57 190 18:55 23.02.2021
2182 Clear 14 1030 63 10000 2.57 190 18:32 23.02.2021
2183 Clear 15 1030 55 10000 3.09 210 17:54 23.02.2021
2184 Clear 16 1030 55 10000 3.09 210 17:33 23.02.2021
2185 Clear 18 1030 55 10000 4.12 220 16:50 23.02.2021
2186 Clouds 18 1030 59 10000 5.66 220 16:27 23.02.2021
2187 Clouds 18 1030 55 10000 5.66 220 15:57 23.02.2021
2188 Clouds 19 1030 55 10000 5.66 220 15:38 23.02.2021
2189 Clouds 19 1030 55 10000 5.14 250 15:18 23.02.2021
2190 Clear 19 1030 55 10000 5.14 230 14:42 23.02.2021
2191 Clear 19 1030 55 10000 5.14 230 14:42 23.02.2021
2192 Clear 19 1030 52 10000 6.17 240 14:24 23.02.2021
2193 Clear 18 1030 55 10000 4.63 230 13:43 23.02.2021
2194 Clear 17 1030 55 10000 5.66 230 13:23 23.02.2021
2195 Clear 18 1030 55 10000 6.17 230 12:51 23.02.2021
2196 Clear 16 1030 55 10000 4.12 230 12:20 23.02.2021
2197 Clear 16 1030 58 10000 4.63 220 11:46 23.02.2021
2198 Clear 15 1030 58 10000 3.09 210 11:21 23.02.2021
2199 Clear 13 1030 58 10000 4.12 170 10:40 23.02.2021
2200 Clear 12 1029 66 10000 4.12 170 10:21 23.02.2021
2201 Clear 12 1029 62 10000 3.6 160 09:42 23.02.2021
2202 Clear 10 1029 66 10000 4.12 160 09:22 23.02.2021
2203 Clear 10 1029 66 10000 2.06 140 08:48 23.02.2021
2204 Clear 9 1029 66 10000 1.54 140 08:21 23.02.2021
2205 Clear 9 1028 71 10000 2.06 160 07:48 23.02.2021
2206 Clear 10 1027 62 10000 2.57 180 05:30 23.02.2021
2207 Clear 10 1027 66 10000 2.57 160 04:25 23.02.2021
2208 Clear 10 1027 62 10000 1.54 180 02:33 23.02.2021
2209 Clear 11 1025 62 10000 1.03 0 00:20 23.02.2021
2210 Clear 11 1025 62 10000 1.54 150 23:46 22.02.2021
2211 Clear 11 1025 62 10000 2.06 170 23:18 22.02.2021
2212 Clear 11 1024 62 10000 2.06 170 22:39 22.02.2021
2213 Clear 12 1024 58 10000 2.57 180 22:20 22.02.2021
2214 Clear 12 1023 54 10000 2.57 180 21:38 22.02.2021
2215 Clear 12 1023 54 10000 2.06 180 21:20 22.02.2021
2216 Clear 12 1023 58 10000 3.09 170 20:49 22.02.2021
2217 Clear 12 1023 51 10000 1.54 160 20:27 22.02.2021
2218 Clear 13 1022 51 10000 2.57 160 19:50 22.02.2021
2219 Clear 13 1022 54 10000 2.06 150 19:30 22.02.2021
2220 Clear 13 1022 54 10000 2.06 150 19:30 22.02.2021
2221 Clear 13 1022 54 10000 2.06 150 18:49 22.02.2021
2222 Clear 13 1021 51 10000 2.57 150 18:30 22.02.2021
2223 Clear 14 1021 51 10000 3.09 150 17:51 22.02.2021
2224 Clear 15 1021 36 10000 2.57 170 17:22 22.02.2021
2225 Clear 16 1021 36 10000 3.6 200 16:51 22.02.2021
2226 Clear 17 1020 32 10000 3.09 200 16:30 22.02.2021
2227 Clear 18 1020 32 10000 3.6 190 15:36 22.02.2021
2228 Clear 18 1020 37 10000 2.57 160 14:54 22.02.2021
2229 Clear 18 1020 37 10000 2.57 160 14:35 22.02.2021
2230 Clear 17 1019 36 10000 2.57 170 13:58 22.02.2021
2231 Clear 17 1019 36 10000 2.57 170 13:36 22.02.2021
2232 Clear 16 1020 41 10000 3.09 160 12:52 22.02.2021
2233 Clear 16 1019 41 10000 3.09 140 12:23 22.02.2021
2234 Clear 15 1019 44 10000 4.63 140 11:56 22.02.2021
2235 Clear 15 1019 44 10000 4.63 140 11:32 22.02.2021
2236 Clear 13 1019 50 10000 3.09 150 10:59 22.02.2021
2237 Clear 12 1019 50 10000 3.09 150 10:39 22.02.2021
2238 Clear 11 1019 54 10000 2.57 150 10:19 22.02.2021
2239 Clear 10 1018 58 10000 1.54 130 09:37 22.02.2021
2240 Clear 7 1018 70 10000 1.54 110 09:19 22.02.2021
2241 Clear 6 1018 75 10000 2.06 110 08:49 22.02.2021
2242 Clear 6 1018 75 10000 1.54 100 08:20 22.02.2021
2243 Clear 6 1018 70 10000 1.03 0 07:42 22.02.2021
2244 Clear 7 1018 75 10000 2.57 150 07:20 22.02.2021
2245 Clear 6 1018 81 10000 1.54 110 06:25 22.02.2021
2246 Clear 6 1017 75 10000 2.06 120 04:25 22.02.2021
2247 Clear 7 1017 65 10000 1.54 120 03:22 22.02.2021
2248 Clear 8 1017 53 10000 2.06 140 00:54 22.02.2021
2249 Clear 8 1017 57 10000 2.57 150 00:28 22.02.2021
2250 Clear 9 1017 53 10000 2.06 150 23:52 21.02.2021
2251 Clear 8 1016 61 10000 1.54 140 22:59 21.02.2021
2252 Clear 9 1016 66 10000 1.03 110 22:27 21.02.2021
2253 Clear 8 1016 66 10000 1.54 100 21:51 21.02.2021
2254 Clear 8 1016 66 10000 1.54 100 21:32 21.02.2021
2255 Clear 9 1016 62 10000 1.03 130 20:55 21.02.2021
2256 Clear 10 1016 58 10000 1.03 140 20:22 21.02.2021
2257 Clear 11 1016 54 10000 1.54 140 19:59 21.02.2021
2258 Clear 11 1016 54 10000 1.54 140 19:39 21.02.2021
2259 Clear 11 1016 50 10000 1.03 140 19:21 21.02.2021
2260 Clear 13 1015 47 10000 1.54 180 18:28 21.02.2021
2261 Clear 15 1015 42 10000 1.54 180 17:52 21.02.2021
2262 Clear 17 1015 42 10000 2.06 190 17:24 21.02.2021
2263 Clear 17 1015 45 10000 2.06 190 16:52 21.02.2021
2264 Clear 17 1015 39 10000 2.57 180 16:31 21.02.2021
2265 Clear 17 1015 39 10000 3.09 200 15:36 21.02.2021
2266 Clear 17 1015 39 10000 3.6 180 15:18 21.02.2021
2267 Clear 17 1015 36 10000 3.6 190 14:39 21.02.2021
2268 Clear 16 1015 39 10000 3.6 180 14:18 21.02.2021
2269 Clear 17 1015 39 10000 5.14 190 13:30 21.02.2021
2270 Clear 17 1015 42 10000 2.06 170 12:56 21.02.2021
2271 Clear 16 1016 45 10000 4.63 200 12:27 21.02.2021
2272 Clear 15 1016 48 10000 3.09 190 11:43 21.02.2021
2273 Clear 13 1016 54 10000 3.6 160 10:52 21.02.2021
2274 Clear 11 1016 62 10000 3.09 160 10:22 21.02.2021
2275 Clear 10 1016 66 10000 2.06 140 09:52 21.02.2021
2276 Clear 8 1016 71 10000 2.06 150 09:26 21.02.2021
2277 Clear 8 1015 76 10000 2.57 150 08:43 21.02.2021
2278 Clear 7 1015 76 10000 3.09 160 08:19 21.02.2021
2279 Clear 6 1015 76 10000 2.57 150 07:30 21.02.2021
2280 Clear 6 1015 81 10000 2.57 140 06:46 21.02.2021
2281 Clear 8 1014 76 10000 2.06 140 02:45 21.02.2021
2282 Clear 9 1014 76 10000 2.06 120 02:24 21.02.2021
2283 Clear 9 1014 76 10000 2.06 130 00:36 21.02.2021
2284 Clear 9 1014 71 10000 3.6 150 00:18 21.02.2021
2285 Clear 10 1014 76 10000 3.09 160 22:59 20.02.2021
2286 Clear 10 1014 76 10000 3.09 160 22:38 20.02.2021
2287 Clear 10 1014 66 10000 3.6 160 21:59 20.02.2021
2288 Clear 10 1014 66 10000 3.6 160 21:41 20.02.2021
2289 Clear 10 1014 71 10000 2.57 170 21:18 20.02.2021
2290 Clear 10 1015 71 10000 3.09 130 20:42 20.02.2021
2291 Clear 10 1015 76 10000 3.6 160 20:20 20.02.2021
2292 Clear 11 1015 71 10000 2.57 120 19:48 20.02.2021
2293 Clear 12 1015 62 10000 3.6 160 18:58 20.02.2021
2294 Clear 12 1015 62 10000 3.6 160 18:37 20.02.2021
2295 Clear 12 1015 62 10000 3.09 160 18:18 20.02.2021
2296 Clear 13 1014 58 10000 3.09 160 17:36 20.02.2021
2297 Clear 14 1015 55 10000 4.63 190 16:50 20.02.2021
2298 Clear 15 1015 55 10000 4.12 180 16:27 20.02.2021
2299 Clear 16 1015 51 10000 4.12 170 15:44 20.02.2021
2300 Clear 16 1015 51 10000 5.14 180 14:53 20.02.2021
2301 Clear 15 1015 55 10000 4.12 170 14:29 20.02.2021
2302 Clear 15 1016 55 10000 3.6 170 13:59 20.02.2021
2303 Clear 15 1016 55 10000 3.6 170 13:40 20.02.2021
2304 Clear 14 1016 58 10000 4.12 170 13:21 20.02.2021
2305 Clear 14 1016 58 10000 5.14 180 12:46 20.02.2021
2306 Clear 12 1016 66 10000 4.12 150 11:56 20.02.2021
2307 Clear 12 1016 66 10000 4.12 150 11:36 20.02.2021
2308 Clear 10 1017 71 10000 2.57 170 10:54 20.02.2021
2309 Clear 9 1017 76 10000 2.06 160 10:29 20.02.2021
2310 Clear 8 1016 76 10000 3.09 160 09:48 20.02.2021
2311 Clear 8 1016 81 10000 1.54 120 08:56 20.02.2021
2312 Clear 6 1016 81 10000 2.06 140 08:27 20.02.2021
2313 Clear 6 1016 81 10000 1.54 120 07:50 20.02.2021
2314 Clear 7 1016 76 10000 2.06 150 02:37 20.02.2021
2315 Clear 7 1017 76 10000 2.06 150 02:19 20.02.2021
2316 Clear 7 1017 76 10000 2.06 150 01:20 20.02.2021
2317 Clear 7 1017 76 10000 3.09 150 00:42 20.02.2021
2318 Clear 7 1017 76 10000 2.57 150 23:42 19.02.2021
2319 Clear 7 1017 71 10000 3.09 180 22:48 19.02.2021
2320 Clear 7 1017 71 10000 3.6 180 22:26 19.02.2021
2321 Clear 7 1017 76 10000 2.57 170 21:47 19.02.2021
2322 Clear 8 1017 71 10000 3.09 170 21:26 19.02.2021
2323 Clear 7 1017 76 10000 3.09 170 20:45 19.02.2021
2324 Clear 7 1017 76 10000 3.09 170 20:45 19.02.2021
2325 Clear 8 1017 71 10000 3.09 190 20:27 19.02.2021
2326 Clear 8 1017 71 10000 4.12 190 19:50 19.02.2021
2327 Clear 8 1017 66 10000 3.09 180 19:20 19.02.2021
2328 Clear 8 1017 66 10000 3.09 180 18:53 19.02.2021
2329 Clear 8 1017 61 10000 3.09 180 18:30 19.02.2021
2330 Clear 8 1017 61 10000 3.6 170 17:45 19.02.2021
2331 Clear 10 1017 57 10000 2.57 180 16:46 19.02.2021
2332 Clear 11 1017 50 10000 3.09 210 16:23 19.02.2021
2333 Clear 11 1017 50 10000 3.6 230 15:56 19.02.2021
2334 Clouds 12 1017 50 10000 4.63 220 15:30 19.02.2021
2335 Clouds 12 1017 54 10000 5.14 240 14:55 19.02.2021
2336 Clouds 12 1017 54 10000 5.14 240 14:34 19.02.2021
2337 Clouds 11 1017 62 10000 4.12 230 13:56 19.02.2021
2338 Clouds 11 1017 62 10000 4.12 230 13:56 19.02.2021
2339 Clouds 11 1017 62 10000 4.12 230 13:36 19.02.2021
2340 Clouds 10 1017 71 10000 5.14 230 12:55 19.02.2021
2341 Clouds 9 1017 71 10000 5.14 230 12:36 19.02.2021
2342 Clouds 9 1018 71 10000 3.6 260 12:18 19.02.2021
2343 Clouds 8 1018 76 10000 5.66 250 11:35 19.02.2021
2344 Clouds 8 1017 76 10000 5.66 250 10:55 19.02.2021
2345 Clouds 8 1017 76 10000 5.66 250 10:34 19.02.2021
2346 Clear 6 1017 81 10000 4.63 250 09:58 19.02.2021
2347 Clear 6 1016 87 10000 3.6 250 09:29 19.02.2021
2348 Clouds 5 1016 81 10000 4.12 240 08:55 19.02.2021
2349 Clouds 5 1016 87 10000 4.12 240 08:29 19.02.2021
2350 Clouds 5 1015 81 10000 5.14 240 07:57 19.02.2021
2351 Clouds 4 1015 81 10000 5.14 240 07:37 19.02.2021
2352 Clouds 5 1014 81 10000 5.66 250 07:19 19.02.2021
2353 Clouds 5 1014 87 10000 5.14 250 06:36 19.02.2021
2354 Clouds 6 1012 87 10000 5.66 250 04:42 19.02.2021
2355 Clouds 7 1010 87 10000 6.69 260 02:44 19.02.2021
2356 Clouds 8 1009 87 10000 6.17 260 01:26 19.02.2021
2357 Rain 8 1008 81 10000 6.17 210 00:27 19.02.2021
2358 Rain 8 1007 81 10000 5.14 200 23:45 18.02.2021
2359 Rain 8 1008 76 10000 5.14 190 23:27 18.02.2021
2360 Rain 9 1008 76 10000 2.57 180 22:37 18.02.2021
2361 Rain 9 1008 71 10000 2.57 160 22:18 18.02.2021
2362 Rain 9 1008 66 10000 4.12 180 21:37 18.02.2021
2363 Clear 9 1007 66 10000 6.17 160 21:19 18.02.2021
2364 Clear 9 1007 66 10000 5.14 150 20:39 18.02.2021
2365 Clouds 9 1007 66 10000 7.2 170 20:20 18.02.2021
2366 Clouds 9 1008 66 10000 6.69 160 19:43 18.02.2021
2367 Clear 9 1009 61 10000 6.69 170 19:19 18.02.2021
2368 Rain 9 1009 61 10000 6.17 160 18:48 18.02.2021
2369 Clear 9 1009 61 10000 5.66 150 18:26 18.02.2021
2370 Clear 9 1009 57 10000 6.69 160 17:46 18.02.2021
2371 Clear 10 1009 57 10000 7.2 160 17:24 18.02.2021
2372 Clear 10 1010 57 10000 7.72 160 16:46 18.02.2021
2373 Rain 10 1010 62 10000 8.75 160 16:28 18.02.2021
2374 Clear 10 1011 62 10000 7.2 170 15:42 18.02.2021
2375 Clear 10 1011 62 10000 6.69 170 15:23 18.02.2021
2376 Clear 11 1012 66 10000 5.66 160 14:50 18.02.2021
2377 Clear 11 1012 62 10000 6.17 160 14:31 18.02.2021
2378 Clear 11 1013 58 10000 6.69 160 13:49 18.02.2021
2379 Clear 11 1013 62 10000 6.69 160 13:21 18.02.2021
2380 Clear 11 1014 66 10000 5.14 140 12:54 18.02.2021
2381 Clear 10 1015 71 10000 5.14 140 12:28 18.02.2021
2382 Clear 9 1015 76 10000 4.12 150 11:47 18.02.2021
2383 Clear 9 1015 76 10000 3.6 140 11:27 18.02.2021
2384 Clear 8 1015 81 10000 3.09 150 10:53 18.02.2021
2385 Clear 8 1015 81 10000 3.09 150 10:35 18.02.2021
2386 Clear 7 1016 87 10000 3.6 170 09:57 18.02.2021
2387 Clear 6 1016 81 10000 3.09 170 09:28 18.02.2021
2388 Clear 6 1016 81 10000 4.12 170 08:48 18.02.2021
2389 Clear 6 1016 81 10000 4.12 170 08:30 18.02.2021
2390 Clear 6 1016 81 10000 3.6 170 07:42 18.02.2021
2391 Clouds 6 1016 81 10000 3.09 160 07:18 18.02.2021
2392 Clouds 6 1016 81 10000 1.54 140 05:29 18.02.2021
2393 Clouds 7 1017 76 10000 2.06 190 23:57 17.02.2021
2394 Clouds 7 1017 76 10000 2.06 190 23:38 17.02.2021
2395 Clouds 8 1017 81 10000 1.54 210 22:56 17.02.2021
2396 Clouds 8 1017 81 10000 1.54 210 22:38 17.02.2021
2397 Clouds 8 1017 76 10000 2.06 200 22:18 17.02.2021
2398 Clouds 8 1017 81 10000 2.57 180 21:41 17.02.2021
2399 Clouds 8 1017 76 10000 2.57 210 21:19 17.02.2021
2400 Clouds 8 1017 76 10000 2.57 200 20:40 17.02.2021
2401 Clouds 7 1017 81 10000 2.06 190 19:56 17.02.2021
2402 Clouds 7 1017 81 10000 2.06 190 19:36 17.02.2021
2403 Clouds 8 1017 81 10000 1.54 190 18:52 17.02.2021
2404 Clouds 8 1017 81 10000 1.54 190 18:33 17.02.2021
2405 Clouds 8 1016 81 10000 1.54 230 17:46 17.02.2021
2406 Clouds 8 1016 81 10000 3.09 240 17:21 17.02.2021
2407 Clouds 8 1016 81 10000 4.12 250 16:51 17.02.2021
2408 Clouds 9 1016 81 10000 4.12 260 16:29 17.02.2021
2409 Clouds 9 1016 76 10000 5.14 260 15:46 17.02.2021
2410 Clouds 9 1016 81 10000 5.66 260 15:28 17.02.2021
2411 Clouds 8 1016 81 10000 6.69 260 14:59 17.02.2021
2412 Clouds 8 1016 81 10000 6.69 260 14:39 17.02.2021
2413 Clouds 10 1016 76 10000 6.69 270 14:21 17.02.2021
2414 Clouds 9 1015 76 10000 6.17 260 13:40 17.02.2021
2415 Clouds 9 1015 81 10000 6.69 270 12:58 17.02.2021
2416 Clouds 9 1015 81 10000 6.69 260 12:26 17.02.2021
2417 Clouds 8 1015 87 10000 6.69 260 11:48 17.02.2021
2418 Clouds 7 1015 87 10000 5.66 260 11:29 17.02.2021
2419 Clouds 7 1014 87 10000 7.2 260 10:57 17.02.2021
2420 Clouds 7 1014 87 10000 7.2 260 10:39 17.02.2021
2421 Clouds 7 1014 87 10000 6.17 260 10:20 17.02.2021
2422 Clouds 7 1014 87 10000 5.14 260 09:40 17.02.2021
2423 Clouds 7 1013 93 10000 6.17 250 08:58 17.02.2021
2424 Clouds 6 1013 93 10000 6.17 250 08:37 17.02.2021
2425 Clouds 6 1013 93 10000 5.66 250 08:18 17.02.2021
2426 Clouds 6 1012 93 10000 5.66 250 07:23 17.02.2021
2427 Clouds 6 1011 93 10000 4.12 250 03:53 17.02.2021
2428 Clouds 6 1010 93 10000 6.17 250 02:33 17.02.2021
2429 Rain 6 1010 93 10000 4.63 230 01:37 17.02.2021
2430 Rain 6 1009 76 10000 3.6 220 00:28 17.02.2021
2431 Clouds 5 1009 75 10000 2.06 190 23:43 16.02.2021
2432 Clouds 5 1009 75 10000 2.57 180 23:23 16.02.2021
2433 Clouds 4 1009 81 10000 2.06 180 22:41 16.02.2021
2434 Clear 5 1010 81 10000 1.54 150 22:22 16.02.2021
2435 Clear 4 1010 81 10000 2.06 180 21:40 16.02.2021
2436 Clear 4 1010 81 10000 3.09 170 21:22 16.02.2021
2437 Clear 5 1010 87 10000 3.09 180 20:57 16.02.2021
2438 Clear 5 1010 87 10000 3.09 180 20:38 16.02.2021
2439 Clear 4 1011 81 10000 3.6 190 20:19 16.02.2021
2440 Clear 4 1011 87 10000 4.12 180 19:39 16.02.2021
2441 Clear 4 1011 87 10000 4.12 160 19:20 16.02.2021
2442 Clear 5 1011 87 10000 4.63 160 18:38 16.02.2021
2443 Clear 4 1011 87 10000 5.14 160 18:19 16.02.2021
2444 Clear 4 1012 87 10000 5.66 160 17:48 16.02.2021
2445 Clear 5 1012 87 10000 4.12 140 17:23 16.02.2021
2446 Clear 5 1013 87 10000 3.09 140 16:45 16.02.2021
2447 Clear 5 1014 87 10000 3.09 150 16:24 16.02.2021
2448 Clear 5 1014 87 10000 3.09 150 16:24 16.02.2021
2449 Clear 5 1014 87 10000 3.6 150 15:47 16.02.2021
2450 Clear 6 1015 87 10000 3.6 150 15:26 16.02.2021
2451 Clouds 6 1015 81 10000 2.57 160 14:48 16.02.2021
2452 Clouds 6 1015 81 10000 3.09 140 14:29 16.02.2021
2453 Clouds 6 1016 81 10000 2.57 150 13:56 16.02.2021
2454 Clouds 5 1016 81 10000 2.57 150 13:33 16.02.2021
2455 Clouds 5 1017 87 10000 2.57 90 12:44 16.02.2021
2456 Rain 4 1017 87 10000 3.6 170 12:22 16.02.2021
2457 Clouds 4 1017 87 9000 2.57 150 11:48 16.02.2021
2458 Rain 4 1018 87 10000 2.57 150 11:23 16.02.2021
2459 Rain 4 1018 93 10000 3.09 150 10:51 16.02.2021
2460 Rain 4 1018 93 10000 3.09 150 10:32 16.02.2021
2461 Clouds 4 1018 93 10000 2.06 160 09:56 16.02.2021
2462 Clouds 3 1018 93 10000 2.06 160 09:36 16.02.2021
2463 Clouds 3 1018 93 8000 2.06 180 09:18 16.02.2021
2464 Clouds 3 1018 100 6000 2.06 170 08:39 16.02.2021
2465 Mist 3 1018 100 2800 2.06 140 08:18 16.02.2021
2466 Fog 3 1019 93 2500 0.51 0 07:21 16.02.2021
2467 Mist 3 1020 100 2200 3.6 240 04:39 16.02.2021
2468 Mist 3 1021 100 2200 4.63 250 00:45 16.02.2021
2469 Mist 2 1021 100 2600 3.09 240 23:32 15.02.2021
2470 Drizzle 2 1021 100 3200 3.09 230 22:59 15.02.2021
2471 Drizzle 2 1021 100 3200 3.09 230 22:41 15.02.2021
2472 Drizzle 2 1021 93 2400 2.06 220 21:59 15.02.2021
2473 Drizzle 2 1021 93 2400 2.06 220 21:38 15.02.2021
2474 Drizzle 2 1021 100 3200 1.54 200 21:19 15.02.2021
2475 Clouds 1 1021 100 6000 2.06 180 20:45 15.02.2021
2476 Rain 1 1021 93 4500 2.57 200 20:24 15.02.2021
2477 Drizzle 2 1021 93 4500 2.57 210 19:44 15.02.2021
2478 Clouds 1 1021 93 10000 2.57 190 19:22 15.02.2021
2479 Rain 1 1021 93 4800 3.09 190 18:44 15.02.2021
2480 Rain 1 1021 100 4500 1.54 180 18:26 15.02.2021
2481 Snow 1 1021 93 3500 2.57 170 17:42 15.02.2021
2482 Rain 1 1021 93 3500 5.14 160 17:22 15.02.2021
2483 Rain 1 1022 86 7000 5.14 150 16:55 15.02.2021
2484 Rain 1 1022 86 7000 5.66 160 16:27 15.02.2021
2485 Rain 1 1023 80 7000 5.66 160 15:50 15.02.2021
2486 Rain 1 1024 74 9000 5.14 170 15:22 15.02.2021
2487 Snow 1 1024 60 10000 5.66 160 14:54 15.02.2021
2488 Snow 1 1025 51 10000 4.63 170 14:22 15.02.2021
2489 Snow 1 1025 51 10000 6.69 160 13:58 15.02.2021
2490 Snow 1 1025 51 10000 6.69 160 13:58 15.02.2021
2491 Snow 1 1025 51 10000 6.69 160 13:39 15.02.2021
2492 Clear 1 1026 51 10000 6.17 160 13:18 15.02.2021
2493 Clouds 0 1026 55 10000 6.69 160 12:39 15.02.2021
2494 Snow 0 1026 51 10000 7.2 140 12:19 15.02.2021
2495 Snow 0 1027 43 10000 6.69 150 11:41 15.02.2021
2496 Snow 0 1028 43 10000 5.66 160 11:19 15.02.2021
2497 Snow 0 1028 40 10000 5.66 160 10:46 15.02.2021
2498 Snow -1 1028 43 10000 4.63 160 10:22 15.02.2021
2499 Snow -1 1029 43 10000 4.12 150 09:53 15.02.2021
2500 Clear -1 1029 40 10000 5.14 160 09:33 15.02.2021
2501 Snow -1 1029 43 10000 4.12 150 09:33 15.02.2021
2502 Clear -1 1029 40 10000 5.66 160 08:41 15.02.2021
2503 Clear -2 1029 40 10000 6.17 150 07:38 15.02.2021
2504 Clear -3 1031 46 10000 4.63 150 06:45 15.02.2021
2505 Clear -4 1031 58 10000 3.09 140 06:27 15.02.2021
2506 Clear -6 1035 73 10000 4.12 100 02:28 15.02.2021
2507 Clear -5 1035 68 10000 2.57 110 00:35 15.02.2021
2508 Clear -5 1036 68 10000 2.06 110 23:33 14.02.2021
2509 Clear -5 1037 73 10000 3.09 110 22:54 14.02.2021
2510 Clear -6 1037 73 10000 3.09 110 22:36 14.02.2021
2511 Clear -6 1037 68 10000 3.09 110 22:18 14.02.2021
2512 Clear -6 1037 73 10000 3.6 110 21:42 14.02.2021
2513 Clear -5 1037 68 10000 2.06 110 21:21 14.02.2021
2514 Clear -5 1037 68 10000 3.09 120 20:39 14.02.2021
2515 Clear -5 1037 68 10000 2.57 120 20:20 14.02.2021
2516 Clear -5 1038 73 10000 2.57 110 19:40 14.02.2021
2517 Clear -4 1038 63 10000 3.09 110 18:49 14.02.2021
2518 Clear -4 1038 59 10000 3.09 110 18:29 14.02.2021
2519 Clear -3 1038 59 10000 2.57 100 17:49 14.02.2021
2520 Clear -2 1039 55 10000 2.57 130 17:30 14.02.2021
2521 Clear -1 1039 47 10000 3.09 150 16:43 14.02.2021
2522 Clear -1 1039 47 10000 2.57 150 16:24 14.02.2021
2523 Clear -1 1039 47 10000 3.09 140 15:46 14.02.2021
2524 Clear 0 1039 55 10000 2.06 120 15:26 14.02.2021
2525 Clear 0 1040 55 10000 2.06 110 14:42 14.02.2021
2526 Clear 0 1040 55 10000 2.57 130 14:20 14.02.2021
2527 Clear -1 1040 55 10000 2.57 140 13:38 14.02.2021
2528 Clear -2 1040 55 10000 3.09 150 13:20 14.02.2021
2529 Clear -3 1041 63 10000 2.57 140 12:24 14.02.2021
2530 Clear -4 1041 68 10000 3.09 140 11:52 14.02.2021
2531 Clear -5 1041 68 10000 3.09 140 11:28 14.02.2021
2532 Clear -6 1041 79 10000 2.57 140 10:59 14.02.2021
2533 Clear -8 1041 85 10000 2.06 130 10:21 14.02.2021
2534 Clear -9 1041 85 10000 2.57 100 09:40 14.02.2021
2535 Clear -10 1041 85 10000 2.57 90 09:21 14.02.2021
2536 Clear -12 1041 85 10000 2.57 90 08:52 14.02.2021
2537 Clear -12 1041 92 10000 2.06 100 07:58 14.02.2021
2538 Clear -12 1041 85 10000 2.06 90 06:54 14.02.2021
2539 Clear -14 1041 92 10000 2.57 90 05:43 14.02.2021
2540 Clear -14 1041 85 10000 2.57 100 03:33 14.02.2021
2541 Clear -11 1042 85 10000 1.03 0 02:29 14.02.2021
2542 Clear -11 1042 92 8000 1.54 100 00:49 14.02.2021
2543 Fog -11 1042 92 7000 1.54 100 00:31 14.02.2021
2544 Fog -11 1042 92 7000 1.54 100 00:31 14.02.2021
2545 Fog -11 1042 92 2800 1.03 110 23:42 13.02.2021
2546 Clear -10 1041 89 10000 1.64 155 23:21 13.02.2021
2547 Fog -10 1042 92 7000 0.51 0 22:44 13.02.2021
2548 Fog -10 1042 92 4700 1.54 120 22:20 13.02.2021
2549 Fog -9 1042 92 10000 2.06 100 21:43 13.02.2021
2550 Fog -9 1042 92 10000 1.54 100 21:22 13.02.2021
2551 Fog -8 1042 93 10000 1.54 110 20:30 13.02.2021
2552 Fog -8 1042 100 10000 0.51 150 19:57 13.02.2021
2553 Fog -8 1042 100 10000 0.51 150 19:38 13.02.2021
2554 Clear -7 1042 93 10000 1.03 0 19:18 13.02.2021
2555 Clear -7 1042 93 10000 0.9 151 18:44 13.02.2021
2556 Clear -6 1042 93 10000 1.03 0 18:20 13.02.2021
2557 Clear -5 1042 80 10000 1.03 210 17:42 13.02.2021
2558 Clear -4 1041 74 10000 0.51 0 17:22 13.02.2021
2559 Clouds -4 1041 68 10000 0.51 0 16:42 13.02.2021
2560 Clouds -4 1042 74 10000 1.54 170 16:20 13.02.2021
2561 Clouds -4 1042 74 10000 1.03 0 15:34 13.02.2021
2562 Clouds -3 1042 68 10000 2.06 130 14:51 13.02.2021
2563 Clouds -3 1042 74 10000 2.06 120 14:31 13.02.2021
2564 Clouds -3 1042 74 10000 1.03 0 13:48 13.02.2021
2565 Clouds -3 1042 74 10000 0.51 0 13:24 13.02.2021
2566 Clouds -4 1042 74 10000 0.51 0 12:45 13.02.2021
2567 Clouds -4 1042 73 10000 0.51 0 12:18 13.02.2021
2568 Clouds -5 1042 73 10000 0.51 80 11:43 13.02.2021
2569 Clouds -7 1042 79 10000 0.51 0 11:19 13.02.2021
2570 Clouds -9 1042 79 10000 0.51 290 10:45 13.02.2021
2571 Clouds -10 1042 85 9000 0.51 260 10:24 13.02.2021
2572 Fog -12 1041 78 8000 0.51 290 09:53 13.02.2021
2573 Clouds -12 1041 85 10000 0.58 133 09:30 13.02.2021
2574 Clouds -15 1041 100 10000 0.51 0 08:54 13.02.2021
2575 Clouds -14 1041 92 10000 0.51 70 08:31 13.02.2021
2576 Clear -15 1041 92 10000 0.51 260 07:46 13.02.2021
2577 Clear -15 1041 85 10000 0.51 250 06:37 13.02.2021
2578 Clear -14 1040 92 10000 0.51 280 05:19 13.02.2021
2579 Fog -12 1040 85 10000 0.51 310 03:47 13.02.2021
2580 Fog -11 1040 100 10000 0.51 80 01:31 13.02.2021
2581 Clear -10 1040 92 10000 1.03 60 00:23 13.02.2021
2582 Clear -9 1039 86 10000 1.54 70 23:48 12.02.2021
2583 Clear -9 1039 92 10000 2.06 80 23:20 12.02.2021
2584 Clear -9 1039 86 10000 2.57 70 22:38 12.02.2021
2585 Clear -8 1039 86 10000 3.6 60 22:18 12.02.2021
2586 Clear -8 1039 86 10000 3.6 60 21:42 12.02.2021
2587 Clear -8 1039 79 10000 3.6 50 21:23 12.02.2021
2588 Clear -7 1038 79 10000 3.6 50 20:45 12.02.2021
2589 Clear -7 1038 68 10000 4.12 50 20:27 12.02.2021
2590 Clear -6 1038 68 10000 3.09 50 19:55 12.02.2021
2591 Clear -7 1038 67 10000 3.09 40 19:30 12.02.2021
2592 Clear -6 1037 68 10000 1.54 40 18:44 12.02.2021
2593 Clear -5 1037 63 10000 2.06 60 18:25 12.02.2021
2594 Clouds -6 1037 58 10000 3.09 80 17:43 12.02.2021
2595 Clouds -3 1037 54 10000 6.17 90 16:56 12.02.2021
2596 Clouds -3 1037 59 10000 4.63 80 16:21 12.02.2021
2597 Clouds -2 1037 59 10000 3.6 100 15:44 12.02.2021
2598 Clouds -2 1036 59 10000 6.17 80 15:20 12.02.2021
2599 Clouds -3 1036 59 10000 7.2 80 14:39 12.02.2021
2600 Clouds -2 1036 63 10000 3.09 100 13:56 12.02.2021
2601 Clouds -3 1036 63 10000 3.09 100 13:37 12.02.2021
2602 Clouds -3 1036 68 10000 4.63 90 12:55 12.02.2021
2603 Clouds -3 1036 68 10000 4.63 90 12:36 12.02.2021
2604 Clouds -4 1036 74 10000 4.12 100 11:48 12.02.2021
2605 Clouds -5 1036 79 10000 2.57 80 11:22 12.02.2021
2606 Clouds -5 1036 86 10000 3.09 60 10:51 12.02.2021
2607 Clouds -5 1036 86 10000 3.09 60 10:33 12.02.2021
2608 Snow -6 1035 86 10000 2.57 60 09:43 12.02.2021
2609 Clouds -7 1035 86 10000 2.57 60 09:24 12.02.2021
2610 Clouds -7 1035 93 10000 3.6 50 08:47 12.02.2021
2611 Clouds -7 1035 93 10000 2.57 40 08:27 12.02.2021
2612 Snow -7 1034 86 10000 0.51 0 07:53 12.02.2021
2613 Clouds -8 1034 93 10000 0.51 0 07:27 12.02.2021
2614 Clouds -8 1034 93 10000 0.51 120 06:54 12.02.2021
2615 Clouds -8 1034 92 10000 1.03 0 05:39 12.02.2021
2616 Snow -9 1033 92 10000 1.03 0 03:48 12.02.2021
2617 Fog -9 1033 92 10000 0.51 0 00:35 12.02.2021
2618 Fog -9 1033 92 10000 1.03 70 23:38 11.02.2021
2619 Fog -8 1032 100 10000 1.03 60 23:20 11.02.2021
2620 Fog -8 1032 100 10000 0.51 320 22:44 11.02.2021
2621 Fog -7 1032 92 10000 0.51 0 22:23 11.02.2021
2622 Clouds -7 1032 92 10000 0.51 20 21:43 11.02.2021
2623 Clouds -7 1032 100 10000 0.51 0 21:25 11.02.2021
2624 Clouds -6 1032 93 10000 1.03 290 20:56 11.02.2021
2625 Clouds -6 1032 93 10000 1.03 290 20:37 11.02.2021
2626 Clouds -6 1032 86 10000 0.51 320 20:18 11.02.2021
2627 Clouds -6 1031 79 10000 1.03 240 19:46 11.02.2021
2628 Clouds -5 1031 74 10000 1.03 220 19:25 11.02.2021
2629 Clouds -3 1031 68 10000 1.54 330 18:42 11.02.2021
2630 Clouds -3 1031 68 10000 1.54 330 18:19 11.02.2021
2631 Clouds -3 1030 63 10000 2.06 330 17:43 11.02.2021
2632 Clouds -2 1030 59 10000 3.09 320 17:20 11.02.2021
2633 Clouds -3 1030 64 10000 3.09 350 16:44 11.02.2021
2634 Clouds -2 1030 59 10000 4.12 350 16:25 11.02.2021
2635 Clouds -1 1030 55 10000 3.09 350 15:45 11.02.2021
2636 Clouds -2 1029 51 10000 3.6 310 15:26 11.02.2021
2637 Clouds -2 1029 51 10000 3.6 310 15:26 11.02.2021
2638 Clouds -2 1029 59 10000 4.12 330 14:53 11.02.2021
2639 Clouds -2 1029 59 10000 3.6 340 14:31 11.02.2021
2640 Clouds -2 1029 64 10000 2.06 290 13:42 11.02.2021
2641 Clouds -3 1029 68 10000 2.57 260 13:20 11.02.2021
2642 Clouds -3 1029 68 10000 2.57 260 12:56 11.02.2021
2643 Clouds -3 1029 68 10000 2.57 260 12:32 11.02.2021
2644 Clouds -4 1029 80 10000 2.06 260 11:47 11.02.2021
2645 Clouds -5 1029 86 10000 2.06 290 11:27 11.02.2021
2646 Clouds -6 1028 93 10000 1.54 270 10:45 11.02.2021
2647 Clouds -7 1028 86 10000 1.54 270 10:26 11.02.2021
2648 Clouds -7 1028 92 10000 2.06 260 09:56 11.02.2021
2649 Clouds -8 1028 92 10000 1.54 260 09:26 11.02.2021
2650 Snow -9 1027 85 10000 1.03 0 08:55 11.02.2021
2651 Snow -9 1027 85 10000 1.03 0 08:55 11.02.2021
2652 Clouds -9 1027 92 10000 1.03 270 08:30 11.02.2021
2653 Clouds -9 1027 92 10000 1.03 0 07:39 11.02.2021
2654 Fog -11 1026 100 10000 2.06 260 06:42 11.02.2021
2655 Fog -10 1025 92 10000 1.54 280 05:44 11.02.2021
2656 Clouds -8 1023 86 10000 2.57 320 02:43 11.02.2021
2657 Clouds -7 1023 86 10000 3.09 340 02:19 11.02.2021
2658 Clouds -5 1021 80 10000 2.57 360 00:22 11.02.2021
2659 Clouds -5 1021 74 10000 4.12 360 23:45 10.02.2021
2660 Clouds -5 1020 80 10000 4.12 360 23:18 10.02.2021
2661 Clouds -5 1020 80 10000 3.6 360 22:42 10.02.2021
2662 Snow -4 1019 86 7000 3.09 350 22:18 10.02.2021
2663 Clear -4 1019 86 10000 3.6 360 21:38 10.02.2021
2664 Clear -4 1018 80 10000 3.6 350 21:19 10.02.2021
2665 Clear -4 1018 80 10000 4.12 350 20:41 10.02.2021
2666 Clouds -3 1017 86 10000 3.6 340 20:22 10.02.2021
2667 Snow -3 1017 80 10000 4.12 340 19:46 10.02.2021
2668 Clouds -3 1016 86 10000 4.12 340 19:25 10.02.2021
2669 Clouds -3 1016 80 10000 3.6 350 18:44 10.02.2021
2670 Clouds -2 1016 80 10000 3.6 340 18:23 10.02.2021
2671 Clouds -2 1015 80 10000 3.09 340 17:57 10.02.2021
2672 Snow -3 1014 80 10000 4.12 340 17:24 10.02.2021
2673 Snow -3 1014 80 10000 4.12 340 17:24 10.02.2021
2674 Snow -2 1014 80 10000 4.63 340 16:53 10.02.2021
2675 Snow -2 1014 80 10000 4.12 340 16:31 10.02.2021
2676 Snow -1 1013 74 10000 4.12 10 15:59 10.02.2021
2677 Snow -1 1013 74 10000 4.12 10 15:24 10.02.2021
2678 Snow -1 1013 80 10000 4.12 10 14:48 10.02.2021
2679 Snow -2 1012 80 5000 4.12 10 14:29 10.02.2021
2680 Clouds -1 1012 74 10000 3.09 10 13:52 10.02.2021
2681 Snow -2 1012 86 9000 2.06 340 13:28 10.02.2021
2682 Clouds -2 1012 80 8000 2.57 350 12:50 10.02.2021
2683 Clouds -2 1011 80 10000 2.57 360 12:30 10.02.2021
2684 Clouds -2 1011 80 10000 2.57 360 12:30 10.02.2021
2685 Clouds -3 1011 80 10000 2.57 340 11:54 10.02.2021
2686 Clouds -3 1011 80 10000 2.57 340 11:36 10.02.2021
2687 Snow -5 1011 93 10000 1.54 300 11:18 10.02.2021
2688 Snow -6 1011 86 5000 1.54 280 10:22 10.02.2021
2689 Snow -6 1010 86 10000 1.54 260 09:45 10.02.2021
2690 Snow -7 1010 93 10000 1.54 270 09:26 10.02.2021
2691 Snow -7 1010 93 9000 1.03 0 08:51 10.02.2021
2692 Clouds -7 1010 93 10000 1.54 240 08:30 10.02.2021
2693 Snow -8 1009 92 10000 1.03 270 07:31 10.02.2021
2694 Snow -9 1009 92 10000 1.54 290 06:21 10.02.2021
2695 Mist -12 1009 92 4500 0.51 300 01:21 10.02.2021
2696 Snow -12 1009 100 4000 0.51 200 23:45 09.02.2021
2697 Fog -11 1009 92 4000 0.1 92 23:27 09.02.2021
2698 Clouds -11 1009 92 6000 0.1 92 22:42 09.02.2021
2699 Clouds -10 1009 92 6000 0.51 0 22:23 09.02.2021
2700 Mist -10 1009 85 4500 0.51 240 21:47 09.02.2021
2701 Mist -10 1009 92 4000 0.51 0 21:21 09.02.2021
2702 Mist -10 1009 92 4500 0.51 330 20:43 09.02.2021
2703 Mist -10 1009 92 3000 0.51 0 20:24 09.02.2021
2704 Clouds -10 1009 92 9000 0.45 265 19:44 09.02.2021
2705 Clouds -9 1009 92 10000 0.77 244 19:22 09.02.2021
2706 Clouds -9 1009 92 10000 0.51 0 18:45 09.02.2021
2707 Clouds -9 1009 85 10000 1.03 270 18:26 09.02.2021
2708 Clouds -7 1008 85 10000 1.54 250 17:49 09.02.2021
2709 Clouds -7 1008 79 10000 1.54 170 17:27 09.02.2021
2710 Clouds -6 1008 68 10000 1.03 0 16:53 09.02.2021
2711 Snow -6 1008 73 10000 1.03 180 16:20 09.02.2021
2712 Clouds -6 1008 73 10000 1.03 0 15:51 09.02.2021
2713 Clouds -6 1008 73 10000 1.03 0 15:31 09.02.2021
2714 Clouds -6 1008 68 10000 1.03 0 14:59 09.02.2021
2715 Clouds -5 1008 68 10000 1.03 0 14:36 09.02.2021
2716 Snow -6 1007 73 10000 1.54 110 14:18 09.02.2021
2717 Clouds -6 1007 63 10000 2.57 80 13:40 09.02.2021
2718 Clouds -5 1007 68 10000 2.57 80 13:20 09.02.2021
2719 Clouds -6 1007 68 10000 2.57 60 12:43 09.02.2021
2720 Clouds -7 1007 73 10000 2.06 60 12:23 09.02.2021
2721 Snow -8 1007 79 10000 1.03 0 11:44 09.02.2021
2722 Snow -8 1007 79 10000 0.51 210 11:21 09.02.2021
2723 Snow -9 1007 92 10000 0.51 260 10:57 09.02.2021
2724 Snow -9 1007 85 10000 1.03 0 10:20 09.02.2021
2725 Snow -10 1007 85 10000 1.03 290 09:51 09.02.2021
2726 Fog -11 1006 85 10000 0.51 290 09:26 09.02.2021
2727 Fog -12 1006 92 10000 0.51 280 08:54 09.02.2021
2728 Fog -11 1006 92 10000 1.03 310 08:28 09.02.2021
2729 Fog -11 1005 92 10000 0.51 0 07:41 09.02.2021
2730 Snow -9 1005 92 10000 2.57 90 05:33 09.02.2021
2731 Snow -9 1004 86 9000 1.54 30 03:47 09.02.2021
2732 Snow -8 1004 92 9000 1.03 0 01:50 09.02.2021
2733 Clouds -8 1004 92 10000 1.03 0 00:18 09.02.2021
2734 Snow -8 1004 86 10000 2.06 50 23:23 08.02.2021
2735 Snow -8 1004 86 10000 2.57 40 22:59 08.02.2021
2736 Snow -8 1004 86 10000 2.57 40 22:39 08.02.2021
2737 Snow -8 1004 92 10000 2.57 40 22:21 08.02.2021
2738 Snow -8 1004 86 6000 2.57 60 21:39 08.02.2021
2739 Snow -8 1004 92 6000 3.09 60 21:20 08.02.2021
2740 Snow -8 1004 92 3200 2.57 50 20:44 08.02.2021
2741 Snow -8 1004 92 1800 2.57 60 20:23 08.02.2021
2742 Snow -8 1004 86 3800 2.57 60 19:49 08.02.2021
2743 Snow -8 1004 86 3800 2.57 60 19:49 08.02.2021
2744 Snow -8 1004 92 2000 2.06 70 19:30 08.02.2021
2745 Snow -8 1004 92 2300 3.09 80 18:50 08.02.2021
2746 Snow -7 1003 86 2800 3.09 90 18:25 08.02.2021
2747 Snow -7 1003 86 2500 3.09 90 17:59 08.02.2021
2748 Snow -7 1003 86 2500 3.09 90 17:41 08.02.2021
2749 Snow -7 1003 86 1500 3.09 110 17:21 08.02.2021
2750 Snow -7 1003 86 1500 2.57 110 16:40 08.02.2021
2751 Snow -7 1003 86 2200 2.57 120 16:20 08.02.2021
2752 Snow -7 1003 86 1900 3.09 110 15:38 08.02.2021
2753 Snow -7 1003 93 1900 4.12 100 15:18 08.02.2021
2754 Snow -7 1003 86 1800 6.17 80 14:50 08.02.2021
2755 Snow -7 1003 79 2100 7.2 90 14:28 08.02.2021
2756 Snow -7 1003 79 2500 6.69 90 13:49 08.02.2021
2757 Snow -7 1003 79 3000 7.72 90 13:28 08.02.2021
2758 Snow -7 1003 79 3000 8.75 80 12:39 08.02.2021
2759 Snow -7 1004 86 1800 6.69 90 12:19 08.02.2021
2760 Snow -7 1004 86 1500 5.14 80 11:38 08.02.2021
2761 Snow -7 1004 86 3200 5.14 70 10:47 08.02.2021
2762 Snow -7 1004 79 2600 5.66 80 10:26 08.02.2021
2763 Snow -7 1004 86 2800 5.14 70 09:56 08.02.2021
2764 Snow -7 1004 86 2800 5.14 70 09:36 08.02.2021
2765 Snow -7 1004 93 2000 4.12 70 08:57 08.02.2021
2766 Snow -7 1004 86 2800 6.17 80 08:26 08.02.2021
2767 Snow -7 1004 79 2800 7.2 70 07:42 08.02.2021
2768 Snow -7 1004 86 1800 6.17 70 06:38 08.02.2021
2769 Snow -6 1004 86 4500 4.63 80 05:18 08.02.2021
2770 Snow -6 1005 68 10000 8.23 90 02:26 08.02.2021
2771 Snow -6 1006 79 10000 10.8 90 00:25 08.02.2021
2772 Snow -6 1006 79 10000 11.32 90 23:54 07.02.2021
2773 Snow -6 1006 79 10000 10.29 80 23:28 07.02.2021
2774 Snow -5 1006 79 6000 8.75 80 22:57 07.02.2021
2775 Snow -5 1006 79 6000 8.75 80 22:38 07.02.2021
2776 Snow -5 1006 79 2800 9.26 80 22:20 07.02.2021
2777 Snow -5 1006 79 4500 10.29 80 21:49 07.02.2021
2778 Snow -5 1006 79 4500 10.29 80 21:49 07.02.2021
2779 Snow -5 1006 79 9000 11.32 80 21:24 07.02.2021
2780 Snow -5 1006 79 4500 12.35 90 20:49 07.02.2021
2781 Snow -5 1006 79 7000 12.35 80 20:28 07.02.2021
2782 Snow -6 1005 79 4500 11.83 80 19:47 07.02.2021
2783 Snow -6 1005 79 4000 11.32 80 19:28 07.02.2021
2784 Snow -6 1005 79 2700 12.35 80 18:45 07.02.2021
2785 Snow -6 1005 79 2500 12.86 80 18:27 07.02.2021
2786 Snow -5 1005 79 4500 11.83 80 17:57 07.02.2021
2787 Snow -5 1005 79 4500 11.83 80 17:38 07.02.2021
2788 Snow -5 1004 92 185 4.02 68 17:18 07.02.2021
2789 Snow -5 1004 92 185 4.02 68 16:41 07.02.2021
2790 Mist -5 1005 86 4200 9.77 80 16:20 07.02.2021
2791 Snow -5 1004 92 193 4.02 68 15:44 07.02.2021
2792 Snow -5 1004 92 214 4.02 68 15:21 07.02.2021
2793 Snow -6 1005 86 1800 10.29 80 14:45 07.02.2021
2794 Snow -6 1006 93 1800 10.29 80 14:26 07.02.2021
2795 Snow -6 1006 93 1400 10.29 80 13:45 07.02.2021
2796 Snow -6 1006 93 1200 10.8 80 13:27 07.02.2021
2797 Snow -6 1005 92 340 3.58 68 12:42 07.02.2021
2798 Snow -6 1005 92 290 3.13 90 12:21 07.02.2021
2799 Snow -6 1005 92 290 4.02 68 11:43 07.02.2021
2800 Snow -6 1007 86 2000 10.29 80 11:24 07.02.2021
2801 Snow -5 1007 93 2000 10.29 80 10:31 07.02.2021
2802 Snow -5 1007 86 800 11.83 80 09:57 07.02.2021
2803 Snow -5 1007 86 800 11.83 80 09:39 07.02.2021
2804 Snow -5 1007 86 1400 11.32 80 09:20 07.02.2021
2805 Snow -5 1006 93 193 4.47 68 07:58 07.02.2021
2806 Snow -5 1007 93 1200 12.35 80 06:33 07.02.2021
2807 Snow -5 1008 86 2100 12.86 90 05:48 07.02.2021
2808 Snow -4 1010 86 2200 12.35 80 02:52 07.02.2021
2809 Snow -3 1011 74 10000 11.83 90 00:41 07.02.2021
2810 Snow -2 1012 80 10000 11.32 90 23:58 06.02.2021
2811 Snow -2 1012 80 10000 11.83 80 23:19 06.02.2021
2812 Clouds -1 1012 74 10000 11.83 80 22:25 06.02.2021
2813 Snow -2 1013 74 10000 11.32 90 21:38 06.02.2021
2814 Snow -1 1013 74 10000 11.32 90 21:20 06.02.2021
2815 Snow -1 1013 74 10000 11.83 80 20:44 06.02.2021
2816 Clouds -1 1013 74 10000 11.32 90 20:23 06.02.2021
2817 Clouds -1 1014 74 10000 11.83 90 19:51 06.02.2021
2818 Clouds -1 1014 69 10000 10.8 90 19:26 06.02.2021
2819 Clouds -1 1014 74 10000 11.32 90 18:46 06.02.2021
2820 Clouds -1 1014 74 10000 10.8 90 18:27 06.02.2021
2821 Clouds -1 1014 74 10000 11.32 80 17:41 06.02.2021
2822 Clouds -1 1014 74 10000 9.26 90 17:21 06.02.2021
2823 Clouds -1 1014 74 10000 9.26 90 17:21 06.02.2021
2824 Snow -1 1014 74 10000 9.77 80 16:57 06.02.2021
2825 Snow -1 1014 74 10000 9.77 80 16:34 06.02.2021
2826 Snow -1 1014 74 10000 9.77 80 16:34 06.02.2021
2827 Snow 0 1015 74 10000 9.26 90 15:55 06.02.2021
2828 Snow 0 1015 74 10000 9.26 90 15:36 06.02.2021
2829 Clouds 0 1015 80 10000 9.26 80 15:18 06.02.2021
2830 Clouds 0 1015 80 10000 9.77 90 14:43 06.02.2021
2831 Clouds 0 1015 80 10000 9.77 90 14:22 06.02.2021
2832 Clouds 0 1015 80 10000 9.77 90 14:22 06.02.2021
2833 Clouds 0 1015 80 10000 10.29 90 13:47 06.02.2021
2834 Clouds 0 1016 80 10000 9.77 90 12:48 06.02.2021
2835 Clouds -1 1016 80 10000 9.77 90 12:21 06.02.2021
2836 Clouds 0 1016 80 10000 9.77 90 11:42 06.02.2021
2837 Clouds 0 1016 86 10000 9.26 90 11:20 06.02.2021
2838 Clouds 0 1016 10 10000 7.92 87 10:53 06.02.2021
2839 Clouds 0 1016 86 9000 9.26 90 10:28 06.02.2021
2840 Clouds 0 1016 10 10000 7.59 87 09:54 06.02.2021
2841 Clouds 0 1015 93 10000 3.13 68 09:36 06.02.2021
2842 Clouds 0 1015 93 10000 2.68 68 09:18 06.02.2021
2843 Clouds 0 1016 10 10000 7.03 83 08:29 06.02.2021
2844 Clouds 0 1016 93 7000 8.23 100 07:44 06.02.2021
2845 Clouds 0 1015 93 7000 7.72 90 05:42 06.02.2021
2846 Snow 0 1015 93 7000 7.72 90 03:47 06.02.2021
2847 Drizzle 1 1016 93 4500 6.69 90 01:30 06.02.2021
2848 Drizzle 1 1015 93 4000 7.72 90 00:45 06.02.2021
2849 Drizzle 1 1015 100 3500 7.2 90 00:18 06.02.2021
2850 Drizzle 1 1015 100 5000 6.69 90 23:41 05.02.2021
2851 Drizzle 1 1015 93 6000 6.69 90 23:23 05.02.2021
2852 Clouds 2 1014 95 10000 1.79 68 22:43 05.02.2021
2853 Clouds 2 1014 95 10000 2.68 68 22:18 05.02.2021
2854 Rain 2 1015 93 9000 6.17 100 21:40 05.02.2021
2855 Rain 2 1015 93 9000 6.17 100 20:59 05.02.2021
2856 Rain 2 1015 93 9000 6.17 100 20:38 05.02.2021
2857 Rain 2 1015 93 9000 6.17 100 19:48 05.02.2021
2858 Snow 2 1015 93 9000 6.17 90 19:19 05.02.2021
2859 Clouds 2 1014 93 7000 6.17 90 18:43 05.02.2021
2860 Clouds 2 1014 100 7000 6.69 90 18:19 05.02.2021
2861 Clouds 2 1013 95 10000 1.79 45 17:42 05.02.2021
2862 Mist 2 1014 100 5000 6.17 80 17:21 05.02.2021
2863 Mist 3 1014 93 4800 5.66 90 16:44 05.02.2021
2864 Mist 3 1014 100 4500 5.66 100 16:23 05.02.2021
2865 Rain 3 1014 93 5000 5.66 100 15:51 05.02.2021
2866 Mist 3 1014 100 5000 5.14 100 15:25 05.02.2021
2867 Rain 3 1014 100 6000 5.66 100 14:40 05.02.2021
2868 Clouds 3 1014 100 6000 5.14 100 14:21 05.02.2021
2869 Clouds 3 1014 100 6000 6.69 100 13:53 05.02.2021
2870 Clouds 3 1014 100 6000 6.69 100 13:33 05.02.2021
2871 Mist 3 1015 100 4200 6.17 100 12:46 05.02.2021
2872 Mist 3 1015 100 4000 5.14 100 12:24 05.02.2021
2873 Mist 3 1015 100 3000 6.17 100 11:40 05.02.2021
2874 Mist 3 1015 100 3000 6.17 100 11:21 05.02.2021
2875 Mist 3 1015 100 2200 6.17 90 10:49 05.02.2021
2876 Fog 3 1015 100 800 5.14 90 10:26 05.02.2021
2877 Rain 3 1015 100 400 4.63 100 09:43 05.02.2021
2878 Rain 3 1015 100 350 5.66 90 09:25 05.02.2021
2879 Fog 3 1015 100 300 5.14 90 08:47 05.02.2021
2880 Fog 3 1015 100 200 5.14 90 07:52 05.02.2021
2881 Fog 3 1015 100 200 5.14 90 07:34 05.02.2021
2882 Fog 3 1015 100 200 4.12 90 06:42 05.02.2021
2883 Fog 3 1015 100 200 4.12 90 05:35 05.02.2021
2884 Fog 2 1015 100 200 3.6 90 02:27 05.02.2021
2885 Fog 2 1015 100 200 3.6 100 01:59 05.02.2021
2886 Fog 2 1016 100 200 4.12 90 00:38 05.02.2021
2887 Fog 2 1016 100 200 4.12 100 00:19 05.02.2021
2888 Fog 2 1016 100 200 4.12 100 23:55 04.02.2021
2889 Fog 2 1016 100 200 4.12 100 23:36 04.02.2021
2890 Fog 2 1016 100 400 4.12 90 23:18 04.02.2021
2891 Fog 2 1016 100 600 3.09 90 22:43 04.02.2021
2892 Mist 2 1016 100 2200 3.6 80 22:25 04.02.2021
2893 Mist 2 1016 93 4500 2.57 100 21:42 04.02.2021
2894 Mist 3 1015 93 4500 4.12 80 21:19 04.02.2021
2895 Mist 3 1015 93 4500 3.6 80 20:46 04.02.2021
2896 Mist 3 1015 93 4500 3.09 90 20:26 04.02.2021
2897 Drizzle 3 1015 93 4500 3.6 90 19:42 04.02.2021
2898 Drizzle 3 1015 93 4500 4.12 90 18:51 04.02.2021
2899 Mist 3 1015 93 4500 4.12 90 18:25 04.02.2021
2900 Drizzle 3 1015 93 4000 3.09 60 17:53 04.02.2021
2901 Drizzle 4 1015 100 4000 3.09 70 17:25 04.02.2021
2902 Drizzle 4 1014 100 6000 3.09 70 16:56 04.02.2021
2903 Drizzle 4 1014 100 6000 3.09 70 16:38 04.02.2021
2904 Clouds 4 1014 93 8000 3.09 80 16:18 04.02.2021
2905 Clouds 4 1014 93 8000 2.06 100 15:39 04.02.2021
2906 Drizzle 4 1014 100 9000 3.09 90 15:20 04.02.2021
2907 Drizzle 4 1014 100 9000 3.09 80 14:42 04.02.2021
2908 Drizzle 4 1014 100 9000 1.54 90 14:20 04.02.2021
2909 Drizzle 4 1013 100 10000 2.06 100 13:45 04.02.2021
2910 Drizzle 4 1013 93 10000 2.06 110 13:20 04.02.2021
2911 Clouds 4 1013 93 10000 2.06 110 12:52 04.02.2021
2912 Clouds 4 1013 93 10000 2.06 110 12:52 04.02.2021
2913 Clouds 3 1013 93 8000 3.09 90 11:54 04.02.2021
2914 Clouds 3 1013 93 8000 3.09 90 11:34 04.02.2021
2915 Clouds 3 1012 93 6000 2.57 90 10:54 04.02.2021
2916 Clouds 3 1012 93 6000 2.57 90 10:33 04.02.2021
2917 Rain 4 1011 93 5000 2.06 120 09:45 04.02.2021
2918 Rain 2 1010 100 5000 2.57 100 09:20 04.02.2021
2919 Clouds 2 1010 100 8000 3.09 90 08:51 04.02.2021
2920 Clouds 2 1009 100 9000 2.57 60 08:25 04.02.2021
2921 Clouds 3 1008 100 6000 2.06 50 07:51 04.02.2021
2922 Clouds 3 1008 100 6000 2.06 50 07:32 04.02.2021
2923 Clouds 4 1007 93 7000 2.06 40 06:45 04.02.2021
2924 Clouds 4 1006 100 4500 1.54 10 05:32 04.02.2021
2925 Rain 7 1001 100 7000 4.12 270 02:30 04.02.2021
2926 Rain 7 1000 100 7000 3.09 260 01:24 04.02.2021
2927 Clouds 6 998 93 7000 2.06 260 23:55 03.02.2021
2928 Clouds 6 998 100 6000 2.57 260 23:30 03.02.2021
2929 Rain 6 997 100 7000 2.06 260 22:38 03.02.2021
2930 Rain 7 996 10 10000 1.25 304 22:20 03.02.2021
2931 Rain 7 996 93 7000 2.57 270 21:46 03.02.2021
2932 Rain 7 996 93 7000 2.57 290 21:23 03.02.2021
2933 Rain 6 995 100 10000 2.06 300 20:50 03.02.2021
2934 Clouds 7 995 100 10000 3.09 290 20:31 03.02.2021
2935 Rain 7 994 100 10000 3.09 320 19:55 03.02.2021
2936 Clouds 7 993 100 6000 5.14 320 19:25 03.02.2021
2937 Rain 7 992 100 9000 5.66 340 18:57 03.02.2021
2938 Clouds 8 992 100 9000 5.66 340 18:37 03.02.2021
2939 Clouds 7 992 100 10000 3.09 50 18:19 03.02.2021
2940 Rain 8 992 100 5000 3.09 0 17:43 03.02.2021
2941 Rain 7 992 93 2500 3.6 100 17:19 03.02.2021
2942 Rain 7 992 100 3500 3.6 90 16:40 03.02.2021
2943 Rain 7 993 93 7000 2.06 110 16:20 03.02.2021
2944 Rain 8 994 93 7000 1.54 130 15:39 03.02.2021
2945 Rain 8 994 93 10000 1.54 150 15:20 03.02.2021
2946 Rain 8 994 87 10000 2.06 170 14:44 03.02.2021
2947 Rain 8 995 87 10000 2.57 170 14:21 03.02.2021
2948 Rain 9 995 87 10000 2.06 170 13:44 03.02.2021
2949 Rain 9 996 87 10000 3.09 190 13:19 03.02.2021
2950 Rain 8 996 93 10000 3.09 170 12:40 03.02.2021
2951 Rain 8 997 93 10000 2.57 170 12:20 03.02.2021
2952 Rain 8 997 93 10000 3.09 180 11:41 03.02.2021
2953 Clouds 8 997 93 10000 3.09 190 11:23 03.02.2021
2954 Clouds 8 998 100 10000 3.09 190 10:37 03.02.2021
2955 Clouds 7 998 100 6000 2.57 170 10:18 03.02.2021
2956 Mist 6 998 100 4500 1.54 140 09:39 03.02.2021
2957 Fog 6 998 93 4500 1.03 0 09:20 03.02.2021
2958 Mist 6 998 100 4500 1.03 0 08:45 03.02.2021
2959 Rain 6 998 100 4500 3.09 90 07:58 03.02.2021
2960 Mist 5 998 100 3600 2.06 50 06:42 03.02.2021
2961 Mist 3 998 100 4000 3.09 90 05:19 03.02.2021
2962 Rain 3 998 100 4000 2.57 100 04:42 03.02.2021
2963 Rain 3 999 100 6000 2.57 70 03:51 03.02.2021
2964 Clouds 3 999 100 6000 3.09 90 02:40 03.02.2021
2965 Clouds 3 999 100 7000 2.57 100 01:47 03.02.2021
2966 Rain 2 999 100 3500 3.6 90 00:24 03.02.2021
2967 Drizzle 2 999 100 2400 3.09 90 23:43 02.02.2021
2968 Mist 2 999 100 1800 3.09 90 23:25 02.02.2021
2969 Drizzle 2 999 100 1400 2.57 80 22:43 02.02.2021
2970 Drizzle 2 999 93 2300 3.09 80 22:19 02.02.2021
2971 Mist 2 999 100 1500 2.06 110 21:44 02.02.2021
2972 Drizzle 2 999 100 1800 3.6 90 21:23 02.02.2021
2973 Rain 2 999 100 1800 3.09 90 20:49 02.02.2021
2974 Mist 2 998 100 1600 3.6 90 20:21 02.02.2021
2975 Mist 2 998 100 1600 3.6 100 19:51 02.02.2021
2976 Mist 2 998 100 1600 3.6 100 19:33 02.02.2021
2977 Mist 2 998 100 2200 4.12 90 18:56 02.02.2021
2978 Drizzle 2 998 100 2200 4.12 90 18:37 02.02.2021
2979 Mist 2 998 93 2200 4.12 100 18:19 02.02.2021
2980 Rain 2 998 93 1800 4.12 90 17:38 02.02.2021
2981 Rain 2 999 93 1800 4.12 90 17:19 02.02.2021
2982 Mist 2 999 93 1100 5.14 90 16:44 02.02.2021
2983 Rain 2 999 93 1000 4.63 90 16:25 02.02.2021
2984 Drizzle 2 999 93 1100 4.12 90 15:54 02.02.2021
2985 Mist 2 1000 93 2800 3.6 90 15:29 02.02.2021
2986 Mist 3 1000 93 3500 3.6 100 14:52 02.02.2021
2987 Snow 2 1000 93 3500 3.6 100 14:33 02.02.2021
2988 Rain 2 1001 100 3500 3.6 100 13:56 02.02.2021
2989 Snow 2 1001 100 3500 3.6 100 13:38 02.02.2021
2990 Rain 2 1001 100 3500 2.06 100 13:19 02.02.2021
2991 Rain 2 1001 100 3200 2.06 100 12:42 02.02.2021
2992 Mist 2 1002 100 3200 0.51 0 11:46 02.02.2021
2993 Snow 1 1002 100 3200 1.54 90 11:25 02.02.2021
2994 Snow 1 1002 93 3200 0.51 90 10:56 02.02.2021
2995 Snow 1 1003 93 3000 0.51 130 10:31 02.02.2021
2996 Snow 1 1003 93 2300 0.51 270 09:48 02.02.2021
2997 Snow 1 1003 93 2300 0.51 220 09:26 02.02.2021
2998 Snow 1 1003 93 2300 0.51 220 09:26 02.02.2021
2999 Snow 1 1003 93 1600 1.03 0 08:59 02.02.2021
3000 Snow 1 1003 93 1600 1.03 0 08:32 02.02.2021
3001 Snow 1 1002 93 1800 1.54 290 07:37 02.02.2021
3002 Mist 1 1002 93 3500 1.54 260 06:43 02.02.2021
3003 Snow 1 1002 93 3500 2.06 270 06:21 02.02.2021
3004 Snow 1 1002 93 3500 2.57 270 05:46 02.02.2021
3005 Mist 1 1001 93 2800 2.57 270 02:45 02.02.2021
3006 Snow 1 1001 93 1200 2.57 280 02:23 02.02.2021
3007 Drizzle 1 1000 100 1200 3.09 280 00:36 02.02.2021
3008 Mist 1 999 93 1300 1.54 260 23:30 01.02.2021
3009 Fog 1 999 93 900 1.03 0 22:51 01.02.2021
3010 Fog 1 999 93 900 1.03 0 22:33 01.02.2021
3011 Drizzle 1 998 93 3200 1.03 290 21:53 01.02.2021
3012 Drizzle 1 998 93 3200 1.03 290 21:34 01.02.2021
3013 Mist 1 998 93 5000 0.51 80 20:57 01.02.2021
3014 Rain 0 998 93 5000 0.51 80 20:38 01.02.2021
3015 Rain 0 998 100 6000 1.03 100 20:19 01.02.2021
3016 Rain 0 997 100 7000 1.03 70 19:39 01.02.2021
3017 Rain 0 997 86 7000 1.54 110 19:20 01.02.2021
3018 Rain 0 997 93 7000 1.54 80 18:49 01.02.2021
3019 Rain 0 996 93 8000 2.06 80 18:27 01.02.2021
3020 Rain 0 996 93 9000 2.06 90 17:47 01.02.2021
3021 Rain 1 996 86 10000 2.06 110 17:24 01.02.2021
3022 Rain 1 995 86 10000 2.06 110 16:55 01.02.2021
3023 Rain 1 995 86 10000 2.06 100 16:29 01.02.2021
3024 Rain 0 995 93 10000 2.06 110 15:44 01.02.2021
3025 Rain 1 995 86 10000 2.57 110 15:19 01.02.2021
3026 Rain 0 995 93 10000 2.57 100 14:52 01.02.2021
3027 Rain 0 995 93 10000 2.57 100 14:33 01.02.2021
3028 Rain 0 995 86 10000 3.09 110 13:49 01.02.2021
3029 Rain 0 995 93 9000 3.09 100 13:27 01.02.2021
3030 Rain 0 995 86 9000 3.6 100 12:45 01.02.2021
3031 Rain 0 995 93 9000 3.09 100 12:25 01.02.2021
3032 Rain -1 995 86 8000 3.6 100 11:51 01.02.2021
3033 Rain -1 995 86 8000 3.6 100 11:51 01.02.2021
3034 Rain -1 995 93 8000 4.63 90 11:23 01.02.2021
3035 Rain -1 995 86 8000 4.63 90 10:55 01.02.2021
3036 Rain -2 995 86 8000 4.63 90 10:36 01.02.2021
3037 Rain -2 995 93 5000 3.6 90 10:18 01.02.2021
3038 Rain -2 995 93 5000 2.57 100 09:42 01.02.2021
3039 Snow -3 995 93 2800 3.09 100 08:56 01.02.2021
3040 Snow -3 995 86 4500 3.09 90 08:27 01.02.2021
3041 Snow -4 995 93 7000 3.09 100 07:36 01.02.2021
3042 Snow -4 995 86 9000 4.12 90 05:46 01.02.2021
3043 Clouds -6 997 92 9000 2.57 90 02:41 01.02.2021
3044 Clear -6 999 86 10000 2.57 100 00:27 01.02.2021
3045 Clear -5 999 93 10000 2.06 100 23:29 31.01.2021
3046 Clear -5 1000 93 10000 2.57 100 22:41 31.01.2021
3047 Clear -5 1000 86 10000 2.57 100 22:23 31.01.2021
3048 Clear -5 1000 93 10000 2.06 100 21:49 31.01.2021
3049 Clear -5 1001 93 10000 2.57 100 21:22 31.01.2021
3050 Clouds -5 1001 93 9000 2.57 90 20:46 31.01.2021
3051 Clouds -4 1001 93 8000 2.06 100 20:21 31.01.2021
3052 Clouds -4 1002 93 8000 2.57 100 19:41 31.01.2021
3053 Clouds -4 1002 93 8000 2.57 90 19:23 31.01.2021
3054 Clouds -3 1002 100 8000 2.06 100 18:57 31.01.2021
3055 Clouds -3 1002 100 8000 2.06 100 18:38 31.01.2021
3056 Clouds -2 1002 93 9000 1.54 100 18:19 31.01.2021
3057 Clear -2 1002 93 10000 1.03 100 17:44 31.01.2021
3058 Clear -2 1003 93 10000 2.06 90 17:22 31.01.2021
3059 Clear -1 1003 86 10000 1.03 100 16:46 31.01.2021
3060 Clear -1 1003 86 10000 2.06 80 16:27 31.01.2021
3061 Clouds 0 1004 86 10000 2.57 80 15:50 31.01.2021
3062 Clouds 0 1004 86 10000 2.06 90 15:31 31.01.2021
3063 Clouds 0 1004 86 10000 1.03 0 14:42 31.01.2021
3064 Clouds 0 1005 86 10000 0.51 0 14:21 31.01.2021
3065 Clouds 1 1005 80 10000 0.51 0 13:49 31.01.2021
3066 Clouds 1 1005 80 10000 0.51 70 13:26 31.01.2021
3067 Clouds 0 1005 86 9000 0.51 0 12:48 31.01.2021
3068 Clouds 0 1006 86 9000 0.51 0 12:22 31.01.2021
3069 Clouds -3 1006 86 9000 0.51 0 11:44 31.01.2021
3070 Clear -3 1006 86 10000 0.51 270 11:22 31.01.2021
3071 Clear -3 1006 93 10000 1.03 0 10:49 31.01.2021
3072 Clear -3 1006 93 10000 0.51 220 10:31 31.01.2021
3073 Clear -6 1006 86 10000 0.51 210 09:50 31.01.2021
3074 Clouds -6 1006 86 9000 1.03 0 08:59 31.01.2021
3075 Clouds -7 1006 86 9000 1.03 0 08:32 31.01.2021
3076 Fog -6 1005 93 6000 0.51 0 06:55 31.01.2021
3077 Clouds -6 1005 93 7000 1.03 90 05:31 31.01.2021
3078 Fog -4 1005 100 7000 1.54 90 00:41 31.01.2021
3079 Clouds -3 1005 93 7000 1.54 100 00:21 31.01.2021
3080 Clear -3 1005 93 10000 1.54 80 23:28 30.01.2021
3081 Clear -3 1005 93 10000 1.54 80 22:56 30.01.2021
3082 Clear -3 1005 93 10000 1.54 70 22:29 30.01.2021
3083 Clear -3 1005 100 10000 1.54 80 21:40 30.01.2021
3084 Clouds -2 1005 93 7000 1.03 40 21:20 30.01.2021
3085 Clouds -2 1005 100 10000 1.03 80 20:44 30.01.2021
3086 Clouds -2 1005 100 7000 1.54 80 20:26 30.01.2021
3087 Fog -1 1004 100 4000 1.54 90 19:44 30.01.2021
3088 Fog -1 1004 100 4000 1.03 60 19:25 30.01.2021
3089 Clouds 0 1004 93 7000 0.51 0 18:42 30.01.2021
3090 Clouds 0 1004 100 8000 1.03 40 18:21 30.01.2021
3091 Clouds 0 1004 100 9000 0.51 0 17:57 30.01.2021
3092 Clouds 1 1004 93 10000 1.03 70 17:19 30.01.2021
3093 Clouds 1 1004 93 10000 1.03 70 16:44 30.01.2021
3094 Clouds 1 1004 93 10000 0.51 0 16:24 30.01.2021
3095 Clouds 1 1003 93 10000 0.51 0 15:55 30.01.2021
3096 Clouds 1 1003 93 10000 0.51 0 15:37 30.01.2021
3097 Clouds 1 1003 93 10000 1.54 50 15:18 30.01.2021
3098 Clouds 1 1003 86 10000 1.03 90 14:41 30.01.2021
3099 Clouds 1 1004 86 10000 1.54 110 14:19 30.01.2021
3100 Clouds 1 1004 86 10000 1.03 0 13:29 30.01.2021
3101 Clouds 1 1004 86 10000 1.54 70 12:48 30.01.2021
3102 Clouds 1 1004 86 10000 1.03 0 12:28 30.01.2021
3103 Clouds 1 1004 86 9000 1.03 0 11:55 30.01.2021
3104 Clouds 0 1004 93 9000 1.03 320 11:26 30.01.2021
3105 Clouds 0 1004 93 7000 1.03 0 10:47 30.01.2021
3106 Mist -1 1004 100 4500 1.03 270 09:44 30.01.2021
3107 Clouds -1 1003 93 7000 1.54 250 09:26 30.01.2021
3108 Clouds -1 1003 93 7000 1.03 260 08:47 30.01.2021
3109 Clouds -1 1003 100 10000 2.06 330 07:45 30.01.2021
3110 Snow -1 1002 100 10000 2.06 340 06:36 30.01.2021
3111 Snow -1 1001 93 10000 2.57 360 04:28 30.01.2021
3112 Snow -1 1000 86 7000 3.6 360 03:34 30.01.2021
3113 Snow -1 998 100 3000 2.57 360 02:23 30.01.2021
3114 Snow -1 997 93 2500 2.57 30 01:28 30.01.2021
3115 Snow 0 996 93 1800 3.09 40 00:35 30.01.2021
3116 Snow 0 995 93 1800 4.12 60 23:58 29.01.2021
3117 Snow 0 995 93 1800 4.12 60 23:40 29.01.2021
3118 Rain 0 995 100 4000 4.12 60 23:18 29.01.2021
3119 Rain 0 994 100 5000 3.6 60 22:38 29.01.2021
3120 Rain 1 993 93 3500 4.63 80 21:59 29.01.2021
3121 Rain 1 993 93 2300 4.63 80 21:28 29.01.2021
3122 Mist 1 993 93 2300 4.63 70 20:45 29.01.2021
3123 Rain 1 993 93 10000 3.6 70 20:24 29.01.2021
3124 Rain 1 993 93 10000 2.57 120 19:42 29.01.2021
3125 Rain 1 993 93 10000 3.09 110 19:22 29.01.2021
3126 Rain 1 993 93 6000 6.17 100 18:57 29.01.2021
3127 Mist 1 993 100 2200 5.66 70 17:59 29.01.2021
3128 Rain 1 993 100 2200 5.66 70 17:37 29.01.2021
3129 Rain 1 992 93 3500 4.12 90 17:18 29.01.2021
3130 Rain 1 992 100 4500 4.63 90 16:39 29.01.2021
3131 Rain 1 992 100 6000 3.6 110 16:21 29.01.2021
3132 Rain 1 992 100 6000 3.6 110 16:21 29.01.2021
3133 Snow 1 992 100 7000 4.12 110 15:41 29.01.2021
3134 Snow 1 992 93 6000 2.57 70 15:22 29.01.2021
3135 Snow 1 992 93 6000 4.63 120 14:30 29.01.2021
3136 Snow 1 993 93 2400 4.63 110 13:58 29.01.2021
3137 Snow 1 993 93 2400 4.63 110 13:34 29.01.2021
3138 Snow 1 993 93 4500 4.63 120 12:48 29.01.2021
3139 Snow 1 993 93 2600 5.66 110 12:20 29.01.2021
3140 Snow 1 993 93 3500 5.14 110 11:46 29.01.2021
3141 Rain 1 993 93 9000 5.14 100 11:18 29.01.2021
3142 Snow 1 993 93 7000 5.66 100 10:47 29.01.2021
3143 Snow 1 994 93 6000 5.66 100 10:26 29.01.2021
3144 Snow 1 994 93 6000 6.17 100 09:41 29.01.2021
3145 Snow 1 994 93 5000 6.17 100 08:52 29.01.2021
3146 Snow 1 995 93 5000 6.17 100 08:27 29.01.2021
3147 Snow 1 995 93 5000 6.17 100 07:51 29.01.2021
3148 Snow 1 996 93 8000 5.66 100 07:32 29.01.2021
3149 Snow 1 996 86 9000 5.66 100 06:50 29.01.2021
3150 Snow 1 998 86 10000 4.12 110 05:18 29.01.2021
3151 Snow 1 1002 86 10000 4.12 100 02:37 29.01.2021
3152 Clouds 0 1003 80 10000 3.09 110 00:38 29.01.2021
3153 Clouds 0 1004 80 10000 3.6 100 00:19 29.01.2021
3154 Clouds 0 1004 86 10000 3.09 100 23:41 28.01.2021
3155 Clear 0 1004 86 10000 2.57 100 23:23 28.01.2021
3156 Clear 0 1004 80 10000 2.06 110 22:43 28.01.2021
3157 Clear 0 1004 86 10000 3.6 100 22:25 28.01.2021
3158 Clear 1 1004 86 10000 3.6 90 21:49 28.01.2021
3159 Clear 1 1004 86 10000 3.6 90 21:31 28.01.2021
3160 Clear 1 1004 86 10000 3.6 80 20:54 28.01.2021
3161 Clear 1 1004 86 10000 3.6 80 20:36 28.01.2021
3162 Clouds 2 1004 80 10000 4.12 80 20:18 28.01.2021
3163 Clouds 2 1004 86 10000 4.12 60 19:37 28.01.2021
3164 Rain 3 1004 80 10000 3.6 40 19:18 28.01.2021
3165 Rain 2 1003 87 10000 3.09 50 18:42 28.01.2021
3166 Rain 3 1003 87 10000 3.09 50 18:20 28.01.2021
3167 Rain 3 1002 87 10000 2.57 50 17:44 28.01.2021
3168 Clouds 3 1002 81 10000 2.57 50 17:26 28.01.2021
3169 Clouds 3 1001 87 10000 2.06 80 16:44 28.01.2021
3170 Clouds 3 1001 81 10000 2.57 80 16:22 28.01.2021
3171 Clouds 3 1001 81 10000 2.57 100 15:41 28.01.2021
3172 Rain 3 1001 93 10000 3.09 70 14:58 28.01.2021
3173 Rain 4 1001 93 10000 3.09 70 14:39 28.01.2021
3174 Rain 4 1002 87 10000 3.09 80 14:20 28.01.2021
3175 Rain 4 1002 87 10000 3.09 80 14:20 28.01.2021
3176 Rain 4 1002 87 10000 3.09 70 13:44 28.01.2021
3177 Rain 3 1003 87 10000 3.09 80 12:53 28.01.2021
3178 Rain 4 1003 87 10000 3.09 80 12:34 28.01.2021
3179 Rain 4 1003 93 10000 3.09 80 11:59 28.01.2021
3180 Rain 4 1003 93 10000 3.09 80 11:40 28.01.2021
3181 Rain 4 1003 93 10000 3.6 70 11:19 28.01.2021
3182 Clouds 4 1004 93 10000 2.06 80 10:50 28.01.2021
3183 Clouds 4 1004 93 10000 2.06 80 10:32 28.01.2021
3184 Clouds 4 1004 93 7000 1.54 90 09:44 28.01.2021
3185 Clouds 4 1005 93 9000 1.03 0 09:22 28.01.2021
3186 Clouds 4 1005 100 10000 1.03 300 08:54 28.01.2021
3187 Clouds 4 1005 93 10000 1.03 300 08:18 28.01.2021
3188 Clouds 4 1005 93 10000 1.54 280 07:44 28.01.2021
3189 Clouds 4 1006 93 10000 3.09 310 06:49 28.01.2021
3190 Clouds 5 1006 93 10000 3.09 270 05:35 28.01.2021
3191 Clouds 5 1007 93 7000 4.12 280 03:49 28.01.2021
3192 Rain 5 1008 100 7000 4.12 250 00:58 28.01.2021
3193 Clouds 5 1008 93 6000 4.12 250 23:47 27.01.2021
3194 Clouds 5 1008 93 5000 3.6 260 23:23 27.01.2021
3195 Clouds 5 1008 93 7000 3.6 290 22:41 27.01.2021
3196 Clouds 4 1008 93 10000 4.12 260 22:21 27.01.2021
3197 Clouds 4 1008 100 10000 3.6 260 21:42 27.01.2021
3198 Clouds 4 1008 100 8000 4.12 250 21:22 27.01.2021
3199 Clouds 3 1008 93 10000 4.12 230 20:50 27.01.2021
3200 Drizzle 3 1008 100 3500 2.57 220 20:20 27.01.2021
3201 Clouds 3 1008 100 3500 2.06 210 19:49 27.01.2021
3202 Clouds 3 1009 93 3500 2.06 210 19:22 27.01.2021
3203 Clouds 3 1009 93 3500 2.57 190 18:45 27.01.2021
3204 Clouds 3 1009 93 9000 2.06 210 18:24 27.01.2021
3205 Clouds 3 1009 93 9000 2.57 210 17:52 27.01.2021
3206 Rain 2 1009 87 9000 2.57 210 17:32 27.01.2021
3207 Rain 3 1009 87 10000 3.09 200 16:54 27.01.2021
3208 Clouds 3 1009 87 10000 3.09 200 16:36 27.01.2021
3209 Clouds 3 1009 87 10000 3.09 200 16:18 27.01.2021
3210 Clouds 3 1009 87 10000 3.6 200 15:41 27.01.2021
3211 Clouds 3 1009 87 10000 4.12 190 15:23 27.01.2021
3212 Clouds 2 1010 87 10000 3.09 180 14:24 27.01.2021
3213 Clouds 2 1011 93 4500 3.6 190 13:50 27.01.2021
3214 Clouds 2 1011 93 4000 4.63 200 13:32 27.01.2021
3215 Snow 3 1011 80 10000 5.14 200 12:42 27.01.2021
3216 Rain 3 1011 80 10000 5.66 200 12:23 27.01.2021
3217 Clouds 4 1011 75 10000 5.14 190 11:47 27.01.2021
3218 Clouds 3 1012 75 10000 4.63 190 11:23 27.01.2021
3219 Clouds 3 1012 75 10000 4.63 190 11:23 27.01.2021
3220 Clear 3 1012 75 10000 4.12 190 10:42 27.01.2021
3221 Clear 3 1012 75 10000 2.57 180 10:21 27.01.2021
3222 Clear 2 1012 75 10000 2.57 180 09:51 27.01.2021
3223 Clear 2 1012 75 10000 3.6 200 09:25 27.01.2021
3224 Clear 2 1012 75 10000 3.09 200 08:39 27.01.2021
3225 Clear 2 1013 75 10000 3.6 230 07:46 27.01.2021
3226 Clear 2 1013 80 10000 2.06 240 07:21 27.01.2021
3227 Clouds 2 1013 80 10000 2.57 220 06:23 27.01.2021
3228 Clouds 2 1014 80 10000 2.57 220 05:48 27.01.2021
3229 Clouds 2 1014 87 9000 2.57 230 04:37 27.01.2021
3230 Clouds 1 1015 93 10000 1.54 210 02:24 27.01.2021
3231 Clouds 2 1015 93 10000 1.03 0 01:52 27.01.2021
3232 Clouds 2 1016 93 10000 2.57 250 00:48 27.01.2021
3233 Clouds 2 1016 93 10000 2.57 250 23:51 26.01.2021
3234 Clouds 2 1016 93 10000 2.57 250 23:32 26.01.2021
3235 Clouds 2 1016 93 10000 1.54 250 22:52 26.01.2021
3236 Clouds 2 1016 93 10000 1.54 250 22:33 26.01.2021
3237 Clouds 2 1016 86 10000 2.06 280 21:57 26.01.2021
3238 Clouds 2 1016 86 10000 2.06 280 21:39 26.01.2021
3239 Clouds 2 1016 93 10000 2.57 260 21:21 26.01.2021
3240 Clouds 2 1016 93 10000 1.54 250 20:40 26.01.2021
3241 Clouds 2 1016 93 10000 2.57 250 20:21 26.01.2021
3242 Clouds 2 1016 93 10000 3.6 260 19:46 26.01.2021
3243 Rain 3 1016 87 10000 3.6 270 19:24 26.01.2021
3244 Clouds 2 1016 87 10000 3.09 250 18:49 26.01.2021
3245 Clouds 2 1016 87 10000 4.63 310 18:28 26.01.2021
3246 Clouds 3 1015 87 10000 2.06 260 17:58 26.01.2021
3247 Clouds 3 1015 87 10000 2.06 260 17:40 26.01.2021
3248 Clouds 3 1015 87 10000 2.57 270 17:19 26.01.2021
3249 Clouds 3 1015 87 10000 3.09 260 16:40 26.01.2021
3250 Clouds 3 1015 81 10000 4.12 270 16:19 26.01.2021
3251 Clouds 3 1014 81 10000 4.12 270 15:47 26.01.2021
3252 Clouds 3 1014 87 10000 3.6 280 15:26 26.01.2021
3253 Clouds 4 1014 87 10000 5.14 290 14:48 26.01.2021
3254 Clouds 4 1014 81 10000 4.12 280 14:29 26.01.2021
3255 Clouds 3 1014 93 6000 5.14 290 13:37 26.01.2021
3256 Mist 3 1014 93 4500 5.14 290 13:18 26.01.2021
3257 Mist 2 1014 93 3200 4.12 280 12:43 26.01.2021
3258 Mist 2 1013 93 3200 3.6 290 12:24 26.01.2021
3259 Mist 2 1013 93 3200 3.09 290 11:54 26.01.2021
3260 Mist 2 1013 93 3200 3.09 290 11:33 26.01.2021
3261 Mist 2 1012 100 2600 3.09 310 10:45 26.01.2021
3262 Mist 1 1011 100 2800 3.09 300 10:26 26.01.2021
3263 Mist 2 1011 100 3200 2.57 320 09:42 26.01.2021
3264 Mist 2 1010 100 3400 3.09 300 09:23 26.01.2021
3265 Mist 2 1010 100 2600 3.09 320 08:50 26.01.2021
3266 Snow 2 1009 100 2400 1.54 320 08:21 26.01.2021
3267 Snow 1 1008 100 6000 0.51 0 07:27 26.01.2021
3268 Snow 1 1007 100 2700 1.54 140 05:58 26.01.2021
3269 Snow 1 1007 100 2700 1.54 140 05:40 26.01.2021
3270 Snow 2 1007 86 10000 2.57 190 03:58 26.01.2021
3271 Snow 1 1007 86 10000 3.09 190 02:19 26.01.2021
3272 Snow 1 1008 80 10000 3.6 230 00:49 26.01.2021
3273 Clouds 1 1008 80 10000 2.57 220 23:36 25.01.2021
3274 Clear 1 1008 86 10000 1.54 220 22:56 25.01.2021
3275 Clear 1 1008 86 10000 2.06 230 22:35 25.01.2021
3276 Clear 1 1008 86 10000 1.54 230 21:49 25.01.2021
3277 Clear 1 1008 86 10000 2.06 240 21:23 25.01.2021
3278 Clear 1 1007 86 10000 2.57 240 20:50 25.01.2021
3279 Clear 0 1007 86 10000 2.57 240 20:32 25.01.2021
3280 Clear 0 1007 86 10000 1.54 240 19:51 25.01.2021
3281 Clouds 0 1007 86 10000 2.57 250 19:28 25.01.2021
3282 Clouds 1 1006 86 10000 2.57 260 18:48 25.01.2021
3283 Clouds 1 1006 80 10000 2.06 250 18:28 25.01.2021
3284 Clouds 1 1006 80 10000 2.06 250 17:56 25.01.2021
3285 Clouds 2 1006 80 10000 2.06 250 17:38 25.01.2021
3286 Clouds 2 1006 75 10000 2.06 250 17:19 25.01.2021
3287 Clouds 3 1005 80 10000 2.57 260 16:41 25.01.2021
3288 Clear 4 1005 80 10000 3.09 260 16:21 25.01.2021
3289 Clouds 4 1004 80 10000 2.57 260 15:43 25.01.2021
3290 Clouds 4 1004 75 10000 3.09 270 15:24 25.01.2021
3291 Clouds 4 1004 80 10000 3.09 280 14:46 25.01.2021
3292 Clouds 4 1004 75 10000 3.6 270 14:19 25.01.2021
3293 Clouds 4 1004 75 10000 3.6 260 13:47 25.01.2021
3294 Clouds 4 1003 80 10000 3.09 260 13:26 25.01.2021
3295 Clear 3 1003 80 10000 2.57 250 12:45 25.01.2021
3296 Clear 2 1003 86 10000 2.57 260 12:20 25.01.2021
3297 Clear 1 1003 86 10000 1.54 250 11:47 25.01.2021
3298 Clear 1 1003 86 10000 2.06 260 11:18 25.01.2021
3299 Clouds 0 1002 93 9000 1.54 260 10:39 25.01.2021
3300 Mist 0 1002 100 5000 1.03 0 10:18 25.01.2021
3301 Fog -2 1002 100 4500 0.51 0 09:42 25.01.2021
3302 Fog -2 1001 93 1000 1.67 245 09:23 25.01.2021
3303 Fog -2 1001 100 2000 0.51 200 08:27 25.01.2021
3304 Fog -2 1000 100 800 0.51 0 07:31 25.01.2021
3305 Fog -1 1000 93 900 0.51 0 06:53 25.01.2021
3306 Mist 0 999 93 4500 1.03 0 03:46 25.01.2021
3307 Clouds 1 999 86 7000 3.09 240 01:30 25.01.2021
3308 Clouds 1 999 86 7000 3.09 240 01:30 25.01.2021
3309 Clouds 1 999 86 10000 2.57 250 23:41 24.01.2021
3310 Clouds 2 999 93 10000 3.6 260 23:19 24.01.2021
3311 Clouds 2 999 93 10000 3.09 260 22:42 24.01.2021
3312 Clouds 2 999 87 10000 3.6 260 22:20 24.01.2021
3313 Clouds 3 999 87 10000 4.12 250 21:48 24.01.2021
3314 Clouds 3 999 87 10000 3.09 260 21:24 24.01.2021
3315 Clouds 3 999 87 10000 3.09 260 20:45 24.01.2021
3316 Clouds 3 998 87 10000 2.06 250 20:21 24.01.2021
3317 Clouds 3 998 93 10000 1.54 250 19:52 24.01.2021
3318 Clouds 3 998 93 10000 2.06 260 19:27 24.01.2021
3319 Clouds 3 998 93 8000 2.57 260 18:58 24.01.2021
3320 Clouds 3 998 93 8000 2.57 260 18:39 24.01.2021
3321 Mist 3 998 93 4800 2.06 250 18:20 24.01.2021
3322 Mist 3 998 93 4800 2.06 260 17:50 24.01.2021
3323 Clouds 3 998 93 6000 2.57 280 17:28 24.01.2021
3324 Clouds 3 998 93 7000 2.57 280 16:58 24.01.2021
3325 Clouds 3 998 93 7000 2.57 280 16:38 24.01.2021
3326 Clouds 3 997 93 7000 3.6 280 16:18 24.01.2021
3327 Clouds 4 997 87 10000 3.6 280 15:43 24.01.2021
3328 Clouds 3 997 87 10000 3.09 280 15:18 24.01.2021
3329 Clouds 4 997 87 10000 3.09 280 14:39 24.01.2021
3330 Clouds 3 996 87 10000 1.54 290 13:48 24.01.2021
3331 Clouds 3 996 87 10000 1.54 290 13:48 24.01.2021
3332 Clouds 3 996 87 10000 1.54 290 13:27 24.01.2021
3333 Clouds 3 996 87 10000 1.54 310 12:50 24.01.2021
3334 Clouds 3 996 87 10000 1.03 0 12:20 24.01.2021
3335 Clouds 3 996 87 10000 1.03 0 12:20 24.01.2021
3336 Clouds 2 996 93 10000 2.06 90 11:52 24.01.2021
3337 Snow 2 996 93 10000 2.06 70 11:24 24.01.2021
3338 Clouds 2 995 86 10000 1.54 50 10:49 24.01.2021
3339 Rain 2 995 86 10000 1.54 60 10:26 24.01.2021
3340 Snow 2 994 86 10000 2.57 40 09:23 24.01.2021
3341 Snow 2 994 86 10000 2.57 50 08:59 24.01.2021
3342 Snow 2 993 86 10000 2.57 30 08:24 24.01.2021
3343 Clouds 2 993 93 10000 3.09 90 03:25 24.01.2021
3344 Clouds 2 993 93 10000 1.54 110 02:18 24.01.2021
3345 Clear 3 994 87 10000 1.54 140 00:27 24.01.2021
3346 Clear 3 994 93 10000 2.06 140 23:57 23.01.2021
3347 Clear 3 994 87 10000 1.03 0 23:29 23.01.2021
3348 Clear 3 994 87 10000 2.06 150 22:57 23.01.2021
3349 Clear 2 994 87 10000 2.06 150 22:38 23.01.2021
3350 Clear 3 994 81 10000 1.54 150 21:57 23.01.2021
3351 Clear 3 994 81 10000 2.06 170 21:23 23.01.2021
3352 Clouds 4 994 81 10000 1.54 130 20:49 23.01.2021
3353 Clouds 4 994 81 10000 1.54 170 20:28 23.01.2021
3354 Clouds 4 995 81 10000 2.06 180 19:47 23.01.2021
3355 Clouds 4 995 81 10000 2.06 170 19:25 23.01.2021
3356 Clouds 4 995 81 10000 3.09 170 18:51 23.01.2021
3357 Clouds 4 995 75 10000 2.57 180 18:28 23.01.2021
3358 Clouds 4 995 75 10000 2.57 180 18:28 23.01.2021
3359 Clouds 4 995 75 10000 2.06 190 17:55 23.01.2021
3360 Clouds 4 995 75 10000 3.09 170 17:28 23.01.2021
3361 Clouds 5 995 70 10000 2.57 170 16:51 23.01.2021
3362 Clouds 5 995 70 10000 2.57 220 16:31 23.01.2021
3363 Clouds 6 995 70 10000 2.06 210 15:48 23.01.2021
3364 Clouds 7 995 70 10000 3.6 210 15:26 23.01.2021
3365 Clouds 7 995 70 10000 4.12 230 14:37 23.01.2021
3366 Clouds 7 995 75 10000 3.6 240 14:19 23.01.2021
3367 Clouds 6 995 75 10000 3.6 230 13:40 23.01.2021
3368 Clouds 6 995 75 10000 3.09 230 13:21 23.01.2021
3369 Clouds 5 996 75 10000 4.12 210 12:42 23.01.2021
3370 Clouds 5 996 75 10000 2.57 180 12:22 23.01.2021
3371 Clear 5 996 75 10000 3.09 150 11:34 23.01.2021
3372 Clear 3 996 87 10000 3.09 170 10:53 23.01.2021
3373 Clear 3 996 87 10000 3.09 150 10:22 23.01.2021
3374 Clear 3 996 87 10000 1.54 160 09:49 23.01.2021
3375 Clear 2 996 87 10000 3.09 140 09:24 23.01.2021
3376 Clear 2 997 87 10000 2.57 170 08:38 23.01.2021
3377 Clear 2 997 93 10000 1.54 140 07:37 23.01.2021
3378 Clear 2 997 93 10000 1.54 180 06:48 23.01.2021
3379 Clear 1 997 86 10000 1.03 100 01:44 23.01.2021
3380 Clear 1 997 86 10000 1.03 0 23:59 22.01.2021
3381 Clear 1 997 86 10000 1.03 0 23:35 22.01.2021
3382 Clear 1 997 86 10000 1.03 160 22:40 22.01.2021
3383 Clear 2 996 80 10000 2.57 160 21:56 22.01.2021
3384 Clear 2 996 80 10000 2.57 160 21:37 22.01.2021
3385 Clear 2 996 87 10000 1.03 0 21:19 22.01.2021
3386 Clear 2 996 86 10000 1.54 230 20:43 22.01.2021
3387 Clear 2 996 87 10000 1.54 180 20:22 22.01.2021
3388 Clear 3 995 81 10000 2.06 230 19:26 22.01.2021
3389 Clear 3 995 81 10000 2.57 230 18:59 22.01.2021
3390 Clear 4 995 81 10000 2.57 230 18:41 22.01.2021
3391 Clear 4 994 75 10000 2.57 250 18:22 22.01.2021
3392 Clouds 4 994 75 10000 3.09 250 17:43 22.01.2021
3393 Clouds 5 994 75 10000 4.12 250 17:24 22.01.2021
3394 Clouds 6 994 70 10000 5.14 250 16:44 22.01.2021
3395 Clouds 6 993 70 10000 6.69 250 16:23 22.01.2021
3396 Clouds 7 992 65 10000 6.17 250 15:30 22.01.2021
3397 Clouds 8 992 75 10000 6.69 250 14:59 22.01.2021
3398 Clouds 8 992 70 10000 6.69 250 14:30 22.01.2021
3399 Clouds 7 992 75 10000 6.69 250 13:47 22.01.2021
3400 Clouds 7 992 75 10000 7.2 250 13:28 22.01.2021
3401 Clouds 7 992 75 10000 6.69 240 12:47 22.01.2021
3402 Clouds 7 991 75 10000 5.14 240 12:22 22.01.2021
3403 Clouds 6 991 81 10000 4.63 240 11:46 22.01.2021
3404 Rain 6 990 81 10000 5.66 240 10:55 22.01.2021
3405 Clouds 6 990 81 10000 5.66 240 10:35 22.01.2021
3406 Rain 6 990 87 10000 4.12 240 09:58 22.01.2021
3407 Rain 5 989 87 10000 4.63 240 09:29 22.01.2021
3408 Rain 5 989 87 10000 4.63 240 08:50 22.01.2021
3409 Rain 5 989 87 10000 4.12 250 08:25 22.01.2021
3410 Rain 5 988 87 10000 7.2 270 07:31 22.01.2021
3411 Clouds 10 984 76 10000 7.72 200 03:21 22.01.2021
3412 Rain 9 986 81 10000 6.69 170 00:39 22.01.2021
3413 Rain 7 987 87 10000 4.12 140 23:51 21.01.2021
3414 Rain 6 988 87 10000 4.63 150 23:29 21.01.2021
3415 Rain 7 989 81 10000 5.14 170 22:50 21.01.2021
3416 Rain 7 990 76 10000 5.14 190 22:24 21.01.2021
3417 Rain 8 991 61 10000 7.2 200 21:43 21.01.2021
3418 Rain 8 991 61 10000 7.2 200 21:43 21.01.2021
3419 Rain 8 991 65 10000 6.69 200 21:20 21.01.2021
3420 Clear 7 992 65 10000 6.69 200 20:48 21.01.2021
3421 Clear 7 992 65 10000 7.2 200 20:29 21.01.2021
3422 Clear 7 992 65 10000 7.2 200 19:52 21.01.2021
3423 Clear 7 992 65 10000 6.69 200 19:30 21.01.2021
3424 Clouds 7 993 65 10000 6.17 200 18:57 21.01.2021
3425 Clouds 7 993 65 10000 6.17 200 18:38 21.01.2021
3426 Clouds 7 993 65 10000 4.63 200 18:19 21.01.2021
3427 Clouds 7 993 65 10000 5.14 200 17:42 21.01.2021
3428 Clouds 7 993 65 10000 5.66 210 17:19 21.01.2021
3429 Clouds 8 993 61 10000 6.69 210 16:46 21.01.2021
3430 Clouds 8 993 61 10000 6.17 210 16:24 21.01.2021
3431 Clouds 9 993 61 10000 6.69 220 15:59 21.01.2021
3432 Clouds 9 993 61 10000 6.69 220 15:33 21.01.2021
3433 Clouds 9 992 65 10000 0.89 203 14:52 21.01.2021
3434 Clouds 9 992 64 10000 1.34 248 14:34 21.01.2021
3435 Clouds 10 992 65 10000 0.45 338 13:48 21.01.2021
3436 Clouds 9 993 61 10000 7.72 220 13:27 21.01.2021
3437 Clouds 9 993 61 10000 7.72 230 12:55 21.01.2021
3438 Clouds 9 993 61 10000 7.72 230 12:37 21.01.2021
3439 Clouds 8 993 70 10000 7.72 230 12:18 21.01.2021
3440 Clouds 8 993 65 10000 6.69 220 11:43 21.01.2021
3441 Rain 8 993 65 10000 6.17 210 11:22 21.01.2021
3442 Rain 8 992 65 10000 6.17 220 10:45 21.01.2021
3443 Rain 8 992 70 10000 7.2 220 10:24 21.01.2021
3444 Rain 8 992 76 10000 6.69 240 09:40 21.01.2021
3445 Clouds 9 991 66 10000 10.8 230 09:21 21.01.2021
3446 Clear 11 988 54 10000 9.77 200 08:35 21.01.2021
3447 Clear 11 988 54 10000 10.8 200 07:49 21.01.2021
3448 Clear 11 988 54 10000 10.8 200 07:26 21.01.2021
3449 Clear 11 988 50 10000 9.77 190 06:37 21.01.2021
3450 Clear 10 990 57 10000 9.26 190 04:56 21.01.2021
3451 Clear 9 993 61 10000 5.66 190 02:22 21.01.2021
3452 Clear 9 995 61 10000 5.14 180 00:43 21.01.2021
3453 Clear 9 995 61 10000 6.17 180 23:52 20.01.2021
3454 Clear 9 996 61 10000 4.12 160 23:30 20.01.2021
3455 Clear 9 996 61 10000 2.57 140 22:53 20.01.2021
3456 Clear 9 996 61 10000 2.57 140 22:32 20.01.2021
3457 Clear 9 996 66 10000 4.63 170 21:55 20.01.2021
3458 Clear 9 997 61 10000 4.12 170 21:23 20.01.2021
3459 Clear 9 997 61 10000 5.66 180 20:54 20.01.2021
3460 Clear 9 997 61 10000 5.14 180 20:24 20.01.2021
3461 Clear 9 997 61 10000 7.2 180 19:50 20.01.2021
3462 Clear 9 997 61 10000 7.2 180 19:31 20.01.2021
3463 Clear 9 998 57 10000 5.66 190 18:52 20.01.2021
3464 Clear 9 998 57 10000 5.66 190 18:33 20.01.2021
3465 Clear 9 998 57 10000 6.69 200 17:53 20.01.2021
3466 Clear 9 998 57 10000 6.69 200 17:35 20.01.2021
3467 Clear 9 998 57 10000 5.66 200 16:52 20.01.2021
3468 Clear 9 998 57 10000 5.14 190 16:30 20.01.2021
3469 Clear 9 998 57 10000 5.14 190 16:30 20.01.2021
3470 Clear 10 998 57 10000 5.14 190 15:47 20.01.2021
3471 Clear 10 998 57 10000 5.66 180 15:19 20.01.2021
3472 Clear 10 998 61 10000 5.66 190 14:44 20.01.2021
3473 Clear 9 998 66 10000 6.17 190 14:21 20.01.2021
3474 Clear 9 999 61 10000 5.14 180 13:40 20.01.2021
3475 Clear 9 999 66 10000 5.14 180 13:18 20.01.2021
3476 Clouds 9 999 66 10000 4.63 190 12:35 20.01.2021
3477 Clouds 9 1000 66 10000 5.66 190 11:53 20.01.2021
3478 Clouds 8 1000 66 10000 5.66 190 11:34 20.01.2021
3479 Clouds 8 1000 70 10000 4.63 200 10:51 20.01.2021
3480 Clouds 7 1000 65 10000 5.14 190 10:28 20.01.2021
3481 Clouds 7 1000 75 10000 4.63 190 09:44 20.01.2021
3482 Clear 7 1000 76 10000 4.63 200 09:23 20.01.2021
3483 Clear 7 1000 71 10000 5.66 220 08:47 20.01.2021
3484 Clouds 7 1000 76 10000 5.14 220 08:24 20.01.2021
3485 Clouds 7 1000 76 10000 5.14 220 07:55 20.01.2021
3486 Clouds 7 1001 70 10000 6.17 230 07:25 20.01.2021
3487 Clouds 7 1002 75 10000 6.69 230 05:24 20.01.2021
3488 Clouds 7 1002 76 10000 6.17 220 02:59 20.01.2021
3489 Clouds 8 1003 87 10000 7.2 230 00:59 20.01.2021
3490 Clouds 8 1003 81 10000 8.23 230 00:25 20.01.2021
3491 Clouds 8 1003 87 10000 7.2 240 23:42 19.01.2021
3492 Clouds 9 1003 87 10000 7.2 240 23:18 19.01.2021
3493 Clouds 9 1003 87 10000 7.72 240 22:41 19.01.2021
3494 Drizzle 9 1003 93 4500 7.72 240 22:22 19.01.2021
3495 Clouds 9 1004 93 10000 8.75 250 21:58 19.01.2021
3496 Clouds 9 1004 93 10000 8.75 250 21:40 19.01.2021
3497 Clouds 9 1003 87 10000 7.72 250 21:18 19.01.2021
3498 Rain 10 1003 93 10000 8.75 250 20:40 19.01.2021
3499 Rain 10 1003 93 10000 7.72 250 20:22 19.01.2021
3500 Rain 9 1002 93 10000 8.23 250 19:41 19.01.2021
3501 Clouds 9 1002 100 8000 8.75 250 19:20 19.01.2021
3502 Clouds 9 1002 93 3500 5.66 250 18:39 19.01.2021
3503 Clouds 8 1002 93 3500 5.66 250 18:21 19.01.2021
3504 Rain 8 1002 100 10000 4.63 260 17:45 19.01.2021
3505 Rain 8 1002 93 10000 5.14 260 17:23 19.01.2021
3506 Rain 8 1002 93 10000 6.17 260 16:45 19.01.2021
3507 Rain 8 1002 87 10000 8.23 250 16:25 19.01.2021
3508 Clouds 7 1002 87 10000 7.72 250 15:55 19.01.2021
3509 Rain 7 1002 87 10000 7.72 250 15:34 19.01.2021
3510 Clouds 6 1001 87 7000 5.14 240 14:51 19.01.2021
3511 Mist 5 1002 93 4500 6.17 230 14:31 19.01.2021
3512 Clouds 5 1002 93 10000 3.6 210 13:53 19.01.2021
3513 Clouds 5 1003 87 10000 4.63 200 13:28 19.01.2021
3514 Rain 4 1003 93 10000 5.14 200 12:58 19.01.2021
3515 Rain 4 1003 93 10000 5.14 200 12:35 19.01.2021
3516 Rain 4 1004 93 10000 5.14 200 11:59 19.01.2021
3517 Rain 4 1004 93 10000 5.14 200 11:40 19.01.2021
3518 Rain 5 1005 87 10000 5.14 210 11:21 19.01.2021
3519 Rain 5 1005 87 10000 5.14 210 10:47 19.01.2021
3520 Rain 5 1005 87 10000 5.66 210 10:27 19.01.2021
3521 Rain 5 1006 87 10000 4.63 200 09:51 19.01.2021
3522 Rain 5 1007 87 10000 4.63 210 09:20 19.01.2021
3523 Rain 5 1007 87 10000 5.14 200 08:35 19.01.2021
3524 Rain 5 1009 81 10000 5.14 200 07:53 19.01.2021
3525 Rain 5 1009 81 10000 5.14 200 07:18 19.01.2021
3526 Clouds 5 1012 81 10000 4.63 230 04:48 19.01.2021
3527 Clouds 5 1015 93 10000 4.12 240 02:23 19.01.2021
3528 Clouds 5 1015 81 10000 6.17 250 00:41 19.01.2021
3529 Clouds 5 1016 87 10000 4.63 250 23:55 18.01.2021
3530 Clouds 5 1016 87 10000 5.14 250 23:27 18.01.2021
3531 Clouds 5 1016 87 10000 5.66 250 22:44 18.01.2021
3532 Clouds 5 1016 87 10000 5.66 250 22:22 18.01.2021
3533 Clouds 5 1016 87 10000 5.14 250 21:47 18.01.2021
3534 Clouds 5 1016 81 10000 5.66 250 21:23 18.01.2021
3535 Clouds 5 1016 81 10000 5.66 250 20:57 18.01.2021
3536 Clouds 5 1016 81 10000 5.66 250 20:34 18.01.2021
3537 Clouds 5 1016 87 10000 5.66 260 19:54 18.01.2021
3538 Clouds 5 1016 87 10000 5.66 260 19:35 18.01.2021
3539 Clouds 5 1016 93 10000 6.69 250 18:51 18.01.2021
3540 Clouds 5 1016 93 10000 6.69 250 18:32 18.01.2021
3541 Rain 5 1016 93 10000 6.17 250 17:50 18.01.2021
3542 Clouds 5 1016 87 10000 6.69 250 17:31 18.01.2021
3543 Rain 5 1017 93 10000 7.2 240 16:51 18.01.2021
3544 Rain 5 1017 93 10000 7.2 240 16:32 18.01.2021
3545 Rain 5 1017 81 10000 6.69 250 15:56 18.01.2021
3546 Rain 5 1017 81 10000 6.69 250 15:37 18.01.2021
3547 Clouds 6 1017 87 10000 6.69 250 15:18 18.01.2021
3548 Rain 6 1017 87 10000 7.2 260 14:41 18.01.2021
3549 Clouds 5 1018 87 10000 6.69 250 14:22 18.01.2021
3550 Rain 5 1018 87 10000 6.17 250 13:44 18.01.2021
3551 Clouds 5 1018 87 10000 5.66 240 13:20 18.01.2021
3552 Clouds 5 1019 87 10000 6.69 250 12:47 18.01.2021
3553 Clouds 5 1019 93 10000 6.69 250 12:19 18.01.2021
3554 Clouds 5 1019 87 10000 5.66 240 11:48 18.01.2021
3555 Rain 5 1019 93 10000 5.14 250 11:27 18.01.2021
3556 Clouds 5 1020 93 10000 4.63 250 10:49 18.01.2021
3557 Clouds 5 1020 93 10000 4.63 250 10:30 18.01.2021
3558 Clouds 4 1020 93 10000 4.12 250 09:40 18.01.2021
3559 Clouds 4 1020 93 10000 4.12 250 09:18 18.01.2021
3560 Clouds 3 1020 93 10000 4.12 260 08:27 18.01.2021
3561 Clouds 4 1020 93 10000 4.63 270 07:54 18.01.2021
3562 Clouds 4 1019 93 10000 4.63 270 06:35 18.01.2021
3563 Clouds 4 1019 100 7000 4.12 270 04:44 18.01.2021
3564 Mist 4 1019 100 2800 3.6 270 04:25 18.01.2021
3565 Fog 3 1020 100 700 4.12 280 03:50 18.01.2021
3566 Fog 3 1020 100 700 4.12 280 03:27 18.01.2021
3567 Fog 3 1019 93 900 3.09 270 02:57 18.01.2021
3568 Mist 2 1019 100 1600 1.54 310 02:19 18.01.2021
3569 Fog 1 1019 100 500 0.51 0 00:41 18.01.2021
3570 Mist 1 1020 93 3500 1.42 241 23:52 17.01.2021
3571 Mist 1 1020 93 3500 0.51 0 23:27 17.01.2021
3572 Mist 1 1019 93 2800 1.54 170 22:55 17.01.2021
3573 Mist 1 1020 93 3500 1.03 0 22:24 17.01.2021
3574 Snow 1 1020 93 3500 1.03 0 21:44 17.01.2021
3575 Clouds 0 1020 93 7000 1.54 180 21:26 17.01.2021
3576 Clouds 0 1020 93 6000 1.03 0 20:54 17.01.2021
3577 Snow 0 1020 86 4500 1.54 140 20:36 17.01.2021
3578 Snow 0 1020 86 4500 1.54 140 20:18 17.01.2021
3579 Snow 0 1020 93 4500 1.54 150 19:40 17.01.2021
3580 Snow 1 1019 86 1200 2.06 140 18:54 17.01.2021
3581 Snow 1 1019 80 10000 2.06 170 18:29 17.01.2021
3582 Clouds 1 1019 80 10000 1.03 0 17:51 17.01.2021
3583 Clouds 1 1019 80 10000 1.54 160 17:29 17.01.2021
3584 Clouds 1 1019 80 10000 1.03 0 16:45 17.01.2021
3585 Clouds 1 1019 80 10000 1.03 0 16:45 17.01.2021
3586 Clouds 1 1019 80 10000 1.54 150 16:25 17.01.2021
3587 Clouds 1 1019 80 10000 2.06 170 15:54 17.01.2021
3588 Clouds 1 1018 80 10000 2.06 160 15:27 17.01.2021
3589 Clouds 1 1018 80 10000 3.09 150 14:59 17.01.2021
3590 Clouds 1 1018 80 10000 3.09 150 14:39 17.01.2021
3591 Clouds 1 1018 80 10000 2.57 150 14:21 17.01.2021
3592 Snow 1 1018 80 10000 2.57 150 13:43 17.01.2021
3593 Snow 1 1018 80 10000 2.57 170 13:24 17.01.2021
3594 Snow 1 1018 80 10000 2.57 150 12:45 17.01.2021
3595 Snow 0 1018 86 10000 3.09 140 12:25 17.01.2021
3596 Snow 0 1018 80 10000 3.09 160 11:26 17.01.2021
3597 Clouds 0 1018 80 10000 3.09 150 10:54 17.01.2021
3598 Clouds 0 1018 80 10000 3.09 150 10:36 17.01.2021
3599 Clear 0 1017 86 10000 3.09 150 10:18 17.01.2021
3600 Snow -1 1017 74 9000 3.6 160 08:59 17.01.2021
3601 Snow -1 1016 87 10000 2.81 143 08:41 17.01.2021
3602 Clear 0 1016 69 10000 2.57 150 04:36 17.01.2021
3603 Clear 0 1016 74 10000 2.06 150 03:44 17.01.2021
3604 Clouds 0 1017 74 10000 1.54 150 01:37 17.01.2021
3605 Clouds 0 1018 80 10000 1.03 0 00:21 17.01.2021
3606 Clouds 0 1018 80 10000 1.54 160 23:53 16.01.2021
3607 Clouds 0 1018 80 10000 1.54 160 23:25 16.01.2021
3608 Clouds 0 1019 80 10000 1.54 160 22:55 16.01.2021
3609 Clouds 1 1019 80 10000 1.54 160 22:21 16.01.2021
3610 Clouds 1 1019 80 10000 1.03 0 21:46 16.01.2021
3611 Clouds 1 1019 80 10000 1.03 150 21:23 16.01.2021
3612 Clouds 1 1019 80 10000 1.03 130 20:49 16.01.2021
3613 Clouds 1 1019 80 10000 1.03 180 20:27 16.01.2021
3614 Clouds 1 1020 80 10000 1.54 200 19:49 16.01.2021
3615 Clouds 1 1020 80 10000 1.54 200 19:30 16.01.2021
3616 Clouds 1 1020 80 10000 1.54 200 18:47 16.01.2021
3617 Clouds 1 1021 80 10000 1.54 210 18:27 16.01.2021
3618 Clouds 1 1021 80 10000 1.03 0 17:58 16.01.2021
3619 Clouds 1 1021 80 10000 1.03 0 17:39 16.01.2021
3620 Clouds 1 1021 80 10000 2.57 220 17:20 16.01.2021
3621 Clouds 1 1021 80 10000 1.54 200 16:41 16.01.2021
3622 Clouds 1 1022 74 10000 0.51 0 15:58 16.01.2021
3623 Clouds 1 1022 74 10000 0.51 0 15:39 16.01.2021
3624 Clouds 1 1023 74 10000 1.03 0 14:33 16.01.2021
3625 Clouds 1 1023 69 10000 1.54 250 13:53 16.01.2021
3626 Clouds 1 1024 69 10000 1.54 220 13:31 16.01.2021
3627 Clouds 1 1024 69 10000 1.54 220 12:48 16.01.2021
3628 Clouds 0 1025 69 10000 1.54 240 12:23 16.01.2021
3629 Clouds 0 1025 69 10000 1.54 230 11:55 16.01.2021
3630 Clouds 0 1025 74 10000 1.54 240 11:26 16.01.2021
3631 Clouds -1 1025 74 10000 0.51 0 10:54 16.01.2021
3632 Clouds -1 1025 74 10000 0.51 0 10:35 16.01.2021
3633 Clouds -1 1026 74 10000 0.51 0 09:54 16.01.2021
3634 Clouds -2 1026 80 10000 0.51 0 09:19 16.01.2021
3635 Clouds -1 1026 80 10000 1.54 330 08:18 16.01.2021
3636 Clouds -2 1027 86 10000 1.54 300 06:49 16.01.2021
3637 Clouds -1 1027 74 10000 0.51 0 04:53 16.01.2021
3638 Clouds -1 1028 69 10000 3.6 310 02:59 16.01.2021
3639 Clouds -1 1028 69 10000 3.6 310 02:37 16.01.2021
3640 Clouds -1 1028 80 10000 0.51 120 00:45 16.01.2021
3641 Clouds -1 1028 80 10000 1.03 80 00:20 16.01.2021
3642 Clouds -1 1028 80 10000 2.06 60 23:30 15.01.2021
3643 Clouds 0 1028 74 10000 2.06 320 22:27 15.01.2021
3644 Clouds -1 1028 69 10000 2.57 320 21:53 15.01.2021
3645 Clouds 0 1028 74 10000 2.57 320 21:34 15.01.2021
3646 Clouds 0 1028 74 10000 2.57 320 20:47 15.01.2021
3647 Clouds 0 1028 74 10000 2.57 330 20:23 15.01.2021
3648 Clouds 0 1028 69 10000 2.57 350 19:47 15.01.2021
3649 Clouds 0 1028 74 10000 3.6 350 19:26 15.01.2021
3650 Snow 0 1027 80 10000 3.6 360 18:45 15.01.2021
3651 Snow 0 1027 80 10000 2.57 330 18:20 15.01.2021
3652 Clouds 0 1027 80 10000 2.57 330 17:56 15.01.2021
3653 Clouds 0 1027 80 10000 4.12 340 17:38 15.01.2021
3654 Clouds 0 1027 80 10000 4.12 340 17:19 15.01.2021
3655 Clouds 0 1027 80 10000 4.12 340 16:43 15.01.2021
3656 Clouds 1 1027 80 10000 3.6 350 16:22 15.01.2021
3657 Clouds 1 1026 74 10000 4.12 340 15:40 15.01.2021
3658 Snow 1 1026 80 10000 4.63 330 15:19 15.01.2021
3659 Clouds 1 1026 80 10000 3.6 340 14:39 15.01.2021
3660 Snow 1 1026 80 10000 3.09 330 14:20 15.01.2021
3661 Snow 1 1026 86 10000 3.09 350 13:40 15.01.2021
3662 Clouds 1 1026 86 10000 3.09 340 13:19 15.01.2021
3663 Clouds 1 1026 86 10000 3.09 350 12:46 15.01.2021
3664 Clouds 1 1026 86 10000 3.09 330 12:25 15.01.2021
3665 Snow 1 1026 93 10000 2.57 340 11:42 15.01.2021
3666 Snow 1 1026 93 9000 3.09 340 11:20 15.01.2021
3667 Snow 1 1026 93 8000 3.09 340 10:51 15.01.2021
3668 Snow 1 1025 93 8000 2.06 340 10:22 15.01.2021
3669 Snow 1 1025 93 9000 2.57 340 09:49 15.01.2021
3670 Snow 1 1025 93 9000 3.09 320 09:29 15.01.2021
3671 Clouds 1 1024 100 10000 2.06 300 08:28 15.01.2021
3672 Clouds 1 1024 100 10000 1.54 290 07:45 15.01.2021
3673 Clouds 1 1024 93 10000 2.06 290 07:23 15.01.2021
3674 Clouds 1 1024 86 10000 1.54 300 06:37 15.01.2021
3675 Clouds 1 1022 93 10000 2.06 330 02:45 15.01.2021
3676 Snow 1 1022 93 1200 2.57 360 00:47 15.01.2021
3677 Clouds 1 1022 93 10000 0.51 0 23:31 14.01.2021
3678 Clouds 1 1022 93 10000 1.54 360 22:58 14.01.2021
3679 Clouds 1 1022 93 10000 1.54 360 22:37 14.01.2021
3680 Clouds 1 1022 93 10000 2.06 30 22:19 14.01.2021
3681 Clouds 1 1021 93 10000 1.54 350 21:40 14.01.2021
3682 Clouds 1 1021 93 10000 1.54 20 21:20 14.01.2021
3683 Clouds 1 1021 93 10000 1.54 20 20:48 14.01.2021
3684 Clouds 2 1021 86 10000 2.06 20 20:18 14.01.2021
3685 Clouds 2 1021 86 10000 2.06 10 19:38 14.01.2021
3686 Clouds 2 1021 86 10000 1.54 360 19:18 14.01.2021
3687 Clouds 2 1021 86 10000 2.06 360 18:45 14.01.2021
3688 Clouds 2 1021 86 10000 1.54 340 17:59 14.01.2021
3689 Clouds 2 1021 86 10000 1.54 340 17:41 14.01.2021
3690 Clouds 2 1021 86 10000 1.54 350 17:23 14.01.2021
3691 Clouds 2 1020 86 10000 2.57 360 16:39 14.01.2021
3692 Clouds 2 1020 80 10000 2.57 330 15:55 14.01.2021
3693 Clouds 2 1020 80 10000 2.57 330 15:37 14.01.2021
3694 Clouds 3 1020 80 10000 2.57 350 14:50 14.01.2021
3695 Clouds 3 1020 87 10000 3.09 360 14:31 14.01.2021
3696 Clouds 3 1020 87 10000 3.09 360 13:57 14.01.2021
3697 Clouds 2 1020 87 10000 3.09 350 13:26 14.01.2021
3698 Clouds 2 1020 93 10000 3.09 350 12:59 14.01.2021
3699 Clouds 2 1020 93 10000 3.09 330 12:24 14.01.2021
3700 Clouds 2 1020 93 10000 3.09 320 11:59 14.01.2021
3701 Clouds 2 1020 93 10000 3.09 320 11:41 14.01.2021
3702 Clouds 2 1019 93 10000 2.57 310 11:20 14.01.2021
3703 Clouds 1 1019 100 10000 2.57 310 10:43 14.01.2021
3704 Clouds 1 1019 100 10000 2.06 310 10:19 14.01.2021
3705 Clouds 1 1018 100 10000 2.57 320 09:44 14.01.2021
3706 Snow 1 1018 100 9000 2.06 310 09:22 14.01.2021
3707 Snow 1 1017 100 4000 3.09 310 08:39 14.01.2021
3708 Snow 1 1017 93 4000 3.6 320 08:19 14.01.2021
3709 Snow 1 1016 93 4500 3.6 320 07:41 14.01.2021
3710 Snow 1 1015 80 10000 4.63 320 06:38 14.01.2021
3711 Clouds 1 1013 75 10000 6.69 310 04:59 14.01.2021
3712 Clouds 1 1011 80 10000 8.75 320 00:36 14.01.2021
3713 Snow 1 1009 86 10000 8.23 300 23:48 13.01.2021
3714 Snow 2 1009 86 10000 6.69 290 22:51 13.01.2021
3715 Clouds 2 1009 86 10000 6.17 300 22:26 13.01.2021
3716 Clouds 2 1008 86 10000 6.69 300 21:50 13.01.2021
3717 Clouds 2 1008 86 10000 7.72 310 21:24 13.01.2021
3718 Clouds 2 1008 86 10000 5.66 310 20:51 13.01.2021
3719 Clouds 2 1007 87 10000 6.17 310 20:28 13.01.2021
3720 Clouds 2 1007 93 10000 6.17 290 19:56 13.01.2021
3721 Clouds 2 1006 93 10000 7.2 280 19:31 13.01.2021
3722 Snow 2 1006 93 9000 6.17 280 18:53 13.01.2021
3723 Snow 2 1006 93 9000 6.17 280 18:53 13.01.2021
3724 Snow 2 1006 93 9000 6.17 280 18:34 13.01.2021
3725 Rain 3 1005 81 10000 10.29 260 17:51 13.01.2021
3726 Rain 5 1005 81 10000 10.29 260 17:19 13.01.2021
3727 Rain 5 1006 81 10000 9.77 260 16:47 13.01.2021
3728 Rain 5 1006 81 10000 9.26 260 16:21 13.01.2021
3729 Snow 4 1007 87 10000 8.23 260 15:49 13.01.2021
3730 Snow 5 1007 81 10000 8.23 270 15:31 13.01.2021
3731 Clouds 5 1007 81 10000 8.23 260 14:34 13.01.2021
3732 Clouds 5 1008 81 10000 7.72 260 13:50 13.01.2021
3733 Clouds 5 1009 81 10000 8.23 260 13:26 13.01.2021
3734 Clouds 5 1009 81 10000 9.26 260 12:46 13.01.2021
3735 Clouds 4 1010 87 10000 8.75 270 12:27 13.01.2021
3736 Clouds 4 1010 87 10000 7.72 260 11:53 13.01.2021
3737 Clouds 4 1010 87 10000 7.72 260 11:34 13.01.2021
3738 Rain 4 1010 87 10000 8.23 270 10:50 13.01.2021
3739 Clouds 4 1010 87 10000 7.2 270 10:30 13.01.2021
3740 Clouds 3 1010 93 10000 6.69 270 09:51 13.01.2021
3741 Clouds 3 1010 93 10000 7.72 270 09:30 13.01.2021
3742 Clouds 3 1010 93 10000 6.69 270 08:49 13.01.2021
3743 Clouds 3 1010 87 10000 7.72 270 08:25 13.01.2021
3744 Clouds 3 1010 87 10000 7.72 270 07:32 13.01.2021
3745 Snow 3 1010 87 10000 7.2 260 06:51 13.01.2021
3746 Clouds 2 1011 86 10000 5.14 260 04:20 13.01.2021
3747 Clouds 2 1011 86 10000 4.63 270 03:44 13.01.2021
3748 Clouds 2 1011 86 10000 5.14 260 03:24 13.01.2021
3749 Clouds 2 1011 86 10000 4.63 270 01:18 13.01.2021
3750 Clouds 2 1010 86 10000 5.66 270 23:52 12.01.2021
3751 Clouds 2 1010 86 10000 5.66 270 23:20 12.01.2021
3752 Clouds 2 1009 86 10000 4.12 270 22:45 12.01.2021
3753 Clouds 2 1009 93 10000 5.14 270 22:23 12.01.2021
3754 Clouds 3 1009 87 10000 4.12 270 21:49 12.01.2021
3755 Clouds 3 1009 87 10000 4.12 280 21:26 12.01.2021
3756 Clouds 3 1008 87 10000 4.63 280 20:48 12.01.2021
3757 Clouds 3 1008 87 10000 5.66 270 20:27 12.01.2021
3758 Clouds 3 1007 87 10000 4.63 270 19:47 12.01.2021
3759 Clouds 3 1007 87 10000 3.6 270 19:26 12.01.2021
3760 Clouds 3 1006 87 10000 5.14 290 18:42 12.01.2021
3761 Clouds 3 1006 87 10000 7.2 290 18:23 12.01.2021
3762 Clouds 4 1005 87 10000 6.17 280 17:39 12.01.2021
3763 Clouds 4 1005 93 10000 4.12 290 17:19 12.01.2021
3764 Clouds 4 1004 81 10000 7.2 290 16:43 12.01.2021
3765 Clouds 4 1004 81 10000 4.12 270 16:22 12.01.2021
3766 Clouds 5 1003 81 10000 3.09 280 15:29 12.01.2021
3767 Clouds 5 1003 87 10000 3.6 280 14:59 12.01.2021
3768 Clouds 5 1003 87 10000 3.6 280 14:41 12.01.2021
3769 Clouds 5 1003 93 10000 0.45 248 14:19 12.01.2021
3770 Clouds 4 1003 93 10000 2.57 280 13:50 12.01.2021
3771 Clouds 4 1003 93 10000 3.6 320 12:50 12.01.2021
3772 Rain 4 1003 93 10000 3.09 340 12:21 12.01.2021
3773 Rain 4 1002 93 10000 5.14 350 11:40 12.01.2021
3774 Rain 5 1001 93 7000 4.63 280 10:50 12.01.2021
3775 Rain 6 1001 93 7000 4.63 250 10:21 12.01.2021
3776 Rain 6 1000 100 10000 5.14 240 09:57 12.01.2021
3777 Rain 6 1000 93 10000 5.14 240 09:27 12.01.2021
3778 Rain 6 1000 93 10000 5.14 240 08:46 12.01.2021
3779 Rain 6 1000 93 10000 5.66 230 08:23 12.01.2021
3780 Rain 5 1001 93 10000 6.17 230 07:35 12.01.2021
3781 Rain 5 1002 87 10000 5.14 240 06:26 12.01.2021
3782 Rain 5 1003 87 10000 5.66 230 05:30 12.01.2021
3783 Rain 5 1005 93 10000 7.2 230 03:26 12.01.2021
3784 Rain 5 1005 93 10000 7.72 230 02:19 12.01.2021
3785 Rain 5 1006 93 10000 6.69 240 01:28 12.01.2021
3786 Rain 5 1007 87 10000 6.69 240 23:54 11.01.2021
3787 Rain 5 1008 81 10000 6.17 240 23:23 11.01.2021
3788 Rain 5 1008 75 10000 7.72 240 22:59 11.01.2021
3789 Clouds 5 1008 75 10000 7.72 240 22:40 11.01.2021
3790 Clouds 5 1009 81 10000 6.69 230 22:19 11.01.2021
3791 Clouds 5 1009 81 10000 6.69 220 21:38 11.01.2021
3792 Clouds 5 1010 81 10000 7.2 240 21:20 11.01.2021
3793 Clouds 5 1010 81 10000 5.66 230 20:41 11.01.2021
3794 Clouds 5 1011 81 10000 6.17 230 20:23 11.01.2021
3795 Clouds 5 1011 81 10000 7.2 230 19:55 11.01.2021
3796 Clouds 5 1011 81 10000 7.72 230 19:30 11.01.2021
3797 Clouds 4 1012 87 10000 7.2 230 18:45 11.01.2021
3798 Clouds 4 1012 87 10000 7.2 230 18:45 11.01.2021
3799 Clouds 4 1012 87 10000 6.69 230 18:26 11.01.2021
3800 Clouds 4 1013 87 10000 5.66 230 17:54 11.01.2021
3801 Clouds 4 1013 87 10000 5.66 230 17:36 11.01.2021
3802 Clouds 4 1013 87 10000 6.69 220 17:18 11.01.2021
3803 Rain 4 1014 87 10000 8.23 230 16:38 11.01.2021
3804 Clouds 4 1014 87 10000 6.17 230 16:19 11.01.2021
3805 Clouds 4 1014 81 10000 7.2 230 15:47 11.01.2021
3806 Clouds 4 1014 81 10000 7.2 230 15:26 11.01.2021
3807 Clouds 4 1014 81 10000 6.17 230 14:39 11.01.2021
3808 Clouds 4 1015 81 10000 7.2 230 13:50 11.01.2021
3809 Clouds 4 1016 81 10000 7.72 230 13:25 11.01.2021
3810 Clouds 3 1016 87 10000 7.2 230 12:51 11.01.2021
3811 Clouds 3 1016 87 10000 7.2 230 12:32 11.01.2021
3812 Clouds 3 1017 87 10000 6.69 230 11:56 11.01.2021
3813 Clouds 3 1017 87 10000 6.17 240 11:27 11.01.2021
3814 Clouds 3 1017 87 10000 4.63 230 10:47 11.01.2021
3815 Clouds 3 1017 93 10000 4.12 230 10:24 11.01.2021
3816 Snow 2 1018 93 10000 5.14 240 09:42 11.01.2021
3817 Snow 3 1018 87 10000 6.69 240 09:21 11.01.2021
3818 Rain 3 1018 87 10000 5.66 230 08:44 11.01.2021
3819 Rain 2 1018 87 10000 5.14 230 08:18 11.01.2021
3820 Clouds 3 1018 87 10000 6.17 230 07:27 11.01.2021
3821 Clouds 3 1018 87 10000 4.63 240 06:58 11.01.2021
3822 Clouds 3 1019 87 7000 4.63 240 03:51 11.01.2021
3823 Rain 3 1020 87 10000 5.14 250 01:30 11.01.2021
3824 Clouds 3 1020 87 10000 5.66 250 23:59 10.01.2021
3825 Clouds 3 1021 87 10000 5.14 250 23:30 10.01.2021
3826 Clouds 3 1021 87 10000 5.14 240 22:48 10.01.2021
3827 Clouds 2 1021 87 10000 5.66 240 22:24 10.01.2021
3828 Clouds 2 1021 87 10000 5.14 240 21:45 10.01.2021
3829 Clouds 2 1021 87 10000 4.12 240 21:20 10.01.2021
3830 Clouds 2 1021 87 10000 4.63 240 20:53 10.01.2021
3831 Clouds 2 1021 87 10000 4.63 240 20:33 10.01.2021
3832 Clouds 2 1021 87 10000 3.09 210 19:43 10.01.2021
3833 Clouds 2 1021 80 10000 3.09 210 19:25 10.01.2021
3834 Clear 1 1022 86 10000 2.57 210 18:49 10.01.2021
3835 Clear 2 1022 86 10000 2.57 210 18:21 10.01.2021
3836 Clear 2 1022 86 10000 2.57 220 17:41 10.01.2021
3837 Clouds 2 1022 80 10000 3.6 210 17:20 10.01.2021
3838 Clouds 3 1022 87 10000 3.09 220 16:33 10.01.2021
3839 Clouds 3 1022 87 10000 3.09 220 16:33 10.01.2021
3840 Clouds 3 1022 81 10000 3.09 220 15:56 10.01.2021
3841 Clouds 3 1022 81 10000 3.09 240 15:25 10.01.2021
3842 Clouds 4 1022 81 10000 3.09 230 14:50 10.01.2021
3843 Clouds 4 1022 81 10000 3.09 230 14:31 10.01.2021
3844 Clouds 4 1023 81 10000 3.09 230 13:55 10.01.2021
3845 Clouds 4 1023 81 10000 3.09 230 13:55 10.01.2021
3846 Clouds 4 1023 81 10000 3.09 230 13:36 10.01.2021
3847 Clouds 4 1023 81 10000 2.57 220 13:18 10.01.2021
3848 Clouds 3 1023 81 10000 3.09 230 12:43 10.01.2021
3849 Clouds 3 1023 81 10000 3.09 210 12:18 10.01.2021
3850 Clouds 2 1024 93 9000 1.54 190 11:23 10.01.2021
3851 Clouds 1 1024 86 9000 1.54 200 10:58 10.01.2021
3852 Clouds 1 1024 93 8000 0.51 0 10:31 10.01.2021
3853 Clouds 1 1024 93 8000 1.03 220 09:59 10.01.2021
3854 Clouds 1 1023 93 8000 1.03 200 09:27 10.01.2021
3855 Clouds 0 1023 93 9000 1.03 0 08:21 10.01.2021
3856 Clouds 0 1023 93 8000 1.03 170 07:29 10.01.2021
3857 Clouds 0 1023 93 10000 1.54 130 06:19 10.01.2021
3858 Clouds 0 1023 100 10000 0.51 240 05:36 10.01.2021
3859 Clouds 0 1023 93 9000 1.03 140 02:56 10.01.2021
3860 Clouds -1 1024 100 10000 0.51 0 00:52 10.01.2021
3861 Clouds -2 1024 100 8000 0.51 0 23:48 09.01.2021
3862 Clouds -2 1024 93 8000 1.03 130 23:29 09.01.2021
3863 Clouds -2 1024 100 6000 1.03 0 22:47 09.01.2021
3864 Fog -2 1024 100 3500 1.03 130 22:18 09.01.2021
3865 Fog -2 1024 100 1500 1.54 90 21:56 09.01.2021
3866 Fog -2 1024 100 1500 1.54 90 21:38 09.01.2021
3867 Fog -2 1024 93 1200 1.54 90 21:18 09.01.2021
3868 Clouds -1 1024 93 10000 0.51 130 20:39 09.01.2021
3869 Clouds 0 1023 93 10000 0.51 0 19:44 09.01.2021
3870 Clouds 0 1023 93 10000 1.03 0 19:22 09.01.2021
3871 Clouds 1 1023 86 10000 1.03 0 18:41 09.01.2021
3872 Clouds 1 1023 86 10000 1.54 260 18:20 09.01.2021
3873 Clouds 1 1023 86 10000 1.03 0 17:46 09.01.2021
3874 Clouds 2 1023 80 10000 2.06 300 17:27 09.01.2021
3875 Clouds 2 1023 80 10000 1.54 320 16:33 09.01.2021
3876 Clouds 2 1022 86 10000 2.06 340 15:52 09.01.2021
3877 Clouds 2 1022 86 10000 2.06 340 15:32 09.01.2021
3878 Clouds 2 1022 93 10000 3.09 310 14:40 09.01.2021
3879 Clouds 2 1022 87 10000 3.6 300 14:20 09.01.2021
3880 Clouds 2 1022 93 10000 3.6 300 13:48 09.01.2021
3881 Clouds 2 1022 93 10000 3.6 310 13:29 09.01.2021
3882 Clouds 2 1022 93 10000 3.6 300 12:48 09.01.2021
3883 Clouds 2 1022 93 10000 2.57 310 12:22 09.01.2021
3884 Clouds 2 1022 93 10000 2.57 310 11:55 09.01.2021
3885 Clouds 2 1022 93 10000 3.09 300 11:30 09.01.2021
3886 Clouds 2 1022 93 10000 2.57 290 10:52 09.01.2021
3887 Clouds 1 1022 100 10000 3.09 290 10:30 09.01.2021
3888 Clouds 1 1021 93 10000 2.57 280 09:53 09.01.2021
3889 Clouds 1 1021 93 10000 3.09 280 09:29 09.01.2021
3890 Clouds 1 1021 93 10000 3.09 280 08:34 09.01.2021
3891 Clouds 1 1020 93 10000 3.09 280 06:58 09.01.2021
3892 Clouds 1 1020 93 10000 3.09 280 06:39 09.01.2021
3893 Clouds 1 1019 93 10000 3.09 270 04:47 09.01.2021
3894 Snow 1 1019 93 10000 4.63 290 03:21 09.01.2021
3895 Snow 1 1018 93 10000 5.14 300 02:30 09.01.2021
3896 Snow 1 1018 93 10000 4.63 300 01:45 09.01.2021
3897 Snow 1 1018 93 10000 4.12 290 00:35 09.01.2021
3898 Snow 1 1018 86 10000 5.14 300 23:57 08.01.2021
3899 Clouds 1 1017 86 10000 5.66 320 22:57 08.01.2021
3900 Clouds 1 1017 93 10000 3.09 300 22:18 08.01.2021
3901 Clouds 1 1017 93 10000 2.57 300 21:37 08.01.2021
3902 Clouds 1 1016 86 10000 3.09 300 20:46 08.01.2021
3903 Clouds 1 1016 100 10000 2.57 290 20:25 08.01.2021
3904 Clouds 1 1016 100 10000 2.57 290 19:44 08.01.2021
3905 Clouds 1 1016 100 8000 2.57 280 19:22 08.01.2021
3906 Snow 2 1015 93 8000 2.06 290 18:35 08.01.2021
3907 Clouds 2 1015 93 9000 2.06 280 17:56 08.01.2021
3908 Clouds 2 1015 93 9000 2.06 280 17:35 08.01.2021
3909 Snow 2 1014 93 10000 1.03 0 16:51 08.01.2021
3910 Snow 2 1014 93 10000 2.06 290 16:26 08.01.2021
3911 Snow 2 1014 93 10000 2.06 290 16:26 08.01.2021
3912 Snow 2 1014 93 10000 2.06 340 15:40 08.01.2021
3913 Snow 2 1013 93 10000 3.6 310 14:45 08.01.2021
3914 Snow 2 1013 93 10000 3.09 300 14:26 08.01.2021
3915 Snow 2 1013 93 10000 3.6 300 13:23 08.01.2021
3916 Snow 2 1013 93 10000 3.09 310 12:57 08.01.2021
3917 Snow 2 1013 93 10000 3.09 310 12:39 08.01.2021
3918 Snow 1 1013 93 10000 2.57 340 12:19 08.01.2021
3919 Snow 2 1013 93 7000 3.09 330 11:42 08.01.2021
3920 Mist 1 1013 93 4500 3.6 340 11:22 08.01.2021
3921 Snow 1 1012 93 4000 2.57 350 10:46 08.01.2021
3922 Snow 1 1012 100 3500 3.09 340 10:24 08.01.2021
3923 Snow 1 1012 100 3500 2.06 320 09:43 08.01.2021
3924 Snow 1 1011 100 3500 2.06 310 09:21 08.01.2021
3925 Mist 1 1010 100 3500 2.06 280 07:56 08.01.2021
3926 Snow 1 1010 100 3500 2.06 270 07:25 08.01.2021
3927 Clouds 2 1010 93 9000 1.54 260 04:20 08.01.2021
3928 Clouds 2 1009 93 7000 1.03 0 23:45 07.01.2021
3929 Clouds 2 1009 100 7000 0.51 260 23:27 07.01.2021
3930 Snow 2 1010 100 8000 0.51 0 22:38 07.01.2021
3931 Snow 2 1010 100 9000 0.51 0 21:53 07.01.2021
3932 Snow 2 1010 100 9000 0.51 0 21:34 07.01.2021
3933 Clouds 2 1010 93 10000 1.03 0 20:57 07.01.2021
3934 Clouds 2 1010 93 10000 1.03 0 20:38 07.01.2021
3935 Snow 2 1010 100 10000 1.54 210 20:18 07.01.2021
3936 Snow 2 1010 100 10000 1.03 0 19:38 07.01.2021
3937 Snow 1 1010 100 10000 1.54 220 18:50 07.01.2021
3938 Snow 1 1010 100 10000 2.06 230 18:22 07.01.2021
3939 Snow 2 1010 100 10000 2.06 230 17:36 07.01.2021
3940 Clouds 2 1010 93 10000 3.6 240 17:18 07.01.2021
3941 Clouds 2 1010 93 10000 3.09 240 16:45 07.01.2021
3942 Clouds 2 1010 93 10000 4.12 250 16:20 07.01.2021
3943 Clouds 2 1009 93 10000 4.12 260 15:31 07.01.2021
3944 Clouds 2 1009 93 10000 3.09 250 14:42 07.01.2021
3945 Clouds 2 1009 93 10000 4.12 250 14:22 07.01.2021
3946 Clouds 2 1010 93 10000 4.12 260 13:31 07.01.2021
3947 Clouds 2 1010 95 7000 4.1 260 12:57 07.01.2021
3948 Clouds 2 1010 93 7000 4.1 260 12:29 07.01.2021
3949 Clouds 2 1010 93 7000 4.1 260 11:51 07.01.2021
3950 Snow 2 1010 93 7000 4.1 260 11:30 07.01.2021
3951 Snow 1 1010 93 7000 4.1 260 10:47 07.01.2021
3952 Snow 1 1010 95 7000 4.1 260 10:19 07.01.2021
3953 Snow 1 1010 95 7000 4.1 260 09:44 07.01.2021
3954 Snow 2 1010 97 7000 4.1 260 09:18 07.01.2021
3955 Snow 1 1010 97 7000 4.1 260 08:25 07.01.2021
3956 Snow 1 1010 97 3500 4.1 260 07:44 07.01.2021
3957 Snow 1 1010 97 3500 4.6 260 06:52 07.01.2021
3958 Snow 1 1010 96 4500 4.1 270 03:34 07.01.2021
3959 Snow 1 1011 96 3200 4.6 270 00:25 07.01.2021
3960 Snow 1 1011 96 5000 4.1 280 23:36 06.01.2021
3961 Snow 1 1011 96 6000 4.1 270 22:37 06.01.2021
3962 Snow 1 1012 96 7000 4.1 280 21:42 06.01.2021
3963 Snow 1 1012 96 7000 4.1 280 21:22 06.01.2021
3964 Snow 1 1012 96 6000 3.6 280 20:50 06.01.2021
3965 Snow 1 1012 96 3500 3.6 280 20:22 06.01.2021
3966 Snow 1 1012 96 3500 3.6 280 19:49 06.01.2021
3967 Snow 1 1012 96 7000 3.6 280 19:29 06.01.2021
3968 Mist 1 1012 96 4000 3.1 280 18:52 06.01.2021
3969 Snow 1 1012 96 4000 3.1 280 18:34 06.01.2021
3970 Snow 2 1012 96 5000 3.6 280 17:59 06.01.2021
3971 Snow 2 1012 96 9000 3.1 290 17:41 06.01.2021
3972 Snow 2 1012 96 9000 3.1 290 17:21 06.01.2021
3973 Clouds 2 1012 96 9000 3.1 310 16:38 06.01.2021
3974 Clouds 2 1012 96 9000 3.1 310 16:38 06.01.2021
3975 Clouds 2 1012 96 10000 4.1 310 16:18 06.01.2021
3976 Clouds 2 1012 96 10000 4.1 300 15:46 06.01.2021
3977 Clouds 2 1012 95 10000 4.1 300 15:24 06.01.2021
3978 Clouds 2 1013 100 10000 4.1 310 14:36 06.01.2021
3979 Clouds 2 1013 100 10000 4.6 310 13:55 06.01.2021
3980 Snow 3 1013 93 10000 4.6 310 13:27 06.01.2021
3981 Snow 2 1014 93 10000 3.6 320 12:58 06.01.2021
3982 Clouds 3 1014 100 10000 3.6 320 12:32 06.01.2021
3983 Clouds 2 1014 95 9000 3.6 320 11:46 06.01.2021
3984 Clouds 2 1014 95 8000 3.1 330 11:23 06.01.2021
3985 Clouds 2 1014 95 8000 2.6 320 10:43 06.01.2021
3986 Clouds 2 1014 95 9000 2.6 320 09:52 06.01.2021
3987 Clouds 2 1015 95 9000 2.6 330 09:32 06.01.2021
3988 Clouds 2 1014 95 10000 3.1 350 08:52 06.01.2021
3989 Snow 2 1014 100 10000 3.1 350 08:19 06.01.2021
3990 Clouds 2 1014 100 10000 3.1 360 07:52 06.01.2021
3991 Clouds 3 1015 93 27 4.1 10 06:44 06.01.2021
3992 Clouds 3 1015 93 10000 3.6 20 05:29 06.01.2021
3993 Rain 3 1016 86 10000 3.6 20 03:21 06.01.2021
3994 Clouds 4 1016 86 10000 2.6 20 02:42 06.01.2021
3995 Rain 4 1016 86 10000 2.6 20 02:20 06.01.2021
3996 Clouds 4 1017 93 10000 3.6 40 23:51 05.01.2021
3997 Clouds 4 1017 93 10000 4.6 60 22:57 05.01.2021
3998 Clouds 4 1017 93 10000 5.1 60 22:38 05.01.2021
3999 Clouds 4 1017 93 10000 4.6 50 22:19 05.01.2021
4000 Clouds 4 1017 93 10000 4.1 50 21:21 05.01.2021
4001 Rain 4 1017 100 10000 4.6 50 20:30 05.01.2021
4002 Rain 4 1017 100 10000 4.1 40 19:57 05.01.2021
4003 Drizzle 4 1017 100 10000 4.1 40 19:38 05.01.2021
4004 Drizzle 4 1017 93 10000 3.6 40 19:18 05.01.2021
4005 Drizzle 4 1017 93 10000 3.6 40 18:42 05.01.2021
4006 Rain 4 1017 93 10000 3.6 30 18:18 05.01.2021
4007 Drizzle 4 1017 93 6000 3.1 40 17:40 05.01.2021
4008 Drizzle 4 1017 93 6000 3.1 40 17:20 05.01.2021
4009 Clouds 3 1017 93 10000 3.6 50 16:39 05.01.2021
4010 Clouds 3 1017 93 10000 3.6 50 16:20 05.01.2021
4011 Clouds 3 1017 93 10000 3.1 50 15:44 05.01.2021
4012 Drizzle 3 1017 93 10000 3.6 60 14:49 05.01.2021
4013 Clouds 3 1017 93 10000 3.6 60 14:19 05.01.2021
4014 Rain 3 1017 93 10000 3.6 60 13:44 05.01.2021
4015 Rain 3 1017 93 10000 4.1 60 13:20 05.01.2021
4016 Clouds 3 1018 93 10000 3.1 60 12:46 05.01.2021
4017 Clouds 3 1018 93 10000 3.1 60 12:21 05.01.2021
4018 -273 0 0 0 0 0 11:36 05.01.2021
4019 Drizzle 2 1018 100 4800 2.6 60 11:33 05.01.2021
4020 Drizzle 2 1018 100 4800 2.6 60 11:31 05.01.2021
4021 Clouds 2 1018 100 10000 3.1 60 10:45 05.01.2021
4022 Clouds 2 1018 100 10000 3.1 60 10:24 05.01.2021
4023 Snow 2 1018 100 9000 3.1 60 09:45 05.01.2021
4024 Snow 2 1018 100 9000 3.1 60 09:25 05.01.2021
4025 Clouds 2 1017 100 7000 4.6 70 08:19 05.01.2021
4026 Clouds 2 1017 96 10000 4.1 70 05:38 05.01.2021
4027 Clouds 2 1017 96 10000 3.1 50 03:40 05.01.2021
4028 Drizzle 2 1017 96 6000 4.1 70 00:24 05.01.2021
4029 Snow 2 1017 96 10000 4.6 70 23:43 04.01.2021
4030 Snow 2 1017 96 10000 4.6 70 23:24 04.01.2021
4031 Clouds 2 1017 96 10000 3.6 70 22:46 04.01.2021
4032 Clouds 2 1017 96 10000 4.1 80 22:21 04.01.2021
4033 Clouds 2 1017 100 10000 3.1 60 21:40 04.01.2021
4034 Clouds 2 1017 100 10000 3.1 60 21:22 04.01.2021
4035 Snow 2 1017 100 10000 2.6 70 20:42 04.01.2021
4036 Snow 2 1017 95 9000 2.1 70 20:21 04.01.2021
4037 Snow 2 1017 100 10000 2.6 70 19:43 04.01.2021
4038 Snow 2 1017 100 10000 2.6 60 19:19 04.01.2021
4039 Snow 2 1017 100 10000 2.6 60 18:46 04.01.2021
4040 Snow 2 1017 100 10000 2.6 60 17:59 04.01.2021
4041 Snow 2 1017 100 10000 3.1 60 17:39 04.01.2021
4042 Rain 2 1017 100 10000 3.6 70 17:21 04.01.2021
4043 Rain 2 1017 100 10000 4.1 70 16:42 04.01.2021
4044 Clouds 2 1017 100 10000 4.1 70 16:24 04.01.2021
4045 Snow 2 1017 100 10000 3.6 70 15:48 04.01.2021
4046 Snow 2 1017 93 10000 4.1 60 15:24 04.01.2021
4047 Snow 2 1017 93 10000 4.1 60 13:58 04.01.2021
4048 Snow 3 1017 93 10000 4.1 60 13:36 04.01.2021
4049 Snow 2 1017 100 10000 2.6 50 12:57 04.01.2021
4050 Snow 2 1018 100 10000 3.1 60 12:30 04.01.2021
4051 Snow 2 1018 93 10000 2.6 50 11:45 04.01.2021
4052 Rain 2 1018 93 10000 3.1 70 11:18 04.01.2021
4053 Clouds 2 1018 93 10000 4.1 70 10:44 04.01.2021
4054 Rain 2 1018 93 10000 4.1 70 10:22 04.01.2021
4055 Rain 2 1017 93 10000 3.6 60 09:36 04.01.2021
4056 Rain 2 1017 93 10000 3.6 60 09:18 04.01.2021
4057 Rain 2 1017 93 10000 3.6 60 09:18 04.01.2021
4058 Clouds 3 1017 93 10000 4.6 60 08:22 04.01.2021
4059 Clouds 2 1017 93 10000 3.1 60 07:47 04.01.2021
4060 Clouds 2 1017 100 8000 3.1 60 05:42 04.01.2021
4061 Rain 2 1017 95 7000 2.6 50 05:20 04.01.2021
4062 Clouds 2 1016 93 10000 5.1 70 02:26 04.01.2021
4063 Snow 2 1017 96 10000 5.7 70 00:24 04.01.2021
4064 Snow 2 1016 96 10000 5.1 70 23:37 03.01.2021
4065 Snow 2 1016 95 10000 5.7 60 22:58 03.01.2021
4066 Snow 1 1016 95 9000 4.6 70 22:39 03.01.2021
4067 Snow 1 1016 100 8000 5.7 60 22:21 03.01.2021
4068 Snow 2 1016 96 7000 5.1 60 21:40 03.01.2021
4069 Snow 2 1016 96 7000 5.1 60 21:22 03.01.2021
4070 Snow 2 1016 100 8000 4.6 60 20:40 03.01.2021
4071 Snow 2 1015 100 8000 4.6 60 20:18 03.01.2021
4072 Snow 2 1015 93 9000 5.1 50 19:44 03.01.2021
4073 Snow 2 1015 93 9000 5.1 50 19:24 03.01.2021
4074 Snow 2 1015 93 10000 4.6 50 18:45 03.01.2021
4075 Snow 2 1015 93 10000 4.6 50 18:23 03.01.2021
4076 Rain 2 1015 93 10000 5.1 50 17:51 03.01.2021
4077 Rain 2 1015 93 10000 5.1 50 17:27 03.01.2021
4078 Rain 2 1015 93 10000 5.1 50 16:54 03.01.2021
4079 Rain 2 1015 93 10000 4.6 50 16:36 03.01.2021
4080 Rain 2 1015 93 10000 4.6 40 16:18 03.01.2021
4081 Rain 2 1014 93 10000 4.6 40 15:39 03.01.2021
4082 Rain 3 1014 93 10000 5.7 30 14:58 03.01.2021
4083 Rain 3 1014 93 10000 5.7 40 14:33 03.01.2021
4084 Rain 3 1015 86 10000 5.7 40 13:48 03.01.2021
4085 Rain 3 1015 86 10000 5.7 40 13:24 03.01.2021
4086 Rain 3 1015 86 10000 5.7 40 13:24 03.01.2021
4087 Rain 3 1015 88 10000 6.2 50 12:51 03.01.2021
4088 Clouds 3 1016 87 10000 5.1 50 11:44 03.01.2021
4089 Rain 4 1016 87 10000 5.1 50 11:25 03.01.2021
4090 Clouds 4 1016 87 10000 5.1 30 10:55 03.01.2021
4091 Clouds 3 1016 90 10000 3.6 40 10:30 03.01.2021
4092 Clouds 3 1015 90 10000 4.1 50 09:41 03.01.2021
4093 Clouds 3 1015 94 10000 4.1 50 09:23 03.01.2021
4094 Clouds 3 1015 74 10000 3.6 50 07:54 03.01.2021
4095 Clouds 3 1015 74 10000 4.1 50 05:59 03.01.2021
4096 Clouds 4 1015 74 10000 3.6 50 02:28 03.01.2021
4097 Clouds 3 1015 91 10000 3.6 100 01:47 03.01.2021
4098 Clouds 3 1015 91 10000 3.6 100 01:47 03.01.2021
4099 Clouds 4 1016 86 10000 2.1 90 00:20 03.01.2021
4100 Clouds 4 1016 86 10000 2.6 80 23:30 02.01.2021
4101 Clouds 4 1015 86 10000 2.1 90 22:55 02.01.2021
4102 Clouds 4 1015 86 10000 2.6 90 22:32 02.01.2021
4103 Clouds 3 1015 86 10000 2.1 70 21:51 02.01.2021
4104 Clouds 3 1015 86 10000 2.1 70 21:31 02.01.2021
4105 Clouds 3 1015 93 10000 1.5 80 20:50 02.01.2021
4106 Clouds 4 1015 93 10000 1.5 80 20:29 02.01.2021
4107 Clouds 4 1014 93 10000 2.1 80 19:59 02.01.2021
4108 Clouds 4 1014 93 10000 1.5 80 19:20 02.01.2021
4109 Clouds 4 1014 86 10000 1.5 80 18:56 02.01.2021
4110 Clouds 5 1014 86 10000 1 100 18:38 02.01.2021
4111 Clouds 5 1014 86 10000 1 60 18:19 02.01.2021
4112 Clouds 5 1014 86 10000 0.5 0 17:38 02.01.2021
4113 Clouds 5 1014 86 10000 0.5 70 16:53 02.01.2021
4114 Clouds 5 1014 86 10000 0.5 70 16:23 02.01.2021
4115 Clouds 5 1014 80 10000 0.5 330 15:54 02.01.2021
4116 Clouds 6 1013 80 10000 1 300 15:31 02.01.2021
4117 Clouds 6 1013 80 10000 1 0 14:55 02.01.2021
4118 Clouds 6 1013 80 10000 1 0 14:34 02.01.2021
4119 Clouds 6 1013 80 10000 1.5 280 13:44 02.01.2021
4120 Clouds 6 1013 80 10000 2.1 200 12:59 02.01.2021
4121 Clouds 6 1013 86 10000 2.1 210 12:41 02.01.2021
4122 Clouds 5 1013 86 10000 2.1 210 12:22 02.01.2021
4123 Clouds 5 1013 86 9000 2.1 220 11:42 02.01.2021
4124 Clouds 5 1013 93 8000 3.1 190 11:20 02.01.2021
4125 Clouds 4 1013 86 8000 1.5 170 10:42 02.01.2021
4126 Clouds 4 1013 86 8000 1.5 170 10:23 02.01.2021
4127 Clouds 3 1013 93 7000 1 220 09:43 02.01.2021
4128 Clouds 3 1012 93 7000 1 210 09:21 02.01.2021
4129 Clouds 3 1012 93 7000 1 210 08:48 02.01.2021
4130 Clouds 3 1012 93 8000 0.5 0 08:19 02.01.2021
4131 Clouds 3 1012 93 7000 1 220 07:25 02.01.2021
4132 Clouds 3 1011 93 7000 1.5 240 06:58 02.01.2021
4133 Clouds 2 1011 93 7000 2.6 210 05:57 02.01.2021
4134 Clouds 3 1011 86 8000 1.5 240 02:52 02.01.2021
4135 Clouds 4 1010 86 8000 2.1 230 00:43 02.01.2021
4136 Clouds 4 1010 86 8000 2.1 230 00:23 02.01.2021
4137 Clouds 4 1010 86 9000 1.5 230 23:37 01.01.2021
4138 Clouds 4 1010 86 9000 1.5 230 23:19 01.01.2021
4139 Clouds 4 1010 86 9000 2.1 250 22:44 01.01.2021
4140 Clouds 4 1010 86 9000 2.1 250 22:21 01.01.2021
4141 Clouds 3 1009 93 9000 1.5 260 21:42 01.01.2021
4142 Clouds 3 1009 93 9000 1.5 260 21:20 01.01.2021
4143 Clouds 4 1009 86 10000 2.1 230 20:50 01.01.2021
4144 Clouds 4 1009 86 10000 2.1 230 20:50 01.01.2021
4145 Clouds 4 1009 86 10000 2.6 240 20:19 01.01.2021
4146 Clouds 4 1008 86 10000 1.5 230 19:42 01.01.2021
4147 Clouds 4 1008 86 10000 1.5 230 19:22 01.01.2021
4148 Clouds 4 1008 86 10000 3.1 210 18:47 01.01.2021
4149 Clouds 4 1008 86 10000 3.1 210 18:28 01.01.2021
4150 Clouds 4 1008 86 10000 2.1 210 17:50 01.01.2021
4151 Clouds 4 1008 86 10000 2.1 230 17:24 01.01.2021
4152 Clouds 4 1008 85 10000 2.1 230 16:52 01.01.2021
4153 Clouds 4 1007 82 10000 3.6 240 16:28 01.01.2021
4154 Clouds 4 1007 82 10000 4.1 260 15:42 01.01.2021
4155 Clouds 4 1007 78 10000 3.1 260 14:50 01.01.2021
4156 Clouds 5 1007 80 10000 4.1 250 14:31 01.01.2021
4157 Clouds 5 1007 80 10000 3.6 270 13:40 01.01.2021
4158 Clouds 5 1007 80 10000 3.6 270 13:20 01.01.2021
4159 Clouds 4 1007 86 10000 2.6 230 12:37 01.01.2021
4160 Clouds 4 1007 86 10000 2.1 230 12:18 01.01.2021
4161 Clouds 3 1007 79 10000 1.5 220 11:39 01.01.2021
4162 Clouds 3 1007 83 10000 1 0 11:18 01.01.2021
4163 Clouds 2 1006 83 10000 1 0 10:34 01.01.2021
4164 Clouds 2 1006 86 10000 1.5 220 09:46 01.01.2021
4165 Clouds 2 1006 90 10000 1 240 08:54 01.01.2021
4166 Clouds 2 1006 90 10000 1 0 08:25 01.01.2021
4167 Fog 0 1005 100 900 1.5 180 04:52 01.01.2021
4168 Clouds 1 1004 90 7000 1 250 02:26 01.01.2021
4169 Clouds 2 1004 93 10000 1 210 00:41 01.01.2021
4170 Clouds 2 1004 92 10000 1 210 00:21 01.01.2021
4171 Clouds 2 1004 93 10000 0.5 0 23:22 31.12.2020
4172 Clouds 1 1004 93 10000 0.5 0 22:56 31.12.2020
4173 Clouds 1 1004 92 10000 1 160 22:38 31.12.2020
4174 Clouds 2 1004 91 10000 1 160 22:19 31.12.2020
4175 Clouds 3 1003 91 10000 1.5 170 21:46 31.12.2020
4176 Clouds 3 1003 91 10000 1.5 170 21:23 31.12.2020
4177 Clouds 3 1003 86 10000 2.6 170 20:48 31.12.2020
4178 Clouds 3 1003 86 10000 1 0 20:18 31.12.2020
4179 Clouds 3 1003 89 10000 2.1 190 19:45 31.12.2020
4180 Clouds 3 1003 87 10000 2.1 190 19:24 31.12.2020
4181 Clouds 3 1003 86 10000 1.5 200 18:42 31.12.2020
4182 Clouds 4 1003 87 10000 1.5 200 18:23 31.12.2020
4183 Clouds 4 1003 69 10000 4.1 200 17:44 31.12.2020
4184 Clouds 5 1003 89 10000 2.1 190 17:22 31.12.2020
4185 Clouds 5 1002 69 10000 3.1 180 16:43 31.12.2020
4186 Clouds 5 1002 86 10000 3.1 180 16:22 31.12.2020
4187 Clouds 5 1004 10 10000 2.82 196 15:45 31.12.2020
4188 Clouds 5 1002 80 10000 3.6 200 15:22 31.12.2020
4189 Clouds 5 1002 80 10000 3.6 200 14:56 31.12.2020
4190 Clouds 5 1002 80 10000 2.6 200 14:37 31.12.2020
4191 Clouds 5 1002 80 10000 4.1 200 14:19 31.12.2020
4192 Clouds 4 1003 86 10000 3.6 190 13:38 31.12.2020
4193 Clouds 4 1003 86 10000 3.6 200 13:19 31.12.2020
4194 Clouds 4 1003 86 10000 3.6 200 12:53 31.12.2020
4195 Clouds 4 1003 86 10000 5.1 200 12:34 31.12.2020
4196 Clouds 4 1003 86 10000 3.1 200 11:51 31.12.2020
4197 Clouds 4 1003 91 10000 4.6 200 11:32 31.12.2020
4198 Clouds 4 1003 91 10000 4.6 200 11:32 31.12.2020
4199 Clouds 4 1003 86 10000 4.1 200 10:49 31.12.2020
4200 Clouds 4 1003 83 10000 4.1 200 10:29 31.12.2020
4201 Clouds 4 1003 83 10000 4.1 200 09:56 31.12.2020
4202 Clouds 3 1003 83 10000 3.1 190 09:34 31.12.2020
4203 Clouds 3 1003 86 10000 3.1 190 08:50 31.12.2020
4204 Clouds 3 1003 87 10000 3.1 180 08:32 31.12.2020
4205 Clouds 3 1003 87 10000 2.6 190 07:57 31.12.2020
4206 Clouds 3 1003 87 10000 2.6 180 07:28 31.12.2020
4207 Clouds 3 1003 87 10000 3.6 190 05:31 31.12.2020
4208 Clouds 3 1003 86 10000 2.6 210 03:40 31.12.2020
4209 Clouds 3 1003 86 10000 3.1 240 02:45 31.12.2020
4210 Clouds 3 1003 85 10000 3.1 240 02:25 31.12.2020
4211 Clouds 4 1003 80 10000 5.7 250 01:43 31.12.2020
4212 Clouds 4 1003 80 10000 6.2 240 01:22 31.12.2020
4213 Clouds 5 1003 86 10000 4.6 240 00:43 31.12.2020
4214 Clouds 4 1003 93 10000 3.6 230 23:43 30.12.2020
4215 Clouds 4 1002 93 10000 3.6 220 23:19 30.12.2020
4216 Clouds 5 1002 86 10000 3.6 210 22:45 30.12.2020
4217 Clouds 5 1002 86 10000 3.6 210 22:27 30.12.2020
4218 Clouds 4 1002 86 10000 3.1 230 21:39 30.12.2020
4219 Clouds 5 1002 86 10000 3.1 240 21:20 30.12.2020
4220 Clouds 5 1002 86 10000 4.6 240 20:41 30.12.2020
4221 Clouds 5 1002 86 10000 3.6 240 20:20 30.12.2020
4222 Clouds 5 1001 86 10000 3.1 240 19:39 30.12.2020
4223 Clouds 5 1001 86 10000 4.1 240 19:19 30.12.2020
4224 Clouds 5 1001 86 10000 3.6 250 18:42 30.12.2020
4225 Clouds 5 1001 86 10000 4.1 240 18:23 30.12.2020
4226 Clouds 5 1001 86 10000 4.1 240 17:50 30.12.2020
4227 Clouds 5 1001 75 10000 3.1 240 17:31 30.12.2020
4228 Clouds 5 1000 75 10000 3.1 220 16:52 30.12.2020
4229 Clouds 5 1000 80 10000 3.6 230 16:25 30.12.2020
4230 Clouds 5 1000 75 10000 4.1 230 15:45 30.12.2020
4231 Clouds 5 999 75 10000 4.6 230 15:24 30.12.2020
4232 Clouds 6 1000 75 10000 6.7 240 14:43 30.12.2020
4233 Clouds 6 1000 75 10000 6.7 240 14:22 30.12.2020
4234 Clouds 6 999 75 10000 5.1 240 13:20 30.12.2020
4235 Clouds 5 999 73 10000 5.1 230 12:27 30.12.2020
4236 Clouds 5 999 73 10000 4.1 210 11:49 30.12.2020
4237 Clouds 4 999 77 10000 4.1 210 11:24 30.12.2020
4238 Clear 4 999 77 10000 2.6 210 10:59 30.12.2020
4239 Clear 4 999 80 10000 3.1 200 10:39 30.12.2020
4240 Clear 3 999 80 10000 2.6 190 10:20 30.12.2020
4241 Clouds 2 998 80 10000 3.1 210 09:47 30.12.2020
4242 Clouds 2 998 80 10000 3.1 220 09:18 30.12.2020
4243 Clear 2 998 80 10000 3.1 220 08:23 30.12.2020
4244 Clear 2 997 80 10000 4.6 210 07:28 30.12.2020
4245 Clouds 3 996 74 10000 4.6 210 06:43 30.12.2020
4246 Clouds 3 996 89 10000 4.6 210 05:50 30.12.2020
4247 Clouds 3 996 74 10000 3.6 210 05:31 30.12.2020
4248 Clouds 4 995 87 10000 4.6 220 03:45 30.12.2020
4249 Clouds 4 995 85 10000 4.6 220 03:25 30.12.2020
4250 Clouds 4 995 85 10000 4.1 220 02:36 30.12.2020
4251 Clouds 4 995 84 10000 4.1 220 01:50 30.12.2020
4252 Clouds 4 995 84 10000 4.6 220 01:31 30.12.2020
4253 Clouds 4 994 84 10000 5.1 230 00:47 30.12.2020
4254 Clouds 5 994 81 10000 5.1 230 00:27 30.12.2020
4255 Clouds 5 994 80 10000 5.1 220 23:52 29.12.2020
4256 Clouds 5 994 80 10000 4.6 220 23:34 29.12.2020
4257 Clouds 5 994 80 10000 5.7 230 22:50 29.12.2020
4258 Clouds 5 993 80 10000 4.6 220 22:31 29.12.2020
4259 Clouds 5 993 80 10000 4.1 220 21:56 29.12.2020
4260 Clouds 5 993 80 10000 4.6 230 21:38 29.12.2020
4261 Clouds 5 992 86 10000 4.6 240 21:20 29.12.2020
4262 Clouds 5 992 86 10000 5.7 230 20:43 29.12.2020
4263 Rain 5 992 86 10000 5.1 240 20:25 29.12.2020
4264 Rain 5 991 86 10000 5.7 230 19:45 29.12.2020
4265 Rain 5 991 86 10000 5.7 230 19:21 29.12.2020
4266 Rain 5 991 86 10000 5.7 230 19:21 29.12.2020
4267 Clouds 5 990 80 10000 6.7 230 18:50 29.12.2020
4268 Clouds 5 990 80 10000 6.7 230 18:28 29.12.2020
4269 Rain 5 990 86 10000 4.1 240 17:47 29.12.2020
4270 Clouds 5 989 80 10000 4.1 230 17:23 29.12.2020
4271 Clouds 5 989 80 10000 4.1 230 16:55 29.12.2020
4272 Clouds 5 989 75 10000 5.7 240 16:26 29.12.2020
4273 Clouds 5 988 80 10000 4.6 220 15:46 29.12.2020
4274 Clouds 5 988 80 10000 4.6 220 15:26 29.12.2020
4275 Clouds 5 987 80 10000 5.1 230 14:45 29.12.2020
4276 Clouds 5 987 80 10000 5.1 230 14:27 29.12.2020
4277 Clouds 5 986 80 10000 4.6 220 13:55 29.12.2020
4278 Clouds 5 986 80 10000 5.1 230 13:24 29.12.2020
4279 Clouds 4 986 80 10000 3.6 230 12:45 29.12.2020
4280 Clouds 4 986 80 10000 3.6 230 12:26 29.12.2020
4281 Clouds 4 985 86 10000 3.1 230 11:58 29.12.2020
4282 Clouds 3 985 86 10000 3.6 210 11:31 29.12.2020
4283 Clouds 3 984 81 10000 2.1 200 10:40 29.12.2020
4284 Clouds 2 984 87 10000 1.5 170 09:59 29.12.2020
4285 Clouds 2 983 87 10000 2.1 200 09:37 29.12.2020
4286 Clouds 1 983 92 10000 2.1 190 09:18 29.12.2020
4287 Clouds 1 982 92 10000 1.5 200 08:43 29.12.2020
4288 Clouds 1 982 92 10000 2.1 160 07:33 29.12.2020
4289 Clouds 1 981 91 10000 1 0 06:55 29.12.2020
4290 Clouds 2 981 93 10000 2.1 190 05:33 29.12.2020
4291 Clouds 4 980 100 10000 1.5 150 01:36 29.12.2020
4292 Clouds 4 980 100 6000 2.1 110 00:24 29.12.2020
4293 Rain 4 980 100 7000 3.1 90 23:37 28.12.2020
4294 Clouds 4 980 93 10000 3.6 100 22:41 28.12.2020
4295 Clouds 4 980 93 10000 4.1 100 21:47 28.12.2020
4296 Rain 4 980 93 10000 4.1 100 21:29 28.12.2020
4297 Rain 4 980 86 10000 3.6 90 20:47 28.12.2020
4298 Rain 4 980 86 10000 3.6 90 20:29 28.12.2020
4299 Rain 5 980 80 10000 3.6 90 19:59 28.12.2020
4300 Rain 4 980 86 10000 3.6 90 19:40 28.12.2020
4301 Clouds 4 980 86 10000 3.6 90 19:20 28.12.2020
4302 Clouds 4 980 80 10000 2.6 90 18:44 28.12.2020
4303 Clouds 4 980 84 10000 2.6 90 18:23 28.12.2020
4304 Clouds 5 981 75 10000 3.1 110 17:39 28.12.2020
4305 Clouds 5 980 75 10000 2.1 140 17:18 28.12.2020
4306 Clouds 5 980 75 10000 2.6 140 16:32 28.12.2020
4307 Clouds 6 980 70 10000 2.6 130 15:58 28.12.2020
4308 Clouds 6 980 70 10000 2.6 130 15:36 28.12.2020
4309 Clouds 6 980 75 10000 3.6 160 14:35 28.12.2020
4310 Clouds 7 980 75 10000 4.1 150 13:49 28.12.2020
4311 Clouds 6 980 75 10000 3.1 150 13:22 28.12.2020
4312 Clouds 6 980 75 10000 3.1 160 12:29 28.12.2020
4313 Clouds 6 980 75 10000 3.1 170 11:58 28.12.2020
4314 Clouds 6 980 80 10000 3.6 170 11:38 28.12.2020
4315 Clouds 6 980 80 10000 3.1 150 11:18 28.12.2020
4316 Clouds 5 980 80 10000 3.1 140 10:29 28.12.2020
4317 Clouds 5 979 86 10000 4.6 170 09:59 28.12.2020
4318 Clouds 4 979 80 10000 4.1 170 09:38 28.12.2020
4319 Clouds 4 979 86 10000 3.6 160 09:18 28.12.2020
4320 Rain 4 978 80 10000 4.1 170 06:54 28.12.2020
4321 Clouds 4 978 80 10000 5.1 170 05:25 28.12.2020
4322 Clouds 4 979 80 10000 6.7 170 03:51 28.12.2020
4323 Clouds 4 979 86 10000 7.7 170 01:55 28.12.2020
4324 Rain 4 979 76 10000 7.7 160 23:58 27.12.2020
4325 Rain 4 979 76 10000 7.2 160 23:35 27.12.2020
4326 Clouds 4 980 75 10000 7.7 170 22:40 27.12.2020
4327 Clouds 4 980 86 10000 7.2 160 21:55 27.12.2020
4328 Clouds 4 980 86 10000 8.2 170 21:22 27.12.2020
4329 Rain 3 981 93 10000 7.2 160 20:32 27.12.2020
4330 Rain 3 981 93 10000 7.2 160 20:32 27.12.2020
4331 Rain 3 981 93 10000 8.7 170 19:24 27.12.2020
4332 Rain 4 982 86 10000 8.7 170 18:50 27.12.2020
4333 Rain 4 983 74 10000 8.7 170 18:21 27.12.2020
4334 Rain 4 983 74 10000 8.7 170 17:58 27.12.2020
4335 Rain 4 983 74 10000 8.7 170 17:35 27.12.2020
4336 Rain 5 983 74 10000 9.3 170 16:57 27.12.2020
4337 Rain 4 984 72 10000 9.3 180 16:23 27.12.2020
4338 Rain 4 985 72 10000 10.3 180 15:34 27.12.2020
4339 Rain 5 985 70 10000 9.3 180 14:54 27.12.2020
4340 Rain 5 986 70 10000 9.3 180 14:36 27.12.2020
4341 Clouds 5 987 69 10000 9.8 190 13:37 27.12.2020
4342 Clouds 5 989 65 10000 12.3 190 12:56 27.12.2020
4343 Rain 5 989 65 10000 12.3 190 12:26 27.12.2020
4344 Clouds 5 991 69 10000 9.3 180 11:42 27.12.2020
4345 Clouds 5 991 69 10000 9.3 180 11:20 27.12.2020
4346 Clouds 5 991 69 10000 9.3 180 11:20 27.12.2020
4347 Clouds 5 992 69 10000 9.8 200 10:45 27.12.2020
4348 Clouds 4 992 69 10000 9.8 200 10:19 27.12.2020
4349 Clouds 4 993 69 10000 10.3 200 09:37 27.12.2020
4350 Clouds 3 995 69 10000 9.8 190 08:28 27.12.2020
4351 Clouds 3 997 69 10000 5.1 160 07:29 27.12.2020
4352 Clouds 3 999 74 10000 6.2 160 05:59 27.12.2020
4353 Clouds 3 1000 74 10000 5.7 150 05:38 27.12.2020
4354 Clouds 4 1004 69 10000 5.7 170 03:25 27.12.2020
4355 Clouds 4 1005 79 10000 7.7 190 02:25 27.12.2020
4356 Clouds 4 1007 77 10000 8.2 200 00:56 27.12.2020
4357 Rain 4 1009 79 10000 6.2 200 23:44 26.12.2020
4358 Clouds 4 1009 80 10000 6.2 200 23:24 26.12.2020
4359 Clouds 4 1010 80 10000 6.2 200 22:46 26.12.2020
4360 Clouds 5 1010 81 10000 6.2 200 22:19 26.12.2020
4361 Clouds 5 1011 81 10000 6.2 200 21:53 26.12.2020
4362 Clouds 5 1012 82 10000 6.7 210 21:29 26.12.2020
4363 Clouds 5 1013 82 10000 6.7 220 20:46 26.12.2020
4364 Clouds 5 1013 80 10000 6.7 220 20:24 26.12.2020
4365 Clouds 5 1013 80 10000 6.7 210 19:42 26.12.2020
4366 Clouds 5 1013 79 10000 6.7 210 19:20 26.12.2020
4367 Clouds 5 1015 69 10000 5.7 220 18:35 26.12.2020
4368 Clouds 5 1016 69 10000 5.7 220 17:48 26.12.2020
4369 Clouds 5 1016 69 10000 5.7 220 17:29 26.12.2020
4370 Clouds 5 1017 81 10000 6.2 230 16:40 26.12.2020
4371 Clouds 5 1017 79 10000 6.2 230 16:19 26.12.2020
4372 Clouds 5 1017 80 10000 5.7 230 15:23 26.12.2020
4373 Clouds 5 1018 80 10000 6.7 230 14:41 26.12.2020
4374 Clouds 5 1018 80 10000 6.2 230 14:20 26.12.2020
4375 Clouds 5 1019 80 10000 5.7 240 13:39 26.12.2020
4376 Clouds 5 1019 80 10000 4.6 230 13:20 26.12.2020
4377 Clouds 5 1020 80 10000 5.1 240 12:42 26.12.2020
4378 Clouds 5 1020 80 10000 5.1 240 12:19 26.12.2020
4379 Clouds 4 1021 86 10000 5.1 250 11:42 26.12.2020
4380 Clouds 4 1021 86 10000 5.1 250 11:20 26.12.2020
4381 Clouds 3 1021 86 10000 5.1 250 10:49 26.12.2020
4382 Clouds 3 1021 88 10000 4.1 250 10:27 26.12.2020
4383 Clouds 3 1021 88 10000 4.1 240 09:49 26.12.2020
4384 Clouds 2 1021 90 10000 2.1 220 08:56 26.12.2020
4385 Clouds 2 1021 89 10000 3.1 250 08:20 26.12.2020
4386 Clouds 2 1021 89 10000 3.1 250 07:33 26.12.2020
4387 Clouds 2 1021 92 10000 3.6 250 06:19 26.12.2020
4388 Clouds 0 1022 94 10000 2.1 250 02:48 26.12.2020
4389 Fog -1 1022 92 300 0.5 0 00:41 26.12.2020
4390 Fog -1 1022 100 200 2.32 250 23:58 25.12.2020
4391 Fog -1 1022 100 150 0.5 0 23:38 25.12.2020
4392 Fog -1 1022 100 150 0.5 0 23:20 25.12.2020
4393 Fog 0 1023 100 200 1 260 22:28 25.12.2020
4394 Fog 0 1023 100 200 2.1 250 21:49 25.12.2020
4395 Fog 0 1023 100 200 2.1 250 21:31 25.12.2020
4396 Clear 0 1023 92 10000 1 0 20:47 25.12.2020
4397 Clear 0 1023 92 10000 1 0 20:28 25.12.2020
4398 Clear 0 1022 86 10000 1 260 19:43 25.12.2020
4399 Clear 0 1022 86 10000 1 230 18:56 25.12.2020
4400 Clear 1 1022 86 10000 1.5 290 18:37 25.12.2020
4401 Clear 1 1022 90 10000 2.1 280 17:35 25.12.2020
4402 Clouds 2 1022 80 10000 2.1 300 16:56 25.12.2020
4403 Clouds 3 1021 74 10000 3.1 310 16:26 25.12.2020
4404 Clouds 3 1021 69 10000 3.6 320 15:55 25.12.2020
4405 Clouds 4 1021 69 10000 4.6 320 15:34 25.12.2020
4406 Clouds 4 1021 69 10000 4.6 320 14:44 25.12.2020
4407 Clear 5 1021 69 10000 3.6 310 14:21 25.12.2020
4408 Clear 4 1021 74 10000 4.1 310 13:43 25.12.2020
4409 Clear 4 1021 74 10000 4.1 310 13:25 25.12.2020
4410 Clear 4 1021 74 10000 3.1 310 12:29 25.12.2020
4411 Clear 3 1021 80 10000 3.6 300 11:50 25.12.2020
4412 Clear 3 1021 80 10000 3.6 290 11:25 25.12.2020
4413 Clouds 2 1021 86 10000 3.6 280 10:49 25.12.2020
4414 Clouds 2 1021 92 10000 3.1 290 10:22 25.12.2020
4415 Clouds 2 1020 96 10000 3.6 280 09:27 25.12.2020
4416 Clouds 2 1020 86 10000 3.1 300 08:47 25.12.2020
4417 Clouds 2 1019 94 10000 4.1 300 07:52 25.12.2020
4418 Clouds 3 1018 97 10000 3.1 300 06:44 25.12.2020
4419 Clouds 3 1016 93 10000 4.6 330 02:47 25.12.2020
4420 Clouds 5 1015 86 10000 5.1 340 00:48 25.12.2020
4421 Clouds 5 1014 86 10000 3.1 330 23:58 24.12.2020
4422 Clouds 5 1014 86 10000 3.1 330 23:22 24.12.2020
4423 Clouds 5 1013 93 10000 3.1 340 22:37 24.12.2020
4424 Clouds 5 1013 93 10000 3.6 330 22:18 24.12.2020
4425 Clouds 5 1012 93 10000 3.1 340 21:32 24.12.2020
4426 Clouds 5 1012 100 10000 2.6 290 20:19 24.12.2020
4427 Clouds 5 1010 93 10000 4.1 280 18:22 24.12.2020
4428 Clouds 5 1010 93 10000 4.1 280 17:58 24.12.2020
4429 Clouds 5 1010 93 10000 3.1 280 17:36 24.12.2020
4430 Clouds 5 1009 93 10000 3.1 280 16:28 24.12.2020
4431 Clouds 5 1009 86 10000 3.6 280 15:58 24.12.2020
4432 Clouds 5 1008 86 10000 4.1 280 15:40 24.12.2020
4433 Clouds 5 1008 86 10000 4.1 270 15:18 24.12.2020
4434 Clouds 5 1008 100 10000 3.1 270 14:42 24.12.2020
4435 Clouds 5 1008 100 10000 3.1 270 14:23 24.12.2020
4436 Clouds 5 1008 93 10000 4.6 290 13:39 24.12.2020
4437 Clouds 5 1008 93 10000 4.1 300 13:20 24.12.2020
4438 Clouds 5 1007 93 10000 4.6 300 12:41 24.12.2020
4439 Clouds 5 1007 93 10000 4.6 300 12:20 24.12.2020
4440 Clouds 4 1007 100 10000 4.1 310 11:39 24.12.2020
4441 Clouds 4 1006 93 10000 4.6 320 11:20 24.12.2020
4442 Clouds 4 1006 93 10000 4.6 320 10:49 24.12.2020
4443 Clouds 3 1006 93 10000 5.1 320 10:30 24.12.2020
4444 Rain 4 1005 93 10000 5.7 310 09:51 24.12.2020
4445 Clouds 3 1004 93 10000 6.7 310 09:23 24.12.2020
4446 Rain 6 1002 93 10000 7.7 280 07:59 24.12.2020
4447 Rain 7 1002 93 10000 7.2 280 07:38 24.12.2020
4448 Rain 8 1002 87 10000 5.7 240 06:52 24.12.2020
4449 Rain 10 1002 87 10000 7.2 240 04:24 24.12.2020
4450 Clouds 11 1003 87 10000 5.1 240 01:53 24.12.2020
4451 Clouds 11 1003 87 10000 5.1 240 01:30 24.12.2020
4452 Clouds 11 1003 87 7000 5.7 250 00:55 24.12.2020
4453 Clouds 11 1004 87 10000 5.1 240 00:19 24.12.2020
4454 Clouds 11 1004 93 10000 3.6 230 23:40 23.12.2020
4455 Clouds 11 1004 93 10000 5.1 240 23:21 23.12.2020
4456 Clouds 11 1004 93 10000 6.7 240 22:50 23.12.2020
4457 Rain 11 1004 93 10000 6.7 240 22:29 23.12.2020
4458 Clouds 11 1004 93 10000 3.1 230 21:49 23.12.2020
4459 Drizzle 12 1004 93 10000 3.1 230 21:23 23.12.2020
4460 Clouds 11 1005 93 9000 2.6 210 20:47 23.12.2020
4461 Clouds 11 1005 93 9000 2.6 210 20:47 23.12.2020
4462 Clouds 11 1005 93 9000 2.6 210 20:28 23.12.2020
4463 Clouds 11 1005 100 10000 2.6 190 19:59 23.12.2020
4464 Clouds 11 1005 93 6000 2.6 210 19:38 23.12.2020
4465 Clouds 11 1005 93 10000 3.1 180 19:19 23.12.2020
4466 Clouds 11 1006 93 10000 2.1 180 18:46 23.12.2020
4467 Clouds 11 1005 93 10000 2.6 140 18:20 23.12.2020
4468 Rain 11 1005 93 10000 2.6 140 17:36 23.12.2020
4469 Rain 11 1007 93 10000 2.6 180 17:18 23.12.2020
4470 Rain 11 1007 100 10000 2.6 180 16:40 23.12.2020
4471 Rain 11 1008 100 10000 1.5 170 16:22 23.12.2020
4472 Rain 11 1008 100 10000 1.5 170 15:50 23.12.2020
4473 Rain 11 1008 100 10000 2.1 150 15:27 23.12.2020
4474 Rain 10 1008 100 8000 2.6 150 14:58 23.12.2020
4475 Rain 10 1009 93 6000 3.1 150 14:37 23.12.2020
4476 Rain 10 1009 93 4000 2.6 140 14:19 23.12.2020
4477 Drizzle 10 1009 100 3000 3.1 120 13:43 23.12.2020
4478 Mist 10 1010 100 4500 2.6 120 13:19 23.12.2020
4479 Mist 10 1011 93 4500 2.6 110 12:47 23.12.2020
4480 Mist 10 1011 93 4500 2.6 110 12:24 23.12.2020
4481 Mist 9 1012 100 4000 2.6 120 11:46 23.12.2020
4482 Rain 9 1012 93 4500 2.6 110 11:19 23.12.2020
4483 Rain 9 1012 93 4500 2.6 110 10:42 23.12.2020
4484 Rain 9 1012 93 4500 2.6 110 10:24 23.12.2020
4485 Clouds 8 1013 100 6000 2.6 90 09:33 23.12.2020
4486 Clouds 8 1013 93 8000 2.1 90 08:45 23.12.2020
4487 Clouds 8 1013 93 10000 1.5 100 08:20 23.12.2020
4488 Clouds 8 1013 93 10000 1 110 07:27 23.12.2020
4489 Clouds 8 1013 100 7000 1 120 06:39 23.12.2020
4490 Clouds 8 1013 100 7000 1 0 05:28 23.12.2020
4491 Clouds 8 1014 100 9000 1.11 127 04:56 23.12.2020
4492 Rain 9 1015 93 10000 1 210 00:34 23.12.2020
4493 Rain 9 1015 93 10000 1 0 23:49 22.12.2020
4494 Rain 9 1015 93 10000 1 250 23:30 22.12.2020
4495 Clouds 9 1015 93 10000 1 0 22:44 22.12.2020
4496 Clouds 9 1015 93 10000 1 0 22:25 22.12.2020
4497 Clouds 9 1015 93 10000 1.5 250 21:58 22.12.2020
4498 Clouds 9 1014 93 10000 1.5 240 21:38 22.12.2020
4499 Clouds 9 1014 93 10000 1.5 280 21:19 22.12.2020
4500 Clouds 9 1014 93 10000 1.5 280 20:48 22.12.2020
4501 Clouds 9 1014 93 10000 2.1 300 20:21 22.12.2020
4502 Clouds 9 1014 93 10000 3.1 290 19:44 22.12.2020
4503 Clouds 9 1014 93 10000 3.6 300 19:21 22.12.2020
4504 Drizzle 10 1013 93 10000 5.7 310 18:54 22.12.2020
4505 Drizzle 10 1013 93 10000 5.7 310 18:30 22.12.2020
4506 Clouds 10 1013 93 10000 4.1 290 17:57 22.12.2020
4507 Clouds 10 1013 93 10000 4.6 290 17:26 22.12.2020
4508 Clouds 10 1013 93 10000 4.6 290 16:56 22.12.2020
4509 Clouds 11 1012 87 10000 6.7 300 16:37 22.12.2020
4510 Clouds 11 1011 87 10000 6.7 300 16:19 22.12.2020
4511 Rain 12 1010 93 7000 5.1 270 15:42 22.12.2020
4512 Rain 12 1010 93 7000 5.1 270 15:21 22.12.2020
4513 Rain 13 1010 87 10000 6.7 270 14:45 22.12.2020
4514 Rain 13 1010 87 10000 6.7 270 14:26 22.12.2020
4515 Clouds 14 1009 82 10000 8.7 260 13:48 22.12.2020
4516 Clouds 14 1008 76 10000 7.2 260 13:19 22.12.2020
4517 Rain 14 1008 76 10000 7.2 260 12:57 22.12.2020
4518 Clouds 14 1008 76 10000 8.7 260 12:38 22.12.2020
4519 Clouds 14 1007 76 10000 7.7 260 12:19 22.12.2020
4520 Clouds 14 1007 76 10000 7.7 260 11:42 22.12.2020
4521 Clouds 14 1007 76 10000 7.7 260 11:22 22.12.2020
4522 Clouds 14 1007 87 10000 6.7 260 10:55 22.12.2020
4523 Clouds 14 1007 87 10000 6.7 250 10:27 22.12.2020
4524 Clouds 13 1006 87 10000 7.2 260 09:58 22.12.2020
4525 Drizzle 13 1006 93 10000 6.7 250 09:30 22.12.2020
4526 Clouds 13 1005 87 10000 6.7 250 08:57 22.12.2020
4527 Clouds 13 1005 87 10000 8.2 250 08:38 22.12.2020
4528 Clouds 13 1005 87 10000 8.7 240 07:57 22.12.2020
4529 Rain 13 1004 87 10000 7.2 240 07:27 22.12.2020
4530 Clouds 12 1004 93 10000 4.1 210 06:32 22.12.2020
4531 Rain 11 1005 93 10000 5.7 200 05:30 22.12.2020
4532 Rain 9 1007 93 10000 4.1 180 02:24 22.12.2020
4533 Rain 8 1008 87 10000 4.1 170 00:25 22.12.2020
4534 Rain 9 1009 81 10000 4.6 170 23:46 21.12.2020
4535 Clouds 8 1009 81 10000 5.1 160 23:21 21.12.2020
4536 Clouds 8 1010 81 10000 5.1 160 22:36 21.12.2020
4537 Clouds 8 1011 87 10000 5.7 160 22:18 21.12.2020
4538 Clouds 8 1011 87 10000 5.7 160 21:47 21.12.2020
4539 Clouds 8 1011 87 10000 5.7 160 21:28 21.12.2020
4540 Clouds 8 1012 93 10000 4.6 150 20:45 21.12.2020
4541 Clouds 8 1013 93 10000 4.6 140 20:21 21.12.2020
4542 Clouds 8 1013 87 10000 5.1 140 19:47 21.12.2020
4543 Clouds 8 1013 87 10000 5.1 140 19:47 21.12.2020
4544 Rain 8 1013 87 10000 5.1 140 19:22 21.12.2020
4545 Rain 8 1014 81 10000 4.6 140 18:58 21.12.2020
4546 Rain 8 1014 81 10000 4.1 150 18:40 21.12.2020
4547 Rain 8 1014 81 10000 4.1 150 18:40 21.12.2020
4548 Rain 8 1015 81 10000 4.6 150 18:21 21.12.2020
4549 Rain 9 1015 81 10000 3.6 160 17:42 21.12.2020
4550 Rain 9 1016 75 10000 3.1 170 17:23 21.12.2020
4551 Rain 8 1016 75 10000 3.1 170 16:42 21.12.2020
4552 Rain 8 1017 75 10000 4.6 170 16:20 21.12.2020
4553 Rain 9 1017 75 10000 3.6 170 15:42 21.12.2020
4554 Clear 9 1017 75 10000 3.1 160 14:58 21.12.2020
4555 Clear 9 1018 75 10000 3.1 180 14:23 21.12.2020
4556 Clear 9 1018 75 10000 3.1 180 13:55 21.12.2020
4557 Clear 9 1018 75 10000 4.1 180 13:37 21.12.2020
4558 Clear 9 1019 75 10000 5.1 180 13:18 21.12.2020
4559 Clear 8 1019 75 10000 5.7 190 12:42 21.12.2020
4560 Clear 8 1020 81 10000 4.6 190 12:19 21.12.2020
4561 Clear 7 1020 81 10000 4.1 170 11:43 21.12.2020
4562 Clear 7 1020 81 10000 4.1 170 11:22 21.12.2020
4563 Clear 7 1020 87 10000 3.1 190 10:57 21.12.2020
4564 Clouds 7 1020 87 10000 2.6 170 10:39 21.12.2020
4565 Clouds 6 1020 86 10000 2.6 180 09:55 21.12.2020
4566 Clouds 6 1020 86 10000 2.6 190 09:37 21.12.2020
4567 Clouds 6 1020 93 10000 3.1 180 09:19 21.12.2020
4568 Clear 5 1020 93 10000 3.6 190 08:25 21.12.2020
4569 Clouds 6 1020 87 10000 3.6 180 06:48 21.12.2020
4570 Clear 6 1020 87 10000 3.1 190 05:39 21.12.2020
4571 Clear 6 1020 93 10000 2.6 180 04:30 21.12.2020
4572 Clouds 8 1020 87 10000 3.6 190 00:36 21.12.2020
4573 Clouds 8 1019 87 10000 4.1 190 23:47 20.12.2020
4574 Clouds 7 1019 87 10000 4.1 190 23:20 20.12.2020
4575 Clear 7 1019 87 10000 2.6 180 22:44 20.12.2020
4576 Clear 7 1019 87 10000 2.6 180 22:23 20.12.2020
4577 Clear 7 1019 87 10000 3.1 180 21:42 20.12.2020
4578 Clear 7 1019 87 10000 3.1 180 21:24 20.12.2020
4579 Clouds 7 1019 87 10000 3.6 180 20:59 20.12.2020
4580 Rain 8 1019 87 10000 3.6 180 20:40 20.12.2020
4581 Clouds 8 1019 87 10000 3.6 180 20:21 20.12.2020
4582 Clouds 8 1019 87 10000 3.1 180 19:42 20.12.2020
4583 Clouds 8 1019 87 10000 3.1 180 19:20 20.12.2020
4584 Clear 8 1018 87 10000 2.6 170 18:47 20.12.2020
4585 Clear 8 1018 87 10000 2.6 170 18:29 20.12.2020
4586 Clear 8 1018 81 10000 2.1 160 17:47 20.12.2020
4587 Clear 8 1018 81 10000 2.1 160 17:28 20.12.2020
4588 Rain 8 1018 81 10000 3.1 180 16:48 20.12.2020
4589 Rain 8 1018 81 10000 3.1 180 16:29 20.12.2020
4590 Rain 8 1018 87 10000 1.5 160 15:51 20.12.2020
4591 Clear 8 1018 87 10000 2.1 150 15:28 20.12.2020
4592 Clear 8 1018 87 10000 3.1 150 14:56 20.12.2020
4593 Clouds 9 1017 87 10000 1.5 120 14:36 20.12.2020
4594 Clear 9 1018 87 10000 2.1 150 13:56 20.12.2020
4595 Clouds 9 1018 81 10000 2.1 180 13:36 20.12.2020
4596 Clouds 9 1018 81 10000 2.1 180 13:18 20.12.2020
4597 Clouds 8 1018 81 10000 1 0 12:44 20.12.2020
4598 Clouds 8 1018 81 10000 1 0 12:21 20.12.2020
4599 Rain 8 1018 87 10000 2.6 180 11:45 20.12.2020
4600 Clouds 8 1018 87 10000 2.6 180 11:26 20.12.2020
4601 Clouds 8 1018 81 10000 3.1 180 10:49 20.12.2020
4602 Rain 8 1018 81 10000 3.1 180 10:21 20.12.2020
4603 Rain 8 1018 81 10000 1.5 160 09:46 20.12.2020
4604 Rain 8 1018 81 10000 1.5 160 09:46 20.12.2020
4605 Rain 7 1018 81 10000 1.5 160 09:28 20.12.2020
4606 Rain 8 1017 81 10000 1 0 08:59 20.12.2020
4607 Rain 8 1017 81 10000 3.1 180 08:40 20.12.2020
4608 Clouds 8 1017 81 10000 3.1 170 07:34 20.12.2020
4609 Clear 8 1017 81 10000 2.6 170 06:28 20.12.2020
4610 Clouds 8 1017 70 10000 2.1 140 02:37 20.12.2020
4611 Clouds 8 1017 75 10000 2.6 130 00:41 20.12.2020
4612 Clouds 9 1017 75 10000 4.1 130 23:36 19.12.2020
4613 Clouds 9 1016 75 10000 4.1 130 23:18 19.12.2020
4614 Clear 9 1016 75 10000 3.1 130 22:41 19.12.2020
4615 Clear 8 1016 75 10000 3.1 130 22:20 19.12.2020
4616 Clear 8 1016 75 10000 3.6 150 21:44 19.12.2020
4617 Clear 8 1016 75 10000 3.6 150 21:25 19.12.2020
4618 Clear 8 1016 75 10000 2.1 150 20:55 19.12.2020
4619 Clear 9 1016 75 10000 4.6 120 20:24 19.12.2020
4620 Clear 9 1016 70 10000 4.1 140 19:58 19.12.2020
4621 Clear 9 1015 70 10000 4.6 160 19:38 19.12.2020
4622 Clear 9 1015 70 10000 4.6 160 19:19 19.12.2020
4623 Clear 9 1015 70 10000 2.6 160 18:33 19.12.2020
4624 Clear 9 1015 76 10000 3.6 160 17:56 19.12.2020
4625 Clear 9 1014 76 10000 4.6 170 17:31 19.12.2020
4626 Clear 9 1014 76 10000 3.6 170 16:58 19.12.2020
4627 Clear 10 1015 71 10000 4.6 180 16:38 19.12.2020
4628 Clear 10 1015 71 10000 4.6 180 16:38 19.12.2020
4629 Clear 10 1014 71 10000 5.1 170 16:20 19.12.2020
4630 Clear 11 1015 66 10000 4.1 200 15:49 19.12.2020
4631 Clear 11 1015 71 10000 4.1 170 15:20 19.12.2020
4632 Clear 11 1015 66 10000 4.6 180 14:37 19.12.2020
4633 Clear 11 1015 71 10000 3.6 180 13:42 19.12.2020
4634 Clear 10 1015 76 10000 5.7 190 13:23 19.12.2020
4635 Clear 9 1015 76 10000 5.7 190 12:57 19.12.2020
4636 Clear 10 1015 76 10000 4.1 170 12:39 19.12.2020
4637 Clear 9 1015 76 10000 4.1 170 12:21 19.12.2020
4638 Clear 8 1016 81 10000 4.1 160 11:48 19.12.2020
4639 Clear 7 1016 81 10000 4.6 160 11:19 19.12.2020
4640 Clear 6 1016 86 10000 3.6 150 10:42 19.12.2020
4641 Clear 6 1016 86 10000 4.1 150 10:18 19.12.2020
4642 Clear 5 1016 93 10000 3.6 170 09:41 19.12.2020
4643 Clear 4 1016 93 10000 4.6 160 08:59 19.12.2020
4644 Clear 5 1016 86 10000 2.6 140 08:18 19.12.2020
4645 Clear 5 1016 86 10000 5.1 150 07:20 19.12.2020
4646 Clear 5 1017 86 10000 3.6 150 06:49 19.12.2020
4647 Clear 6 1017 93 10000 3.6 170 05:24 19.12.2020
4648 Clear 6 1017 93 10000 3.6 160 03:50 19.12.2020
4649 Clear 6 1019 86 10000 3.1 150 00:42 19.12.2020
4650 Clear 6 1019 86 10000 3.1 150 00:22 19.12.2020
4651 Clear 6 1019 86 10000 2.6 160 23:52 18.12.2020
4652 Clear 6 1019 86 10000 2.6 160 23:33 18.12.2020
4653 Clear 6 1020 93 10000 2.1 150 22:59 18.12.2020
4654 Clear 6 1020 93 10000 2.1 150 22:41 18.12.2020
4655 Clear 6 1020 93 10000 2.1 140 22:19 18.12.2020
4656 Clear 6 1020 93 10000 2.1 140 21:46 18.12.2020
4657 Clear 7 1020 81 10000 4.6 170 21:25 18.12.2020
4658 Clear 7 1020 81 10000 2.1 160 20:26 18.12.2020
4659 Clear 7 1020 81 10000 2.6 170 19:51 18.12.2020
4660 Clear 8 1020 81 10000 3.1 180 19:25 18.12.2020
4661 Clear 8 1020 81 10000 3.1 180 18:48 18.12.2020
4662 Clear 8 1020 81 10000 3.1 180 18:28 18.12.2020
4663 Clear 8 1020 75 10000 4.1 170 17:59 18.12.2020
4664 Clear 8 1020 75 10000 3.1 160 17:21 18.12.2020
4665 Clear 9 1021 70 10000 3.1 170 16:48 18.12.2020
4666 Clear 9 1021 70 10000 3.1 170 16:26 18.12.2020
4667 Clear 9 1021 70 10000 4.6 190 15:54 18.12.2020
4668 Clear 9 1021 70 10000 4.6 190 15:36 18.12.2020
4669 Clear 9 1021 70 10000 4.1 190 15:18 18.12.2020
4670 Clear 9 1021 70 10000 4.1 190 14:51 18.12.2020
4671 Clouds 9 1022 76 10000 3.1 180 14:19 18.12.2020
4672 Clouds 9 1022 76 10000 2.6 190 13:45 18.12.2020
4673 Clouds 9 1022 76 10000 2.6 190 13:23 18.12.2020
4674 Clear 9 1022 75 10000 4.6 190 12:46 18.12.2020
4675 Clear 9 1022 75 10000 4.6 190 12:46 18.12.2020
4676 Clear 8 1022 81 10000 3.6 170 11:38 18.12.2020
4677 Clear 7 1022 87 10000 3.1 170 11:19 18.12.2020
4678 Clear 7 1022 81 10000 3.6 160 10:38 18.12.2020
4679 Clear 6 1022 86 10000 3.1 150 10:20 18.12.2020
4680 Clear 6 1022 86 10000 2.1 150 09:38 18.12.2020
4681 Clouds 6 1022 86 10000 3.1 160 09:20 18.12.2020
4682 Clouds 6 1022 86 10000 3.1 160 08:52 18.12.2020
4683 Clear 6 1022 86 10000 3.1 160 08:26 18.12.2020
4684 Clouds 6 1022 81 10000 2.6 160 07:20 18.12.2020
4685 Clouds 6 1022 86 10000 2.1 170 06:59 18.12.2020
4686 Clear 6 1022 87 10000 2.6 200 06:22 18.12.2020
4687 Clear 6 1022 87 10000 3.1 200 05:33 18.12.2020
4688 Clouds 6 1022 87 10000 3.1 210 04:50 18.12.2020
4689 Clouds 7 1022 81 10000 2.6 200 01:49 18.12.2020
4690 Clouds 7 1022 81 10000 2.1 200 01:22 18.12.2020
4691 Clouds 8 1022 75 10000 3.6 220 23:57 17.12.2020
4692 Clouds 8 1021 81 10000 3.1 230 23:25 17.12.2020
4693 Clouds 8 1021 81 10000 2.6 210 22:50 17.12.2020
4694 Clouds 8 1021 81 10000 2.6 210 22:28 17.12.2020
4695 Clouds 8 1021 81 10000 2.6 210 22:28 17.12.2020
4696 Clouds 8 1021 81 10000 3.6 230 21:47 17.12.2020
4697 Clouds 9 1021 81 10000 3.6 230 21:26 17.12.2020
4698 Clouds 9 1021 76 10000 4.6 240 20:59 17.12.2020
4699 Clouds 9 1021 76 10000 4.6 240 20:41 17.12.2020
4700 Clouds 10 1020 71 10000 4.1 230 20:18 17.12.2020
4701 Clouds 9 1020 76 10000 2.6 230 19:45 17.12.2020
4702 Clouds 9 1020 76 10000 2.6 230 19:23 17.12.2020
4703 Clouds 9 1020 76 10000 3.1 240 18:41 17.12.2020
4704 Clouds 10 1020 71 10000 4.1 240 18:23 17.12.2020
4705 Clouds 9 1020 76 10000 3.1 240 18:23 17.12.2020
4706 Clouds 10 1020 71 10000 4.1 240 17:53 17.12.2020
4707 Clouds 10 1019 76 10000 4.1 230 17:32 17.12.2020
4708 Clouds 10 1019 76 10000 5.1 240 16:45 17.12.2020
4709 Clouds 10 1019 76 10000 5.1 240 16:26 17.12.2020
4710 Clouds 10 1018 76 10000 4.6 240 15:52 17.12.2020
4711 Clouds 11 1018 81 10000 5.1 250 15:32 17.12.2020
4712 Clouds 11 1018 81 10000 5.1 250 14:55 17.12.2020
4713 Clouds 11 1018 81 10000 5.1 250 14:34 17.12.2020
4714 Clouds 11 1017 81 10000 5.1 240 13:58 17.12.2020
4715 Clouds 11 1017 81 10000 5.1 240 13:58 17.12.2020
4716 Clouds 10 1017 87 10000 4.6 220 13:35 17.12.2020
4717 Clouds 10 1017 87 10000 3.6 210 12:48 17.12.2020
4718 Clouds 10 1017 87 10000 3.6 210 12:25 17.12.2020
4719 Rain 9 1016 81 10000 5.1 200 11:45 17.12.2020
4720 Rain 9 1016 81 10000 5.1 200 11:25 17.12.2020
4721 Clouds 9 1016 76 10000 4.6 150 10:56 17.12.2020
4722 Clear 9 1015 81 10000 4.1 190 10:21 17.12.2020
4723 Clear 9 1015 81 10000 3.1 170 09:29 17.12.2020
4724 Clear 9 1015 81 10000 4.1 160 07:55 17.12.2020
4725 Clear 9 1015 81 10000 4.1 160 07:35 17.12.2020
4726 Clear 9 1015 81 10000 4.1 170 06:54 17.12.2020
4727 Clear 8 1015 81 10000 3.1 150 06:33 17.12.2020
4728 Clear 8 1015 81 10000 2.1 130 05:59 17.12.2020
4729 Clouds 7 1016 93 10000 2.6 110 00:40 17.12.2020
4730 Clouds 7 1017 93 10000 2.6 110 23:54 16.12.2020
4731 Clouds 8 1017 87 10000 3.1 140 23:22 16.12.2020
4732 Clouds 8 1017 87 10000 3.1 140 22:56 16.12.2020
4733 Clouds 8 1017 87 10000 3.1 140 22:35 16.12.2020
4734 Clouds 8 1017 87 10000 3.6 150 21:52 16.12.2020
4735 Clouds 8 1017 87 10000 3.6 150 21:34 16.12.2020
4736 Clouds 8 1017 87 10000 2.6 120 20:56 16.12.2020
4737 Clouds 9 1017 87 10000 2.1 120 20:37 16.12.2020
4738 Clouds 9 1017 87 10000 3.6 100 20:18 16.12.2020
4739 Clouds 9 1018 81 10000 1.5 130 19:20 16.12.2020
4740 Clouds 8 1018 87 10000 2.1 120 18:54 16.12.2020
4741 Clouds 9 1018 81 10000 1.5 110 18:29 16.12.2020
4742 Clouds 9 1018 81 10000 2.1 120 17:47 16.12.2020
4743 Clouds 9 1018 81 10000 2.1 120 17:28 16.12.2020
4744 Clouds 9 1018 81 10000 1.5 140 16:40 16.12.2020
4745 Clouds 10 1017 81 10000 3.1 130 16:21 16.12.2020
4746 Clouds 10 1017 81 10000 3.1 130 15:51 16.12.2020
4747 Clouds 10 1017 81 10000 3.1 130 15:28 16.12.2020
4748 Clouds 11 1018 76 10000 2.6 130 14:47 16.12.2020
4749 Clouds 11 1018 76 10000 2.6 130 14:28 16.12.2020
4750 Clouds 11 1018 76 10000 2.6 130 14:28 16.12.2020
4751 Clouds 10 1018 76 10000 2.6 140 13:49 16.12.2020
4752 Clouds 10 1018 81 10000 2.1 150 13:30 16.12.2020
4753 Clouds 9 1018 87 10000 1.5 120 12:56 16.12.2020
4754 Clouds 9 1019 87 10000 2.1 120 12:35 16.12.2020
4755 Mist 8 1019 93 4800 1 0 11:40 16.12.2020
4756 Mist 8 1019 93 4800 1 0 11:22 16.12.2020
4757 Fog 6 1018 100 1200 2.1 120 10:49 16.12.2020
4758 Fog 5 1018 100 1200 2.1 120 10:25 16.12.2020
4759 Fog 4 1018 100 150 2.1 90 09:43 16.12.2020
4760 Fog 4 1018 100 200 1.5 100 08:42 16.12.2020
4761 Fog 5 1018 100 200 1.5 110 07:57 16.12.2020
4762 Fog 6 1017 100 350 1.5 140 07:38 16.12.2020
4763 Fog 5 1018 100 350 1.5 100 06:52 16.12.2020
4764 Clouds 9 1016 93 10000 1 180 02:26 16.12.2020
4765 Clouds 9 1015 93 10000 1 260 00:26 16.12.2020
4766 Clouds 9 1014 93 10000 2.6 260 23:44 15.12.2020
4767 Clouds 9 1014 93 10000 2.6 250 22:47 15.12.2020
4768 Clouds 9 1014 93 10000 2.6 250 22:25 15.12.2020
4769 Clouds 9 1013 93 10000 3.1 240 21:57 15.12.2020
4770 Clouds 9 1013 93 10000 3.6 240 21:37 15.12.2020
4771 Clouds 9 1013 100 10000 3.1 240 21:19 15.12.2020
4772 Clouds 9 1013 100 10000 3.1 240 20:42 15.12.2020
4773 Clouds 9 1012 100 10000 2.1 220 20:23 15.12.2020
4774 Clouds 9 1012 100 10000 2.1 230 19:42 15.12.2020
4775 Rain 9 1012 100 10000 2.1 230 19:23 15.12.2020
4776 Clouds 9 1011 93 10000 2.1 200 18:39 15.12.2020
4777 Rain 9 1011 93 10000 2.1 200 18:21 15.12.2020
4778 Rain 9 1010 93 10000 2.1 190 17:44 15.12.2020
4779 Clouds 9 1010 93 10000 2.1 190 17:23 15.12.2020
4780 Rain 9 1010 93 10000 2.6 200 16:38 15.12.2020
4781 Rain 9 1010 93 10000 3.1 200 16:19 15.12.2020
4782 Clouds 9 1010 87 10000 3.6 200 15:37 15.12.2020
4783 Rain 9 1010 87 10000 1.5 220 15:18 15.12.2020
4784 Rain 9 1010 81 10000 1.5 200 14:41 15.12.2020
4785 Rain 9 1009 81 10000 2.6 200 14:19 15.12.2020
4786 Clouds 9 1010 81 10000 4.1 200 13:48 15.12.2020
4787 Clouds 9 1010 81 10000 2.1 170 13:23 15.12.2020
4788 Clouds 9 1010 81 10000 2.6 170 12:45 15.12.2020
4789 Clouds 9 1009 81 10000 4.1 190 12:19 15.12.2020
4790 Clouds 9 1009 81 10000 4.1 190 11:50 15.12.2020
4791 Clouds 9 1010 81 10000 3.1 200 11:22 15.12.2020
4792 Clouds 9 1009 81 10000 2.6 170 10:47 15.12.2020
4793 Clouds 8 1009 81 10000 2.6 170 10:20 15.12.2020
4794 Clouds 8 1009 81 10000 1.5 160 09:42 15.12.2020
4795 Clouds 8 1009 81 10000 1.5 160 09:23 15.12.2020
4796 Clouds 8 1009 75 10000 2.6 160 08:41 15.12.2020
4797 Clouds 8 1009 75 10000 2.6 160 08:21 15.12.2020
4798 Clouds 8 1008 81 10000 3.1 160 07:44 15.12.2020
4799 Clouds 8 1008 81 10000 2.1 120 06:59 15.12.2020
4800 Clear 9 1008 66 10000 3.6 170 05:37 15.12.2020
4801 Clear 7 1010 75 10000 3.1 180 00:39 15.12.2020
4802 Clear 7 1010 75 10000 2.6 160 23:51 14.12.2020
4803 Clear 8 1009 70 10000 3.1 170 23:19 14.12.2020
4804 Clear 8 1010 75 10000 2.1 150 22:44 14.12.2020
4805 Clear 8 1010 75 10000 3.1 170 22:19 14.12.2020
4806 Clear 8 1010 75 10000 3.1 180 21:40 14.12.2020
4807 Clear 8 1009 70 10000 4.1 190 21:18 14.12.2020
4808 Clear 8 1009 70 10000 4.1 190 21:18 14.12.2020
4809 Clear 8 1009 70 10000 3.1 190 20:46 14.12.2020
4810 Clear 8 1009 70 10000 3.1 190 20:27 14.12.2020
4811 Clouds 8 1009 75 10000 1.5 0 19:41 14.12.2020
4812 Clouds 8 1009 75 10000 1.5 0 19:23 14.12.2020
4813 Clouds 8 1009 81 10000 1.5 110 18:43 14.12.2020
4814 Clouds 8 1009 81 10000 1.5 110 18:23 14.12.2020
4815 Clouds 8 1009 81 10000 1.5 170 17:38 14.12.2020
4816 Clouds 9 1009 81 10000 1.5 180 17:19 14.12.2020
4817 Clouds 9 1009 81 10000 1.5 180 17:19 14.12.2020
4818 Clouds 9 1009 81 10000 1.5 180 16:40 14.12.2020
4819 Clouds 9 1009 81 10000 2.1 180 16:22 14.12.2020
4820 Clouds 9 1008 81 10000 4.6 190 15:33 14.12.2020
4821 Clouds 9 1008 81 10000 4.6 190 15:33 14.12.2020
4822 Rain 9 1008 81 10000 5.1 180 14:50 14.12.2020
4823 Clouds 9 1008 81 10000 5.1 180 14:29 14.12.2020
4824 Clouds 9 1008 81 10000 6.2 190 13:57 14.12.2020
4825 Clouds 9 1008 76 10000 6.7 190 13:35 14.12.2020
4826 Clouds 8 1009 81 10000 5.7 190 12:56 14.12.2020
4827 Rain 8 1009 81 10000 5.1 190 12:34 14.12.2020
4828 Clouds 8 1009 75 10000 5.1 180 11:58 14.12.2020
4829 Clouds 8 1009 75 10000 3.6 190 11:25 14.12.2020
4830 Clouds 8 1008 75 10000 3.6 160 10:28 14.12.2020
4831 Clouds 8 1008 75 10000 3.6 170 09:53 14.12.2020
4832 Clouds 7 1009 70 10000 4.1 170 09:25 14.12.2020
4833 Clouds 7 1008 75 10000 5.1 140 08:44 14.12.2020
4834 Clouds 7 1009 81 10000 4.6 160 08:23 14.12.2020
4835 Clouds 6 1009 81 10000 5.1 170 07:22 14.12.2020
4836 Clouds 7 1009 81 10000 3.6 150 06:43 14.12.2020
4837 Clear 6 1010 81 10000 4.1 160 03:58 14.12.2020
4838 Clear 7 1011 87 10000 4.1 160 02:23 14.12.2020
4839 Clear 6 1011 87 10000 3.6 150 00:49 14.12.2020
4840 Clear 6 1012 87 10000 3.1 180 00:27 14.12.2020
4841 Clouds 6 1011 93 10000 2.1 130 23:44 13.12.2020
4842 Clouds 7 1012 87 10000 2.1 140 22:58 13.12.2020
4843 Clouds 7 1012 87 10000 1.5 170 22:39 13.12.2020
4844 Clouds 7 1012 93 10000 1.5 170 22:18 13.12.2020
4845 Clouds 6 1011 93 8000 1 160 21:41 13.12.2020
4846 Clouds 7 1011 93 9000 1.5 150 20:55 13.12.2020
4847 Clouds 7 1011 93 9000 1.5 170 20:28 13.12.2020
4848 Clouds 7 1011 93 8000 1.5 180 19:48 13.12.2020
4849 Clouds 7 1011 93 8000 1.5 180 19:24 13.12.2020
4850 Mist 8 1011 93 5000 1 0 18:56 13.12.2020
4851 Mist 8 1011 93 5000 1.5 200 18:36 13.12.2020
4852 Mist 8 1011 100 4500 1.5 180 18:18 13.12.2020
4853 Mist 8 1011 100 5000 0.5 0 17:45 13.12.2020
4854 Clouds 8 1011 93 7000 0.5 0 17:18 13.12.2020
4855 Clouds 8 1011 93 7000 0.5 0 16:50 13.12.2020
4856 Rain 8 1011 93 7000 0.5 0 16:31 13.12.2020
4857 Clouds 8 1010 93 6000 0.5 240 15:46 13.12.2020
4858 Clouds 8 1010 93 6000 0.5 240 15:26 13.12.2020
4859 Clouds 8 1010 93 8000 1 230 14:47 13.12.2020
4860 Clouds 9 1010 93 8000 1.5 250 14:28 13.12.2020
4861 Clouds 9 1010 93 7000 2.1 260 13:48 13.12.2020
4862 Clouds 9 1010 93 7000 2.1 260 13:48 13.12.2020
4863 Clouds 9 1010 93 7000 2.1 260 13:30 13.12.2020
4864 Clouds 8 1010 93 6000 2.6 290 12:56 13.12.2020
4865 Mist 8 1009 100 3200 2.1 260 12:24 13.12.2020
4866 Mist 7 1010 100 1800 0.5 0 11:58 13.12.2020
4867 Mist 7 1009 100 1300 0.5 0 11:31 13.12.2020
4868 Fog 6 1009 100 800 1 0 10:43 13.12.2020
4869 Drizzle 6 1009 100 800 1 0 10:21 13.12.2020
4870 Drizzle 6 1008 100 2200 1.5 120 09:39 13.12.2020
4871 Drizzle 6 1007 100 1800 1.5 120 08:47 13.12.2020
4872 Drizzle 6 1007 100 1800 1.5 120 08:28 13.12.2020
4873 Mist 5 1007 100 2500 2.6 100 06:28 13.12.2020
4874 Mist 5 1005 100 1500 3.1 100 02:44 13.12.2020
4875 Mist 5 1005 100 2000 2.6 100 02:20 13.12.2020
4876 Mist 5 1005 100 3000 2.6 100 01:34 13.12.2020
4877 Clouds 5 1004 100 2200 2.1 100 00:44 13.12.2020
4878 Clouds 5 1004 100 2500 3.6 90 23:37 12.12.2020
4879 Clouds 5 1003 100 5000 2.6 90 23:19 12.12.2020
4880 Clouds 5 1003 100 7000 2.6 90 22:34 12.12.2020
4881 Clouds 6 1003 86 9000 3.6 90 21:46 12.12.2020
4882 Clouds 6 1002 86 9000 3.1 90 21:20 12.12.2020
4883 Clouds 6 1002 86 9000 2.6 100 20:45 12.12.2020
4884 Clouds 6 1002 86 9000 2.6 100 20:21 12.12.2020
4885 Clouds 6 1002 86 10000 2.6 110 19:52 12.12.2020
4886 Clouds 6 1002 86 10000 2.6 110 19:33 12.12.2020
4887 Clouds 6 1001 86 10000 2.1 110 18:56 12.12.2020
4888 Clouds 6 1001 86 10000 2.6 100 18:37 12.12.2020
4889 Clouds 6 1001 86 10000 2.6 100 18:18 12.12.2020
4890 Clouds 6 1001 86 10000 2.6 100 17:40 12.12.2020
4891 Clouds 6 1000 81 10000 2.1 110 16:42 12.12.2020
4892 Clouds 6 999 81 10000 2.6 120 15:57 12.12.2020
4893 Clouds 6 999 81 10000 2.6 120 15:57 12.12.2020
4894 Clouds 6 999 81 10000 2.1 110 15:39 12.12.2020
4895 Clouds 6 999 81 10000 2.1 120 14:54 12.12.2020
4896 Clouds 6 999 86 10000 2.1 120 14:21 12.12.2020
4897 Clouds 6 998 86 10000 2.6 110 13:41 12.12.2020
4898 Clouds 6 998 86 10000 2.6 110 13:22 12.12.2020
4899 Clouds 5 998 93 10000 2.6 110 12:33 12.12.2020
4900 Clouds 5 998 86 9000 2.6 110 11:20 12.12.2020
4901 Clouds 4 997 93 9000 3.1 110 10:45 12.12.2020
4902 Clouds 3 996 93 7000 2.6 100 09:24 12.12.2020
4903 Clouds 3 995 100 6000 3.1 110 07:42 12.12.2020
4904 Clear 3 995 84 10000 3.6 110 01:39 12.12.2020
4905 Clear 2 995 80 10000 3.6 100 23:21 11.12.2020
4906 Clouds 3 996 81 10000 3.6 110 20:57 11.12.2020
4907 Clouds 4 996 80 10000 4.1 120 19:42 11.12.2020
4908 Clouds 4 996 80 10000 5.1 130 16:52 11.12.2020
4909 Clouds 5 997 74 10000 6.7 150 14:37 11.12.2020
4910 Clouds 5 998 72 10000 6.2 150 13:42 11.12.2020
4911 Clouds 4 998 76 10000 5.1 140 12:22 11.12.2020
4912 Clouds 4 999 69 10000 5.7 140 11:54 11.12.2020
4913 Rain 4 999 74 10000 4.6 140 11:35 11.12.2020
4914 Clouds 4 999 74 10000 4.6 140 10:40 11.12.2020
4915 Clouds 3 1001 90 10000 3.6 140 07:31 11.12.2020
4916 Clouds 3 1002 90 10000 4.6 150 05:36 11.12.2020
4917 Mist 3 1003 93 4500 3.1 110 02:58 11.12.2020
4918 Mist 3 1005 100 4500 1.5 120 00:42 11.12.2020
4919 Mist 3 1006 100 4200 2.1 120 23:26 10.12.2020
4920 Mist 3 1006 100 3800 2.6 110 21:37 10.12.2020
4921 Mist 3 1006 100 4500 3.1 110 20:51 10.12.2020
4922 Clouds 3 1006 86 7000 2.6 110 19:53 10.12.2020
4923 Clouds 3 1007 86 8000 2.1 120 19:21 10.12.2020
4924 Clouds 3 1007 93 8000 2.6 120 18:45 10.12.2020
4925 Clouds 3 1007 100 7000 2.6 100 17:23 10.12.2020
4926 Clouds 3 1007 93 7000 3.1 100 15:52 10.12.2020
4927 Drizzle 3 1007 93 5000 2.6 100 14:59 10.12.2020
4928 Drizzle 3 1007 93 5000 3.6 90 14:39 10.12.2020
4929 Mist 4 1007 93 4500 2.6 100 13:26 10.12.2020
4930 Drizzle 4 1008 100 600 3.6 90 11:51 10.12.2020
4931 Drizzle 4 1008 100 800 2.6 100 10:46 10.12.2020
4932 Drizzle 3 1008 100 400 1 0 08:20 10.12.2020
4933 Mist 3 1008 93 4000 1.5 80 06:59 10.12.2020
4934 Drizzle 3 1008 93 5000 1.5 70 05:26 10.12.2020
4935 Drizzle 3 1009 93 7000 0.5 160 02:31 10.12.2020
4936 Clouds 3 1010 90 9000 0.5 200 01:18 10.12.2020
4937 Rain 3 1010 90 8000 1 0 23:35 09.12.2020
4938 Drizzle 3 1010 100 4000 1.5 200 20:37 09.12.2020
4939 Drizzle 3 1010 93 3000 1 0 19:38 09.12.2020
4940 Mist 3 1010 93 3000 1.5 200 18:21 09.12.2020
4941 Mist 3 1010 93 3000 0.5 270 16:54 09.12.2020
4942 Mist 4 1010 93 3200 1 280 16:25 09.12.2020
4943 Mist 3 1010 93 3200 1 250 15:38 09.12.2020
4944 Mist 4 1009 93 3500 1 0 14:49 09.12.2020
4945 Mist 4 1009 93 4000 0.5 0 14:24 09.12.2020
4946 Mist 4 1010 93 4500 1 0 13:19 09.12.2020
4947 Mist 4 1010 93 4500 1 0 12:47 09.12.2020
4948 Mist 4 1010 93 4500 1.5 140 11:55 09.12.2020
4949 Mist 4 1010 93 4500 2.6 110 11:27 09.12.2020
4950 Mist 4 1009 86 4500 3.1 90 09:50 09.12.2020
4951 Mist 3 1009 100 4000 3.1 70 08:27 09.12.2020
4952 Rain 3 1008 100 2500 3.1 90 06:18 09.12.2020
4953 Rain 3 1008 100 2200 3.1 90 04:46 09.12.2020
4954 Mist 3 1008 100 1800 4.1 90 02:22 09.12.2020
4955 Fog 3 1007 100 800 2.6 100 23:45 08.12.2020
4956 Fog 3 1007 100 600 3.1 100 23:21 08.12.2020
4957 Mist 3 1007 100 2000 3.6 90 21:35 08.12.2020
4958 Mist 3 1006 93 4500 2.1 70 19:46 08.12.2020
4959 Mist 3 1006 93 4500 2.1 70 19:46 08.12.2020
4960 Clouds 3 1006 93 7000 2.1 80 18:59 08.12.2020
4961 Clouds 4 1006 93 10000 3.1 70 18:27 08.12.2020
4962 Clouds 5 1005 86 10000 3.1 90 15:54 08.12.2020
4963 Clouds 6 1005 80 10000 2.1 90 14:34 08.12.2020
4964 Clear 6 1005 75 10000 3.1 100 13:36 08.12.2020
4965 Clear 6 1005 75 10000 2.6 110 12:32 08.12.2020
4966 Clouds 5 1005 80 10000 2.6 100 11:52 08.12.2020
4967 Clouds 4 1005 93 10000 2.6 90 10:50 08.12.2020
4968 Clouds 4 1005 93 10000 2.1 90 10:31 08.12.2020
4969 Clouds 3 1004 93 10000 2.1 80 08:57 08.12.2020
4970 Clouds 3 1004 86 10000 2.6 90 07:25 08.12.2020
4971 Clouds 4 1004 93 10000 2.6 90 03:43 08.12.2020
4972 Clouds 4 1004 86 10000 2.1 110 00:48 08.12.2020
4973 Clouds 4 1004 86 10000 1.5 100 00:25 08.12.2020
4974 Clouds 3 1003 93 10000 1.5 80 22:48 07.12.2020
4975 Clouds 3 1003 86 10000 1.5 110 21:58 07.12.2020
4976 Clouds 4 1003 86 10000 2.1 110 20:32 07.12.2020
4977 Clouds 6 1002 75 10000 3.1 170 18:47 07.12.2020
4978 Clouds 6 1001 75 10000 3.1 190 17:29 07.12.2020
4979 Clouds 6 1000 75 10000 2.6 200 16:55 07.12.2020
4980 Clouds 6 999 80 10000 5.1 200 15:47 07.12.2020
4981 Clouds 6 998 80 10000 5.7 200 15:19 07.12.2020
4982 Clouds 6 998 86 10000 5.1 200 14:19 07.12.2020
4983 Clouds 6 998 80 10000 5.7 200 13:23 07.12.2020
4984 Clouds 5 997 86 10000 5.1 210 11:44 07.12.2020
4985 Clouds 5 997 93 10000 4.1 190 11:19 07.12.2020
4986 Clouds 5 996 93 8000 2.1 180 09:56 07.12.2020
4987 Mist 4 995 93 3500 2.1 220 08:29 07.12.2020
4988 Rain 4 994 100 4000 0.5 0 06:44 07.12.2020
4989 Mist 4 995 100 3500 1 0 04:50 07.12.2020
4990 Mist 4 996 100 3500 0.5 0 01:57 07.12.2020
4991 Mist 4 997 100 4000 0.5 0 00:29 07.12.2020
4992 Mist 4 998 100 4500 0.5 0 22:28 06.12.2020
4993 Mist 4 998 93 5000 0.5 0 21:22 06.12.2020
4994 Clouds 4 998 93 6000 0.5 0 20:34 06.12.2020
4995 Clouds 4 998 100 6000 0.5 0 19:56 06.12.2020
4996 Clouds 4 999 93 7000 1 0 18:40 06.12.2020
4997 Clouds 4 999 93 8000 0.5 0 17:20 06.12.2020
4998 Clouds 4 999 86 9000 1 0 15:37 06.12.2020
4999 Clouds 4 999 86 9000 2.6 90 13:56 06.12.2020
5000 Clouds 4 1000 93 8000 2.1 70 12:52 06.12.2020
5001 Clouds 4 1000 93 8000 2.1 50 12:18 06.12.2020
5002 Clouds 4 1001 93 7000 1.5 80 11:34 06.12.2020
5003 Clouds 4 1000 93 7000 2.1 50 10:55 06.12.2020
5004 Rain 4 1000 93 7000 2.6 60 10:24 06.12.2020
5005 Clouds 4 1001 93 10000 2.1 60 08:37 06.12.2020
5006 Clouds 4 1001 93 10000 2.1 10 06:50 06.12.2020
5007 Clear 3 1002 93 10000 1 0 01:50 06.12.2020
5008 Clear 3 1003 93 10000 1 0 00:42 06.12.2020
5009 Clear 3 1003 93 10000 1 0 00:42 06.12.2020
5010 Clear 3 1003 93 10000 1 0 00:23 06.12.2020
5011 Clear 3 1004 93 10000 2.6 100 22:50 05.12.2020
5012 Clear 3 1004 93 10000 1.5 70 22:20 05.12.2020
5013 Clear 3 1004 93 10000 1.5 80 21:51 05.12.2020
5014 Clear 4 1003 86 10000 2.1 110 21:26 05.12.2020
5015 Clear 3 1003 86 10000 1 0 19:48 05.12.2020
5016 Clear 4 1002 80 10000 2.6 180 18:40 05.12.2020
5017 Clouds 4 1002 80 10000 4.1 160 17:33 05.12.2020
5018 Clouds 5 1002 86 10000 3.1 160 16:31 05.12.2020
5019 Clouds 5 1001 80 10000 3.6 170 15:57 05.12.2020
5020 Clouds 5 1000 86 10000 3.1 200 14:27 05.12.2020
5021 Clouds 4 998 93 10000 1 0 12:23 05.12.2020
5022 Clouds 4 998 93 10000 2.6 180 11:41 05.12.2020
5023 Clouds 3 997 93 10000 2.6 190 10:31 05.12.2020
5024 Rain 2 994 93 7000 1.5 110 07:48 05.12.2020
5025 Rain 1 993 88 8000 2.6 110 07:24 05.12.2020
5026 Snow 1 993 89 10000 2.6 90 03:55 05.12.2020
5027 Clear 3 993 80 10000 3.1 90 23:55 04.12.2020
5028 Clouds 3 993 80 10000 4.1 90 22:24 04.12.2020
5029 Rain 4 992 73 10000 3.6 80 20:25 04.12.2020
5030 Rain 4 992 74 10000 3.1 90 18:53 04.12.2020
5031 Clear 4 991 76 10000 3.1 90 18:19 04.12.2020
5032 Clear 5 991 81 10000 3.6 100 17:29 04.12.2020
5033 Clear 7 989 65 10000 3.6 140 15:39 04.12.2020
5034 Clear 7 990 70 10000 3.6 140 13:40 04.12.2020
5035 Clear 6 990 70 10000 3.6 140 13:21 04.12.2020
5036 Clear 6 989 70 10000 4.1 140 12:51 04.12.2020
5037 Rain 5 989 80 10000 6.7 170 10:40 04.12.2020
5038 Clouds 4 989 80 10000 3.6 110 09:46 04.12.2020
5039 Snow 2 988 86 10000 4.6 120 06:43 04.12.2020
5040 Snow 2 989 80 10000 4.6 110 05:59 04.12.2020
5041 Clouds 3 991 69 10000 4.1 150 01:57 04.12.2020
5042 Rain 3 994 64 10000 5.1 150 22:52 03.12.2020
5043 Clear 3 994 69 10000 6.7 160 22:30 03.12.2020
5044 Clouds 3 995 74 10000 6.2 150 20:49 03.12.2020
5045 Clouds 3 996 74 10000 6.2 160 19:29 03.12.2020
5046 Clouds 3 996 81 10000 5.7 170 18:53 03.12.2020
5047 Clouds 3 997 80 10000 5.1 160 17:53 03.12.2020
5048 Clouds 3 998 80 10000 4.6 160 17:18 03.12.2020
5049 Clouds 4 999 85 10000 5.1 160 15:55 03.12.2020
5050 Clouds 4 999 85 10000 3.6 150 15:30 03.12.2020
5051 Clouds 4 1000 81 10000 4.6 170 14:48 03.12.2020
5052 Clouds 4 1001 80 10000 3.1 170 13:36 03.12.2020
5053 Clouds 4 1002 86 10000 2.1 170 12:28 03.12.2020
5054 Clouds 4 1003 83 10000 2.6 170 11:31 03.12.2020
5055 Clouds 3 1004 85 10000 4.1 170 10:18 03.12.2020
5056 Clouds 3 1006 87 10000 2.6 140 06:27 03.12.2020
5057 Clouds 3 1009 80 10000 2.6 160 02:45 03.12.2020
5058 Clouds 3 1010 80 10000 2.1 150 00:57 03.12.2020
5059 Clouds 2 1012 80 10000 2.6 170 22:47 02.12.2020
5060 Clouds 2 1012 80 10000 2.6 160 22:26 02.12.2020
5061 Clouds 3 1013 69 10000 3.1 170 21:25 02.12.2020
5062 Clouds 3 1013 74 10000 2.6 190 20:46 02.12.2020
5063 Clouds 3 1013 74 10000 2.6 190 20:28 02.12.2020
5064 Clouds 3 1014 74 10000 2.1 210 18:39 02.12.2020
5065 Clouds 3 1015 74 10000 2.1 210 17:47 02.12.2020
5066 Clouds 3 1015 74 10000 2.1 210 17:28 02.12.2020
5067 Clouds 4 1016 80 9000 1.5 170 15:23 02.12.2020
5068 Clouds 4 1018 86 7000 2.6 100 12:45 02.12.2020
5069 Clouds 3 1020 93 6000 3.6 90 10:29 02.12.2020
5070 Clouds 3 1020 93 7000 2.6 80 09:27 02.12.2020
5071 Clouds 3 1021 93 6000 2.6 80 04:39 02.12.2020
5072 Mist 4 1020 93 4500 3.1 80 22:21 01.12.2020
5073 Mist 5 1020 100 3200 4.1 70 21:53 01.12.2020
5074 Clouds 4 1018 100 6000 3.1 90 19:36 01.12.2020
5075 Drizzle 4 1017 100 4000 3.6 90 18:18 01.12.2020
5076 Drizzle 4 1016 100 5000 1.5 120 16:37 01.12.2020
5077 Drizzle 5 1014 93 2800 2.1 150 13:39 01.12.2020
5078 Drizzle 4 1013 100 4500 1.5 150 12:25 01.12.2020
5079 Drizzle 4 1013 93 3500 2.1 150 11:27 01.12.2020
5080 Drizzle 4 1012 93 5000 2.6 170 10:39 01.12.2020
5081 Drizzle 4 1012 93 4500 2.1 170 09:24 01.12.2020
5082 Clouds 4 1011 86 10000 2.6 170 07:19 01.12.2020
5083 Rain 3 1011 93 10000 4.6 190 01:56 01.12.2020
5084 Rain 3 1012 93 10000 4.1 190 00:56 01.12.2020
5085 Rain 3 1013 86 10000 4.1 190 23:22 30.11.2020
5086 Rain 3 1014 93 10000 4.1 200 22:45 30.11.2020
5087 Rain 3 1014 93 10000 4.1 200 22:25 30.11.2020
5088 Rain 4 1015 86 10000 2.6 200 21:22 30.11.2020
5089 Rain 4 1017 74 10000 3.1 210 19:42 30.11.2020
5090 Clouds 3 1018 69 10000 2.6 190 18:24 30.11.2020
5091 Clouds 4 1018 69 10000 2.6 190 17:51 30.11.2020
5092 Clear 4 1019 69 10000 3.1 200 16:58 30.11.2020
5093 Clear 4 1020 69 10000 3.1 200 16:38 30.11.2020
5094 Clear 4 1022 69 10000 3.1 210 14:47 30.11.2020
5095 Clear 4 1022 69 10000 3.6 220 13:53 30.11.2020
5096 Clear 4 1022 69 10000 3.6 220 13:53 30.11.2020
5097 Clear 3 1024 74 10000 2.1 220 12:27 30.11.2020
5098 Clear 3 1024 74 10000 2.6 230 11:58 30.11.2020
5099 Clouds 3 1025 69 10000 1.5 220 10:28 30.11.2020
5100 Clouds 2 1025 74 10000 1.5 210 09:51 30.11.2020
5101 Clouds 2 1026 74 10000 1 250 07:18 30.11.2020
5102 Clouds 3 1027 86 10000 1 0 00:54 30.11.2020
5103 Clouds 3 1027 86 10000 1.5 320 21:55 29.11.2020
5104 Clouds 3 1027 86 10000 0.5 0 21:32 29.11.2020
5105 Clouds 3 1027 93 10000 0.5 0 20:38 29.11.2020
5106 Clouds 4 1027 86 10000 0.5 90 17:48 29.11.2020
5107 Clouds 4 1027 86 10000 1 50 16:29 29.11.2020
5108 Clouds 4 1027 80 10000 1 0 13:24 29.11.2020
5109 Clouds 3 1028 86 10000 1.5 100 11:49 29.11.2020
5110 Clouds 2 1028 82 10000 1 0 10:53 29.11.2020
5111 Clouds 1 1027 96 10000 0.5 20 08:39 29.11.2020
5112 Clouds 0 1026 92 10000 0.5 0 06:33 29.11.2020
5113 Clear 1 1027 86 10000 3.1 90 23:54 28.11.2020
5114 Clouds 3 1027 80 10000 3.1 110 22:56 28.11.2020
5115 Clouds 3 1026 74 10000 4.6 110 20:49 28.11.2020
5116 Clouds 3 1026 87 10000 5.1 100 19:50 28.11.2020
5117 Clouds 4 1025 88 10000 6.7 90 19:23 28.11.2020
5118 Clouds 4 1025 88 10000 6.2 100 18:44 28.11.2020
5119 Clouds 4 1024 86 10000 5.7 100 17:47 28.11.2020
5120 Clouds 5 1024 80 10000 5.1 90 16:44 28.11.2020
5121 Clouds 5 1024 75 10000 5.7 90 14:56 28.11.2020
5122 Clouds 6 1023 86 10000 4.1 130 13:18 28.11.2020
5123 Clouds 5 1023 93 7000 4.1 120 10:46 28.11.2020
5124 Clouds 5 1022 86 10000 4.1 130 06:42 28.11.2020
5125 Clouds 6 1022 93 6000 3.1 130 03:33 28.11.2020
5126 Clouds 6 1021 93 9000 3.6 130 01:50 28.11.2020
5127 Clouds 7 1021 87 10000 2.6 110 23:18 27.11.2020
5128 Clouds 7 1021 93 9000 2.6 120 21:33 27.11.2020
5129 Clouds 7 1021 93 10000 3.1 110 20:36 27.11.2020
5130 Clouds 8 1021 93 8000 2.6 100 19:30 27.11.2020
5131 Mist 8 1021 100 5000 2.1 90 18:44 27.11.2020
5132 Clouds 7 1021 93 6000 2.6 90 14:56 27.11.2020
5133 Mist 7 1021 93 5000 1.5 110 13:44 27.11.2020
5134 Mist 7 1021 100 4500 2.6 140 12:48 27.11.2020
5135 Drizzle 6 1021 100 2000 2.1 130 11:50 27.11.2020
5136 Drizzle 6 1021 100 1400 2.1 100 10:51 27.11.2020
5137 Drizzle 6 1021 93 1200 1.5 110 10:22 27.11.2020
5138 Clouds 6 1020 93 10000 0.45 90 07:29 27.11.2020
5139 Clouds 8 1020 94 10000 0.87 232 22:29 26.11.2020
5140 Mist 8 1020 93 3200 0.5 0 21:57 26.11.2020
5141 Mist 8 1020 93 3200 0.5 0 21:25 26.11.2020
5142 Mist 8 1020 100 3500 1.5 230 19:24 26.11.2020
5143 Drizzle 8 1020 100 2500 1.5 210 18:30 26.11.2020
5144 Mist 8 1020 100 4500 2.1 260 16:20 26.11.2020
5145 Mist 8 1020 93 4500 3.1 260 13:43 26.11.2020
5146 Drizzle 9 1020 93 10000 3.1 260 12:44 26.11.2020
5147 Drizzle 9 1020 93 10000 3.1 260 12:23 26.11.2020
5148 Clouds 9 1020 87 10000 3.6 240 10:38 26.11.2020
5149 Clouds 8 1019 81 10000 2.6 210 09:48 26.11.2020
5150 Clouds 8 1019 81 10000 2.6 210 09:30 26.11.2020
5151 Clouds 8 1019 81 10000 2.1 210 08:39 26.11.2020
5152 Clouds 8 1019 87 10000 2.1 220 06:55 26.11.2020
5153 Clouds 5 1018 86 10000 2.6 170 23:54 25.11.2020
5154 Clear 5 1018 86 10000 2.1 180 21:26 25.11.2020
5155 Clear 5 1018 86 10000 1.5 160 19:56 25.11.2020
5156 Clear 5 1018 80 10000 2.6 190 18:28 25.11.2020
5157 Clear 6 1017 75 10000 3.1 180 17:23 25.11.2020
5158 Clear 8 1017 75 10000 3.1 190 15:41 25.11.2020
5159 Clear 9 1017 70 10000 2.6 180 13:58 25.11.2020
5160 Clear 9 1017 70 10000 2.1 160 13:38 25.11.2020
5161 Clear 8 1017 75 10000 3.1 160 12:26 25.11.2020
5162 Clear 7 1017 81 10000 3.1 160 11:20 25.11.2020
5163 Clear 4 1017 93 10000 1.5 150 09:19 25.11.2020
5164 Clear 4 1017 86 10000 1.5 120 08:47 25.11.2020
5165 Clear 4 1018 93 10000 2.6 160 05:18 25.11.2020
5166 Clear 4 1018 86 10000 2.6 160 02:53 25.11.2020
5167 Clear 4 1020 93 10000 1.5 160 00:28 25.11.2020
5168 Clear 4 1020 93 10000 2.6 160 23:55 24.11.2020
5169 Clear 4 1020 93 10000 2.1 160 23:34 24.11.2020
5170 Clear 5 1021 86 10000 1.5 160 21:52 24.11.2020
5171 Clear 5 1021 86 10000 2.1 170 21:31 24.11.2020
5172 Clouds 5 1021 86 10000 2.6 180 20:45 24.11.2020
5173 Clouds 6 1022 87 10000 2.6 170 18:57 24.11.2020
5174 Clouds 7 1022 81 10000 3.1 190 17:31 24.11.2020
5175 Clouds 8 1022 81 10000 2.6 190 16:54 24.11.2020
5176 Clouds 8 1022 81 10000 3.6 200 16:35 24.11.2020
5177 Clouds 9 1022 76 10000 3.1 190 15:54 24.11.2020
5178 Clouds 9 1022 76 10000 2.6 200 15:19 24.11.2020
5179 Clouds 9 1023 76 10000 3.1 200 14:43 24.11.2020
5180 Clouds 9 1023 76 10000 4.1 220 12:55 24.11.2020
5181 Clouds 9 1024 81 10000 3.6 210 12:22 24.11.2020
5182 Clouds 9 1024 81 10000 3.6 210 11:58 24.11.2020
5183 Clouds 8 1024 87 10000 3.1 190 10:47 24.11.2020
5184 Clouds 7 1024 87 10000 3.6 200 10:25 24.11.2020
5185 Clouds 7 1024 87 10000 3.1 200 09:35 24.11.2020
5186 Clouds 6 1024 87 10000 3.6 200 08:26 24.11.2020
5187 Clear 3 1025 93 10000 2.1 150 04:49 24.11.2020
5188 Clear 3 1025 93 10000 2.1 150 04:49 24.11.2020
5189 Clear 4 1027 86 10000 2.6 200 23:28 23.11.2020
5190 Clear 4 1028 86 10000 0.5 0 21:38 23.11.2020
5191 Clear 4 1028 86 10000 1.5 200 20:57 23.11.2020
5192 Clear 4 1028 86 10000 1 210 20:28 23.11.2020
5193 Clear 5 1027 86 10000 2.1 220 19:36 23.11.2020
5194 Clear 7 1027 81 10000 2.6 240 17:27 23.11.2020
5195 Clouds 8 1027 75 10000 2.6 250 16:54 23.11.2020
5196 Clouds 10 1027 70 10000 5.1 270 14:49 23.11.2020
5197 Clouds 10 1026 70 10000 5.1 270 13:54 23.11.2020
5198 Clear 9 1026 75 10000 5.1 270 12:39 23.11.2020
5199 Clear 9 1027 75 10000 5.1 270 11:50 23.11.2020
5200 Clear 8 1026 81 10000 4.6 270 11:30 23.11.2020
5201 Clear 7 1025 86 10000 3.6 260 09:46 23.11.2020
5202 Clear 6 1025 80 10000 3.1 260 08:49 23.11.2020
5203 Clear 6 1024 86 10000 3.6 260 07:34 23.11.2020
5204 Clouds 6 1023 87 10000 3.6 250 01:45 23.11.2020
5205 Clouds 6 1024 87 10000 2.6 250 23:41 22.11.2020
5206 Clouds 7 1024 87 10000 2.6 250 22:19 22.11.2020
5207 Clear 8 1024 87 10000 2.6 250 21:23 22.11.2020
5208 Clear 9 1023 81 10000 2.1 260 19:59 22.11.2020
5209 Clouds 9 1023 75 10000 3.1 260 18:57 22.11.2020
5210 Clear 9 1023 81 10000 3.1 270 17:54 22.11.2020
5211 Clouds 11 1022 81 10000 4.6 270 15:58 22.11.2020
5212 Clouds 11 1022 76 10000 6.2 260 14:54 22.11.2020
5213 Clouds 12 1022 81 10000 5.7 260 12:50 22.11.2020
5214 Clouds 11 1022 87 10000 5.7 270 12:31 22.11.2020
5215 Clouds 11 1023 87 10000 6.2 260 11:36 22.11.2020
5216 Drizzle 10 1023 93 10000 6.2 260 10:47 22.11.2020
5217 Clouds 10 1022 93 10000 6.7 260 10:29 22.11.2020
5218 Clouds 9 1023 87 10000 5.1 240 01:50 22.11.2020
5219 Clouds 9 1024 76 10000 6.7 240 23:54 21.11.2020
5220 Clouds 9 1024 76 10000 6.2 230 22:40 21.11.2020
5221 Clouds 9 1024 76 10000 6.2 230 21:30 21.11.2020
5222 Clouds 8 1025 81 10000 4.6 230 20:49 21.11.2020
5223 Clouds 8 1025 81 10000 5.1 220 19:58 21.11.2020
5224 Clouds 8 1025 81 10000 5.1 220 19:37 21.11.2020
5225 Clouds 8 1025 81 10000 5.7 220 18:39 21.11.2020
5226 Clouds 8 1026 87 10000 3.6 220 17:29 21.11.2020
5227 Drizzle 7 1026 87 10000 5.1 210 16:44 21.11.2020
5228 Clouds 7 1026 81 10000 6.2 210 15:23 21.11.2020
5229 Clouds 7 1026 81 10000 5.7 220 14:48 21.11.2020
5230 Clouds 7 1026 81 10000 4.6 220 14:27 21.11.2020
5231 Clouds 7 1028 75 10000 5.7 220 12:42 21.11.2020
5232 Clouds 7 1028 75 10000 5.7 220 12:20 21.11.2020
5233 Clouds 6 1028 75 10000 5.1 210 10:57 21.11.2020
5234 Clouds 6 1028 75 10000 4.1 200 10:26 21.11.2020
5235 Clouds 5 1029 70 10000 3.6 190 08:51 21.11.2020
5236 Clear 4 1030 74 10000 3.6 190 06:51 21.11.2020
5237 Clear 2 1032 78 10000 2.6 170 04:39 21.11.2020
5238 Clear 2 1034 93 10000 2.6 190 01:32 21.11.2020
5239 Clear 2 1034 86 10000 2.1 200 23:59 20.11.2020
5240 Clear 2 1034 93 10000 1 200 22:26 20.11.2020
5241 Clouds 2 1033 93 10000 1.5 220 21:42 20.11.2020
5242 Clouds 2 1033 93 10000 1.5 220 21:21 20.11.2020
5243 Clear 3 1033 86 10000 1.5 240 19:46 20.11.2020
5244 Clear 4 1033 86 10000 1.5 240 18:50 20.11.2020
5245 Clear 5 1033 80 10000 3.1 260 17:53 20.11.2020
5246 Clouds 5 1033 80 10000 3.1 260 17:27 20.11.2020
5247 Clouds 6 1032 81 10000 3.6 260 16:39 20.11.2020
5248 Clouds 6 1032 81 10000 2.6 260 15:58 20.11.2020
5249 Clouds 7 1032 81 10000 4.1 270 15:26 20.11.2020
5250 Clouds 7 1033 87 10000 3.6 260 13:46 20.11.2020
5251 Clouds 7 1032 93 10000 2.6 260 13:18 20.11.2020
5252 Clouds 6 1033 86 9000 4.1 330 12:35 20.11.2020
5253 Clouds 7 1032 81 10000 4.1 280 11:45 20.11.2020
5254 Clouds 7 1031 86 10000 4.1 290 10:55 20.11.2020
5255 Clouds 5 1030 86 10000 2.6 250 08:53 20.11.2020
5256 Clouds 5 1030 86 10000 3.1 240 08:25 20.11.2020
5257 Clouds 4 1029 93 10000 2.1 260 07:32 20.11.2020
5258 Clear 4 1028 86 10000 3.1 260 03:44 20.11.2020
5259 Clouds 5 1025 80 10000 3.6 270 22:35 19.11.2020
5260 Clouds 5 1025 80 10000 3.6 270 21:55 19.11.2020
5261 Clouds 5 1025 80 10000 3.1 260 21:34 19.11.2020
5262 Clear 6 1024 80 10000 4.1 280 20:31 19.11.2020
5263 Clear 6 1024 86 10000 4.6 280 19:49 19.11.2020
5264 Clear 6 1023 86 10000 3.6 270 19:23 19.11.2020
5265 Clouds 8 1020 75 10000 5.7 310 17:39 19.11.2020
5266 Clouds 8 1019 75 10000 6.2 310 16:48 19.11.2020
5267 Clouds 10 1017 87 10000 6.7 300 15:32 19.11.2020
5268 Clouds 10 1016 76 10000 7.2 260 14:39 19.11.2020
5269 Clouds 11 1015 71 10000 8.2 260 13:45 19.11.2020
5270 Clouds 11 1015 71 10000 8.2 260 13:18 19.11.2020
5271 Clouds 11 1015 71 10000 8.7 250 12:34 19.11.2020
5272 Clouds 11 1015 66 10000 9.3 250 11:44 19.11.2020
5273 Clouds 11 1015 66 10000 9.3 250 11:25 19.11.2020
5274 Clouds 11 1014 66 10000 7.2 250 10:52 19.11.2020
5275 Clouds 11 1014 66 10000 7.2 250 09:58 19.11.2020
5276 Clouds 10 1014 66 10000 8.2 270 09:37 19.11.2020
5277 Clouds 10 1014 76 10000 6.2 260 09:18 19.11.2020
5278 Clouds 11 1014 71 10000 6.7 250 07:59 19.11.2020
5279 Clouds 13 1013 76 10000 5.1 230 02:20 19.11.2020
5280 Rain 13 1014 62 10000 4.6 210 00:56 19.11.2020
5281 Clear 12 1014 66 10000 4.6 190 23:47 18.11.2020
5282 Clear 12 1014 66 10000 4.6 190 23:24 18.11.2020
5283 Clear 12 1015 71 10000 2.6 140 22:30 18.11.2020
5284 Clear 12 1015 71 10000 4.1 190 21:45 18.11.2020
5285 Clear 12 1016 71 10000 3.6 190 21:27 18.11.2020
5286 Clear 11 1016 81 10000 4.1 190 20:40 18.11.2020
5287 Clear 11 1017 81 10000 3.1 190 19:45 18.11.2020
5288 Clear 11 1017 81 10000 3.1 190 19:24 18.11.2020
5289 Clear 11 1018 81 10000 4.1 180 18:48 18.11.2020
5290 Clear 11 1018 81 10000 3.6 190 17:55 18.11.2020
5291 Clear 12 1019 76 10000 3.1 180 16:58 18.11.2020
5292 Clear 13 1020 71 10000 3.1 200 16:21 18.11.2020
5293 Clouds 14 1021 71 10000 3.6 200 14:43 18.11.2020
5294 Clouds 13 1021 71 10000 3.6 200 14:25 18.11.2020
5295 Clouds 14 1022 71 10000 4.1 210 13:37 18.11.2020
5296 Clouds 14 1023 71 10000 3.1 210 12:45 18.11.2020
5297 Clouds 13 1023 71 10000 3.6 210 11:57 18.11.2020
5298 Clouds 13 1024 71 10000 3.6 220 11:25 18.11.2020
5299 Clouds 13 1024 76 10000 3.6 200 10:30 18.11.2020
5300 Clouds 12 1024 81 10000 3.1 200 08:52 18.11.2020
5301 Clouds 11 1024 81 10000 3.1 210 07:36 18.11.2020
5302 Clouds 12 1024 87 10000 4.1 220 06:28 18.11.2020
5303 Clouds 12 1025 87 10000 4.1 240 00:22 18.11.2020
5304 Clouds 12 1024 87 10000 5.1 250 23:30 17.11.2020
5305 Drizzle 13 1024 81 10000 5.1 240 22:45 17.11.2020
5306 Drizzle 13 1024 81 10000 5.1 240 22:27 17.11.2020
5307 Clouds 12 1024 81 10000 4.6 240 21:48 17.11.2020
5308 Clouds 12 1024 87 10000 4.6 230 21:28 17.11.2020
5309 Drizzle 12 1024 93 10000 4.1 240 20:43 17.11.2020
5310 Drizzle 12 1024 93 10000 4.1 240 20:23 17.11.2020
5311 Drizzle 12 1023 93 10000 4.1 230 19:44 17.11.2020
5312 Drizzle 12 1023 93 10000 4.6 240 18:23 17.11.2020
5313 Drizzle 12 1023 87 10000 5.1 240 17:28 17.11.2020
5314 Drizzle 13 1023 87 10000 6.7 240 16:36 17.11.2020
5315 Clouds 13 1022 87 10000 5.7 250 15:57 17.11.2020
5316 Clouds 12 1022 87 10000 5.7 250 15:36 17.11.2020
5317 Clouds 12 1022 87 10000 6.2 250 14:58 17.11.2020
5318 Clouds 12 1022 87 10000 6.2 250 14:30 17.11.2020
5319 Clouds 12 1021 93 10000 6.2 240 13:45 17.11.2020
5320 Clouds 12 1021 93 10000 6.2 240 13:21 17.11.2020
5321 Clouds 12 1021 93 10000 6.2 240 13:21 17.11.2020
5322 Clouds 12 1021 93 10000 5.1 240 12:41 17.11.2020
5323 Drizzle 12 1021 93 5000 5.1 230 11:44 17.11.2020
5324 Drizzle 11 1021 100 4500 5.1 230 10:57 17.11.2020
5325 Drizzle 11 1021 93 6000 5.1 220 10:37 17.11.2020
5326 Rain 11 1021 87 10000 4.6 230 09:51 17.11.2020
5327 Drizzle 11 1020 93 5000 4.1 230 09:32 17.11.2020
5328 Drizzle 11 1020 93 10000 5.1 230 08:25 17.11.2020
5329 Clouds 11 1020 81 10000 5.1 230 07:56 17.11.2020
5330 Clouds 11 1020 81 10000 4.1 230 07:26 17.11.2020
5331 Clouds 10 1020 81 10000 3.1 230 04:28 17.11.2020
5332 Clouds 10 1020 81 10000 3.1 230 02:55 17.11.2020
5333 Clouds 10 1020 87 10000 4.6 240 01:31 17.11.2020
5334 Clouds 10 1019 87 10000 3.6 230 00:56 17.11.2020
5335 Clouds 11 1019 76 10000 6.2 250 23:51 16.11.2020
5336 Clouds 11 1019 76 10000 6.2 250 23:51 16.11.2020
5337 Clouds 11 1019 81 10000 4.6 250 23:29 16.11.2020
5338 Clouds 12 1018 81 10000 5.1 250 22:48 16.11.2020
5339 Clouds 12 1018 81 10000 5.1 250 22:21 16.11.2020
5340 Clouds 12 1017 81 10000 5.1 250 21:48 16.11.2020
5341 Clouds 12 1017 87 10000 3.6 250 21:25 16.11.2020
5342 Clouds 11 1017 87 10000 4.1 250 20:54 16.11.2020
5343 Clouds 11 1017 87 10000 4.6 250 20:25 16.11.2020
5344 Clouds 12 1016 87 10000 4.6 240 19:39 16.11.2020
5345 Clouds 12 1016 87 10000 4.6 240 19:21 16.11.2020
5346 Clouds 12 1016 87 10000 4.6 240 18:42 16.11.2020
5347 Clouds 12 1015 87 10000 5.1 240 17:53 16.11.2020
5348 Clouds 12 1015 81 10000 5.7 240 17:25 16.11.2020
5349 Clouds 12 1014 81 10000 6.2 250 16:56 16.11.2020
5350 Clouds 12 1014 81 10000 6.7 250 16:36 16.11.2020
5351 Clouds 12 1014 81 10000 6.7 250 16:18 16.11.2020
5352 Clouds 12 1013 81 10000 6.2 250 15:41 16.11.2020
5353 Clouds 12 1012 71 10000 5.7 240 15:21 16.11.2020
5354 Clouds 13 1012 71 10000 5.7 240 14:39 16.11.2020
5355 Clouds 13 1011 71 10000 6.2 230 13:33 16.11.2020
5356 Clouds 13 1011 71 10000 7.2 250 12:34 16.11.2020
5357 Clouds 13 1010 71 10000 6.2 240 11:44 16.11.2020
5358 Clouds 12 1010 71 10000 6.2 240 11:25 16.11.2020
5359 Clouds 12 1010 71 10000 6.2 240 10:51 16.11.2020
5360 Clouds 12 1010 71 10000 6.2 240 10:27 16.11.2020
5361 Clouds 11 1009 76 10000 6.2 230 09:59 16.11.2020
5362 Clouds 11 1009 76 10000 5.1 220 09:40 16.11.2020
5363 Clouds 11 1008 76 10000 4.6 220 08:49 16.11.2020
5364 Clouds 10 1008 76 10000 4.1 220 08:27 16.11.2020
5365 Clouds 10 1007 76 10000 3.6 210 07:43 16.11.2020
5366 Clouds 11 1007 71 10000 5.7 230 06:47 16.11.2020
5367 Clouds 11 1007 71 10000 5.7 230 06:47 16.11.2020
5368 Clouds 11 1006 66 10000 6.2 220 05:50 16.11.2020
5369 Clouds 10 1006 66 10000 5.1 220 04:33 16.11.2020
5370 Clear 11 1005 81 10000 4.6 240 01:47 16.11.2020
5371 Clear 11 1005 76 10000 5.1 220 01:47 16.11.2020
5372 Clear 11 1005 81 10000 4.6 240 01:21 16.11.2020
5373 Rain 11 1004 81 10000 5.7 260 23:43 15.11.2020
5374 Rain 12 1004 81 10000 5.7 260 23:21 15.11.2020
5375 Rain 14 1002 67 10000 6.2 190 22:37 15.11.2020
5376 Clouds 15 1002 71 10000 5.7 170 22:18 15.11.2020
5377 Clouds 14 1002 71 10000 4.1 160 21:37 15.11.2020
5378 Clouds 14 1002 71 10000 5.1 160 21:19 15.11.2020
5379 Rain 14 1003 67 10000 6.2 180 20:40 15.11.2020
5380 Rain 14 1003 67 10000 6.2 170 19:59 15.11.2020
5381 Rain 15 1004 62 10000 6.7 180 19:41 15.11.2020
5382 Clear 15 1004 62 10000 6.7 180 19:21 15.11.2020
5383 Clear 15 1004 67 10000 4.1 160 18:45 15.11.2020
5384 Clear 15 1004 67 10000 4.1 160 18:25 15.11.2020
5385 Clear 15 1004 67 10000 4.6 140 17:59 15.11.2020
5386 Clear 15 1005 67 10000 5.1 140 17:40 15.11.2020
5387 Clear 15 1005 67 10000 5.1 140 17:22 15.11.2020
5388 Clear 15 1005 67 10000 6.2 160 16:44 15.11.2020
5389 Clear 16 1005 67 10000 6.2 160 16:19 15.11.2020
5390 Clear 16 1006 63 10000 4.1 190 15:44 15.11.2020
5391 Clear 17 1006 63 10000 4.1 190 15:25 15.11.2020
5392 Clear 17 1007 67 10000 5.1 190 14:54 15.11.2020
5393 Clear 17 1007 63 10000 7.2 190 14:26 15.11.2020
5394 Clear 17 1008 63 10000 5.7 190 13:44 15.11.2020
5395 Clear 17 1008 63 10000 5.7 190 13:25 15.11.2020
5396 Clear 17 1009 63 10000 3.1 180 12:47 15.11.2020
5397 Clear 16 1009 67 10000 3.1 170 12:19 15.11.2020
5398 Clear 16 1009 67 10000 6.2 190 11:44 15.11.2020
5399 Clear 15 1009 67 10000 6.2 190 11:19 15.11.2020
5400 Clear 15 1009 71 10000 4.6 190 10:51 15.11.2020
5401 Clear 14 1010 76 10000 5.1 180 10:30 15.11.2020
5402 Clear 14 1010 76 10000 6.7 190 09:52 15.11.2020
5403 Clear 13 1011 71 10000 4.1 180 09:32 15.11.2020
5404 Clear 13 1011 71 10000 3.6 170 08:55 15.11.2020
5405 Clear 13 1011 76 10000 3.1 170 08:32 15.11.2020
5406 Clear 13 1011 71 10000 3.6 170 07:44 15.11.2020
5407 Clear 13 1011 76 10000 1.5 0 06:42 15.11.2020
5408 Clear 13 1011 67 10000 4.6 200 04:53 15.11.2020
5409 Clear 13 1012 71 10000 4.6 190 01:54 15.11.2020
5410 Clear 13 1013 76 10000 4.6 190 00:30 15.11.2020
5411 Clear 13 1014 76 10000 3.6 190 23:44 14.11.2020
5412 Clear 13 1014 76 10000 3.6 180 22:54 14.11.2020
5413 Clear 13 1014 76 10000 4.6 190 22:34 14.11.2020
5414 Clear 13 1014 76 10000 4.6 190 21:56 14.11.2020
5415 Clear 13 1014 81 10000 2.6 180 21:37 14.11.2020
5416 Clear 13 1014 81 10000 3.6 190 21:19 14.11.2020
5417 Clear 13 1014 81 10000 3.1 170 20:37 14.11.2020
5418 Clear 12 1014 81 10000 3.1 170 20:19 14.11.2020
5419 Clear 11 1014 81 10000 1.5 120 19:36 14.11.2020
5420 Clear 12 1014 81 10000 1.5 120 18:57 14.11.2020
5421 Clear 12 1014 87 10000 1 0 18:38 14.11.2020
5422 Clear 12 1014 82 10000 2.1 150 18:20 14.11.2020
5423 Clear 13 1015 82 10000 2.1 160 17:42 14.11.2020
5424 Clear 13 1015 82 10000 2.1 160 17:23 14.11.2020
5425 Clear 14 1015 82 10000 2.1 150 16:51 14.11.2020
5426 Clear 14 1015 82 10000 2.1 150 16:26 14.11.2020
5427 Clear 15 1015 77 10000 2.1 180 15:53 14.11.2020
5428 Clear 15 1015 77 10000 2.1 180 15:53 14.11.2020
5429 Clear 15 1015 77 10000 3.1 180 15:30 14.11.2020
5430 Clear 15 1016 77 10000 2.6 160 14:50 14.11.2020
5431 Clear 15 1016 77 10000 1.5 150 14:28 14.11.2020
5432 Clouds 15 1016 82 10000 1 0 13:50 14.11.2020
5433 Clouds 15 1016 82 10000 2.1 210 13:27 14.11.2020
5434 Clouds 15 1017 82 10000 2.6 210 12:49 14.11.2020
5435 Clouds 15 1017 82 10000 2.6 210 12:49 14.11.2020
5436 Clouds 15 1017 87 10000 4.1 210 12:30 14.11.2020
5437 Clouds 14 1017 87 10000 2.6 200 11:49 14.11.2020
5438 Clouds 14 1017 87 10000 2.6 190 11:30 14.11.2020
5439 Clouds 14 1017 87 10000 2.6 190 10:51 14.11.2020
5440 Clouds 13 1017 87 10000 2.6 190 10:27 14.11.2020
5441 Clouds 13 1017 93 10000 2.1 180 09:58 14.11.2020
5442 Clouds 12 1017 100 10000 1.5 170 09:39 14.11.2020
5443 Clouds 12 1017 100 10000 1.5 170 09:21 14.11.2020
5444 Clouds 11 1017 100 10000 1 150 08:40 14.11.2020
5445 Clouds 11 1017 100 10000 1.5 160 07:55 14.11.2020
5446 Clouds 11 1017 100 10000 1.5 190 07:36 14.11.2020
5447 Clouds 12 1017 93 8000 2.6 210 06:37 14.11.2020
5448 Clouds 12 1017 93 4400 2.1 230 06:19 14.11.2020
5449 Clouds 12 1016 100 8000 2.1 200 04:30 14.11.2020
5450 Clouds 12 1017 87 10000 2.6 200 01:29 14.11.2020
5451 Clouds 12 1016 93 10000 3.1 210 23:54 13.11.2020
5452 Clouds 12 1016 93 10000 3.1 210 23:54 13.11.2020
5453 Clouds 12 1016 93 10000 3.1 220 23:33 13.11.2020
5454 Drizzle 12 1016 93 10000 3.1 210 22:56 13.11.2020
5455 Clouds 12 1016 81 10000 3.6 220 22:38 13.11.2020
5456 Clouds 12 1016 81 10000 3.6 220 22:19 13.11.2020
5457 Clouds 12 1016 81 10000 2.6 210 21:42 13.11.2020
5458 Clouds 12 1016 81 10000 2.6 210 21:22 13.11.2020
5459 Clouds 12 1015 87 10000 2.6 210 20:50 13.11.2020
5460 Clouds 12 1015 81 10000 2.6 200 20:23 13.11.2020
5461 Clouds 11 1015 81 10000 1.5 190 19:47 13.11.2020
5462 Clouds 11 1015 87 10000 2.1 170 19:24 13.11.2020
5463 Clouds 11 1015 81 10000 2.6 180 18:58 13.11.2020
5464 Clouds 11 1015 81 10000 3.1 170 18:30 13.11.2020
5465 Clear 10 1015 81 10000 2.6 160 17:43 13.11.2020
5466 Clear 10 1015 81 10000 2.6 150 17:20 13.11.2020
5467 Clear 10 1015 81 10000 2.6 150 16:50 13.11.2020
5468 Clouds 10 1016 81 10000 1.5 150 16:25 13.11.2020
5469 Clouds 10 1016 81 10000 2.6 170 15:55 13.11.2020
5470 Clouds 10 1016 81 10000 2.6 170 15:32 13.11.2020
5471 Clouds 11 1016 76 10000 2.6 170 14:52 13.11.2020
5472 Clouds 11 1016 76 10000 3.1 170 14:28 13.11.2020
5473 Clouds 11 1016 76 10000 3.6 160 13:54 13.11.2020
5474 Clouds 11 1017 71 10000 4.1 190 13:31 13.11.2020
5475 Clear 10 1017 71 10000 3.6 170 12:52 13.11.2020
5476 Clear 10 1018 76 10000 4.1 190 12:27 13.11.2020
5477 Clear 10 1018 81 10000 4.6 180 11:56 13.11.2020
5478 Clear 10 1018 81 10000 4.6 170 11:37 13.11.2020
5479 Clear 9 1018 81 10000 3.6 170 10:59 13.11.2020
5480 Clear 9 1018 81 10000 3.1 160 10:41 13.11.2020
5481 Clear 9 1018 81 10000 3.1 160 10:22 13.11.2020
5482 Clear 8 1019 87 10000 3.1 160 09:47 13.11.2020
5483 Clear 7 1018 93 10000 2.6 160 09:25 13.11.2020
5484 Clear 6 1019 93 10000 2.1 150 08:52 13.11.2020
5485 Clear 5 1019 93 10000 1.5 160 08:22 13.11.2020
5486 Clouds 5 1018 93 10000 1.5 170 07:48 13.11.2020
5487 Clouds 5 1018 93 10000 1 170 07:27 13.11.2020
5488 Clouds 5 1018 93 10000 1.5 160 06:50 13.11.2020
5489 Clear 5 1019 93 10000 2.1 180 06:20 13.11.2020
5490 Clear 5 1019 93 10000 1.5 190 05:39 13.11.2020
5491 Clouds 7 1019 87 10000 2.1 220 02:22 13.11.2020
5492 Clouds 8 1019 87 10000 2.1 230 01:36 13.11.2020
5493 Clouds 8 1019 81 10000 3.1 230 00:34 13.11.2020
5494 Clear 9 1019 81 10000 2.6 230 23:47 12.11.2020
5495 Clear 9 1019 87 10000 2.6 210 23:20 12.11.2020
5496 Clouds 9 1019 81 10000 3.1 250 22:54 12.11.2020
5497 Clouds 10 1019 76 10000 5.1 260 22:36 12.11.2020
5498 Clouds 9 1018 81 10000 3.1 250 21:57 12.11.2020
5499 Clear 9 1018 81 10000 3.6 240 21:38 12.11.2020
5500 Clouds 9 1018 87 10000 1.5 180 21:18 12.11.2020
5501 Clouds 9 1018 93 10000 1.5 170 20:40 12.11.2020
5502 Clouds 9 1018 93 10000 1.5 170 20:22 12.11.2020
5503 Clouds 9 1018 93 10000 1.5 160 19:52 12.11.2020
5504 Rain 9 1018 93 10000 1.5 180 19:33 12.11.2020
5505 Clouds 9 1017 87 10000 2.6 190 18:56 12.11.2020
5506 Clouds 9 1017 87 10000 2.6 190 18:56 12.11.2020
5507 Clouds 9 1017 87 10000 3.1 200 18:37 12.11.2020
5508 Clouds 9 1017 87 10000 3.1 180 18:18 12.11.2020
5509 Clouds 9 1017 81 10000 3.1 180 17:39 12.11.2020
5510 Clear 10 1017 81 10000 3.6 190 17:20 12.11.2020
5511 Clouds 10 1017 81 10000 4.1 200 16:44 12.11.2020
5512 Clouds 10 1017 81 10000 4.1 200 16:23 12.11.2020
5513 Clouds 11 1017 81 10000 4.6 210 15:46 12.11.2020
5514 Clouds 11 1017 81 10000 4.6 210 15:26 12.11.2020
5515 Clouds 11 1017 81 10000 4.6 200 14:47 12.11.2020
5516 Clouds 12 1017 81 10000 4.6 200 14:27 12.11.2020
5517 Clouds 12 1017 81 10000 4.6 200 14:27 12.11.2020
5518 Clouds 11 1017 81 10000 3.6 180 13:57 12.11.2020
5519 Rain 11 1017 81 10000 4.1 200 13:37 12.11.2020
5520 Clouds 11 1017 81 10000 3.6 200 13:18 12.11.2020
5521 Clouds 11 1017 81 10000 3.6 170 12:44 12.11.2020
5522 Rain 11 1017 81 10000 3.6 170 12:23 12.11.2020
5523 Clouds 11 1017 81 10000 5.7 200 11:52 12.11.2020
5524 Clouds 10 1017 81 10000 5.7 200 11:30 12.11.2020
5525 Clouds 10 1017 87 10000 2.6 150 10:45 12.11.2020
5526 Clouds 9 1017 87 10000 2.6 150 10:27 12.11.2020
5527 Clear 9 1017 93 10000 3.1 180 09:49 12.11.2020
5528 Clear 9 1017 87 10000 2.6 140 09:23 12.11.2020
5529 Clouds 8 1017 87 9000 2.6 160 08:57 12.11.2020
5530 Clouds 7 1017 100 7000 2.1 120 08:39 12.11.2020
5531 Clouds 7 1017 100 6000 2.6 110 08:20 12.11.2020
5532 Clouds 6 1017 100 6000 2.6 110 07:52 12.11.2020
5533 Clouds 6 1017 93 7000 2.6 110 07:25 12.11.2020
5534 Clouds 6 1018 93 6000 2.6 120 06:50 12.11.2020
5535 Mist 5 1018 93 5000 2.6 120 05:38 12.11.2020
5536 Clouds 6 1020 100 7000 1.5 130 03:24 12.11.2020
5537 Clouds 6 1020 93 7000 1.5 110 02:53 12.11.2020
5538 Clouds 7 1021 100 6000 1 0 00:22 12.11.2020
5539 Mist 6 1022 93 3500 1 0 23:26 11.11.2020
5540 Mist 6 1022 93 3500 1.5 120 22:59 11.11.2020
5541 Mist 7 1022 93 3500 2.1 110 22:40 11.11.2020
5542 Mist 7 1022 93 3500 2.1 110 22:21 11.11.2020
5543 Mist 8 1022 93 5000 2.1 110 21:54 11.11.2020
5544 Mist 8 1022 93 5000 2.1 120 21:36 11.11.2020
5545 Mist 8 1022 93 5000 1.5 120 21:18 11.11.2020
5546 Mist 9 1022 93 5000 2.1 120 20:41 11.11.2020
5547 Mist 9 1022 93 5000 2.1 120 20:21 11.11.2020
5548 Mist 9 1022 93 5000 2.1 120 19:49 11.11.2020
5549 Mist 10 1023 93 5000 2.6 120 19:31 11.11.2020
5550 Mist 10 1023 93 4700 2.1 110 18:55 11.11.2020
5551 Mist 10 1023 93 4400 2.6 100 18:35 11.11.2020
5552 Mist 10 1023 93 4500 3.1 90 17:43 11.11.2020
5553 Mist 11 1023 93 4500 3.1 90 17:23 11.11.2020
5554 Mist 11 1024 87 4800 2.6 90 16:56 11.11.2020
5555 Mist 11 1024 87 5000 2.6 90 16:34 11.11.2020
5556 Clouds 11 1024 93 6000 1.5 40 15:53 11.11.2020
5557 Clouds 12 1024 93 6000 1.5 50 15:27 11.11.2020
5558 Clouds 12 1024 87 9000 0.5 0 14:59 11.11.2020
5559 Clouds 12 1024 87 9000 1 0 14:38 11.11.2020
5560 Clouds 12 1024 87 10000 2.1 110 14:18 11.11.2020
5561 Clouds 11 1024 87 10000 2.1 110 13:38 11.11.2020
5562 Clouds 11 1024 87 10000 2.6 100 12:52 11.11.2020
5563 Clouds 10 1025 93 10000 1.5 90 12:21 11.11.2020
5564 Clouds 10 1025 87 10000 2.1 100 11:50 11.11.2020
5565 Clouds 10 1025 87 10000 2.1 100 11:50 11.11.2020
5566 Clouds 9 1026 93 10000 2.6 80 11:30 11.11.2020
5567 Clouds 9 1026 93 9000 1.5 110 10:43 11.11.2020
5568 Clouds 8 1026 93 9000 1.5 110 10:25 11.11.2020
5569 Clouds 8 1026 100 7000 2.6 90 09:52 11.11.2020
5570 Clouds 8 1026 93 7000 2.1 80 09:29 11.11.2020
5571 Clouds 7 1026 93 6000 2.6 90 08:57 11.11.2020
5572 Clouds 7 1026 93 6000 2.1 80 08:36 11.11.2020
5573 Clouds 7 1026 93 6000 1 0 08:18 11.11.2020
5574 Clouds 7 1026 93 6000 1.5 110 07:41 11.11.2020
5575 Mist 7 1026 100 4500 2.1 110 06:30 11.11.2020
5576 Mist 6 1026 100 3200 1 0 04:48 11.11.2020
5577 Fog 5 1027 100 900 2.1 110 01:35 11.11.2020
5578 Fog 5 1027 100 700 2.1 120 00:55 11.11.2020
5579 Fog 5 1027 100 900 2.1 120 00:22 11.11.2020
5580 Mist 5 1027 100 2300 2.6 120 23:25 10.11.2020
5581 Mist 5 1027 100 1600 2.6 110 22:59 10.11.2020
5582 Fog 5 1027 100 1500 2.6 120 22:37 10.11.2020
5583 Fog 5 1027 100 800 2.6 120 22:19 10.11.2020
5584 Fog 5 1027 100 800 2.6 120 22:19 10.11.2020
5585 Fog 5 1027 100 800 2.6 110 21:40 10.11.2020
5586 Fog 5 1027 93 900 3.1 110 21:22 10.11.2020
5587 Fog 5 1027 100 900 3.1 120 20:43 10.11.2020
5588 Fog 5 1027 100 900 3.1 120 20:23 10.11.2020
5589 Mist 5 1027 100 1200 2.6 110 19:58 10.11.2020
5590 Mist 5 1027 100 1700 3.1 110 19:39 10.11.2020
5591 Mist 5 1027 100 1700 3.1 110 19:21 10.11.2020
5592 Mist 5 1027 93 3600 3.1 110 18:42 10.11.2020
5593 Mist 5 1027 93 4500 2.6 130 18:21 10.11.2020
5594 Mist 5 1027 93 5000 3.6 120 17:47 10.11.2020
5595 Mist 5 1027 93 5000 3.6 120 17:28 10.11.2020
5596 Mist 5 1027 93 5000 3.6 130 16:58 10.11.2020
5597 Mist 6 1027 93 5000 3.1 110 16:40 10.11.2020
5598 Clouds 5 1027 93 6000 3.6 110 16:22 10.11.2020
5599 Clouds 5 1027 93 6000 2.6 120 15:48 10.11.2020
5600 Clouds 5 1027 93 6000 2.6 120 15:27 10.11.2020
5601 Clouds 5 1027 93 6000 3.6 120 14:47 10.11.2020
5602 Clouds 5 1027 93 6000 3.6 120 14:24 10.11.2020
5603 Mist 5 1027 93 4200 3.6 140 14:00 10.11.2020
5604 Mist 5 1027 93 3800 4.1 130 13:38 10.11.2020
5605 Mist 5 1027 93 3800 3.6 120 13:19 10.11.2020
5606 Mist 5 1027 93 3800 3.1 140 12:45 10.11.2020
5607 Mist 5 1027 93 3800 3.1 140 12:24 10.11.2020
5608 Mist 5 1027 93 3800 3.1 140 12:24 10.11.2020
5609 Mist 5 1027 93 3800 3.6 140 11:43 10.11.2020
5610 Mist 5 1027 93 3800 3.6 140 11:21 10.11.2020
5611 Mist 5 1027 100 3500 3.6 130 11:21 10.11.2020
5612 Mist 5 1027 100 3500 3.6 130 10:56 10.11.2020
5613 Mist 5 1027 93 2700 3.1 140 10:37 10.11.2020
5614 Mist 5 1027 93 2700 3.1 120 10:19 10.11.2020
5615 Mist 5 1027 100 2700 2.6 120 09:42 10.11.2020
5616 Mist 5 1027 100 2700 2.6 120 09:24 10.11.2020
5617 Mist 5 1027 100 2700 2.6 120 09:24 10.11.2020
5618 Mist 5 1027 100 2700 3.1 120 08:52 10.11.2020
5619 Mist 5 1027 100 3500 5.1 120 08:26 10.11.2020
5620 Mist 5 1026 100 3500 3.6 130 07:44 10.11.2020
5621 Mist 5 1026 100 3500 3.6 130 07:22 10.11.2020
5622 Mist 5 1026 93 4000 3.6 120 06:40 10.11.2020
5623 Mist 5 1026 100 3000 3.6 120 05:42 10.11.2020
5624 Mist 5 1026 93 2500 3.6 110 04:54 10.11.2020
5625 Mist 5 1026 93 2500 3.1 120 02:28 10.11.2020
5626 Mist 5 1026 93 2000 3.1 110 01:29 10.11.2020
5627 Mist 6 1026 100 3000 3.6 110 23:54 09.11.2020
5628 Mist 6 1026 100 3000 3.6 110 23:30 09.11.2020
5629 Mist 6 1026 100 3000 2.6 120 22:44 09.11.2020
5630 Mist 6 1026 100 3000 2.6 120 22:24 09.11.2020
5631 Mist 6 1026 100 3700 4.1 120 21:46 09.11.2020
5632 Mist 6 1026 100 3700 4.1 120 21:27 09.11.2020
5633 Mist 6 1026 93 4000 3.6 130 20:46 09.11.2020
5634 Mist 6 1026 93 4000 3.6 130 20:25 09.11.2020
5635 Clouds 6 1026 93 6000 2.6 130 19:59 09.11.2020
5636 Clouds 6 1026 93 6000 2.1 110 19:40 09.11.2020
5637 Clouds 6 1026 93 6000 2.1 110 19:21 09.11.2020
5638 Clouds 7 1026 87 6000 2.6 120 18:41 09.11.2020
5639 Clouds 7 1026 87 6000 2.6 120 18:41 09.11.2020
5640 Clouds 7 1026 87 6000 3.1 110 18:20 09.11.2020
5641 Clouds 7 1025 87 7000 3.1 110 17:48 09.11.2020
5642 Clouds 7 1025 87 7000 3.1 110 17:29 09.11.2020
5643 Clouds 7 1025 93 8000 4.6 90 16:46 09.11.2020
5644 Clouds 7 1025 93 8000 4.6 90 16:27 09.11.2020
5645 Clouds 7 1025 93 8000 4.6 100 15:51 09.11.2020
5646 Clouds 7 1025 93 8000 5.1 100 15:30 09.11.2020
5647 Clouds 7 1025 93 8000 5.7 90 14:57 09.11.2020
5648 Clouds 6 1025 87 8000 5.1 90 14:37 09.11.2020
5649 Clouds 6 1025 87 8000 5.1 90 14:19 09.11.2020
5650 Clouds 6 1025 87 8000 3.6 110 13:43 09.11.2020
5651 Clouds 7 1025 87 8000 3.6 110 13:19 09.11.2020
5652 Clouds 7 1025 87 8000 3.6 110 13:19 09.11.2020
5653 Clouds 5 1026 93 8000 4.6 100 12:46 09.11.2020
5654 Clouds 7 1026 93 8000 4.6 100 12:21 09.11.2020
5655 Clouds 5 1025 100 8000 4.1 90 11:43 09.11.2020
5656 Clouds 5 1025 100 8000 4.1 90 11:43 09.11.2020
5657 Clouds 5 1025 100 8000 4.1 90 11:25 09.11.2020
5658 Clouds 5 1026 100 8000 5.1 100 10:59 09.11.2020
5659 Clouds 5 1026 93 8000 4.6 100 10:41 09.11.2020
5660 Clouds 5 1026 93 8000 4.6 100 10:22 09.11.2020
5661 Clouds 5 1025 93 7000 4.1 100 09:40 09.11.2020
5662 Clouds 5 1025 93 7000 4.1 100 09:22 09.11.2020
5663 Mist 5 1025 93 4700 4.1 100 08:29 09.11.2020
5664 Mist 5 1025 93 4200 3.6 100 07:57 09.11.2020
5665 Mist 5 1024 93 4700 3.6 100 07:24 09.11.2020
5666 Mist 5 1024 93 5000 3.1 100 06:58 09.11.2020
5667 Mist 5 1024 100 5000 3.6 100 05:54 09.11.2020
5668 Clouds 6 1024 93 8000 2.1 100 02:57 09.11.2020
5669 Clear 6 1024 100 10000 2.6 100 01:41 09.11.2020
5670 Clear 6 1024 100 10000 2.6 100 00:56 09.11.2020
5671 Clear 6 1024 100 10000 2.6 100 23:50 08.11.2020
5672 Clear 6 1024 93 10000 2.1 100 23:28 08.11.2020
5673 Clear 7 1024 93 10000 4.1 90 22:43 08.11.2020
5674 Clear 7 1024 93 10000 4.1 90 22:22 08.11.2020
5675 Clear 7 1024 93 10000 3.1 100 21:49 08.11.2020
5676 Clear 7 1024 93 10000 2.6 100 21:24 08.11.2020
5677 Clear 7 1024 93 10000 2.6 100 20:57 08.11.2020
5678 Clear 7 1024 87 10000 2.1 100 20:38 08.11.2020
5679 Clear 8 1024 87 10000 2.6 90 20:20 08.11.2020
5680 Clear 8 1024 87 10000 2.6 90 19:46 08.11.2020
5681 Clear 8 1024 87 10000 2.6 90 19:24 08.11.2020
5682 Clear 8 1023 87 10000 2.6 90 18:59 08.11.2020
5683 Clear 8 1023 81 10000 1 50 18:40 08.11.2020
5684 Clear 9 1023 81 10000 1 50 18:20 08.11.2020
5685 Clear 10 1023 76 10000 1.5 100 17:56 08.11.2020
5686 Clear 10 1023 71 10000 1 0 17:36 08.11.2020
5687 Clear 11 1023 66 10000 0.5 0 17:18 08.11.2020
5688 Clear 13 1023 58 10000 1 0 16:38 08.11.2020
5689 Clear 13 1023 58 10000 1 0 16:20 08.11.2020
5690 Clear 14 1023 54 10000 1.5 150 15:46 08.11.2020
5691 Clear 15 1023 54 10000 1.5 150 15:27 08.11.2020
5692 Clear 15 1023 54 10000 1.5 150 15:27 08.11.2020
5693 Clear 15 1023 51 10000 2.1 140 14:44 08.11.2020
5694 Clear 15 1023 51 10000 2.1 140 14:24 08.11.2020
5695 Clear 15 1023 51 10000 2.1 150 13:56 08.11.2020
5696 Clear 15 1024 51 10000 2.1 160 13:26 08.11.2020
5697 Clear 15 1024 51 10000 2.1 160 13:26 08.11.2020
5698 Clear 15 1024 54 10000 2.1 150 12:59 08.11.2020
5699 Clear 14 1024 54 10000 2.1 0 12:40 08.11.2020
5700 Clear 14 1024 54 10000 2.1 0 12:20 08.11.2020
5701 Clear 14 1024 58 10000 2.6 130 11:55 08.11.2020
5702 Clear 12 1024 62 10000 2.6 120 11:37 08.11.2020
5703 Clear 12 1024 62 10000 2.6 120 11:19 08.11.2020
5704 Clear 11 1024 70 10000 1 0 10:42 08.11.2020
5705 Clear 10 1024 75 10000 1 0 10:18 08.11.2020
5706 Clear 10 1023 87 10000 1 0 09:42 08.11.2020
5707 Clear 7 1023 87 10000 1 0 09:22 08.11.2020
5708 Clear 6 1023 93 10000 2.6 110 08:45 08.11.2020
5709 Clear 5 1023 93 10000 2.6 110 08:23 08.11.2020
5710 Clear 5 1023 93 10000 3.1 110 07:53 08.11.2020
5711 Clear 5 1023 93 10000 4.1 90 07:31 08.11.2020
5712 Clear 6 1023 93 10000 2.6 100 06:29 08.11.2020
5713 Clear 6 1023 93 10000 3.6 90 05:54 08.11.2020
5714 Clear 5 1023 93 10000 3.6 100 04:51 08.11.2020
5715 Clear 6 1023 93 10000 3.6 90 02:44 08.11.2020
5716 Clear 7 1023 93 10000 2.1 80 01:19 08.11.2020
5717 Clear 7 1023 93 10000 3.1 90 01:19 08.11.2020
5718 Clear 6 1023 93 10000 2.1 90 00:31 08.11.2020
5719 Clear 6 1023 93 10000 1.5 100 23:56 07.11.2020
5720 Clear 6 1023 93 10000 1.5 70 23:37 07.11.2020
5721 Clear 7 1023 93 10000 1 80 23:18 07.11.2020
5722 Clear 7 1024 93 10000 1.5 70 22:39 07.11.2020
5723 Clear 7 1024 93 10000 1.5 70 22:20 07.11.2020
5724 Clear 7 1024 87 10000 1 0 21:40 07.11.2020
5725 Clear 8 1024 87 10000 1 0 21:19 07.11.2020
5726 Clear 8 1024 81 10000 1.5 100 20:46 07.11.2020
5727 Clear 8 1024 81 10000 1.5 100 20:28 07.11.2020
5728 Clear 9 1024 75 10000 1 100 19:48 07.11.2020
5729 Clear 9 1024 81 10000 1.5 100 19:27 07.11.2020
5730 Clear 9 1024 76 10000 1.5 120 18:45 07.11.2020
5731 Clear 9 1024 76 10000 1.5 120 18:26 07.11.2020
5732 Clear 10 1023 71 10000 1 0 17:53 07.11.2020
5733 Clear 11 1024 66 10000 1.16 180 17:34 07.11.2020
5734 Clear 11 1024 58 10000 1 0 16:47 07.11.2020
5735 Clear 12 1024 58 10000 1 0 16:26 07.11.2020
5736 Clear 13 1024 54 10000 1.5 150 15:58 07.11.2020
5737 Clear 14 1024 50 10000 2.1 150 15:40 07.11.2020
5738 Clear 14 1024 50 10000 2.1 150 15:20 07.11.2020
5739 Clear 14 1025 50 10000 2.1 130 14:42 07.11.2020
5740 Clear 14 1025 50 10000 2.1 130 14:24 07.11.2020
5741 Clear 13 1025 54 10000 2.1 180 13:50 07.11.2020
5742 Clear 13 1025 54 10000 2.1 180 13:29 07.11.2020
5743 Clear 13 1025 54 10000 2.6 170 12:42 07.11.2020
5744 Clear 13 1026 57 10000 2.6 160 12:19 07.11.2020
5745 Clear 12 1026 57 10000 3.1 160 11:41 07.11.2020
5746 Clear 11 1026 57 10000 3.1 160 11:22 07.11.2020
5747 Clear 10 1026 70 10000 2.1 120 10:45 07.11.2020
5748 Clear 9 1026 70 10000 2.1 120 10:25 07.11.2020
5749 Clear 8 1026 80 10000 3.1 140 09:49 07.11.2020
5750 Clear 6 1026 80 10000 3.1 140 09:26 07.11.2020
5751 Clear 5 1027 80 10000 2.6 120 08:53 07.11.2020
5752 Clouds 5 1027 93 6000 2.1 120 08:34 07.11.2020
5753 Mist 4 1027 100 5000 2.6 80 07:49 07.11.2020
5754 Mist 4 1027 93 5000 2.6 100 07:18 07.11.2020
5755 Mist 5 1027 93 5000 3.1 110 06:47 07.11.2020
5756 Clouds 6 1028 93 7000 3.6 110 04:43 07.11.2020
5757 Clouds 7 1028 93 7000 3.1 110 03:23 07.11.2020
5758 Clouds 8 1029 93 6000 2.6 130 01:28 07.11.2020
5759 Mist 9 1030 100 5000 2.1 130 00:41 07.11.2020
5760 Mist 9 1030 100 3700 2.6 140 23:49 06.11.2020
5761 Mist 9 1031 100 2800 1.5 120 23:20 06.11.2020
5762 Mist 9 1031 93 3500 2.6 110 22:41 06.11.2020
5763 Mist 9 1031 93 2800 2.1 110 22:19 06.11.2020
5764 Mist 9 1031 93 2800 2.1 110 22:19 06.11.2020
5765 Mist 9 1031 93 3500 2.6 120 21:44 06.11.2020
5766 Mist 10 1031 93 3500 2.6 120 21:21 06.11.2020
5767 Mist 9 1031 93 3500 3.1 130 20:51 06.11.2020
5768 Mist 10 1032 93 5000 2.6 120 20:22 06.11.2020
5769 Mist 10 1032 93 5000 2.6 120 19:55 06.11.2020
5770 Clouds 10 1032 93 6000 2.1 120 19:37 06.11.2020
5771 Clouds 10 1032 93 6000 2.1 120 19:19 06.11.2020
5772 Clear 10 1032 87 10000 1.5 120 18:44 06.11.2020
5773 Clear 10 1032 87 10000 2.1 120 18:22 06.11.2020
5774 Clear 10 1032 81 10000 2.1 110 17:51 06.11.2020
5775 Clear 11 1032 81 10000 2.1 110 17:25 06.11.2020
5776 Clear 11 1032 81 10000 1.5 100 16:49 06.11.2020
5777 Clouds 12 1032 81 10000 2.6 90 16:27 06.11.2020
5778 Clouds 13 1033 71 10000 1.5 160 15:49 06.11.2020
5779 Clouds 13 1033 71 10000 1.5 160 15:28 06.11.2020
5780 Clouds 13 1033 71 10000 0.5 0 14:53 06.11.2020
5781 Clouds 13 1033 71 10000 1 0 14:26 06.11.2020
5782 Clouds 13 1034 71 10000 1.5 230 13:46 06.11.2020
5783 Clouds 13 1034 71 10000 1.5 230 13:24 06.11.2020
5784 Clouds 13 1034 71 10000 1.5 280 12:46 06.11.2020
5785 Clouds 13 1034 71 10000 1.5 280 12:23 06.11.2020
5786 Clouds 13 1035 76 10000 1.5 240 11:49 06.11.2020
5787 Clouds 11 1035 81 10000 1 0 11:28 06.11.2020
5788 Clouds 9 1035 87 10000 1.5 280 10:44 06.11.2020
5789 Clouds 9 1035 87 10000 1.5 280 10:25 06.11.2020
5790 Clouds 10 1035 87 10000 1 0 09:49 06.11.2020
5791 Clouds 9 1035 93 9000 1.5 260 09:22 06.11.2020
5792 Clouds 9 1035 93 7000 1 0 08:51 06.11.2020
5793 Clouds 9 1035 93 7000 1.5 230 08:29 06.11.2020
5794 Clouds 9 1035 93 7000 1 0 07:53 06.11.2020
5795 Clouds 9 1035 93 4500 1.5 280 07:34 06.11.2020
5796 Clouds 9 1035 93 6000 2.1 270 06:58 06.11.2020
5797 Clouds 9 1035 93 8000 2.1 280 06:24 06.11.2020
5798 Clouds 9 1035 93 10000 2.6 270 04:42 06.11.2020
5799 Clear 9 1036 87 10000 2.6 260 01:22 06.11.2020
5800 Clouds 9 1036 81 10000 2.6 260 00:21 06.11.2020
5801 Clear 10 1036 81 10000 3.1 260 23:32 05.11.2020
5802 Clear 10 1036 81 10000 3.1 260 22:58 05.11.2020
5803 Clear 9 1036 81 10000 3.1 260 22:39 05.11.2020
5804 Clear 9 1036 81 10000 2.6 260 22:20 05.11.2020
5805 Clear 9 1036 81 10000 2.6 250 21:43 05.11.2020
5806 Clear 9 1036 81 10000 2.6 250 21:22 05.11.2020
5807 Clear 9 1036 81 10000 3.1 260 20:55 05.11.2020
5808 Clear 9 1036 87 10000 3.1 250 20:37 05.11.2020
5809 Clouds 9 1036 87 10000 3.1 250 20:18 05.11.2020
5810 Clear 8 1036 87 10000 3.1 250 19:41 05.11.2020
5811 Clear 8 1036 87 10000 3.1 250 19:22 05.11.2020
5812 Clear 9 1036 81 10000 3.6 250 18:45 05.11.2020
5813 Clear 9 1036 81 10000 3.6 250 18:26 05.11.2020
5814 Clear 9 1036 81 10000 3.1 240 17:52 05.11.2020
5815 Clouds 9 1036 81 10000 3.1 250 17:29 05.11.2020
5816 Clouds 9 1036 81 10000 3.1 240 16:59 05.11.2020
5817 Clouds 9 1036 81 10000 3.6 250 16:40 05.11.2020
5818 Clouds 10 1036 76 10000 4.1 250 16:19 05.11.2020
5819 Clouds 10 1037 76 10000 4.1 260 15:44 05.11.2020
5820 Clouds 11 1037 76 10000 4.1 260 15:22 05.11.2020
5821 Clouds 12 1037 71 10000 5.1 280 14:46 05.11.2020
5822 Clouds 12 1037 71 10000 5.1 280 14:26 05.11.2020
5823 Clouds 12 1037 76 10000 4.6 260 13:42 05.11.2020
5824 Clouds 11 1037 76 10000 4.6 260 13:23 05.11.2020
5825 Clouds 10 1037 76 10000 4.1 250 12:50 05.11.2020
5826 Clouds 10 1038 76 10000 4.1 250 12:25 05.11.2020
5827 Clear 10 1038 81 10000 4.1 260 11:54 05.11.2020
5828 Clear 8 1038 87 10000 4.1 260 11:28 05.11.2020
5829 Clear 8 1038 81 10000 4.1 260 10:53 05.11.2020
5830 Clear 7 1038 87 10000 3.6 250 10:33 05.11.2020
5831 Clear 8 1038 93 10000 3.1 260 09:59 05.11.2020
5832 Clear 7 1038 93 10000 2.1 260 09:41 05.11.2020
5833 Clear 6 1038 93 10000 2.1 260 09:21 05.11.2020
5834 Clear 5 1037 100 10000 2.1 260 08:43 05.11.2020
5835 Clear 4 1037 100 10000 2.1 260 08:25 05.11.2020
5836 Clear 3 1037 93 10000 1.5 250 07:29 05.11.2020
5837 Clear 3 1037 93 10000 2.1 260 06:52 05.11.2020
5838 Clear 3 1037 93 10000 2.6 260 06:34 05.11.2020
5839 Clear 3 1037 100 10000 2.1 260 05:22 05.11.2020
5840 Clear 4 1036 93 10000 2.6 260 01:23 05.11.2020
5841 Clear 4 1036 93 10000 1.5 260 00:30 05.11.2020
5842 Clear 5 1036 100 10000 1.5 290 23:44 04.11.2020
5843 Clear 5 1036 100 10000 1.5 290 23:25 04.11.2020
5844 Clear 5 1035 100 10000 1.5 250 22:48 04.11.2020
5845 Clear 5 1035 100 10000 1.5 250 22:24 04.11.2020
5846 Clear 5 1035 93 10000 1.5 240 21:56 04.11.2020
5847 Clear 5 1035 93 10000 1.5 230 21:36 04.11.2020
5848 Clear 5 1034 87 10000 2.1 210 21:18 04.11.2020
5849 Clear 6 1034 86 10000 2.6 240 20:41 04.11.2020
5850 Clear 6 1034 86 10000 2.6 240 20:23 04.11.2020
5851 Clouds 6 1034 87 10000 1.5 230 19:44 04.11.2020
5852 Clouds 6 1034 87 10000 1.5 230 19:44 04.11.2020
5853 Clouds 6 1034 87 10000 1.5 230 19:26 04.11.2020
5854 Clouds 7 1033 81 10000 2.1 250 18:44 04.11.2020
5855 Clouds 7 1033 81 10000 2.1 250 18:25 04.11.2020
5856 Clouds 8 1033 76 10000 2.1 260 17:56 04.11.2020
5857 Clouds 8 1032 76 10000 2.6 250 17:38 04.11.2020
5858 Clouds 8 1032 76 10000 2.6 250 17:19 04.11.2020
5859 Clouds 9 1031 71 10000 2.1 270 16:38 04.11.2020
5860 Clouds 10 1031 71 10000 2.1 270 16:19 04.11.2020
5861 Clouds 10 1031 71 10000 4.1 270 15:44 04.11.2020
5862 Clouds 10 1031 71 10000 4.1 270 15:24 04.11.2020
5863 Clouds 11 1031 71 10000 4.1 260 14:47 04.11.2020
5864 Clouds 11 1031 71 10000 4.6 270 14:26 04.11.2020
5865 Clouds 11 1031 76 10000 3.6 260 13:56 04.11.2020
5866 Clouds 11 1031 76 10000 4.1 270 13:37 04.11.2020
5867 Clouds 11 1031 76 10000 4.1 270 13:19 04.11.2020
5868 Clouds 12 1030 76 10000 4.6 260 12:47 04.11.2020
5869 Clouds 12 1030 76 10000 4.6 260 12:24 04.11.2020
5870 Clouds 11 1030 76 10000 5.1 250 11:48 04.11.2020
5871 Clouds 11 1030 76 10000 5.1 260 11:30 04.11.2020
5872 Clouds 10 1029 76 10000 4.6 250 10:58 04.11.2020
5873 Clear 10 1029 81 10000 4.6 250 10:39 04.11.2020
5874 Clear 8 1029 81 10000 4.6 250 10:21 04.11.2020
5875 Clear 9 1028 81 10000 4.1 250 09:44 04.11.2020
5876 Clear 8 1028 87 10000 3.1 240 09:20 04.11.2020
5877 Clear 7 1027 81 10000 3.1 240 08:42 04.11.2020
5878 Clear 6 1027 81 10000 4.1 250 08:18 04.11.2020
5879 Clear 7 1027 81 10000 3.1 240 08:18 04.11.2020
5880 Clear 6 1026 87 10000 4.6 260 07:44 04.11.2020
5881 Clear 6 1026 87 10000 4.6 260 07:25 04.11.2020
5882 Clear 6 1026 87 10000 4.6 250 06:41 04.11.2020
5883 Clear 6 1026 87 10000 4.1 250 05:54 04.11.2020
5884 Clear 8 1024 75 10000 5.1 240 02:31 04.11.2020
5885 Clear 8 1023 81 10000 3.6 230 01:40 04.11.2020
5886 Clear 8 1023 75 10000 4.1 230 00:27 04.11.2020
5887 Clear 8 1023 70 10000 4.6 250 23:33 03.11.2020
5888 Clear 9 1022 66 10000 4.6 240 22:59 03.11.2020
5889 Clear 9 1022 70 10000 4.6 240 22:40 03.11.2020
5890 Clear 9 1022 66 10000 5.1 240 22:20 03.11.2020
5891 Clear 10 1021 66 10000 5.1 230 21:43 03.11.2020
5892 Clear 10 1021 66 10000 5.1 230 21:43 03.11.2020
5893 Clear 10 1021 66 10000 5.1 230 21:25 03.11.2020
5894 Clouds 10 1021 66 10000 5.1 230 20:56 03.11.2020
5895 Clouds 10 1021 62 10000 4.1 220 20:38 03.11.2020
5896 Clouds 10 1021 62 10000 4.1 220 20:18 03.11.2020
5897 Clear 10 1020 66 10000 4.1 190 19:42 03.11.2020
5898 Clear 9 1020 66 10000 4.1 190 19:19 03.11.2020
5899 Clear 9 1021 66 10000 2.6 180 18:41 03.11.2020
5900 Clear 9 1021 66 10000 2.6 180 18:19 03.11.2020
5901 Clear 9 1020 66 10000 2.1 140 17:53 03.11.2020
5902 Clear 10 1020 71 10000 1.5 150 17:34 03.11.2020
5903 Clear 11 1021 66 10000 2.1 190 16:52 03.11.2020
5904 Clear 11 1021 66 10000 2.6 200 16:31 03.11.2020
5905 Clear 12 1021 62 10000 2.1 200 15:59 03.11.2020
5906 Clouds 12 1021 66 10000 2.6 220 15:40 03.11.2020
5907 Clouds 12 1022 66 10000 3.6 250 15:20 03.11.2020
5908 Clouds 13 1022 62 10000 3.6 260 14:46 03.11.2020
5909 Clouds 13 1022 62 10000 3.6 260 14:27 03.11.2020
5910 Clouds 13 1022 66 10000 4.6 260 13:42 03.11.2020
5911 Clouds 13 1022 66 10000 4.6 260 13:22 03.11.2020
5912 Clouds 12 1022 66 10000 5.1 260 12:48 03.11.2020
5913 Clouds 12 1022 66 10000 5.1 260 12:27 03.11.2020
5914 Clouds 12 1022 71 10000 5.1 260 11:55 03.11.2020
5915 Clouds 13 1022 71 10000 4.1 250 11:36 03.11.2020
5916 Clouds 13 1022 71 10000 6.2 250 11:18 03.11.2020
5917 Clouds 11 1021 71 10000 5.7 240 10:39 03.11.2020
5918 Clouds 11 1021 71 10000 5.7 240 10:19 03.11.2020
5919 Clear 10 1021 81 10000 5.1 250 09:47 03.11.2020
5920 Clear 10 1021 76 10000 3.6 240 09:26 03.11.2020
5921 Clear 10 1021 81 10000 4.6 250 08:51 03.11.2020
5922 Clouds 11 1020 76 10000 4.6 250 08:33 03.11.2020
5923 Clear 10 1020 76 10000 5.1 250 07:48 03.11.2020
5924 Clouds 11 1020 76 10000 5.1 250 07:20 03.11.2020
5925 Clear 11 1019 76 10000 5.7 240 06:34 03.11.2020
5926 Clear 11 1017 76 10000 5.7 250 04:37 03.11.2020
5927 Clouds 13 1015 76 10000 5.1 260 00:46 03.11.2020
5928 Clouds 13 1014 76 10000 6.2 260 00:24 03.11.2020
5929 Clouds 14 1014 71 10000 6.2 280 23:46 02.11.2020
5930 Clouds 15 1014 71 10000 6.7 270 23:28 02.11.2020
5931 Clear 15 1012 76 10000 6.2 260 22:44 02.11.2020
5932 Clear 15 1012 76 10000 6.2 260 22:25 02.11.2020
5933 Rain 15 1011 76 10000 7.7 260 21:56 02.11.2020
5934 Rain 15 1010 77 10000 8.2 260 21:36 02.11.2020
5935 Rain 16 1010 82 10000 6.2 260 21:18 02.11.2020
5936 Clouds 16 1010 87 10000 6.7 260 20:38 02.11.2020
5937 Clouds 16 1010 87 10000 6.7 260 20:19 02.11.2020
5938 Rain 18 1008 82 10000 6.2 220 19:44 02.11.2020
5939 Rain 19 1008 82 10000 6.2 220 19:25 02.11.2020
5940 Clouds 19 1007 72 10000 5.7 220 18:43 02.11.2020
5941 Clouds 20 1007 68 10000 6.7 230 18:22 02.11.2020
5942 Rain 20 1007 68 10000 6.7 230 17:58 02.11.2020
5943 Rain 20 1007 68 10000 5.7 240 17:40 02.11.2020
5944 Clouds 20 1007 68 10000 5.7 240 17:20 02.11.2020
5945 Clouds 20 1007 68 10000 4.6 230 16:43 02.11.2020
5946 Clouds 20 1007 68 10000 4.6 230 16:24 02.11.2020
5947 Clouds 21 1007 68 10000 4.6 240 15:44 02.11.2020
5948 Clouds 21 1007 68 10000 4.6 240 15:24 02.11.2020
5949 Clouds 21 1007 68 10000 5.7 240 14:58 02.11.2020
5950 Clouds 21 1007 68 10000 5.7 230 14:37 02.11.2020
5951 Clouds 21 1007 68 10000 5.7 230 14:18 02.11.2020
5952 Clouds 21 1006 68 10000 7.2 230 13:42 02.11.2020
5953 Clouds 21 1006 68 10000 7.2 230 13:21 02.11.2020
5954 Clouds 21 1007 68 10000 7.7 240 12:40 02.11.2020
5955 Clouds 21 1007 68 10000 7.7 240 12:20 02.11.2020
5956 Clouds 19 1007 88 10000 5.1 220 11:45 02.11.2020
5957 Clouds 19 1007 88 10000 5.7 220 11:19 02.11.2020
5958 Clouds 19 1007 88 10000 6.7 230 10:43 02.11.2020
5959 Clouds 19 1007 82 10000 6.2 230 10:22 02.11.2020
5960 Clouds 19 1007 82 10000 6.2 230 09:51 02.11.2020
5961 Clouds 19 1006 77 10000 5.1 210 09:24 02.11.2020
5962 Clouds 18 1007 82 10000 5.7 220 08:46 02.11.2020
5963 Clouds 18 1006 88 10000 4.1 220 08:27 02.11.2020
5964 Clouds 17 1006 93 10000 4.6 220 07:53 02.11.2020
5965 Clouds 17 1006 93 10000 5.1 210 07:25 02.11.2020
5966 Clouds 17 1006 93 10000 5.7 220 06:36 02.11.2020
5967 Rain 17 1006 93 10000 3.6 200 03:55 02.11.2020
5968 Clouds 17 1007 88 10000 3.6 200 01:25 02.11.2020
5969 Clouds 17 1007 88 10000 3.6 200 01:25 02.11.2020
5970 Clouds 17 1007 88 10000 4.1 210 00:36 02.11.2020
5971 Rain 17 1007 82 10000 5.1 220 23:44 01.11.2020
5972 Rain 17 1007 82 10000 5.1 220 23:25 01.11.2020
5973 Clouds 17 1008 82 10000 5.1 220 22:47 01.11.2020
5974 Rain 17 1008 82 10000 5.1 220 22:27 01.11.2020
5975 Rain 17 1008 82 10000 5.1 210 21:59 01.11.2020
5976 Clouds 17 1008 82 10000 3.6 220 21:39 01.11.2020
5977 Clouds 17 1008 82 10000 3.6 220 21:21 01.11.2020
5978 Clouds 16 1008 93 10000 3.6 190 20:43 01.11.2020
5979 Clouds 16 1008 93 10000 3.6 190 20:43 01.11.2020
5980 Clouds 16 1008 93 10000 3.6 190 20:24 01.11.2020
5981 Clouds 16 1008 87 10000 4.6 200 19:44 01.11.2020
5982 Clouds 16 1008 87 10000 4.6 200 19:26 01.11.2020
5983 Clouds 16 1008 82 10000 4.6 200 18:55 01.11.2020
5984 Clouds 16 1008 82 10000 3.6 210 18:36 01.11.2020
5985 Clouds 16 1008 82 10000 3.6 210 18:18 01.11.2020
5986 Clouds 16 1008 77 10000 4.6 200 17:43 01.11.2020
5987 Clouds 16 1008 77 10000 4.6 200 17:24 01.11.2020
5988 Clouds 16 1009 72 10000 4.6 200 16:42 01.11.2020
5989 Clouds 16 1009 72 10000 4.6 200 16:24 01.11.2020
5990 Clouds 16 1009 67 10000 3.6 190 15:55 01.11.2020
5991 Clouds 17 1009 67 10000 4.1 220 15:37 01.11.2020
5992 Clouds 17 1009 67 10000 4.1 220 15:18 01.11.2020
5993 Clouds 17 1010 72 10000 4.6 210 14:45 01.11.2020
5994 Clouds 17 1010 72 10000 4.6 210 14:22 01.11.2020
5995 Clouds 17 1011 77 10000 5.1 200 13:49 01.11.2020
5996 Clouds 17 1011 77 10000 5.1 200 13:31 01.11.2020
5997 Clouds 16 1011 77 10000 4.1 190 12:56 01.11.2020
5998 Clouds 16 1012 82 10000 4.6 200 12:37 01.11.2020
5999 Clouds 15 1012 82 10000 4.1 190 12:18 01.11.2020
6000 Clouds 15 1012 82 10000 3.1 170 11:44 01.11.2020
6001 Clear 14 1012 87 10000 2.1 170 11:18 01.11.2020
6002 Clouds 13 1012 87 10000 1.5 180 10:41 01.11.2020
6003 Clouds 14 1012 87 10000 1.5 180 10:22 01.11.2020
6004 Clouds 14 1013 87 10000 2.1 170 09:47 01.11.2020
6005 Clouds 13 1013 76 10000 2.6 210 08:52 01.11.2020
6006 Clouds 13 1013 87 10000 2.6 210 08:33 01.11.2020
6007 Rain 13 1013 87 10000 2.6 200 07:45 01.11.2020
6008 Clouds 13 1013 87 10000 3.6 190 06:22 01.11.2020
6009 Clouds 13 1014 87 10000 3.6 200 01:53 01.11.2020
6010 Clouds 13 1014 93 10000 3.1 200 00:55 01.11.2020
6011 Rain 13 1014 76 10000 3.6 190 23:42 31.10.2020
6012 Rain 13 1014 76 10000 3.6 190 23:19 31.10.2020
6013 Clouds 13 1014 81 10000 2.6 160 22:43 31.10.2020
6014 Clouds 13 1014 81 10000 2.6 160 22:23 31.10.2020
6015 Clear 12 1014 81 10000 2.1 160 21:46 31.10.2020
6016 Clear 12 1014 81 10000 3.1 160 21:21 31.10.2020
6017 Clear 12 1015 76 10000 3.6 170 20:41 31.10.2020
6018 Clear 13 1015 76 10000 3.6 170 20:20 31.10.2020
6019 Clear 13 1015 82 10000 3.1 160 19:44 31.10.2020
6020 Clear 13 1015 82 10000 3.1 160 19:24 31.10.2020
6021 Clear 13 1016 82 10000 3.6 160 18:56 31.10.2020
6022 Clear 13 1016 82 10000 3.6 160 18:56 31.10.2020
6023 Clouds 13 1016 82 10000 3.6 170 18:38 31.10.2020
6024 Clouds 13 1017 76 10000 3.1 140 17:44 31.10.2020
6025 Clouds 13 1017 76 10000 3.1 140 17:25 31.10.2020
6026 Clouds 14 1017 76 10000 5.1 170 16:55 31.10.2020
6027 Clouds 15 1018 82 10000 3.1 190 16:33 31.10.2020
6028 Clouds 15 1018 77 10000 5.7 190 15:55 31.10.2020
6029 Clouds 15 1018 77 10000 4.6 170 15:26 31.10.2020
6030 Clouds 15 1018 77 10000 4.6 170 15:26 31.10.2020
6031 Clouds 16 1018 77 10000 3.6 190 14:53 31.10.2020
6032 Clouds 16 1019 77 10000 4.6 180 14:32 31.10.2020
6033 Clouds 15 1019 82 10000 4.1 180 13:53 31.10.2020
6034 Clouds 16 1020 82 10000 3.1 180 13:29 31.10.2020
6035 Clouds 16 1020 82 10000 2.6 190 12:56 31.10.2020
6036 Clouds 16 1021 87 10000 2.6 220 12:22 31.10.2020
6037 Clouds 16 1021 93 10000 2.6 220 11:41 31.10.2020
6038 Clouds 15 1021 93 10000 2.6 220 11:23 31.10.2020
6039 Clouds 14 1022 93 9000 2.6 220 10:42 31.10.2020
6040 Clouds 15 1022 93 9000 2.6 220 10:19 31.10.2020
6041 Clouds 14 1022 93 9000 2.6 220 09:39 31.10.2020
6042 Clouds 15 1022 93 9000 2.6 220 09:20 31.10.2020
6043 Clouds 14 1022 100 8000 2.6 250 08:27 31.10.2020
6044 Drizzle 14 1022 100 6000 2.6 240 07:45 31.10.2020
6045 Drizzle 14 1022 100 6000 2.6 240 07:25 31.10.2020
6046 Drizzle 14 1022 93 10000 3.6 250 06:37 31.10.2020
6047 Clouds 14 1021 100 10000 4.1 260 03:49 31.10.2020
6048 Clouds 14 1021 100 10000 4.6 260 02:48 31.10.2020
6049 Clouds 14 1021 93 10000 5.7 260 00:55 31.10.2020
6050 Clouds 14 1020 93 10000 5.7 250 23:58 30.10.2020
6051 Clouds 14 1020 93 10000 6.2 250 23:39 30.10.2020
6052 Clouds 14 1020 93 10000 6.2 250 23:20 30.10.2020
6053 Clouds 14 1020 87 10000 5.1 250 22:40 30.10.2020
6054 Clouds 14 1020 87 10000 5.1 250 22:22 30.10.2020
6055 Clouds 14 1019 93 10000 5.1 260 21:49 30.10.2020
6056 Clouds 14 1019 93 10000 4.6 250 21:27 30.10.2020
6057 Clouds 14 1019 93 10000 4.6 250 20:46 30.10.2020
6058 Clouds 14 1019 100 10000 5.1 250 20:28 30.10.2020
6059 Clouds 14 1019 100 10000 5.1 250 20:27 30.10.2020
6060 Clouds 14 1019 100 3500 5.7 250 19:59 30.10.2020
6061 Clouds 14 1019 100 3500 5.7 250 19:40 30.10.2020
6062 Drizzle 14 1019 100 3500 5.7 250 19:18 30.10.2020
6063 Rain 14 1018 100 4500 5.7 260 18:42 30.10.2020
6064 Drizzle 14 1018 100 4500 5.7 260 18:23 30.10.2020
6065 Clouds 14 1018 100 3500 5.1 250 17:47 30.10.2020
6066 Clouds 14 1017 100 3500 5.7 260 17:22 30.10.2020
6067 Clouds 14 1017 100 3500 5.7 260 16:52 30.10.2020
6068 Clouds 15 1017 93 6000 5.7 260 16:25 30.10.2020
6069 Rain 15 1017 93 4500 5.7 260 15:56 30.10.2020
6070 Rain 15 1016 93 4000 5.1 260 15:37 30.10.2020
6071 Clouds 15 1016 93 4000 6.2 260 15:18 30.10.2020
6072 Clouds 15 1016 93 6000 6.2 260 14:42 30.10.2020
6073 Clouds 15 1016 93 6000 6.2 260 14:23 30.10.2020
6074 Clouds 14 1015 93 7000 6.7 260 13:44 30.10.2020
6075 Clouds 15 1015 93 6000 6.7 250 13:20 30.10.2020
6076 Clouds 15 1015 93 6000 6.7 250 12:49 30.10.2020
6077 Clouds 15 1015 93 6000 6.7 250 12:22 30.10.2020
6078 Clouds 14 1015 100 10000 6.2 250 11:56 30.10.2020
6079 Clouds 14 1015 93 10000 6.2 250 11:22 30.10.2020
6080 Rain 14 1015 93 10000 6.7 250 10:50 30.10.2020
6081 Rain 14 1014 93 10000 6.2 250 10:26 30.10.2020
6082 Rain 14 1014 93 10000 7.2 250 09:56 30.10.2020
6083 Clouds 14 1014 93 10000 6.7 250 09:38 30.10.2020
6084 Rain 14 1014 93 10000 6.7 250 09:19 30.10.2020
6085 Clouds 14 1014 93 10000 7.2 250 08:32 30.10.2020
6086 Rain 13 1013 93 10000 5.7 250 07:54 30.10.2020
6087 Clouds 13 1013 93 10000 5.7 250 07:36 30.10.2020
6088 Clouds 13 1013 93 10000 6.7 250 06:59 30.10.2020
6089 Rain 13 1013 100 10000 5.7 250 05:53 30.10.2020
6090 Rain 11 1013 100 10000 3.1 210 03:47 30.10.2020
6091 Rain 10 1014 100 10000 3.1 180 01:24 30.10.2020
6092 Rain 10 1015 93 10000 3.6 180 23:59 29.10.2020
6093 Rain 9 1015 93 10000 3.1 180 23:41 29.10.2020
6094 Rain 10 1015 93 10000 3.1 180 23:23 29.10.2020
6095 Rain 10 1016 93 10000 3.6 190 22:44 29.10.2020
6096 Rain 10 1016 93 10000 3.6 190 22:25 29.10.2020
6097 Rain 10 1016 87 10000 3.1 220 21:44 29.10.2020
6098 Rain 10 1016 81 10000 3.1 230 21:22 29.10.2020
6099 Rain 11 1016 81 10000 5.1 240 20:43 29.10.2020
6100 Rain 11 1016 81 10000 5.1 240 20:23 29.10.2020
6101 Rain 11 1016 76 10000 4.6 240 19:56 29.10.2020
6102 Rain 11 1016 76 10000 3.6 240 19:37 29.10.2020
6103 Rain 11 1016 76 10000 2.6 230 19:18 29.10.2020
6104 Clouds 10 1016 76 10000 3.1 240 18:41 29.10.2020
6105 Clouds 10 1016 76 10000 3.1 240 18:22 29.10.2020
6106 Clear 11 1015 71 10000 4.1 240 17:42 29.10.2020
6107 Clouds 11 1015 66 10000 6.7 250 17:22 29.10.2020
6108 Clouds 11 1015 66 10000 6.2 250 16:52 29.10.2020
6109 Clouds 12 1015 71 10000 5.7 260 16:23 29.10.2020
6110 Clouds 12 1015 71 10000 5.7 260 15:57 29.10.2020
6111 Clouds 12 1014 66 10000 7.2 260 15:39 29.10.2020
6112 Clouds 13 1014 66 10000 7.2 260 15:21 29.10.2020
6113 Clouds 13 1014 66 10000 6.2 260 14:46 29.10.2020
6114 Clouds 13 1014 66 10000 7.2 260 14:24 29.10.2020
6115 Clouds 13 1014 66 10000 7.2 260 13:59 29.10.2020
6116 Clouds 13 1013 66 10000 7.7 260 13:39 29.10.2020
6117 Clouds 12 1013 71 10000 7.2 260 13:21 29.10.2020
6118 Clouds 12 1013 81 10000 6.2 270 12:40 29.10.2020
6119 Clouds 12 1013 76 10000 7.7 260 12:19 29.10.2020
6120 Clouds 12 1012 76 10000 7.7 260 11:45 29.10.2020
6121 Clouds 12 1012 76 10000 7.7 260 11:24 29.10.2020
6122 Clouds 12 1012 76 10000 7.7 260 11:24 29.10.2020
6123 Clouds 11 1011 76 10000 6.7 250 10:37 29.10.2020
6124 Clouds 11 1011 76 10000 6.7 250 10:19 29.10.2020
6125 Clouds 11 1011 76 10000 5.7 250 09:51 29.10.2020
6126 Clouds 10 1010 81 10000 6.7 250 09:28 29.10.2020
6127 Clouds 9 1010 87 10000 5.7 250 08:55 29.10.2020
6128 Clouds 9 1009 87 10000 7.2 250 08:31 29.10.2020
6129 Clouds 9 1009 81 10000 5.7 250 07:53 29.10.2020
6130 Clear 9 1008 81 10000 6.2 250 07:35 29.10.2020
6131 Clear 9 1008 76 10000 6.2 250 06:55 29.10.2020
6132 Clouds 10 1006 87 10000 5.7 240 04:51 29.10.2020
6133 Rain 11 1005 81 10000 4.1 230 02:51 29.10.2020
6134 Clouds 12 1005 75 10000 0.45 45 00:51 29.10.2020
6135 Rain 12 1005 76 10000 0.45 113 00:30 29.10.2020
6136 Clouds 13 1005 75 10000 0.45 180 23:45 28.10.2020
6137 Clouds 13 1005 74 10000 0.45 113 23:20 28.10.2020
6138 Clouds 13 1007 62 10000 5.1 200 22:44 28.10.2020
6139 Clouds 13 1007 62 10000 5.1 200 22:44 28.10.2020
6140 Clouds 13 1007 62 10000 5.1 200 22:26 28.10.2020
6141 Clouds 13 1007 62 10000 5.1 200 21:55 28.10.2020
6142 Clear 12 1007 62 10000 5.7 200 21:37 28.10.2020
6143 Clear 13 1007 62 10000 5.7 200 21:18 28.10.2020
6144 Clear 13 1008 62 10000 4.1 200 20:41 28.10.2020
6145 Clear 13 1008 62 10000 3.6 200 20:20 28.10.2020
6146 Clear 13 1008 62 10000 3.6 200 19:49 28.10.2020
6147 Clear 13 1008 62 10000 3.1 180 19:27 28.10.2020
6148 Clear 12 1008 66 10000 2.6 210 18:47 28.10.2020
6149 Clouds 13 1008 66 10000 3.1 230 18:20 28.10.2020
6150 Clouds 13 1008 66 10000 4.1 220 17:44 28.10.2020
6151 Clouds 14 1008 66 10000 4.1 220 17:25 28.10.2020
6152 Clouds 14 1007 62 10000 4.6 240 16:49 28.10.2020
6153 Clouds 14 1007 62 10000 4.6 240 16:31 28.10.2020
6154 Rain 15 1007 58 10000 6.2 240 15:48 28.10.2020
6155 Clouds 15 1006 61 10000 0.45 203 15:20 28.10.2020
6156 Clouds 15 1007 58 10000 6.7 230 14:58 28.10.2020
6157 Clouds 15 1007 58 10000 6.7 230 14:38 28.10.2020
6158 Clouds 15 1007 58 10000 6.7 230 14:19 28.10.2020
6159 Clouds 15 1006 69 10000 0.45 270 12:39 28.10.2020
6160 Rain 15 1006 70 10000 0.45 225 12:21 28.10.2020
6161 Clouds 15 1006 72 10000 0.45 90 11:44 28.10.2020
6162 Clouds 14 1007 76 10000 3.1 200 11:23 28.10.2020
6163 Clouds 14 1007 76 10000 4.6 210 11:00 28.10.2020
6164 Clouds 13 1007 76 10000 4.6 210 10:41 28.10.2020
6165 Clouds 13 1007 76 10000 4.6 210 10:22 28.10.2020
6166 Clouds 13 1007 81 10000 2.6 200 09:42 28.10.2020
6167 Clouds 12 1007 81 10000 2.6 200 09:22 28.10.2020
6168 Clouds 11 1006 81 10000 3.1 200 08:49 28.10.2020
6169 Clouds 11 1006 76 10000 2.6 210 08:27 28.10.2020
6170 Clouds 11 1005 81 10000 3.1 200 07:49 28.10.2020
6171 Clouds 11 1005 81 10000 3.6 190 07:30 28.10.2020
6172 Clouds 11 1004 76 10000 4.6 210 06:42 28.10.2020
6173 Clouds 12 1004 76 10000 4.6 210 05:52 28.10.2020
6174 Clouds 12 1004 76 10000 5.1 210 05:20 28.10.2020
6175 Clouds 12 1003 76 10000 5.7 210 04:25 28.10.2020
6176 Clouds 12 1003 66 10000 5.1 180 02:26 28.10.2020
6177 Clouds 12 1003 71 10000 6.2 190 01:51 28.10.2020
6178 Clouds 11 1003 71 10000 6.7 200 00:22 28.10.2020
6179 Clear 11 1004 66 10000 4.6 180 23:43 27.10.2020
6180 Clear 11 1004 66 10000 4.6 180 23:20 27.10.2020
6181 Clear 10 1004 71 10000 5.7 190 22:44 27.10.2020
6182 Clear 10 1004 71 10000 5.7 190 22:19 27.10.2020
6183 Clear 10 1005 71 10000 6.2 190 21:56 27.10.2020
6184 Clear 11 1005 71 10000 5.1 190 21:37 27.10.2020
6185 Clear 11 1005 71 10000 5.1 190 21:37 27.10.2020
6186 Clear 11 1005 71 10000 5.1 190 21:37 27.10.2020
6187 Clear 11 1005 71 10000 5.1 190 21:37 27.10.2020
6188 Clear 11 1005 71 10000 5.1 190 21:19 27.10.2020
6189 Clear 11 1005 71 10000 4.6 180 20:44 27.10.2020
6190 Clear 11 1005 71 10000 4.6 190 20:22 27.10.2020
6191 Clear 11 1005 71 10000 5.7 200 19:39 27.10.2020
6192 Clear 11 1005 71 10000 5.7 200 19:21 27.10.2020
6193 Clouds 11 1005 71 10000 5.1 190 18:59 27.10.2020
6194 Clouds 11 1005 71 10000 4.6 190 18:40 27.10.2020
6195 Clouds 11 1005 71 10000 4.6 190 18:40 27.10.2020
6196 Clouds 11 1005 76 10000 3.6 190 18:20 27.10.2020
6197 Clouds 11 1005 76 10000 4.1 180 17:43 27.10.2020
6198 Clouds 11 1005 76 10000 4.1 180 17:21 27.10.2020
6199 Clouds 11 1005 76 10000 4.1 180 17:21 27.10.2020
6200 Clouds 11 1005 87 10000 4.6 200 16:55 27.10.2020
6201 Clouds 12 1005 66 10000 5.1 190 16:36 27.10.2020
6202 Clouds 12 1005 66 10000 5.1 190 16:18 27.10.2020
6203 Clouds 13 1005 62 10000 3.6 210 15:40 27.10.2020
6204 Clouds 13 1005 62 10000 3.6 210 15:40 27.10.2020
6205 Clouds 13 1005 66 10000 5.1 210 15:21 27.10.2020
6206 Clouds 13 1006 62 10000 6.2 210 14:48 27.10.2020
6207 Clouds 13 1006 62 10000 6.2 210 14:28 27.10.2020
6208 Clouds 13 1006 66 10000 5.1 220 13:52 27.10.2020
6209 Clouds 13 1006 66 10000 7.2 220 13:22 27.10.2020
6210 Clouds 13 1006 66 10000 4.6 230 12:42 27.10.2020
6211 Clouds 13 1006 66 10000 4.6 230 12:23 27.10.2020
6212 Clouds 13 1006 71 10000 4.6 210 11:43 27.10.2020
6213 Clouds 12 1006 71 10000 4.6 210 11:25 27.10.2020
6214 Clouds 11 1006 71 10000 5.1 210 10:48 27.10.2020
6215 Clouds 11 1006 76 10000 5.1 200 10:30 27.10.2020
6216 Clouds 10 1005 76 10000 3.6 180 09:47 27.10.2020
6217 Clouds 10 1005 76 10000 3.6 180 09:26 27.10.2020
6218 Clouds 10 1005 76 10000 3.1 190 08:44 27.10.2020
6219 Clouds 9 1005 76 10000 4.1 200 08:26 27.10.2020
6220 Clouds 9 1005 76 10000 3.1 170 07:47 27.10.2020
6221 Clouds 9 1005 76 10000 3.1 170 07:28 27.10.2020
6222 Clouds 9 1004 81 10000 3.6 180 06:38 27.10.2020
6223 Clouds 9 1004 81 10000 3.6 180 06:19 27.10.2020
6224 Clouds 9 1004 81 10000 2.1 190 05:43 27.10.2020
6225 Clear 9 1004 81 10000 2.6 180 04:51 27.10.2020
6226 Clear 9 1004 76 10000 3.6 190 02:35 27.10.2020
6227 Clear 9 1003 76 10000 4.1 200 00:58 27.10.2020
6228 Clear 9 1004 76 10000 4.1 190 23:47 26.10.2020
6229 Clear 9 1004 76 10000 4.1 190 23:29 26.10.2020
6230 Clear 9 1003 76 10000 1.5 140 22:51 26.10.2020
6231 Clear 9 1003 76 10000 3.1 170 22:27 26.10.2020
6232 Clear 9 1003 71 10000 4.1 180 21:50 26.10.2020
6233 Clear 10 1003 71 10000 3.1 190 21:21 26.10.2020
6234 Clear 10 1003 71 10000 3.6 200 20:58 26.10.2020
6235 Clear 10 1003 76 10000 3.1 190 20:40 26.10.2020
6236 Clear 10 1003 76 10000 3.1 190 20:21 26.10.2020
6237 Clear 11 1003 71 10000 4.1 200 19:47 26.10.2020
6238 Clear 10 1003 76 10000 3.1 200 19:25 26.10.2020
6239 Clouds 11 1002 71 10000 2.6 210 18:46 26.10.2020
6240 Clouds 11 1002 71 10000 2.6 210 18:25 26.10.2020
6241 Clouds 11 1002 71 10000 2.1 200 17:59 26.10.2020
6242 Clouds 11 1002 71 10000 1.5 210 17:39 26.10.2020
6243 Clouds 11 1002 76 10000 1.5 170 17:21 26.10.2020
6244 Clouds 12 1002 71 10000 2.6 250 16:43 26.10.2020
6245 Clouds 12 1002 71 10000 2.6 250 16:21 26.10.2020
6246 Clouds 12 1001 76 10000 2.6 240 15:43 26.10.2020
6247 Clouds 12 1001 76 10000 2.6 240 15:25 26.10.2020
6248 Clouds 12 1001 76 10000 1.5 210 14:53 26.10.2020
6249 Clouds 12 1002 76 10000 2.6 210 14:34 26.10.2020
6250 Rain 12 1002 81 10000 2.1 210 13:46 26.10.2020
6251 Clouds 12 1002 81 10000 1.5 200 13:27 26.10.2020
6252 Clouds 12 1002 81 10000 2.6 210 12:57 26.10.2020
6253 Clouds 12 1002 81 10000 2.6 220 12:33 26.10.2020
6254 Rain 12 1002 81 10000 3.1 220 11:57 26.10.2020
6255 Rain 12 1001 81 10000 2.6 200 11:39 26.10.2020
6256 Clouds 13 1001 81 10000 3.6 200 11:21 26.10.2020
6257 Clouds 13 1001 81 10000 3.6 200 10:49 26.10.2020
6258 Clouds 13 1001 81 10000 2.6 190 10:26 26.10.2020
6259 Clouds 12 1002 81 10000 2.6 170 09:56 26.10.2020
6260 Clouds 12 1002 87 10000 2.6 180 09:31 26.10.2020
6261 Clouds 11 1002 87 10000 2.1 180 08:55 26.10.2020
6262 Clouds 11 1001 87 10000 2.1 170 08:25 26.10.2020
6263 Clouds 11 1001 87 10000 2.6 170 07:48 26.10.2020
6264 Clouds 11 1001 87 10000 2.6 170 07:28 26.10.2020
6265 Clear 11 1001 87 10000 2.1 160 05:46 26.10.2020
6266 Clear 11 1001 87 10000 3.1 190 04:19 26.10.2020
6267 Clouds 11 1001 87 10000 2.6 180 03:21 26.10.2020
6268 Clouds 12 1001 87 10000 1.5 140 03:21 26.10.2020
6269 Clouds 11 1001 87 10000 2.6 180 03:21 26.10.2020
6270 Clear 12 1002 87 10000 1 0 01:34 26.10.2020
6271 Clouds 12 1002 87 10000 1.5 180 00:36 26.10.2020
6272 Clouds 12 1002 87 10000 1 110 23:51 25.10.2020
6273 Clouds 12 1003 87 10000 1.5 230 23:30 25.10.2020
6274 Clouds 13 1003 87 10000 4.1 270 22:48 25.10.2020
6275 Clouds 13 1003 87 10000 2.1 180 22:30 25.10.2020
6276 Rain 13 1002 87 10000 2.1 170 21:55 25.10.2020
6277 Clear 13 1002 93 10000 3.6 200 21:36 25.10.2020
6278 Clouds 13 1002 93 10000 2.6 190 21:18 25.10.2020
6279 Clouds 13 1002 93 10000 3.1 200 20:43 25.10.2020
6280 Clouds 13 1002 93 10000 3.1 200 20:23 25.10.2020
6281 Rain 13 1003 87 10000 3.1 190 19:55 25.10.2020
6282 Rain 13 1002 87 10000 2.6 170 19:37 25.10.2020
6283 Rain 13 1002 87 10000 2.6 170 19:19 25.10.2020
6284 Rain 13 1003 87 10000 2.1 190 18:41 25.10.2020
6285 Rain 13 1003 87 10000 2.1 190 18:41 25.10.2020
6286 Rain 13 1003 87 10000 2.1 190 18:22 25.10.2020
6287 Rain 13 1003 87 10000 2.6 190 17:55 25.10.2020
6288 Rain 14 1003 76 10000 4.1 190 17:37 25.10.2020
6289 Rain 14 1003 76 10000 4.1 190 17:18 25.10.2020
6290 Rain 14 1003 76 10000 4.6 200 16:43 25.10.2020
6291 Rain 14 1003 76 10000 4.6 200 16:23 25.10.2020
6292 Rain 15 1003 72 10000 4.6 190 15:47 25.10.2020
6293 Rain 15 1003 67 10000 4.6 190 15:27 25.10.2020
6294 Rain 15 1003 67 10000 5.1 190 14:53 25.10.2020
6295 Rain 16 1003 67 10000 4.6 200 14:29 25.10.2020
6296 Clear 15 1004 72 10000 4.6 190 13:44 25.10.2020
6297 Clear 16 1004 72 10000 4.6 190 13:24 25.10.2020
6298 Clear 16 1003 67 10000 4.6 180 12:50 25.10.2020
6299 Clear 16 1004 72 10000 5.7 170 12:28 25.10.2020
6300 Clear 16 1004 72 10000 4.1 180 11:59 25.10.2020
6301 Clear 15 1004 72 10000 5.1 180 11:41 25.10.2020
6302 Clear 15 1004 72 10000 5.1 180 11:19 25.10.2020
6303 Clear 15 1005 71 10000 4.1 180 10:46 25.10.2020
6304 Clear 14 1005 71 10000 4.1 180 10:25 25.10.2020
6305 Clear 14 1004 71 10000 4.1 170 09:51 25.10.2020
6306 Clear 14 1004 71 10000 3.6 140 09:22 25.10.2020
6307 Clear 14 1004 71 10000 3.6 130 08:59 25.10.2020
6308 Clear 14 1004 71 10000 4.1 120 08:40 25.10.2020
6309 Clear 14 1004 71 10000 4.1 120 08:40 25.10.2020
6310 Clear 14 1004 71 10000 4.1 120 08:22 25.10.2020
6311 Clear 14 1005 71 10000 4.1 140 07:42 25.10.2020
6312 Clear 14 1005 71 10000 6.2 180 06:52 25.10.2020
6313 Clouds 14 1005 71 10000 7.7 190 06:26 25.10.2020
6314 Clouds 14 1005 71 10000 4.6 190 05:19 25.10.2020
6315 Clouds 14 1006 71 10000 4.1 180 04:23 25.10.2020
6316 Clouds 14 1008 71 10000 6.7 190 02:22 25.10.2020
6317 Clouds 14 1008 76 10000 6.2 200 00:53 25.10.2020
6318 Clouds 14 1008 76 10000 4.1 180 00:28 25.10.2020
6319 Clouds 14 1009 76 10000 4.6 180 23:54 24.10.2020
6320 Clouds 14 1009 76 10000 4.6 190 23:31 24.10.2020
6321 Clouds 14 1009 76 10000 3.6 190 22:58 24.10.2020
6322 Clouds 14 1009 76 10000 4.1 190 22:40 24.10.2020
6323 Clouds 14 1009 76 10000 4.1 190 22:21 24.10.2020
6324 Clouds 15 1010 72 10000 3.6 200 21:43 24.10.2020
6325 Clouds 15 1010 72 10000 3.6 200 21:21 24.10.2020
6326 Clouds 15 1010 67 10000 3.6 200 20:50 24.10.2020
6327 Clouds 15 1010 67 10000 3.1 210 20:27 24.10.2020
6328 Clouds 15 1010 67 10000 3.6 210 19:58 24.10.2020
6329 Clouds 15 1011 67 10000 3.6 210 19:40 24.10.2020
6330 Clouds 15 1011 67 10000 3.1 210 19:22 24.10.2020
6331 Clouds 15 1011 67 10000 4.1 230 18:47 24.10.2020
6332 Clouds 15 1011 67 10000 4.1 230 18:27 24.10.2020
6333 Clouds 15 1011 77 10000 4.1 240 17:42 24.10.2020
6334 Clouds 16 1011 77 10000 4.1 240 17:22 24.10.2020
6335 Clouds 16 1011 77 10000 5.1 230 16:47 24.10.2020
6336 Clouds 16 1011 77 10000 4.1 220 16:28 24.10.2020
6337 Clouds 16 1011 77 10000 4.6 210 15:41 24.10.2020
6338 Clouds 16 1011 77 10000 4.6 210 15:20 24.10.2020
6339 Clouds 16 1011 77 10000 4.1 220 14:56 24.10.2020
6340 Clouds 16 1012 82 10000 5.1 220 14:29 24.10.2020
6341 Clouds 15 1012 82 10000 4.1 220 13:49 24.10.2020
6342 Clouds 15 1012 82 10000 4.6 210 13:31 24.10.2020
6343 Clouds 14 1012 87 10000 3.1 200 12:58 24.10.2020
6344 Clouds 14 1012 87 10000 3.1 200 12:58 24.10.2020
6345 Clouds 14 1012 82 10000 3.1 220 12:37 24.10.2020
6346 Clouds 14 1012 82 10000 3.1 220 12:19 24.10.2020
6347 Clouds 13 1012 87 10000 5.1 230 11:43 24.10.2020
6348 Clouds 14 1012 87 10000 4.1 220 10:59 24.10.2020
6349 Clouds 13 1012 82 10000 4.6 230 10:39 24.10.2020
6350 Clouds 13 1012 82 10000 3.6 220 09:59 24.10.2020
6351 Clouds 13 1012 87 10000 3.1 230 09:40 24.10.2020
6352 Clouds 12 1012 87 10000 3.1 230 09:21 24.10.2020
6353 Clouds 12 1011 87 10000 3.6 230 08:40 24.10.2020
6354 Clouds 11 1011 93 10000 3.1 240 08:18 24.10.2020
6355 Clouds 12 1011 87 10000 3.6 240 07:45 24.10.2020
6356 Clouds 12 1011 87 10000 4.6 240 07:19 24.10.2020
6357 Clouds 12 1011 87 10000 3.6 230 06:23 24.10.2020
6358 Clear 12 1010 93 10000 2.6 210 03:37 24.10.2020
6359 Clouds 12 1011 93 10000 3.1 220 02:20 24.10.2020
6360 Clouds 11 1010 100 8000 2.1 200 00:43 24.10.2020
6361 Clouds 11 1010 100 8000 2.1 200 00:22 24.10.2020
6362 Clouds 11 1010 100 6000 2.1 200 23:50 23.10.2020
6363 Rain 11 1010 100 6000 2.1 190 23:27 23.10.2020
6364 Fog 12 1010 100 5000 1 0 22:59 23.10.2020
6365 Fog 12 1010 100 5000 1 0 22:40 23.10.2020
6366 Fog 12 1010 100 5000 1 0 22:20 23.10.2020
6367 Clouds 12 1010 100 6000 1.5 180 21:50 23.10.2020
6368 Clouds 12 1010 100 8000 2.1 160 21:25 23.10.2020
6369 Fog 13 1010 100 1200 0.5 0 20:42 23.10.2020
6370 Fog 13 1010 100 1200 0.5 0 20:23 23.10.2020
6371 Fog 13 1010 100 7000 1 200 19:58 23.10.2020
6372 Fog 13 1010 100 7000 1.5 200 19:33 23.10.2020
6373 Rain 13 1010 93 7000 1 210 18:57 23.10.2020
6374 Fog 14 1010 100 7000 0.5 0 18:38 23.10.2020
6375 Clouds 14 1010 93 10000 2.21 144 18:19 23.10.2020
6376 Clouds 14 1010 87 10000 2.21 144 17:42 23.10.2020
6377 Clouds 14 1010 87 10000 2.24 129 17:20 23.10.2020
6378 Clouds 15 1010 87 10000 0.5 0 16:44 23.10.2020
6379 Clouds 15 1010 87 10000 0.5 0 16:25 23.10.2020
6380 Rain 15 1010 93 5000 0.5 0 15:45 23.10.2020
6381 Mist 14 1010 93 5000 0.5 0 15:24 23.10.2020
6382 Rain 14 1010 93 5000 0.5 110 14:54 23.10.2020
6383 Rain 14 1010 93 5000 1 0 14:35 23.10.2020
6384 Mist 14 1011 93 5000 1 0 13:59 23.10.2020
6385 Rain 14 1011 100 5000 1 0 13:38 23.10.2020
6386 Rain 14 1011 100 5000 0.5 0 13:19 23.10.2020
6387 Rain 14 1011 100 5000 0.5 0 12:47 23.10.2020
6388 Rain 14 1011 93 5000 1 0 12:24 23.10.2020
6389 Rain 14 1011 93 6000 0.5 0 11:47 23.10.2020
6390 Rain 13 1011 93 6000 0.5 0 11:22 23.10.2020
6391 Mist 13 1011 100 5000 1 70 10:45 23.10.2020
6392 Mist 12 1011 100 4000 0.5 0 10:25 23.10.2020
6393 Fog 11 1011 100 6000 0.5 0 09:46 23.10.2020
6394 Fog 11 1011 100 6000 0.5 0 09:27 23.10.2020
6395 Fog 11 1011 100 6000 0.5 0 08:52 23.10.2020
6396 Fog 10 1011 100 6000 0.5 0 08:32 23.10.2020
6397 Fog 11 1011 100 5000 0.5 0 07:38 23.10.2020
6398 Fog 11 1011 100 6000 1 220 07:19 23.10.2020
6399 Clouds 12 1011 100 6000 1.5 210 06:20 23.10.2020
6400 Mist 12 1011 100 4000 2.1 190 05:34 23.10.2020
6401 Clouds 14 1012 93 10000 2.6 230 02:32 23.10.2020
6402 Clouds 14 1012 100 10000 1.5 230 01:24 23.10.2020
6403 Clouds 14 1011 100 10000 1 0 00:42 23.10.2020
6404 Clouds 14 1011 100 10000 1.5 200 23:45 22.10.2020
6405 Clouds 14 1011 100 10000 1.5 200 23:24 22.10.2020
6406 Clouds 14 1011 93 10000 1.5 230 22:48 22.10.2020
6407 Clouds 14 1011 93 10000 1.5 230 22:27 22.10.2020
6408 Fog 14 1011 93 10000 1 0 21:58 22.10.2020
6409 Clouds 14 1011 100 10000 1 0 21:40 22.10.2020
6410 Clouds 14 1011 93 10000 1.5 220 21:20 22.10.2020
6411 Clouds 14 1010 93 10000 2.1 290 20:45 22.10.2020
6412 Clouds 15 1010 93 10000 2.1 290 20:25 22.10.2020
6413 Clouds 15 1011 93 4000 6.7 290 19:58 22.10.2020
6414 Thunderstorm 16 1009 77 10000 2.1 140 19:39 22.10.2020
6415 Rain 17 1010 77 10000 2.1 190 19:18 22.10.2020
6416 Clouds 17 1010 77 10000 2.1 210 18:41 22.10.2020
6417 Clouds 18 1010 72 10000 3.1 220 18:19 22.10.2020
6418 Clouds 18 1010 72 10000 4.1 230 17:45 22.10.2020
6419 Clouds 18 1010 72 10000 4.1 230 17:22 22.10.2020
6420 Clouds 18 1011 68 10000 6.2 230 16:45 22.10.2020
6421 Clouds 19 1011 68 10000 6.2 230 16:25 22.10.2020
6422 Clouds 19 1011 68 10000 6.2 230 16:25 22.10.2020
6423 Clouds 19 1011 68 10000 6.2 240 15:50 22.10.2020
6424 Clouds 20 1011 68 10000 5.1 240 15:27 22.10.2020
6425 Clouds 20 1011 68 10000 6.7 240 14:58 22.10.2020
6426 Clouds 19 1011 68 10000 7.2 250 14:38 22.10.2020
6427 Clouds 20 1011 68 10000 7.2 250 14:20 22.10.2020
6428 Clouds 19 1011 68 10000 7.2 240 13:43 22.10.2020
6429 Clouds 19 1011 68 10000 7.2 240 13:22 22.10.2020
6430 Clouds 19 1011 72 10000 5.1 240 12:43 22.10.2020
6431 Clouds 18 1011 72 10000 5.1 240 12:22 22.10.2020
6432 Clouds 18 1011 77 10000 4.6 240 11:45 22.10.2020
6433 Clouds 17 1011 77 10000 4.1 230 11:19 22.10.2020
6434 Clouds 17 1011 77 10000 4.6 230 10:49 22.10.2020
6435 Clouds 16 1011 77 10000 4.6 230 10:25 22.10.2020
6436 Clouds 16 1010 82 10000 3.6 240 09:44 22.10.2020
6437 Clouds 15 1010 82 10000 3.6 240 09:22 22.10.2020
6438 Clouds 16 1009 77 10000 4.6 240 08:43 22.10.2020
6439 Clouds 16 1009 77 10000 4.6 240 08:25 22.10.2020
6440 Clouds 16 1009 77 10000 4.1 240 07:43 22.10.2020
6441 Clouds 15 1009 82 10000 2.6 250 07:20 22.10.2020
6442 Clouds 15 1009 82 10000 2.6 250 06:45 22.10.2020
6443 Clouds 15 1009 82 10000 2.6 250 06:23 22.10.2020
6444 Clouds 16 1008 77 10000 4.1 250 05:38 22.10.2020
6445 Clouds 17 1007 68 10000 7.7 250 03:25 22.10.2020
6446 Clouds 18 1005 63 10000 6.7 240 00:55 22.10.2020
6447 Clouds 17 1004 67 10000 5.7 230 00:22 22.10.2020
6448 Clear 17 1004 63 10000 5.7 210 23:43 21.10.2020
6449 Clouds 17 1003 63 10000 5.1 210 23:19 21.10.2020
6450 Clouds 18 1003 59 10000 5.7 200 22:38 21.10.2020
6451 Clouds 18 1003 59 10000 5.1 200 22:19 21.10.2020
6452 Clouds 18 1003 59 10000 5.1 200 22:19 21.10.2020
6453 Clouds 17 1003 59 10000 4.6 200 21:46 21.10.2020
6454 Clouds 18 1003 59 10000 6.7 190 21:20 21.10.2020
6455 Clouds 17 1003 59 10000 6.7 190 20:57 21.10.2020
6456 Clouds 17 1002 55 10000 7.2 190 20:39 21.10.2020
6457 Clouds 17 1003 55 10000 6.7 190 20:18 21.10.2020
6458 Clouds 16 1002 63 10000 6.2 190 19:40 21.10.2020
6459 Clouds 16 1002 63 10000 6.2 190 19:22 21.10.2020
6460 Clouds 17 1002 59 10000 4.1 180 18:49 21.10.2020
6461 Clouds 17 1002 59 10000 4.1 180 18:27 21.10.2020
6462 Clouds 17 1002 59 10000 5.7 180 17:50 21.10.2020
6463 Clouds 17 1003 67 10000 5.1 170 17:22 21.10.2020
6464 Clouds 17 1003 67 10000 5.1 170 16:58 21.10.2020
6465 Clouds 16 1003 67 10000 5.1 170 16:37 21.10.2020
6466 Clouds 16 1003 67 10000 5.7 190 16:18 21.10.2020
6467 Clouds 16 1003 77 10000 3.1 150 15:44 21.10.2020
6468 Clouds 15 1004 72 10000 4.1 160 15:21 21.10.2020
6469 Clouds 15 1004 77 10000 3.1 170 14:48 21.10.2020
6470 Clouds 14 1005 87 10000 3.1 180 14:28 21.10.2020
6471 Clouds 13 1005 93 10000 3.1 180 13:47 21.10.2020
6472 Rain 13 1005 93 7000 3.1 150 13:27 21.10.2020
6473 Rain 13 1006 93 10000 1.5 0 12:57 21.10.2020
6474 Rain 13 1006 93 10000 1.5 0 12:37 21.10.2020
6475 Rain 13 1006 82 10000 2.6 160 12:19 21.10.2020
6476 Rain 13 1006 87 10000 3.6 170 11:41 21.10.2020
6477 Clouds 13 1006 87 10000 3.1 170 11:20 21.10.2020
6478 Clouds 12 1006 93 10000 2.1 160 10:46 21.10.2020
6479 Clouds 12 1006 93 10000 2.1 150 10:25 21.10.2020
6480 Rain 12 1007 93 10000 3.1 170 09:54 21.10.2020
6481 Rain 12 1007 93 10000 3.1 170 09:33 21.10.2020
6482 Rain 12 1006 93 10000 1.5 150 08:56 21.10.2020
6483 Rain 12 1006 93 10000 1.5 150 08:38 21.10.2020
6484 Rain 12 1006 93 10000 2.1 130 08:19 21.10.2020
6485 Rain 12 1006 93 10000 2.1 170 07:37 21.10.2020
6486 Rain 12 1007 93 10000 1.5 140 06:55 21.10.2020
6487 Rain 12 1007 93 10000 2.6 170 06:30 21.10.2020
6488 Rain 12 1008 93 10000 1.5 140 04:47 21.10.2020
6489 Rain 12 1009 93 10000 3.6 190 00:57 21.10.2020
6490 Rain 12 1009 87 10000 2.1 0 23:50 20.10.2020
6491 Clouds 12 1010 93 10000 4.1 190 23:19 20.10.2020
6492 Rain 12 1010 93 10000 2.6 190 22:29 20.10.2020
6493 Rain 12 1010 93 10000 3.1 190 21:50 20.10.2020
6494 Rain 12 1010 93 10000 3.1 180 21:21 20.10.2020
6495 Rain 12 1010 93 10000 3.1 180 21:21 20.10.2020
6496 Rain 12 1010 87 10000 2.1 160 20:57 20.10.2020
6497 Rain 12 1010 87 10000 2.1 160 20:38 20.10.2020
6498 Rain 12 1010 87 10000 2.1 170 20:20 20.10.2020
6499 Clouds 12 1010 87 10000 2.1 170 19:44 20.10.2020
6500 Rain 11 1009 87 10000 3.1 170 19:22 20.10.2020
6501 Clouds 11 1009 87 10000 1.5 160 18:54 20.10.2020
6502 Clouds 12 1009 87 10000 1.5 160 18:36 20.10.2020
6503 Rain 12 1010 81 10000 2.6 180 17:50 20.10.2020
6504 Rain 12 1010 76 10000 2.1 180 17:31 20.10.2020
6505 Rain 13 1010 71 10000 2.1 180 16:49 20.10.2020
6506 Rain 13 1010 66 10000 3.6 200 16:28 20.10.2020
6507 Rain 13 1010 66 10000 2.6 170 15:57 20.10.2020
6508 Rain 13 1010 66 10000 2.6 170 15:39 20.10.2020
6509 Rain 13 1010 66 10000 4.1 190 15:20 20.10.2020
6510 Clouds 14 1010 62 10000 4.6 200 14:42 20.10.2020
6511 Clouds 13 1010 62 10000 5.7 190 14:24 20.10.2020
6512 Clouds 13 1011 66 10000 5.7 200 13:44 20.10.2020
6513 Clouds 13 1011 62 10000 3.6 200 13:25 20.10.2020
6514 Clouds 12 1011 66 10000 2.1 130 12:59 20.10.2020
6515 Clouds 12 1011 66 10000 2.1 130 12:40 20.10.2020
6516 Clouds 11 1011 71 10000 2.6 170 12:22 20.10.2020
6517 Clouds 10 1011 70 10000 3.6 170 11:45 20.10.2020
6518 Clouds 10 1011 70 10000 4.6 160 11:27 20.10.2020
6519 Clouds 8 1011 70 10000 5.1 160 10:38 20.10.2020
6520 Clouds 8 1011 70 10000 3.6 140 10:19 20.10.2020
6521 Clouds 8 1011 70 10000 3.6 140 10:19 20.10.2020
6522 Clouds 8 1012 75 10000 2.6 130 09:42 20.10.2020
6523 Clouds 7 1012 75 10000 2.6 140 09:18 20.10.2020
6524 Clouds 7 1012 75 10000 2.6 130 08:39 20.10.2020
6525 Clouds 7 1014 81 10000 2.1 100 07:53 20.10.2020
6526 Clouds 7 1014 75 10000 3.6 120 07:26 20.10.2020
6527 Clouds 7 1014 81 10000 2.1 120 06:32 20.10.2020
6528 Clouds 6 1015 81 10000 2.1 0 05:51 20.10.2020
6529 Clouds 6 1017 81 10000 1.5 120 03:58 20.10.2020
6530 Clouds 6 1018 87 10000 1 0 02:25 20.10.2020
6531 Clouds 7 1019 87 10000 1.5 150 00:59 20.10.2020
6532 Clouds 7 1019 87 10000 1.5 150 00:41 20.10.2020
6533 Clouds 7 1019 93 10000 1.5 160 00:21 20.10.2020
6534 Clouds 8 1019 87 10000 2.1 170 23:47 19.10.2020
6535 Clouds 8 1019 87 10000 2.6 170 23:23 19.10.2020
6536 Clouds 8 1019 87 10000 2.1 160 22:44 19.10.2020
6537 Clouds 8 1020 93 10000 2.1 160 22:22 19.10.2020
6538 Clouds 8 1020 93 10000 0.5 0 21:45 19.10.2020
6539 Clouds 9 1020 87 10000 1 0 21:22 19.10.2020
6540 Clouds 8 1020 93 10000 1.5 180 20:48 19.10.2020
6541 Clouds 9 1020 87 10000 1.5 170 20:29 19.10.2020
6542 Clouds 10 1020 81 10000 1 0 19:51 19.10.2020
6543 Clouds 11 1020 76 10000 1 0 19:24 19.10.2020
6544 Clouds 11 1020 76 10000 1 0 19:24 19.10.2020
6545 Clouds 11 1020 76 10000 1.5 170 18:55 19.10.2020
6546 Clouds 11 1020 76 10000 1.5 170 18:37 19.10.2020
6547 Clouds 12 1020 76 10000 1 0 18:18 19.10.2020
6548 Clouds 12 1020 76 10000 1.5 190 17:44 19.10.2020
6549 Clouds 12 1021 76 10000 2.6 240 17:23 19.10.2020
6550 Clouds 12 1021 71 10000 3.1 210 16:43 19.10.2020
6551 Clouds 12 1021 81 10000 1 0 16:25 19.10.2020
6552 Clouds 12 1020 77 10000 2.11 231 15:43 19.10.2020
6553 Clouds 12 1020 77 10000 2.86 243 15:24 19.10.2020
6554 Clouds 13 1020 75 10000 2.86 243 14:51 19.10.2020
6555 Clouds 13 1020 74 10000 3.28 243 14:26 19.10.2020
6556 Clouds 13 1020 70 10000 3.28 243 13:52 19.10.2020
6557 Clouds 12 1023 83 10000 1.79 270 13:33 19.10.2020
6558 Clouds 12 1023 83 10000 1.79 270 13:33 19.10.2020
6559 Clouds 12 1023 82 10000 0.45 86 12:52 19.10.2020
6560 Clouds 12 1022 84 10000 3.63 240 12:33 19.10.2020
6561 Clouds 12 1022 81 10000 3.1 240 11:51 19.10.2020
6562 Clouds 11 1022 81 10000 3.1 240 11:26 19.10.2020
6563 Clouds 11 1022 81 10000 3.1 240 10:59 19.10.2020
6564 Clouds 10 1022 93 10000 3.1 240 10:39 19.10.2020
6565 Clouds 10 1022 93 10000 3.1 240 10:19 19.10.2020
6566 Mist 9 1021 100 4000 1.5 220 09:43 19.10.2020
6567 Mist 8 1021 93 4000 1.5 250 09:19 19.10.2020
6568 Mist 8 1021 93 4000 1.5 250 08:48 19.10.2020
6569 Clouds 8 1021 93 6000 2.1 240 08:23 19.10.2020
6570 Clouds 8 1021 93 7000 2.1 240 07:43 19.10.2020
6571 Clouds 8 1021 93 7000 2.1 260 07:19 19.10.2020
6572 Clouds 8 1021 93 10000 1.5 250 06:19 19.10.2020
6573 Clouds 9 1021 93 10000 2.6 240 03:49 19.10.2020
6574 Clouds 9 1021 93 10000 2.1 260 02:28 19.10.2020
6575 Clouds 9 1021 93 10000 2.6 240 00:50 19.10.2020
6576 Clouds 9 1021 93 10000 2.1 260 00:24 19.10.2020
6577 Clouds 9 1020 87 10000 2.6 260 23:47 18.10.2020
6578 Clouds 9 1020 87 10000 2.6 260 23:24 18.10.2020
6579 Clouds 10 1020 93 10000 3.1 260 22:51 18.10.2020
6580 Clouds 9 1020 93 10000 3.1 260 22:22 18.10.2020
6581 Clouds 9 1020 93 10000 2.6 250 21:54 18.10.2020
6582 Clouds 9 1020 87 10000 2.6 260 21:32 18.10.2020
6583 Clouds 10 1020 87 10000 2.6 250 20:59 18.10.2020
6584 Clouds 10 1020 87 10000 3.1 260 20:39 18.10.2020
6585 Clouds 10 1020 87 10000 3.1 260 20:19 18.10.2020
6586 Clouds 10 1019 87 10000 3.1 250 19:43 18.10.2020
6587 Clouds 10 1019 87 10000 3.1 250 19:22 18.10.2020
6588 Clouds 10 1019 81 10000 3.6 260 18:48 18.10.2020
6589 Clouds 11 1019 87 10000 3.6 270 18:26 18.10.2020
6590 Clouds 11 1019 87 10000 3.6 270 17:43 18.10.2020
6591 Clouds 11 1019 87 10000 3.6 270 17:25 18.10.2020
6592 Clouds 11 1019 93 4500 3.1 320 16:45 18.10.2020
6593 Clouds 11 1019 93 4500 3.1 320 16:26 18.10.2020
6594 Clouds 11 1019 93 10000 3.6 270 15:57 18.10.2020
6595 Clouds 11 1019 87 10000 5.1 280 15:39 18.10.2020
6596 Clouds 11 1019 87 10000 5.1 280 15:19 18.10.2020
6597 Clouds 11 1019 87 8000 5.1 280 14:52 18.10.2020
6598 Rain 11 1019 87 10000 5.1 270 14:28 18.10.2020
6599 Drizzle 10 1019 93 8000 5.7 270 13:56 18.10.2020
6600 Drizzle 10 1019 93 5000 4.6 260 13:37 18.10.2020
6601 Clouds 10 1019 87 3500 5.1 260 13:18 18.10.2020
6602 Clouds 10 1019 87 8000 5.1 270 12:41 18.10.2020
6603 Clouds 10 1019 81 8000 5.1 260 12:21 18.10.2020
6604 Clouds 10 1019 81 10000 5.7 250 11:41 18.10.2020
6605 Clouds 10 1019 81 10000 5.7 250 11:22 18.10.2020
6606 Clouds 9 1019 87 9000 5.1 260 10:41 18.10.2020
6607 Clouds 9 1019 87 9000 5.1 260 10:21 18.10.2020
6608 Clouds 9 1019 87 9000 5.1 260 09:51 18.10.2020
6609 Clouds 8 1019 87 10000 4.1 270 09:23 18.10.2020
6610 Clouds 8 1018 87 10000 5.7 250 08:58 18.10.2020
6611 Clouds 8 1018 87 10000 5.1 250 08:37 18.10.2020
6612 Clouds 8 1018 87 10000 5.1 250 08:19 18.10.2020
6613 Clear 7 1018 93 9000 3.6 260 07:29 18.10.2020
6614 Clear 7 1019 93 7000 2.6 260 04:51 18.10.2020
6615 Mist 7 1019 100 4500 2.6 260 02:56 18.10.2020
6616 Clouds 8 1019 93 6000 2.1 250 01:40 18.10.2020
6617 Clouds 8 1019 93 8000 2.1 270 00:50 18.10.2020
6618 Clouds 8 1019 87 10000 2.1 270 00:32 18.10.2020
6619 Clouds 9 1019 93 10000 2.1 260 23:47 17.10.2020
6620 Clouds 9 1019 87 10000 2.1 270 23:25 17.10.2020
6621 Clouds 9 1019 87 10000 2.1 270 22:59 17.10.2020
6622 Clouds 9 1020 87 10000 2.6 280 22:40 17.10.2020
6623 Clouds 9 1019 87 10000 2.1 280 22:20 17.10.2020
6624 Clouds 9 1019 87 10000 2.1 280 21:46 17.10.2020
6625 Clouds 9 1019 87 10000 1.5 260 21:27 17.10.2020
6626 Clouds 10 1019 81 10000 2.1 270 20:51 17.10.2020
6627 Clouds 10 1019 81 10000 2.1 270 20:21 17.10.2020
6628 Clouds 10 1019 81 10000 2.6 270 19:59 17.10.2020
6629 Clouds 10 1019 81 10000 2.6 280 19:40 17.10.2020
6630 Clouds 11 1019 81 10000 2.1 280 19:18 17.10.2020
6631 Clouds 11 1019 81 10000 2.1 280 18:41 17.10.2020
6632 Clouds 11 1019 81 10000 2.1 280 18:19 17.10.2020
6633 Rain 12 1019 76 10000 3.1 290 17:42 17.10.2020
6634 Rain 13 1019 71 10000 3.6 290 17:21 17.10.2020
6635 Clouds 13 1019 71 10000 3.1 300 16:48 17.10.2020
6636 Clouds 13 1019 71 10000 3.1 300 16:23 17.10.2020
6637 Clouds 13 1019 62 10000 2.6 310 15:55 17.10.2020
6638 Clouds 13 1019 71 10000 3.1 330 15:36 17.10.2020
6639 Clouds 13 1019 66 10000 2.1 270 15:18 17.10.2020
6640 Clouds 12 1019 76 10000 2.1 310 14:39 17.10.2020
6641 Clouds 13 1019 76 10000 2.1 330 14:20 17.10.2020
6642 Clouds 12 1019 76 10000 2.1 330 13:48 17.10.2020
6643 Clouds 12 1020 76 10000 2.1 0 13:30 17.10.2020
6644 Clouds 12 1020 81 10000 1.5 280 12:59 17.10.2020
6645 Clouds 12 1020 81 10000 1.5 280 12:59 17.10.2020
6646 Clouds 12 1020 81 10000 1.5 260 12:38 17.10.2020
6647 Clouds 11 1020 87 10000 1 0 12:19 17.10.2020
6648 Clouds 10 1020 87 10000 1.5 300 11:48 17.10.2020
6649 Clouds 10 1020 87 10000 1.5 300 11:26 17.10.2020
6650 Clouds 9 1020 93 9000 2.1 290 10:33 17.10.2020
6651 Clouds 9 1020 93 8000 1.5 320 09:53 17.10.2020
6652 Clouds 8 1020 100 8000 2.1 310 09:34 17.10.2020
6653 Clouds 8 1020 100 8000 2.1 310 08:59 17.10.2020
6654 Clouds 8 1019 100 8000 1.5 310 08:28 17.10.2020
6655 Clouds 8 1019 100 10000 1.5 300 07:47 17.10.2020
6656 Clouds 8 1019 100 10000 1.5 300 07:27 17.10.2020
6657 Clouds 8 1020 93 10000 2.6 320 06:18 17.10.2020
6658 Clouds 8 1020 93 10000 1.5 280 03:29 17.10.2020
6659 Clouds 8 1021 93 10000 1 0 02:26 17.10.2020
6660 Clouds 9 1021 93 10000 0.5 320 00:53 17.10.2020
6661 Clouds 9 1021 87 10000 0.5 0 23:58 16.10.2020
6662 Clouds 9 1021 87 10000 1 300 23:24 16.10.2020
6663 Clouds 9 1021 87 10000 1.5 340 22:46 16.10.2020
6664 Clouds 9 1021 87 10000 1.5 320 22:25 16.10.2020
6665 Clouds 9 1021 87 10000 1.5 310 21:57 16.10.2020
6666 Clouds 9 1021 81 10000 1.5 310 21:38 16.10.2020
6667 Clouds 8 1021 81 10000 1.5 320 21:20 16.10.2020
6668 Clouds 8 1021 81 10000 1.5 300 20:43 16.10.2020
6669 Clouds 9 1021 81 10000 1.5 300 20:24 16.10.2020
6670 Clouds 10 1021 76 10000 1.5 300 19:45 16.10.2020
6671 Clouds 10 1021 76 10000 1.5 300 19:26 16.10.2020
6672 Clouds 10 1021 76 10000 2.1 290 18:54 16.10.2020
6673 Clouds 10 1021 70 10000 2.1 320 18:33 16.10.2020
6674 Clouds 11 1021 66 10000 2.1 350 17:48 16.10.2020
6675 Clouds 11 1021 66 10000 3.6 360 17:29 16.10.2020
6676 Clouds 11 1021 66 10000 3.6 340 16:54 16.10.2020
6677 Clouds 11 1021 66 10000 3.6 10 16:36 16.10.2020
6678 Clouds 12 1021 62 10000 4.1 340 16:18 16.10.2020
6679 Clouds 12 1021 58 10000 3.6 320 15:24 16.10.2020
6680 Clouds 12 1022 66 10000 4.6 360 14:44 16.10.2020
6681 Clouds 12 1022 66 10000 4.6 360 14:20 16.10.2020
6682 Clouds 11 1022 66 10000 3.6 350 13:57 16.10.2020
6683 Clouds 12 1022 66 10000 4.1 340 13:38 16.10.2020
6684 Clouds 11 1022 66 10000 4.1 340 13:20 16.10.2020
6685 Clouds 11 1022 66 10000 3.6 10 12:47 16.10.2020
6686 Clouds 11 1022 66 10000 3.6 10 12:23 16.10.2020
6687 Clouds 10 1022 7